<?xml version="1.0" encoding="UTF-8" standalone="no" ?>
<gpx xmlns="http://www.topografix.com/GPX/1/1" xmlns:xsi="http://www.w3.org/2001/XMLSchema-instance" xsi:schemaLocation="http://www.topografix.com/GPX/1/1 http://www.topografix.com/GPX/1/1/gpx.xsd" version="1.1" creator="VisuGPX - https://www.visugpx.com">
  <metadata>
    <name>ER 2026-07-07 Lac de Montriond</name>
    <desc><![CDATA[Départ de Lac de Montriond
Points de passage : Les Albertans, Cascade d'Ardent, Les Lindarets]]></desc>
  </metadata>
  <trk>
    <name><![CDATA[Montriond Randonnée]]></name>
    <extensions>
      <line xmlns="http://www.topografix.com/GPX/gpx_style/0/2">
        <color>0000FF</color>
        <width>4</width>
      </line>
    </extensions>
    <trkseg>
      <trkpt lat="46.2088" lon="6.71934">
        <ele>1083.1999511719</ele>
        <time>2026-07-07T07:16:03.000Z</time>
      </trkpt>
      <trkpt lat="46.20883" lon="6.71934">
        <ele>1083</ele>
        <time>2026-07-07T07:16:09.000Z</time>
      </trkpt>
      <trkpt lat="46.20882" lon="6.71933">
        <ele>1083</ele>
        <time>2026-07-07T07:16:12.000Z</time>
      </trkpt>
      <trkpt lat="46.20883" lon="6.71932">
        <ele>1083</ele>
        <time>2026-07-07T07:16:23.000Z</time>
      </trkpt>
      <trkpt lat="46.20878" lon="6.7193">
        <ele>1083</ele>
        <time>2026-07-07T07:16:33.000Z</time>
      </trkpt>
      <trkpt lat="46.20875" lon="6.71931">
        <ele>1083</ele>
        <time>2026-07-07T07:16:51.000Z</time>
      </trkpt>
      <trkpt lat="46.20878" lon="6.71933">
        <ele>1083</ele>
        <time>2026-07-07T07:17:08.000Z</time>
      </trkpt>
      <trkpt lat="46.20878" lon="6.71933">
        <ele>1083.1999511719</ele>
        <time>2026-07-07T07:17:16.000Z</time>
      </trkpt>
      <trkpt lat="46.2088" lon="6.71931">
        <ele>1083.1999511719</ele>
        <time>2026-07-07T07:17:25.000Z</time>
      </trkpt>
      <trkpt lat="46.20878" lon="6.71931">
        <ele>1083</ele>
        <time>2026-07-07T07:17:35.000Z</time>
      </trkpt>
      <trkpt lat="46.20879" lon="6.71931">
        <ele>1083</ele>
        <time>2026-07-07T07:17:36.000Z</time>
      </trkpt>
      <trkpt lat="46.20878" lon="6.71934">
        <ele>1083.4000244141</ele>
        <time>2026-07-07T07:17:43.000Z</time>
      </trkpt>
      <trkpt lat="46.20879" lon="6.71934">
        <ele>1083.1999511719</ele>
        <time>2026-07-07T07:17:47.000Z</time>
      </trkpt>
      <trkpt lat="46.20881" lon="6.71936">
        <ele>1083</ele>
        <time>2026-07-07T07:17:59.000Z</time>
      </trkpt>
      <trkpt lat="46.20879" lon="6.71937">
        <ele>1082.8000488281</ele>
        <time>2026-07-07T07:18:11.000Z</time>
      </trkpt>
      <trkpt lat="46.2088" lon="6.71935">
        <ele>1083</ele>
        <time>2026-07-07T07:18:16.000Z</time>
      </trkpt>
      <trkpt lat="46.20881" lon="6.71935">
        <ele>1083</ele>
        <time>2026-07-07T07:18:20.000Z</time>
      </trkpt>
      <trkpt lat="46.20879" lon="6.71938">
        <ele>1082.8000488281</ele>
        <time>2026-07-07T07:18:28.000Z</time>
      </trkpt>
      <trkpt lat="46.20879" lon="6.71941">
        <ele>1082.8000488281</ele>
        <time>2026-07-07T07:18:31.000Z</time>
      </trkpt>
      <trkpt lat="46.20879" lon="6.71943">
        <ele>1082.5999755859</ele>
        <time>2026-07-07T07:18:34.000Z</time>
      </trkpt>
      <trkpt lat="46.20876" lon="6.71946">
        <ele>1082.4000244141</ele>
        <time>2026-07-07T07:18:41.000Z</time>
      </trkpt>
      <trkpt lat="46.20875" lon="6.71946">
        <ele>1082.4000244141</ele>
        <time>2026-07-07T07:18:45.000Z</time>
      </trkpt>
      <trkpt lat="46.20875" lon="6.7195">
        <ele>1082.4000244141</ele>
        <time>2026-07-07T07:18:50.000Z</time>
      </trkpt>
      <trkpt lat="46.2088" lon="6.71958">
        <ele>1082.5999755859</ele>
        <time>2026-07-07T07:18:57.000Z</time>
      </trkpt>
      <trkpt lat="46.20883" lon="6.71958">
        <ele>1082.5999755859</ele>
        <time>2026-07-07T07:19:04.000Z</time>
      </trkpt>
      <trkpt lat="46.20881" lon="6.71957">
        <ele>1082.5999755859</ele>
        <time>2026-07-07T07:19:16.000Z</time>
      </trkpt>
      <trkpt lat="46.20881" lon="6.71958">
        <ele>1082.5999755859</ele>
        <time>2026-07-07T07:19:27.000Z</time>
      </trkpt>
      <trkpt lat="46.20883" lon="6.71959">
        <ele>1082.5999755859</ele>
        <time>2026-07-07T07:19:35.000Z</time>
      </trkpt>
      <trkpt lat="46.20884" lon="6.7196">
        <ele>1082.5999755859</ele>
        <time>2026-07-07T07:19:41.000Z</time>
      </trkpt>
      <trkpt lat="46.20883" lon="6.71961">
        <ele>1082.4000244141</ele>
        <time>2026-07-07T07:19:45.000Z</time>
      </trkpt>
      <trkpt lat="46.20883" lon="6.71961">
        <ele>1082.4000244141</ele>
        <time>2026-07-07T07:19:46.000Z</time>
      </trkpt>
      <trkpt lat="46.20885" lon="6.7196">
        <ele>1082.4000244141</ele>
        <time>2026-07-07T07:19:53.000Z</time>
      </trkpt>
      <trkpt lat="46.20884" lon="6.71961">
        <ele>1082.4000244141</ele>
        <time>2026-07-07T07:19:56.000Z</time>
      </trkpt>
      <trkpt lat="46.20883" lon="6.71961">
        <ele>1082.5999755859</ele>
        <time>2026-07-07T07:20:03.000Z</time>
      </trkpt>
      <trkpt lat="46.20883" lon="6.71961">
        <ele>1082.5999755859</ele>
        <time>2026-07-07T07:20:06.000Z</time>
      </trkpt>
      <trkpt lat="46.20881" lon="6.71953">
        <ele>1082.4000244141</ele>
        <time>2026-07-07T07:20:15.000Z</time>
      </trkpt>
      <trkpt lat="46.20877" lon="6.71949">
        <ele>1082.4000244141</ele>
        <time>2026-07-07T07:20:23.000Z</time>
      </trkpt>
      <trkpt lat="46.20876" lon="6.71949">
        <ele>1082.1999511719</ele>
        <time>2026-07-07T07:20:28.000Z</time>
      </trkpt>
      <trkpt lat="46.20873" lon="6.71948">
        <ele>1082.4000244141</ele>
        <time>2026-07-07T07:20:34.000Z</time>
      </trkpt>
      <trkpt lat="46.2087" lon="6.7195">
        <ele>1082.8000488281</ele>
        <time>2026-07-07T07:20:46.000Z</time>
      </trkpt>
      <trkpt lat="46.20875" lon="6.71949">
        <ele>1082.4000244141</ele>
        <time>2026-07-07T07:20:56.000Z</time>
      </trkpt>
      <trkpt lat="46.20876" lon="6.71948">
        <ele>1082.4000244141</ele>
        <time>2026-07-07T07:20:59.000Z</time>
      </trkpt>
      <trkpt lat="46.20874" lon="6.71948">
        <ele>1082.1999511719</ele>
        <time>2026-07-07T07:21:07.000Z</time>
      </trkpt>
      <trkpt lat="46.20873" lon="6.71958">
        <ele>1082</ele>
        <time>2026-07-07T07:21:16.000Z</time>
      </trkpt>
      <trkpt lat="46.20873" lon="6.71962">
        <ele>1081.8000488281</ele>
        <time>2026-07-07T07:21:23.000Z</time>
      </trkpt>
      <trkpt lat="46.20867" lon="6.7197">
        <ele>1081.5999755859</ele>
        <time>2026-07-07T07:21:32.000Z</time>
      </trkpt>
      <trkpt lat="46.20863" lon="6.71975">
        <ele>1081.4000244141</ele>
        <time>2026-07-07T07:21:37.000Z</time>
      </trkpt>
      <trkpt lat="46.20862" lon="6.71977">
        <ele>1081.4000244141</ele>
        <time>2026-07-07T07:21:39.000Z</time>
      </trkpt>
      <trkpt lat="46.20861" lon="6.71979">
        <ele>1081.1999511719</ele>
        <time>2026-07-07T07:21:41.000Z</time>
      </trkpt>
      <trkpt lat="46.2086" lon="6.71983">
        <ele>1081.1999511719</ele>
        <time>2026-07-07T07:21:45.000Z</time>
      </trkpt>
      <trkpt lat="46.20859" lon="6.71991">
        <ele>1081</ele>
        <time>2026-07-07T07:21:51.000Z</time>
      </trkpt>
      <trkpt lat="46.20858" lon="6.71996">
        <ele>1080.8000488281</ele>
        <time>2026-07-07T07:21:54.000Z</time>
      </trkpt>
      <trkpt lat="46.20855" lon="6.72002">
        <ele>1080.8000488281</ele>
        <time>2026-07-07T07:21:59.000Z</time>
      </trkpt>
      <trkpt lat="46.20854" lon="6.72003">
        <ele>1080.8000488281</ele>
        <time>2026-07-07T07:22:00.000Z</time>
      </trkpt>
      <trkpt lat="46.20847" lon="6.72013">
        <ele>1080.5999755859</ele>
        <time>2026-07-07T07:22:09.000Z</time>
      </trkpt>
      <trkpt lat="46.20841" lon="6.7202">
        <ele>1080.4000244141</ele>
        <time>2026-07-07T07:22:18.000Z</time>
      </trkpt>
      <trkpt lat="46.2084" lon="6.72021">
        <ele>1080.1999511719</ele>
        <time>2026-07-07T07:22:20.000Z</time>
      </trkpt>
      <trkpt lat="46.20834" lon="6.72026">
        <ele>1080.1999511719</ele>
        <time>2026-07-07T07:22:27.000Z</time>
      </trkpt>
      <trkpt lat="46.20831" lon="6.72038">
        <ele>1080</ele>
        <time>2026-07-07T07:22:37.000Z</time>
      </trkpt>
      <trkpt lat="46.20829" lon="6.72042">
        <ele>1079.8000488281</ele>
        <time>2026-07-07T07:22:42.000Z</time>
      </trkpt>
      <trkpt lat="46.20829" lon="6.72042">
        <ele>1080</ele>
        <time>2026-07-07T07:22:47.000Z</time>
      </trkpt>
      <trkpt lat="46.20829" lon="6.72039">
        <ele>1079.8000488281</ele>
        <time>2026-07-07T07:22:50.000Z</time>
      </trkpt>
      <trkpt lat="46.20827" lon="6.72039">
        <ele>1079.8000488281</ele>
        <time>2026-07-07T07:22:57.000Z</time>
      </trkpt>
      <trkpt lat="46.20827" lon="6.72039">
        <ele>1079.5999755859</ele>
        <time>2026-07-07T07:23:06.000Z</time>
      </trkpt>
      <trkpt lat="46.20828" lon="6.72039">
        <ele>1079.4000244141</ele>
        <time>2026-07-07T07:23:07.000Z</time>
      </trkpt>
      <trkpt lat="46.20832" lon="6.72044">
        <ele>1079.4000244141</ele>
        <time>2026-07-07T07:23:14.000Z</time>
      </trkpt>
      <trkpt lat="46.20835" lon="6.72046">
        <ele>1079.1999511719</ele>
        <time>2026-07-07T07:23:20.000Z</time>
      </trkpt>
      <trkpt lat="46.20838" lon="6.7205">
        <ele>1079</ele>
        <time>2026-07-07T07:23:26.000Z</time>
      </trkpt>
      <trkpt lat="46.20837" lon="6.72054">
        <ele>1078</ele>
        <time>2026-07-07T07:23:30.000Z</time>
      </trkpt>
      <trkpt lat="46.20832" lon="6.72061">
        <ele>1077.4000244141</ele>
        <time>2026-07-07T07:23:35.000Z</time>
      </trkpt>
      <trkpt lat="46.20828" lon="6.72067">
        <ele>1077</ele>
        <time>2026-07-07T07:23:41.000Z</time>
      </trkpt>
      <trkpt lat="46.20828" lon="6.72066">
        <ele>1076.8000488281</ele>
        <time>2026-07-07T07:23:43.000Z</time>
      </trkpt>
      <trkpt lat="46.20827" lon="6.72067">
        <ele>1076.5999755859</ele>
        <time>2026-07-07T07:23:54.000Z</time>
      </trkpt>
      <trkpt lat="46.20827" lon="6.72067">
        <ele>1076.5999755859</ele>
        <time>2026-07-07T07:23:57.000Z</time>
      </trkpt>
      <trkpt lat="46.20829" lon="6.72063">
        <ele>1076.8000488281</ele>
        <time>2026-07-07T07:24:03.000Z</time>
      </trkpt>
      <trkpt lat="46.20829" lon="6.72057">
        <ele>1077</ele>
        <time>2026-07-07T07:24:10.000Z</time>
      </trkpt>
      <trkpt lat="46.20829" lon="6.72054">
        <ele>1076.8000488281</ele>
        <time>2026-07-07T07:24:12.000Z</time>
      </trkpt>
      <trkpt lat="46.20832" lon="6.72045">
        <ele>1078</ele>
        <time>2026-07-07T07:24:21.000Z</time>
      </trkpt>
      <trkpt lat="46.20832" lon="6.72043">
        <ele>1078.1999511719</ele>
        <time>2026-07-07T07:24:23.000Z</time>
      </trkpt>
      <trkpt lat="46.20832" lon="6.7204">
        <ele>1078.4000244141</ele>
        <time>2026-07-07T07:24:29.000Z</time>
      </trkpt>
      <trkpt lat="46.20832" lon="6.72039">
        <ele>1078.4000244141</ele>
        <time>2026-07-07T07:24:33.000Z</time>
      </trkpt>
      <trkpt lat="46.20833" lon="6.72037">
        <ele>1078.4000244141</ele>
        <time>2026-07-07T07:24:40.000Z</time>
      </trkpt>
      <trkpt lat="46.20833" lon="6.72032">
        <ele>1078.1999511719</ele>
        <time>2026-07-07T07:24:45.000Z</time>
      </trkpt>
      <trkpt lat="46.20831" lon="6.72038">
        <ele>1078.1999511719</ele>
        <time>2026-07-07T07:24:55.000Z</time>
      </trkpt>
      <trkpt lat="46.2083" lon="6.72041">
        <ele>1078</ele>
        <time>2026-07-07T07:25:02.000Z</time>
      </trkpt>
      <trkpt lat="46.20829" lon="6.72039">
        <ele>1078</ele>
        <time>2026-07-07T07:25:06.000Z</time>
      </trkpt>
      <trkpt lat="46.20831" lon="6.7204">
        <ele>1077.8000488281</ele>
        <time>2026-07-07T07:25:20.000Z</time>
      </trkpt>
      <trkpt lat="46.20832" lon="6.7204">
        <ele>1077.8000488281</ele>
        <time>2026-07-07T07:25:23.000Z</time>
      </trkpt>
      <trkpt lat="46.20834" lon="6.72039">
        <ele>1077.8000488281</ele>
        <time>2026-07-07T07:25:31.000Z</time>
      </trkpt>
      <trkpt lat="46.20834" lon="6.72038">
        <ele>1077.5999755859</ele>
        <time>2026-07-07T07:25:40.000Z</time>
      </trkpt>
      <trkpt lat="46.20835" lon="6.72038">
        <ele>1077.5999755859</ele>
        <time>2026-07-07T07:25:43.000Z</time>
      </trkpt>
      <trkpt lat="46.20833" lon="6.72035">
        <ele>1077.5999755859</ele>
        <time>2026-07-07T07:25:50.000Z</time>
      </trkpt>
      <trkpt lat="46.20832" lon="6.72034">
        <ele>1077.5999755859</ele>
        <time>2026-07-07T07:25:54.000Z</time>
      </trkpt>
      <trkpt lat="46.20832" lon="6.72037">
        <ele>1077.8000488281</ele>
        <time>2026-07-07T07:25:57.000Z</time>
      </trkpt>
      <trkpt lat="46.20831" lon="6.72038">
        <ele>1077.8000488281</ele>
        <time>2026-07-07T07:25:58.000Z</time>
      </trkpt>
      <trkpt lat="46.20831" lon="6.72039">
        <ele>1077.4000244141</ele>
        <time>2026-07-07T07:26:02.000Z</time>
      </trkpt>
      <trkpt lat="46.20832" lon="6.72039">
        <ele>1077.5999755859</ele>
        <time>2026-07-07T07:26:05.000Z</time>
      </trkpt>
      <trkpt lat="46.20832" lon="6.72038">
        <ele>1077.4000244141</ele>
        <time>2026-07-07T07:26:07.000Z</time>
      </trkpt>
      <trkpt lat="46.20832" lon="6.72037">
        <ele>1077.4000244141</ele>
        <time>2026-07-07T07:26:14.000Z</time>
      </trkpt>
      <trkpt lat="46.20832" lon="6.72038">
        <ele>1077.4000244141</ele>
        <time>2026-07-07T07:26:19.000Z</time>
      </trkpt>
      <trkpt lat="46.20832" lon="6.7204">
        <ele>1077.4000244141</ele>
        <time>2026-07-07T07:26:30.000Z</time>
      </trkpt>
      <trkpt lat="46.20832" lon="6.7204">
        <ele>1077.4000244141</ele>
        <time>2026-07-07T07:26:34.000Z</time>
      </trkpt>
      <trkpt lat="46.20832" lon="6.7204">
        <ele>1077.1999511719</ele>
        <time>2026-07-07T07:26:40.000Z</time>
      </trkpt>
      <trkpt lat="46.20832" lon="6.72039">
        <ele>1077</ele>
        <time>2026-07-07T07:26:52.000Z</time>
      </trkpt>
      <trkpt lat="46.20832" lon="6.72039">
        <ele>1077</ele>
        <time>2026-07-07T07:26:53.000Z</time>
      </trkpt>
      <trkpt lat="46.20833" lon="6.7204">
        <ele>1077</ele>
        <time>2026-07-07T07:26:57.000Z</time>
      </trkpt>
      <trkpt lat="46.20834" lon="6.72045">
        <ele>1077</ele>
        <time>2026-07-07T07:27:02.000Z</time>
      </trkpt>
      <trkpt lat="46.20833" lon="6.72049">
        <ele>1076.4000244141</ele>
        <time>2026-07-07T07:27:12.000Z</time>
      </trkpt>
      <trkpt lat="46.20833" lon="6.72052">
        <ele>1076</ele>
        <time>2026-07-07T07:27:16.000Z</time>
      </trkpt>
      <trkpt lat="46.20828" lon="6.72058">
        <ele>1075.1999511719</ele>
        <time>2026-07-07T07:27:23.000Z</time>
      </trkpt>
      <trkpt lat="46.20824" lon="6.72067">
        <ele>1075</ele>
        <time>2026-07-07T07:27:32.000Z</time>
      </trkpt>
      <trkpt lat="46.20823" lon="6.72068">
        <ele>1074.8000488281</ele>
        <time>2026-07-07T07:27:33.000Z</time>
      </trkpt>
      <trkpt lat="46.20822" lon="6.7208">
        <ele>1074.1999511719</ele>
        <time>2026-07-07T07:27:41.000Z</time>
      </trkpt>
      <trkpt lat="46.20821" lon="6.72085">
        <ele>1073.8000488281</ele>
        <time>2026-07-07T07:27:45.000Z</time>
      </trkpt>
      <trkpt lat="46.20821" lon="6.72089">
        <ele>1073.4000244141</ele>
        <time>2026-07-07T07:27:48.000Z</time>
      </trkpt>
      <trkpt lat="46.20821" lon="6.72092">
        <ele>1073.4000244141</ele>
        <time>2026-07-07T07:27:50.000Z</time>
      </trkpt>
      <trkpt lat="46.20823" lon="6.72105">
        <ele>1072.8000488281</ele>
        <time>2026-07-07T07:27:59.000Z</time>
      </trkpt>
      <trkpt lat="46.20823" lon="6.72109">
        <ele>1072.5999755859</ele>
        <time>2026-07-07T07:28:02.000Z</time>
      </trkpt>
      <trkpt lat="46.20823" lon="6.72113">
        <ele>1072.5999755859</ele>
        <time>2026-07-07T07:28:05.000Z</time>
      </trkpt>
      <trkpt lat="46.20824" lon="6.72125">
        <ele>1072.4000244141</ele>
        <time>2026-07-07T07:28:13.000Z</time>
      </trkpt>
      <trkpt lat="46.20825" lon="6.72134">
        <ele>1072.4000244141</ele>
        <time>2026-07-07T07:28:19.000Z</time>
      </trkpt>
      <trkpt lat="46.20826" lon="6.72139">
        <ele>1072.1999511719</ele>
        <time>2026-07-07T07:28:22.000Z</time>
      </trkpt>
      <trkpt lat="46.20825" lon="6.72152">
        <ele>1072</ele>
        <time>2026-07-07T07:28:32.000Z</time>
      </trkpt>
      <trkpt lat="46.20821" lon="6.72167">
        <ele>1072</ele>
        <time>2026-07-07T07:28:43.000Z</time>
      </trkpt>
      <trkpt lat="46.20818" lon="6.72174">
        <ele>1071.8000488281</ele>
        <time>2026-07-07T07:28:48.000Z</time>
      </trkpt>
      <trkpt lat="46.20815" lon="6.7218">
        <ele>1071.5999755859</ele>
        <time>2026-07-07T07:28:53.000Z</time>
      </trkpt>
      <trkpt lat="46.20812" lon="6.72187">
        <ele>1071.8000488281</ele>
        <time>2026-07-07T07:28:58.000Z</time>
      </trkpt>
      <trkpt lat="46.20812" lon="6.7219">
        <ele>1071.5999755859</ele>
        <time>2026-07-07T07:29:00.000Z</time>
      </trkpt>
      <trkpt lat="46.20807" lon="6.72199">
        <ele>1071.5999755859</ele>
        <time>2026-07-07T07:29:08.000Z</time>
      </trkpt>
      <trkpt lat="46.20802" lon="6.72207">
        <ele>1071.4000244141</ele>
        <time>2026-07-07T07:29:16.000Z</time>
      </trkpt>
      <trkpt lat="46.208" lon="6.72208">
        <ele>1071.4000244141</ele>
        <time>2026-07-07T07:29:20.000Z</time>
      </trkpt>
      <trkpt lat="46.208" lon="6.72209">
        <ele>1071.4000244141</ele>
        <time>2026-07-07T07:29:25.000Z</time>
      </trkpt>
      <trkpt lat="46.20801" lon="6.72209">
        <ele>1071.4000244141</ele>
        <time>2026-07-07T07:29:27.000Z</time>
      </trkpt>
      <trkpt lat="46.20798" lon="6.72214">
        <ele>1071.4000244141</ele>
        <time>2026-07-07T07:29:32.000Z</time>
      </trkpt>
      <trkpt lat="46.20796" lon="6.72216">
        <ele>1071.4000244141</ele>
        <time>2026-07-07T07:29:35.000Z</time>
      </trkpt>
      <trkpt lat="46.20793" lon="6.72219">
        <ele>1071.1999511719</ele>
        <time>2026-07-07T07:29:38.000Z</time>
      </trkpt>
      <trkpt lat="46.20791" lon="6.72221">
        <ele>1071.1999511719</ele>
        <time>2026-07-07T07:29:41.000Z</time>
      </trkpt>
      <trkpt lat="46.2079" lon="6.72222">
        <ele>1071.1999511719</ele>
        <time>2026-07-07T07:29:42.000Z</time>
      </trkpt>
      <trkpt lat="46.20781" lon="6.72226">
        <ele>1071.1999511719</ele>
        <time>2026-07-07T07:29:52.000Z</time>
      </trkpt>
      <trkpt lat="46.20774" lon="6.72231">
        <ele>1071</ele>
        <time>2026-07-07T07:30:00.000Z</time>
      </trkpt>
      <trkpt lat="46.20765" lon="6.72239">
        <ele>1071.1999511719</ele>
        <time>2026-07-07T07:30:09.000Z</time>
      </trkpt>
      <trkpt lat="46.20759" lon="6.72246">
        <ele>1071.1999511719</ele>
        <time>2026-07-07T07:30:16.000Z</time>
      </trkpt>
      <trkpt lat="46.20756" lon="6.72253">
        <ele>1071</ele>
        <time>2026-07-07T07:30:22.000Z</time>
      </trkpt>
      <trkpt lat="46.20756" lon="6.72256">
        <ele>1071</ele>
        <time>2026-07-07T07:30:26.000Z</time>
      </trkpt>
      <trkpt lat="46.20755" lon="6.7227">
        <ele>1071</ele>
        <time>2026-07-07T07:30:35.000Z</time>
      </trkpt>
      <trkpt lat="46.20757" lon="6.72288">
        <ele>1071.1999511719</ele>
        <time>2026-07-07T07:30:48.000Z</time>
      </trkpt>
      <trkpt lat="46.20763" lon="6.72303">
        <ele>1071</ele>
        <time>2026-07-07T07:30:59.000Z</time>
      </trkpt>
      <trkpt lat="46.20768" lon="6.72316">
        <ele>1071</ele>
        <time>2026-07-07T07:31:10.000Z</time>
      </trkpt>
      <trkpt lat="46.20769" lon="6.72323">
        <ele>1071</ele>
        <time>2026-07-07T07:31:16.000Z</time>
      </trkpt>
      <trkpt lat="46.20771" lon="6.72328">
        <ele>1071</ele>
        <time>2026-07-07T07:31:20.000Z</time>
      </trkpt>
      <trkpt lat="46.20773" lon="6.72335">
        <ele>1070.8000488281</ele>
        <time>2026-07-07T07:31:25.000Z</time>
      </trkpt>
      <trkpt lat="46.20776" lon="6.72342">
        <ele>1070.8000488281</ele>
        <time>2026-07-07T07:31:30.000Z</time>
      </trkpt>
      <trkpt lat="46.2078" lon="6.72359">
        <ele>1070.5999755859</ele>
        <time>2026-07-07T07:31:42.000Z</time>
      </trkpt>
      <trkpt lat="46.20781" lon="6.72377">
        <ele>1070.5999755859</ele>
        <time>2026-07-07T07:31:54.000Z</time>
      </trkpt>
      <trkpt lat="46.20781" lon="6.72392">
        <ele>1070.5999755859</ele>
        <time>2026-07-07T07:32:04.000Z</time>
      </trkpt>
      <trkpt lat="46.2078" lon="6.72405">
        <ele>1070.5999755859</ele>
        <time>2026-07-07T07:32:13.000Z</time>
      </trkpt>
      <trkpt lat="46.20778" lon="6.72425">
        <ele>1070.5999755859</ele>
        <time>2026-07-07T07:32:26.000Z</time>
      </trkpt>
      <trkpt lat="46.20775" lon="6.72435">
        <ele>1070.4000244141</ele>
        <time>2026-07-07T07:32:35.000Z</time>
      </trkpt>
      <trkpt lat="46.20773" lon="6.72445">
        <ele>1070.4000244141</ele>
        <time>2026-07-07T07:32:42.000Z</time>
      </trkpt>
      <trkpt lat="46.20772" lon="6.72456">
        <ele>1070.1999511719</ele>
        <time>2026-07-07T07:32:50.000Z</time>
      </trkpt>
      <trkpt lat="46.20773" lon="6.72459">
        <ele>1070</ele>
        <time>2026-07-07T07:32:59.000Z</time>
      </trkpt>
      <trkpt lat="46.20769" lon="6.7247">
        <ele>1070.1999511719</ele>
        <time>2026-07-07T07:33:06.000Z</time>
      </trkpt>
      <trkpt lat="46.20764" lon="6.72481">
        <ele>1070.1999511719</ele>
        <time>2026-07-07T07:33:14.000Z</time>
      </trkpt>
      <trkpt lat="46.20762" lon="6.72486">
        <ele>1070.1999511719</ele>
        <time>2026-07-07T07:33:18.000Z</time>
      </trkpt>
      <trkpt lat="46.20761" lon="6.72487">
        <ele>1070.1999511719</ele>
        <time>2026-07-07T07:33:21.000Z</time>
      </trkpt>
      <trkpt lat="46.20761" lon="6.72487">
        <ele>1070.1999511719</ele>
        <time>2026-07-07T07:33:22.000Z</time>
      </trkpt>
      <trkpt lat="46.20762" lon="6.72487">
        <ele>1070.1999511719</ele>
        <time>2026-07-07T07:33:32.000Z</time>
      </trkpt>
      <trkpt lat="46.20763" lon="6.72487">
        <ele>1070</ele>
        <time>2026-07-07T07:33:40.000Z</time>
      </trkpt>
      <trkpt lat="46.20763" lon="6.72487">
        <ele>1069.8000488281</ele>
        <time>2026-07-07T07:33:43.000Z</time>
      </trkpt>
      <trkpt lat="46.2076" lon="6.72492">
        <ele>1069.8000488281</ele>
        <time>2026-07-07T07:33:51.000Z</time>
      </trkpt>
      <trkpt lat="46.20759" lon="6.72496">
        <ele>1069.8000488281</ele>
        <time>2026-07-07T07:33:54.000Z</time>
      </trkpt>
      <trkpt lat="46.20757" lon="6.72506">
        <ele>1069.8000488281</ele>
        <time>2026-07-07T07:34:00.000Z</time>
      </trkpt>
      <trkpt lat="46.20755" lon="6.72518">
        <ele>1069.8000488281</ele>
        <time>2026-07-07T07:34:07.000Z</time>
      </trkpt>
      <trkpt lat="46.20754" lon="6.72523">
        <ele>1069.8000488281</ele>
        <time>2026-07-07T07:34:10.000Z</time>
      </trkpt>
      <trkpt lat="46.20752" lon="6.72531">
        <ele>1069.8000488281</ele>
        <time>2026-07-07T07:34:15.000Z</time>
      </trkpt>
      <trkpt lat="46.20751" lon="6.7254">
        <ele>1070.1999511719</ele>
        <time>2026-07-07T07:34:21.000Z</time>
      </trkpt>
      <trkpt lat="46.20749" lon="6.72552">
        <ele>1070</ele>
        <time>2026-07-07T07:34:28.000Z</time>
      </trkpt>
      <trkpt lat="46.20749" lon="6.72555">
        <ele>1069.8000488281</ele>
        <time>2026-07-07T07:34:30.000Z</time>
      </trkpt>
      <trkpt lat="46.20748" lon="6.7256">
        <ele>1069.8000488281</ele>
        <time>2026-07-07T07:34:33.000Z</time>
      </trkpt>
      <trkpt lat="46.20748" lon="6.72574">
        <ele>1070</ele>
        <time>2026-07-07T07:34:40.000Z</time>
      </trkpt>
      <trkpt lat="46.20749" lon="6.7259">
        <ele>1070.1999511719</ele>
        <time>2026-07-07T07:34:49.000Z</time>
      </trkpt>
      <trkpt lat="46.20749" lon="6.72601">
        <ele>1070.1999511719</ele>
        <time>2026-07-07T07:34:54.000Z</time>
      </trkpt>
      <trkpt lat="46.20749" lon="6.72607">
        <ele>1070.1999511719</ele>
        <time>2026-07-07T07:34:58.000Z</time>
      </trkpt>
      <trkpt lat="46.2075" lon="6.7262">
        <ele>1070.4000244141</ele>
        <time>2026-07-07T07:35:06.000Z</time>
      </trkpt>
      <trkpt lat="46.2075" lon="6.72625">
        <ele>1070.5999755859</ele>
        <time>2026-07-07T07:35:09.000Z</time>
      </trkpt>
      <trkpt lat="46.20752" lon="6.72636">
        <ele>1070.5999755859</ele>
        <time>2026-07-07T07:35:15.000Z</time>
      </trkpt>
      <trkpt lat="46.20754" lon="6.7265">
        <ele>1070.5999755859</ele>
        <time>2026-07-07T07:35:24.000Z</time>
      </trkpt>
      <trkpt lat="46.20757" lon="6.72664">
        <ele>1070.5999755859</ele>
        <time>2026-07-07T07:35:33.000Z</time>
      </trkpt>
      <trkpt lat="46.20758" lon="6.72679">
        <ele>1070.8000488281</ele>
        <time>2026-07-07T07:35:43.000Z</time>
      </trkpt>
      <trkpt lat="46.20758" lon="6.72681">
        <ele>1070.8000488281</ele>
        <time>2026-07-07T07:35:44.000Z</time>
      </trkpt>
      <trkpt lat="46.20759" lon="6.7269">
        <ele>1071</ele>
        <time>2026-07-07T07:35:50.000Z</time>
      </trkpt>
      <trkpt lat="46.20759" lon="6.72702">
        <ele>1071.1999511719</ele>
        <time>2026-07-07T07:35:59.000Z</time>
      </trkpt>
      <trkpt lat="46.20758" lon="6.72713">
        <ele>1070.8000488281</ele>
        <time>2026-07-07T07:36:06.000Z</time>
      </trkpt>
      <trkpt lat="46.20758" lon="6.72717">
        <ele>1070.4000244141</ele>
        <time>2026-07-07T07:36:12.000Z</time>
      </trkpt>
      <trkpt lat="46.20761" lon="6.72714">
        <ele>1070.4000244141</ele>
        <time>2026-07-07T07:36:19.000Z</time>
      </trkpt>
      <trkpt lat="46.20762" lon="6.72715">
        <ele>1070.4000244141</ele>
        <time>2026-07-07T07:36:22.000Z</time>
      </trkpt>
      <trkpt lat="46.20764" lon="6.72718">
        <ele>1070.4000244141</ele>
        <time>2026-07-07T07:36:26.000Z</time>
      </trkpt>
      <trkpt lat="46.20764" lon="6.72719">
        <ele>1070.4000244141</ele>
        <time>2026-07-07T07:36:28.000Z</time>
      </trkpt>
      <trkpt lat="46.2076" lon="6.72719">
        <ele>1070.4000244141</ele>
        <time>2026-07-07T07:36:33.000Z</time>
      </trkpt>
      <trkpt lat="46.20757" lon="6.72719">
        <ele>1070.1999511719</ele>
        <time>2026-07-07T07:36:36.000Z</time>
      </trkpt>
      <trkpt lat="46.20756" lon="6.72731">
        <ele>1070.4000244141</ele>
        <time>2026-07-07T07:36:44.000Z</time>
      </trkpt>
      <trkpt lat="46.2076" lon="6.72744">
        <ele>1070.1999511719</ele>
        <time>2026-07-07T07:36:52.000Z</time>
      </trkpt>
      <trkpt lat="46.20761" lon="6.72763">
        <ele>1070.1999511719</ele>
        <time>2026-07-07T07:37:02.000Z</time>
      </trkpt>
      <trkpt lat="46.20759" lon="6.72781">
        <ele>1070</ele>
        <time>2026-07-07T07:37:12.000Z</time>
      </trkpt>
      <trkpt lat="46.20759" lon="6.7279">
        <ele>1070</ele>
        <time>2026-07-07T07:37:17.000Z</time>
      </trkpt>
      <trkpt lat="46.2076" lon="6.72796">
        <ele>1070</ele>
        <time>2026-07-07T07:37:21.000Z</time>
      </trkpt>
      <trkpt lat="46.2076" lon="6.72799">
        <ele>1070</ele>
        <time>2026-07-07T07:37:23.000Z</time>
      </trkpt>
      <trkpt lat="46.20761" lon="6.72818">
        <ele>1070</ele>
        <time>2026-07-07T07:37:33.000Z</time>
      </trkpt>
      <trkpt lat="46.2076" lon="6.72831">
        <ele>1070</ele>
        <time>2026-07-07T07:37:41.000Z</time>
      </trkpt>
      <trkpt lat="46.2076" lon="6.72843">
        <ele>1070</ele>
        <time>2026-07-07T07:37:47.000Z</time>
      </trkpt>
      <trkpt lat="46.20759" lon="6.7285">
        <ele>1070.1999511719</ele>
        <time>2026-07-07T07:37:51.000Z</time>
      </trkpt>
      <trkpt lat="46.20759" lon="6.72867">
        <ele>1070.1999511719</ele>
        <time>2026-07-07T07:38:00.000Z</time>
      </trkpt>
      <trkpt lat="46.20763" lon="6.72882">
        <ele>1070.1999511719</ele>
        <time>2026-07-07T07:38:09.000Z</time>
      </trkpt>
      <trkpt lat="46.20764" lon="6.72899">
        <ele>1070</ele>
        <time>2026-07-07T07:38:18.000Z</time>
      </trkpt>
      <trkpt lat="46.20765" lon="6.72912">
        <ele>1070</ele>
        <time>2026-07-07T07:38:26.000Z</time>
      </trkpt>
      <trkpt lat="46.20766" lon="6.72924">
        <ele>1070</ele>
        <time>2026-07-07T07:38:33.000Z</time>
      </trkpt>
      <trkpt lat="46.20766" lon="6.72928">
        <ele>1070</ele>
        <time>2026-07-07T07:38:35.000Z</time>
      </trkpt>
      <trkpt lat="46.20767" lon="6.7294">
        <ele>1070</ele>
        <time>2026-07-07T07:38:42.000Z</time>
      </trkpt>
      <trkpt lat="46.20767" lon="6.72954">
        <ele>1070</ele>
        <time>2026-07-07T07:38:52.000Z</time>
      </trkpt>
      <trkpt lat="46.20769" lon="6.72971">
        <ele>1070</ele>
        <time>2026-07-07T07:39:02.000Z</time>
      </trkpt>
      <trkpt lat="46.20769" lon="6.72984">
        <ele>1070</ele>
        <time>2026-07-07T07:39:11.000Z</time>
      </trkpt>
      <trkpt lat="46.2077" lon="6.72992">
        <ele>1069.8000488281</ele>
        <time>2026-07-07T07:39:19.000Z</time>
      </trkpt>
      <trkpt lat="46.2077" lon="6.73001">
        <ele>1070</ele>
        <time>2026-07-07T07:39:26.000Z</time>
      </trkpt>
      <trkpt lat="46.20772" lon="6.73014">
        <ele>1069.8000488281</ele>
        <time>2026-07-07T07:39:35.000Z</time>
      </trkpt>
      <trkpt lat="46.20774" lon="6.73016">
        <ele>1069.8000488281</ele>
        <time>2026-07-07T07:39:42.000Z</time>
      </trkpt>
      <trkpt lat="46.20774" lon="6.73016">
        <ele>1069.5999755859</ele>
        <time>2026-07-07T07:39:45.000Z</time>
      </trkpt>
      <trkpt lat="46.20774" lon="6.73015">
        <ele>1069.5999755859</ele>
        <time>2026-07-07T07:39:50.000Z</time>
      </trkpt>
      <trkpt lat="46.20774" lon="6.73015">
        <ele>1069.5999755859</ele>
        <time>2026-07-07T07:39:51.000Z</time>
      </trkpt>
      <trkpt lat="46.20774" lon="6.73015">
        <ele>1069.5999755859</ele>
        <time>2026-07-07T07:39:53.000Z</time>
      </trkpt>
      <trkpt lat="46.20771" lon="6.73016">
        <ele>1069.8000488281</ele>
        <time>2026-07-07T07:40:08.000Z</time>
      </trkpt>
      <trkpt lat="46.20769" lon="6.73026">
        <ele>1069.8000488281</ele>
        <time>2026-07-07T07:40:15.000Z</time>
      </trkpt>
      <trkpt lat="46.2077" lon="6.73029">
        <ele>1069.5999755859</ele>
        <time>2026-07-07T07:40:17.000Z</time>
      </trkpt>
      <trkpt lat="46.20771" lon="6.73033">
        <ele>1069.4000244141</ele>
        <time>2026-07-07T07:40:20.000Z</time>
      </trkpt>
      <trkpt lat="46.20775" lon="6.73043">
        <ele>1069.5999755859</ele>
        <time>2026-07-07T07:40:26.000Z</time>
      </trkpt>
      <trkpt lat="46.20775" lon="6.7306">
        <ele>1069.4000244141</ele>
        <time>2026-07-07T07:40:35.000Z</time>
      </trkpt>
      <trkpt lat="46.20774" lon="6.73065">
        <ele>1069.5999755859</ele>
        <time>2026-07-07T07:40:38.000Z</time>
      </trkpt>
      <trkpt lat="46.20771" lon="6.73073">
        <ele>1069.5999755859</ele>
        <time>2026-07-07T07:40:43.000Z</time>
      </trkpt>
      <trkpt lat="46.2077" lon="6.73076">
        <ele>1069.4000244141</ele>
        <time>2026-07-07T07:40:45.000Z</time>
      </trkpt>
      <trkpt lat="46.20766" lon="6.73093">
        <ele>1069.5999755859</ele>
        <time>2026-07-07T07:40:55.000Z</time>
      </trkpt>
      <trkpt lat="46.20765" lon="6.7311">
        <ele>1069.5999755859</ele>
        <time>2026-07-07T07:41:05.000Z</time>
      </trkpt>
      <trkpt lat="46.20765" lon="6.73111">
        <ele>1069.5999755859</ele>
        <time>2026-07-07T07:41:12.000Z</time>
      </trkpt>
      <trkpt lat="46.20765" lon="6.73111">
        <ele>1069.5999755859</ele>
        <time>2026-07-07T07:41:15.000Z</time>
      </trkpt>
      <trkpt lat="46.20767" lon="6.73117">
        <ele>1069.5999755859</ele>
        <time>2026-07-07T07:41:21.000Z</time>
      </trkpt>
      <trkpt lat="46.20767" lon="6.73116">
        <ele>1069.5999755859</ele>
        <time>2026-07-07T07:41:27.000Z</time>
      </trkpt>
      <trkpt lat="46.20767" lon="6.73116">
        <ele>1069.4000244141</ele>
        <time>2026-07-07T07:41:36.000Z</time>
      </trkpt>
      <trkpt lat="46.20767" lon="6.73117">
        <ele>1069.4000244141</ele>
        <time>2026-07-07T07:41:40.000Z</time>
      </trkpt>
      <trkpt lat="46.20765" lon="6.73126">
        <ele>1069.5999755859</ele>
        <time>2026-07-07T07:41:46.000Z</time>
      </trkpt>
      <trkpt lat="46.20766" lon="6.73141">
        <ele>1069.5999755859</ele>
        <time>2026-07-07T07:41:55.000Z</time>
      </trkpt>
      <trkpt lat="46.20772" lon="6.73155">
        <ele>1069.5999755859</ele>
        <time>2026-07-07T07:42:05.000Z</time>
      </trkpt>
      <trkpt lat="46.2078" lon="6.73166">
        <ele>1069.5999755859</ele>
        <time>2026-07-07T07:42:14.000Z</time>
      </trkpt>
      <trkpt lat="46.20786" lon="6.73174">
        <ele>1069.5999755859</ele>
        <time>2026-07-07T07:42:22.000Z</time>
      </trkpt>
      <trkpt lat="46.20787" lon="6.73176">
        <ele>1069.5999755859</ele>
        <time>2026-07-07T07:42:23.000Z</time>
      </trkpt>
      <trkpt lat="46.20797" lon="6.73183">
        <ele>1069.5999755859</ele>
        <time>2026-07-07T07:42:32.000Z</time>
      </trkpt>
      <trkpt lat="46.20798" lon="6.73184">
        <ele>1069.5999755859</ele>
        <time>2026-07-07T07:42:34.000Z</time>
      </trkpt>
      <trkpt lat="46.20799" lon="6.73183">
        <ele>1069.5999755859</ele>
        <time>2026-07-07T07:42:39.000Z</time>
      </trkpt>
      <trkpt lat="46.20799" lon="6.73181">
        <ele>1069.5999755859</ele>
        <time>2026-07-07T07:42:41.000Z</time>
      </trkpt>
      <trkpt lat="46.20799" lon="6.73181">
        <ele>1069.4000244141</ele>
        <time>2026-07-07T07:42:46.000Z</time>
      </trkpt>
      <trkpt lat="46.20795" lon="6.73182">
        <ele>1069.1999511719</ele>
        <time>2026-07-07T07:42:53.000Z</time>
      </trkpt>
      <trkpt lat="46.20794" lon="6.73183">
        <ele>1069.1999511719</ele>
        <time>2026-07-07T07:42:57.000Z</time>
      </trkpt>
      <trkpt lat="46.20798" lon="6.73184">
        <ele>1069.1999511719</ele>
        <time>2026-07-07T07:43:07.000Z</time>
      </trkpt>
      <trkpt lat="46.20802" lon="6.73194">
        <ele>1069.5999755859</ele>
        <time>2026-07-07T07:43:15.000Z</time>
      </trkpt>
      <trkpt lat="46.20808" lon="6.73199">
        <ele>1069.4000244141</ele>
        <time>2026-07-07T07:43:21.000Z</time>
      </trkpt>
      <trkpt lat="46.20811" lon="6.73201">
        <ele>1069.4000244141</ele>
        <time>2026-07-07T07:43:24.000Z</time>
      </trkpt>
      <trkpt lat="46.20812" lon="6.73201">
        <ele>1069.1999511719</ele>
        <time>2026-07-07T07:43:26.000Z</time>
      </trkpt>
      <trkpt lat="46.20811" lon="6.73201">
        <ele>1069.1999511719</ele>
        <time>2026-07-07T07:43:30.000Z</time>
      </trkpt>
      <trkpt lat="46.2081" lon="6.73201">
        <ele>1069.1999511719</ele>
        <time>2026-07-07T07:43:39.000Z</time>
      </trkpt>
      <trkpt lat="46.20811" lon="6.73206">
        <ele>1069.1999511719</ele>
        <time>2026-07-07T07:43:45.000Z</time>
      </trkpt>
      <trkpt lat="46.20809" lon="6.73209">
        <ele>1069.1999511719</ele>
        <time>2026-07-07T07:43:51.000Z</time>
      </trkpt>
      <trkpt lat="46.20809" lon="6.73208">
        <ele>1069.1999511719</ele>
        <time>2026-07-07T07:43:55.000Z</time>
      </trkpt>
      <trkpt lat="46.20816" lon="6.73216">
        <ele>1069</ele>
        <time>2026-07-07T07:44:01.000Z</time>
      </trkpt>
      <trkpt lat="46.20823" lon="6.73232">
        <ele>1068.8000488281</ele>
        <time>2026-07-07T07:44:11.000Z</time>
      </trkpt>
      <trkpt lat="46.20824" lon="6.73233">
        <ele>1069</ele>
        <time>2026-07-07T07:44:12.000Z</time>
      </trkpt>
      <trkpt lat="46.2083" lon="6.73252">
        <ele>1069.8000488281</ele>
        <time>2026-07-07T07:44:22.000Z</time>
      </trkpt>
      <trkpt lat="46.20834" lon="6.73262">
        <ele>1070</ele>
        <time>2026-07-07T07:44:28.000Z</time>
      </trkpt>
      <trkpt lat="46.20835" lon="6.73265">
        <ele>1069.5999755859</ele>
        <time>2026-07-07T07:44:30.000Z</time>
      </trkpt>
      <trkpt lat="46.20838" lon="6.7328">
        <ele>1069.1999511719</ele>
        <time>2026-07-07T07:44:38.000Z</time>
      </trkpt>
      <trkpt lat="46.20843" lon="6.73298">
        <ele>1069.1999511719</ele>
        <time>2026-07-07T07:44:47.000Z</time>
      </trkpt>
      <trkpt lat="46.20846" lon="6.73317">
        <ele>1069</ele>
        <time>2026-07-07T07:44:56.000Z</time>
      </trkpt>
      <trkpt lat="46.20847" lon="6.73336">
        <ele>1069</ele>
        <time>2026-07-07T07:45:06.000Z</time>
      </trkpt>
      <trkpt lat="46.20849" lon="6.73355">
        <ele>1069</ele>
        <time>2026-07-07T07:45:17.000Z</time>
      </trkpt>
      <trkpt lat="46.20847" lon="6.73372">
        <ele>1068.8000488281</ele>
        <time>2026-07-07T07:45:27.000Z</time>
      </trkpt>
      <trkpt lat="46.20843" lon="6.73381">
        <ele>1068.8000488281</ele>
        <time>2026-07-07T07:45:33.000Z</time>
      </trkpt>
      <trkpt lat="46.20843" lon="6.73385">
        <ele>1068.8000488281</ele>
        <time>2026-07-07T07:45:36.000Z</time>
      </trkpt>
      <trkpt lat="46.20838" lon="6.73401">
        <ele>1068.8000488281</ele>
        <time>2026-07-07T07:45:46.000Z</time>
      </trkpt>
      <trkpt lat="46.20834" lon="6.73414">
        <ele>1068.5999755859</ele>
        <time>2026-07-07T07:45:55.000Z</time>
      </trkpt>
      <trkpt lat="46.20834" lon="6.7343">
        <ele>1068.4000244141</ele>
        <time>2026-07-07T07:46:04.000Z</time>
      </trkpt>
      <trkpt lat="46.20832" lon="6.73447">
        <ele>1068.5999755859</ele>
        <time>2026-07-07T07:46:14.000Z</time>
      </trkpt>
      <trkpt lat="46.20832" lon="6.73463">
        <ele>1068.4000244141</ele>
        <time>2026-07-07T07:46:23.000Z</time>
      </trkpt>
      <trkpt lat="46.20836" lon="6.73482">
        <ele>1068.1999511719</ele>
        <time>2026-07-07T07:46:35.000Z</time>
      </trkpt>
      <trkpt lat="46.20839" lon="6.73495">
        <ele>1068.4000244141</ele>
        <time>2026-07-07T07:46:43.000Z</time>
      </trkpt>
      <trkpt lat="46.20841" lon="6.73508">
        <ele>1068.1999511719</ele>
        <time>2026-07-07T07:46:51.000Z</time>
      </trkpt>
      <trkpt lat="46.20847" lon="6.73529">
        <ele>1068.4000244141</ele>
        <time>2026-07-07T07:47:04.000Z</time>
      </trkpt>
      <trkpt lat="46.20853" lon="6.73544">
        <ele>1068.4000244141</ele>
        <time>2026-07-07T07:47:14.000Z</time>
      </trkpt>
      <trkpt lat="46.2086" lon="6.73554">
        <ele>1068.5999755859</ele>
        <time>2026-07-07T07:47:22.000Z</time>
      </trkpt>
      <trkpt lat="46.20869" lon="6.73569">
        <ele>1068.4000244141</ele>
        <time>2026-07-07T07:47:32.000Z</time>
      </trkpt>
      <trkpt lat="46.2087" lon="6.73573">
        <ele>1068.5999755859</ele>
        <time>2026-07-07T07:47:35.000Z</time>
      </trkpt>
      <trkpt lat="46.20874" lon="6.73585">
        <ele>1068.4000244141</ele>
        <time>2026-07-07T07:47:43.000Z</time>
      </trkpt>
      <trkpt lat="46.20877" lon="6.73593">
        <ele>1068.5999755859</ele>
        <time>2026-07-07T07:47:49.000Z</time>
      </trkpt>
      <trkpt lat="46.2088" lon="6.73599">
        <ele>1068.5999755859</ele>
        <time>2026-07-07T07:47:54.000Z</time>
      </trkpt>
      <trkpt lat="46.20885" lon="6.73612">
        <ele>1068.5999755859</ele>
        <time>2026-07-07T07:48:04.000Z</time>
      </trkpt>
      <trkpt lat="46.20897" lon="6.73622">
        <ele>1068.8000488281</ele>
        <time>2026-07-07T07:48:16.000Z</time>
      </trkpt>
      <trkpt lat="46.20913" lon="6.73633">
        <ele>1068.5999755859</ele>
        <time>2026-07-07T07:48:28.000Z</time>
      </trkpt>
      <trkpt lat="46.20923" lon="6.73639">
        <ele>1069</ele>
        <time>2026-07-07T07:48:38.000Z</time>
      </trkpt>
      <trkpt lat="46.2093" lon="6.73642">
        <ele>1068.8000488281</ele>
        <time>2026-07-07T07:48:46.000Z</time>
      </trkpt>
      <trkpt lat="46.20931" lon="6.73642">
        <ele>1068.8000488281</ele>
        <time>2026-07-07T07:48:57.000Z</time>
      </trkpt>
      <trkpt lat="46.2093" lon="6.73642">
        <ele>1068.8000488281</ele>
        <time>2026-07-07T07:49:07.000Z</time>
      </trkpt>
      <trkpt lat="46.2093" lon="6.73643">
        <ele>1068.8000488281</ele>
        <time>2026-07-07T07:49:08.000Z</time>
      </trkpt>
      <trkpt lat="46.20934" lon="6.73652">
        <ele>1069.1999511719</ele>
        <time>2026-07-07T07:49:14.000Z</time>
      </trkpt>
      <trkpt lat="46.20944" lon="6.73668">
        <ele>1069.8000488281</ele>
        <time>2026-07-07T07:49:26.000Z</time>
      </trkpt>
      <trkpt lat="46.20945" lon="6.7367">
        <ele>1069.8000488281</ele>
        <time>2026-07-07T07:49:27.000Z</time>
      </trkpt>
      <trkpt lat="46.20949" lon="6.73678">
        <ele>1070.5999755859</ele>
        <time>2026-07-07T07:49:34.000Z</time>
      </trkpt>
      <trkpt lat="46.2095" lon="6.73679">
        <ele>1070.8000488281</ele>
        <time>2026-07-07T07:49:35.000Z</time>
      </trkpt>
      <trkpt lat="46.2095" lon="6.7368">
        <ele>1071</ele>
        <time>2026-07-07T07:49:36.000Z</time>
      </trkpt>
      <trkpt lat="46.20951" lon="6.73682">
        <ele>1071</ele>
        <time>2026-07-07T07:49:37.000Z</time>
      </trkpt>
      <trkpt lat="46.20953" lon="6.73687">
        <ele>1071.5999755859</ele>
        <time>2026-07-07T07:49:43.000Z</time>
      </trkpt>
      <trkpt lat="46.20956" lon="6.73691">
        <ele>1072</ele>
        <time>2026-07-07T07:49:46.000Z</time>
      </trkpt>
      <trkpt lat="46.20958" lon="6.737">
        <ele>1072.8000488281</ele>
        <time>2026-07-07T07:49:54.000Z</time>
      </trkpt>
      <trkpt lat="46.20958" lon="6.73704">
        <ele>1073</ele>
        <time>2026-07-07T07:49:58.000Z</time>
      </trkpt>
      <trkpt lat="46.20958" lon="6.73709">
        <ele>1072.8000488281</ele>
        <time>2026-07-07T07:50:03.000Z</time>
      </trkpt>
      <trkpt lat="46.20958" lon="6.73709">
        <ele>1073.1999511719</ele>
        <time>2026-07-07T07:50:10.000Z</time>
      </trkpt>
      <trkpt lat="46.20957" lon="6.7371">
        <ele>1073.5999755859</ele>
        <time>2026-07-07T07:50:13.000Z</time>
      </trkpt>
      <trkpt lat="46.20956" lon="6.73715">
        <ele>1074</ele>
        <time>2026-07-07T07:50:19.000Z</time>
      </trkpt>
      <trkpt lat="46.20955" lon="6.73719">
        <ele>1074.8000488281</ele>
        <time>2026-07-07T07:50:24.000Z</time>
      </trkpt>
      <trkpt lat="46.20954" lon="6.73721">
        <ele>1075</ele>
        <time>2026-07-07T07:50:27.000Z</time>
      </trkpt>
      <trkpt lat="46.20952" lon="6.73722">
        <ele>1076</ele>
        <time>2026-07-07T07:50:33.000Z</time>
      </trkpt>
      <trkpt lat="46.20952" lon="6.73721">
        <ele>1076.1999511719</ele>
        <time>2026-07-07T07:50:34.000Z</time>
      </trkpt>
      <trkpt lat="46.20946" lon="6.73722">
        <ele>1077.1999511719</ele>
        <time>2026-07-07T07:50:43.000Z</time>
      </trkpt>
      <trkpt lat="46.20946" lon="6.73722">
        <ele>1077.4000244141</ele>
        <time>2026-07-07T07:50:44.000Z</time>
      </trkpt>
      <trkpt lat="46.20939" lon="6.73718">
        <ele>1077.8000488281</ele>
        <time>2026-07-07T07:50:54.000Z</time>
      </trkpt>
      <trkpt lat="46.20937" lon="6.73719">
        <ele>1078</ele>
        <time>2026-07-07T07:51:00.000Z</time>
      </trkpt>
      <trkpt lat="46.20935" lon="6.7372">
        <ele>1078.4000244141</ele>
        <time>2026-07-07T07:51:02.000Z</time>
      </trkpt>
      <trkpt lat="46.20928" lon="6.73722">
        <ele>1079.5999755859</ele>
        <time>2026-07-07T07:51:11.000Z</time>
      </trkpt>
      <trkpt lat="46.20927" lon="6.73723">
        <ele>1079.5999755859</ele>
        <time>2026-07-07T07:51:12.000Z</time>
      </trkpt>
      <trkpt lat="46.20921" lon="6.73723">
        <ele>1080.4000244141</ele>
        <time>2026-07-07T07:51:21.000Z</time>
      </trkpt>
      <trkpt lat="46.2092" lon="6.73723">
        <ele>1080.5999755859</ele>
        <time>2026-07-07T07:51:22.000Z</time>
      </trkpt>
      <trkpt lat="46.20918" lon="6.73722">
        <ele>1080.8000488281</ele>
        <time>2026-07-07T07:51:34.000Z</time>
      </trkpt>
      <trkpt lat="46.20916" lon="6.73721">
        <ele>1081.4000244141</ele>
        <time>2026-07-07T07:51:44.000Z</time>
      </trkpt>
      <trkpt lat="46.20916" lon="6.73721">
        <ele>1081.5999755859</ele>
        <time>2026-07-07T07:51:48.000Z</time>
      </trkpt>
      <trkpt lat="46.20914" lon="6.73721">
        <ele>1082.1999511719</ele>
        <time>2026-07-07T07:51:54.000Z</time>
      </trkpt>
      <trkpt lat="46.20914" lon="6.73722">
        <ele>1082.5999755859</ele>
        <time>2026-07-07T07:51:58.000Z</time>
      </trkpt>
      <trkpt lat="46.2091" lon="6.73723">
        <ele>1083.8000488281</ele>
        <time>2026-07-07T07:52:04.000Z</time>
      </trkpt>
      <trkpt lat="46.20909" lon="6.73723">
        <ele>1084</ele>
        <time>2026-07-07T07:52:05.000Z</time>
      </trkpt>
      <trkpt lat="46.20905" lon="6.73724">
        <ele>1084.8000488281</ele>
        <time>2026-07-07T07:52:10.000Z</time>
      </trkpt>
      <trkpt lat="46.20903" lon="6.73725">
        <ele>1085.4000244141</ele>
        <time>2026-07-07T07:52:14.000Z</time>
      </trkpt>
      <trkpt lat="46.20901" lon="6.73726">
        <ele>1086</ele>
        <time>2026-07-07T07:52:17.000Z</time>
      </trkpt>
      <trkpt lat="46.20898" lon="6.73727">
        <ele>1086.5999755859</ele>
        <time>2026-07-07T07:52:22.000Z</time>
      </trkpt>
      <trkpt lat="46.20897" lon="6.73729">
        <ele>1086.5999755859</ele>
        <time>2026-07-07T07:52:25.000Z</time>
      </trkpt>
      <trkpt lat="46.20898" lon="6.73729">
        <ele>1087</ele>
        <time>2026-07-07T07:52:30.000Z</time>
      </trkpt>
      <trkpt lat="46.20899" lon="6.73728">
        <ele>1087.5999755859</ele>
        <time>2026-07-07T07:52:35.000Z</time>
      </trkpt>
      <trkpt lat="46.20896" lon="6.73729">
        <ele>1088</ele>
        <time>2026-07-07T07:52:41.000Z</time>
      </trkpt>
      <trkpt lat="46.20894" lon="6.7373">
        <ele>1088.4000244141</ele>
        <time>2026-07-07T07:52:44.000Z</time>
      </trkpt>
      <trkpt lat="46.20893" lon="6.73731">
        <ele>1089</ele>
        <time>2026-07-07T07:52:51.000Z</time>
      </trkpt>
      <trkpt lat="46.20892" lon="6.73732">
        <ele>1089.4000244141</ele>
        <time>2026-07-07T07:52:53.000Z</time>
      </trkpt>
      <trkpt lat="46.20888" lon="6.73732">
        <ele>1090.1999511719</ele>
        <time>2026-07-07T07:52:59.000Z</time>
      </trkpt>
      <trkpt lat="46.20885" lon="6.73731">
        <ele>1091</ele>
        <time>2026-07-07T07:53:05.000Z</time>
      </trkpt>
      <trkpt lat="46.20883" lon="6.7373">
        <ele>1091.1999511719</ele>
        <time>2026-07-07T07:53:09.000Z</time>
      </trkpt>
      <trkpt lat="46.20883" lon="6.7373">
        <ele>1091.4000244141</ele>
        <time>2026-07-07T07:53:14.000Z</time>
      </trkpt>
      <trkpt lat="46.20882" lon="6.73731">
        <ele>1091.5999755859</ele>
        <time>2026-07-07T07:53:19.000Z</time>
      </trkpt>
      <trkpt lat="46.20882" lon="6.73731">
        <ele>1091.5999755859</ele>
        <time>2026-07-07T07:53:21.000Z</time>
      </trkpt>
      <trkpt lat="46.20882" lon="6.73731">
        <ele>1091.8000488281</ele>
        <time>2026-07-07T07:53:23.000Z</time>
      </trkpt>
      <trkpt lat="46.20882" lon="6.73731">
        <ele>1091.8000488281</ele>
        <time>2026-07-07T07:53:24.000Z</time>
      </trkpt>
      <trkpt lat="46.20879" lon="6.73732">
        <ele>1092.1999511719</ele>
        <time>2026-07-07T07:53:29.000Z</time>
      </trkpt>
      <trkpt lat="46.2088" lon="6.73731">
        <ele>1092.8000488281</ele>
        <time>2026-07-07T07:53:32.000Z</time>
      </trkpt>
      <trkpt lat="46.20879" lon="6.7373">
        <ele>1093.1999511719</ele>
        <time>2026-07-07T07:53:40.000Z</time>
      </trkpt>
      <trkpt lat="46.20879" lon="6.7373">
        <ele>1093.1999511719</ele>
        <time>2026-07-07T07:53:41.000Z</time>
      </trkpt>
      <trkpt lat="46.20879" lon="6.7373">
        <ele>1093.4000244141</ele>
        <time>2026-07-07T07:53:42.000Z</time>
      </trkpt>
      <trkpt lat="46.20878" lon="6.73734">
        <ele>1094.5999755859</ele>
        <time>2026-07-07T07:53:50.000Z</time>
      </trkpt>
      <trkpt lat="46.20873" lon="6.73735">
        <ele>1095.5999755859</ele>
        <time>2026-07-07T07:53:55.000Z</time>
      </trkpt>
      <trkpt lat="46.20868" lon="6.73734">
        <ele>1096.1999511719</ele>
        <time>2026-07-07T07:53:59.000Z</time>
      </trkpt>
      <trkpt lat="46.20866" lon="6.73733">
        <ele>1096.1999511719</ele>
        <time>2026-07-07T07:54:02.000Z</time>
      </trkpt>
      <trkpt lat="46.20865" lon="6.73733">
        <ele>1096.4000244141</ele>
        <time>2026-07-07T07:54:04.000Z</time>
      </trkpt>
      <trkpt lat="46.20864" lon="6.73734">
        <ele>1096.4000244141</ele>
        <time>2026-07-07T07:54:05.000Z</time>
      </trkpt>
      <trkpt lat="46.20864" lon="6.73734">
        <ele>1096.8000488281</ele>
        <time>2026-07-07T07:54:06.000Z</time>
      </trkpt>
      <trkpt lat="46.20864" lon="6.73735">
        <ele>1097.1999511719</ele>
        <time>2026-07-07T07:54:08.000Z</time>
      </trkpt>
      <trkpt lat="46.20866" lon="6.73738">
        <ele>1097.8000488281</ele>
        <time>2026-07-07T07:54:13.000Z</time>
      </trkpt>
      <trkpt lat="46.20866" lon="6.73741">
        <ele>1098.1999511719</ele>
        <time>2026-07-07T07:54:16.000Z</time>
      </trkpt>
      <trkpt lat="46.20865" lon="6.73742">
        <ele>1098.8000488281</ele>
        <time>2026-07-07T07:54:19.000Z</time>
      </trkpt>
      <trkpt lat="46.20863" lon="6.73745">
        <ele>1100</ele>
        <time>2026-07-07T07:54:25.000Z</time>
      </trkpt>
      <trkpt lat="46.20863" lon="6.73747">
        <ele>1100</ele>
        <time>2026-07-07T07:54:26.000Z</time>
      </trkpt>
      <trkpt lat="46.20861" lon="6.73752">
        <ele>1100.8000488281</ele>
        <time>2026-07-07T07:54:37.000Z</time>
      </trkpt>
      <trkpt lat="46.20861" lon="6.73752">
        <ele>1101</ele>
        <time>2026-07-07T07:54:38.000Z</time>
      </trkpt>
      <trkpt lat="46.20863" lon="6.73758">
        <ele>1102</ele>
        <time>2026-07-07T07:54:47.000Z</time>
      </trkpt>
      <trkpt lat="46.20863" lon="6.7376">
        <ele>1102.4000244141</ele>
        <time>2026-07-07T07:54:49.000Z</time>
      </trkpt>
      <trkpt lat="46.20865" lon="6.73765">
        <ele>1103</ele>
        <time>2026-07-07T07:54:54.000Z</time>
      </trkpt>
      <trkpt lat="46.20866" lon="6.73769">
        <ele>1103.5999755859</ele>
        <time>2026-07-07T07:54:58.000Z</time>
      </trkpt>
      <trkpt lat="46.2087" lon="6.73772">
        <ele>1104.1999511719</ele>
        <time>2026-07-07T07:55:03.000Z</time>
      </trkpt>
      <trkpt lat="46.20871" lon="6.73776">
        <ele>1104.1999511719</ele>
        <time>2026-07-07T07:55:09.000Z</time>
      </trkpt>
      <trkpt lat="46.20873" lon="6.73787">
        <ele>1104.8000488281</ele>
        <time>2026-07-07T07:55:19.000Z</time>
      </trkpt>
      <trkpt lat="46.20877" lon="6.73796">
        <ele>1105</ele>
        <time>2026-07-07T07:55:27.000Z</time>
      </trkpt>
      <trkpt lat="46.20878" lon="6.73797">
        <ele>1105.1999511719</ele>
        <time>2026-07-07T07:55:29.000Z</time>
      </trkpt>
      <trkpt lat="46.20878" lon="6.73802">
        <ele>1105.5999755859</ele>
        <time>2026-07-07T07:55:37.000Z</time>
      </trkpt>
      <trkpt lat="46.20877" lon="6.73805">
        <ele>1105.5999755859</ele>
        <time>2026-07-07T07:55:39.000Z</time>
      </trkpt>
      <trkpt lat="46.20878" lon="6.73813">
        <ele>1105</ele>
        <time>2026-07-07T07:55:50.000Z</time>
      </trkpt>
      <trkpt lat="46.20881" lon="6.7382">
        <ele>1104.1999511719</ele>
        <time>2026-07-07T07:56:00.000Z</time>
      </trkpt>
      <trkpt lat="46.20881" lon="6.73821">
        <ele>1104</ele>
        <time>2026-07-07T07:56:01.000Z</time>
      </trkpt>
      <trkpt lat="46.20882" lon="6.73827">
        <ele>1103.5999755859</ele>
        <time>2026-07-07T07:56:08.000Z</time>
      </trkpt>
      <trkpt lat="46.20883" lon="6.73828">
        <ele>1103.4000244141</ele>
        <time>2026-07-07T07:56:09.000Z</time>
      </trkpt>
      <trkpt lat="46.20883" lon="6.73829">
        <ele>1103.4000244141</ele>
        <time>2026-07-07T07:56:10.000Z</time>
      </trkpt>
      <trkpt lat="46.20885" lon="6.73831">
        <ele>1103.1999511719</ele>
        <time>2026-07-07T07:56:12.000Z</time>
      </trkpt>
      <trkpt lat="46.20885" lon="6.73832">
        <ele>1103</ele>
        <time>2026-07-07T07:56:13.000Z</time>
      </trkpt>
      <trkpt lat="46.20884" lon="6.73834">
        <ele>1102.5999755859</ele>
        <time>2026-07-07T07:56:18.000Z</time>
      </trkpt>
      <trkpt lat="46.20882" lon="6.73837">
        <ele>1102.4000244141</ele>
        <time>2026-07-07T07:56:26.000Z</time>
      </trkpt>
      <trkpt lat="46.20882" lon="6.73839">
        <ele>1102.1999511719</ele>
        <time>2026-07-07T07:56:30.000Z</time>
      </trkpt>
      <trkpt lat="46.20882" lon="6.73839">
        <ele>1102</ele>
        <time>2026-07-07T07:56:35.000Z</time>
      </trkpt>
      <trkpt lat="46.20881" lon="6.73839">
        <ele>1101.5999755859</ele>
        <time>2026-07-07T07:56:40.000Z</time>
      </trkpt>
      <trkpt lat="46.20883" lon="6.73841">
        <ele>1100.8000488281</ele>
        <time>2026-07-07T07:56:47.000Z</time>
      </trkpt>
      <trkpt lat="46.20885" lon="6.73846">
        <ele>1100.4000244141</ele>
        <time>2026-07-07T07:56:51.000Z</time>
      </trkpt>
      <trkpt lat="46.20889" lon="6.73856">
        <ele>1100.1999511719</ele>
        <time>2026-07-07T07:56:59.000Z</time>
      </trkpt>
      <trkpt lat="46.2089" lon="6.73858">
        <ele>1099.8000488281</ele>
        <time>2026-07-07T07:57:01.000Z</time>
      </trkpt>
      <trkpt lat="46.2089" lon="6.73869">
        <ele>1099.8000488281</ele>
        <time>2026-07-07T07:57:08.000Z</time>
      </trkpt>
      <trkpt lat="46.20894" lon="6.73878">
        <ele>1099.8000488281</ele>
        <time>2026-07-07T07:57:16.000Z</time>
      </trkpt>
      <trkpt lat="46.20898" lon="6.73886">
        <ele>1099.8000488281</ele>
        <time>2026-07-07T07:57:24.000Z</time>
      </trkpt>
      <trkpt lat="46.20897" lon="6.73887">
        <ele>1100.1999511719</ele>
        <time>2026-07-07T07:57:26.000Z</time>
      </trkpt>
      <trkpt lat="46.20897" lon="6.73888">
        <ele>1100.4000244141</ele>
        <time>2026-07-07T07:57:28.000Z</time>
      </trkpt>
      <trkpt lat="46.20896" lon="6.73895">
        <ele>1100.1999511719</ele>
        <time>2026-07-07T07:57:35.000Z</time>
      </trkpt>
      <trkpt lat="46.20896" lon="6.73898">
        <ele>1100.5999755859</ele>
        <time>2026-07-07T07:57:38.000Z</time>
      </trkpt>
      <trkpt lat="46.20897" lon="6.739">
        <ele>1101</ele>
        <time>2026-07-07T07:57:40.000Z</time>
      </trkpt>
      <trkpt lat="46.20898" lon="6.73904">
        <ele>1101</ele>
        <time>2026-07-07T07:57:44.000Z</time>
      </trkpt>
      <trkpt lat="46.209" lon="6.73914">
        <ele>1102</ele>
        <time>2026-07-07T07:57:52.000Z</time>
      </trkpt>
      <trkpt lat="46.20901" lon="6.73916">
        <ele>1102.1999511719</ele>
        <time>2026-07-07T07:57:54.000Z</time>
      </trkpt>
      <trkpt lat="46.20904" lon="6.73924">
        <ele>1101.8000488281</ele>
        <time>2026-07-07T07:58:03.000Z</time>
      </trkpt>
      <trkpt lat="46.20905" lon="6.73928">
        <ele>1101.5999755859</ele>
        <time>2026-07-07T07:58:14.000Z</time>
      </trkpt>
      <trkpt lat="46.20907" lon="6.73936">
        <ele>1101.8000488281</ele>
        <time>2026-07-07T07:58:25.000Z</time>
      </trkpt>
      <trkpt lat="46.20909" lon="6.73945">
        <ele>1102</ele>
        <time>2026-07-07T07:58:34.000Z</time>
      </trkpt>
      <trkpt lat="46.20912" lon="6.73954">
        <ele>1102.5999755859</ele>
        <time>2026-07-07T07:58:44.000Z</time>
      </trkpt>
      <trkpt lat="46.20912" lon="6.7396">
        <ele>1103</ele>
        <time>2026-07-07T07:58:52.000Z</time>
      </trkpt>
      <trkpt lat="46.20912" lon="6.73961">
        <ele>1103.1999511719</ele>
        <time>2026-07-07T07:58:53.000Z</time>
      </trkpt>
      <trkpt lat="46.2092" lon="6.73962">
        <ele>1103.4000244141</ele>
        <time>2026-07-07T07:59:02.000Z</time>
      </trkpt>
      <trkpt lat="46.2092" lon="6.73964">
        <ele>1103.1999511719</ele>
        <time>2026-07-07T07:59:09.000Z</time>
      </trkpt>
      <trkpt lat="46.20915" lon="6.73963">
        <ele>1103.1999511719</ele>
        <time>2026-07-07T07:59:20.000Z</time>
      </trkpt>
      <trkpt lat="46.20916" lon="6.73968">
        <ele>1103.1999511719</ele>
        <time>2026-07-07T07:59:30.000Z</time>
      </trkpt>
      <trkpt lat="46.20917" lon="6.7397">
        <ele>1103</ele>
        <time>2026-07-07T07:59:37.000Z</time>
      </trkpt>
      <trkpt lat="46.20916" lon="6.73971">
        <ele>1103</ele>
        <time>2026-07-07T07:59:40.000Z</time>
      </trkpt>
      <trkpt lat="46.20915" lon="6.73975">
        <ele>1103.1999511719</ele>
        <time>2026-07-07T07:59:50.000Z</time>
      </trkpt>
      <trkpt lat="46.20916" lon="6.73976">
        <ele>1103</ele>
        <time>2026-07-07T07:59:53.000Z</time>
      </trkpt>
      <trkpt lat="46.20918" lon="6.73983">
        <ele>1103.1999511719</ele>
        <time>2026-07-07T07:59:58.000Z</time>
      </trkpt>
      <trkpt lat="46.20924" lon="6.73995">
        <ele>1103.4000244141</ele>
        <time>2026-07-07T08:00:08.000Z</time>
      </trkpt>
      <trkpt lat="46.20926" lon="6.74006">
        <ele>1103.8000488281</ele>
        <time>2026-07-07T08:00:16.000Z</time>
      </trkpt>
      <trkpt lat="46.20926" lon="6.74008">
        <ele>1104</ele>
        <time>2026-07-07T08:00:19.000Z</time>
      </trkpt>
      <trkpt lat="46.20926" lon="6.7401">
        <ele>1104.1999511719</ele>
        <time>2026-07-07T08:00:22.000Z</time>
      </trkpt>
      <trkpt lat="46.20927" lon="6.74012">
        <ele>1104</ele>
        <time>2026-07-07T08:00:25.000Z</time>
      </trkpt>
      <trkpt lat="46.20927" lon="6.74019">
        <ele>1104</ele>
        <time>2026-07-07T08:00:36.000Z</time>
      </trkpt>
      <trkpt lat="46.20929" lon="6.74021">
        <ele>1103.8000488281</ele>
        <time>2026-07-07T08:00:43.000Z</time>
      </trkpt>
      <trkpt lat="46.20929" lon="6.74022">
        <ele>1103.8000488281</ele>
        <time>2026-07-07T08:00:46.000Z</time>
      </trkpt>
      <trkpt lat="46.20926" lon="6.74024">
        <ele>1103.4000244141</ele>
        <time>2026-07-07T08:00:57.000Z</time>
      </trkpt>
      <trkpt lat="46.20927" lon="6.74025">
        <ele>1103.4000244141</ele>
        <time>2026-07-07T08:01:06.000Z</time>
      </trkpt>
      <trkpt lat="46.20929" lon="6.74028">
        <ele>1103.1999511719</ele>
        <time>2026-07-07T08:01:13.000Z</time>
      </trkpt>
      <trkpt lat="46.20931" lon="6.74032">
        <ele>1103</ele>
        <time>2026-07-07T08:01:18.000Z</time>
      </trkpt>
      <trkpt lat="46.20934" lon="6.74036">
        <ele>1102.5999755859</ele>
        <time>2026-07-07T08:01:23.000Z</time>
      </trkpt>
      <trkpt lat="46.20935" lon="6.74049">
        <ele>1103.1999511719</ele>
        <time>2026-07-07T08:01:32.000Z</time>
      </trkpt>
      <trkpt lat="46.20943" lon="6.74064">
        <ele>1104</ele>
        <time>2026-07-07T08:01:42.000Z</time>
      </trkpt>
      <trkpt lat="46.20944" lon="6.74069">
        <ele>1104</ele>
        <time>2026-07-07T08:01:45.000Z</time>
      </trkpt>
      <trkpt lat="46.20945" lon="6.74078">
        <ele>1104.4000244141</ele>
        <time>2026-07-07T08:01:52.000Z</time>
      </trkpt>
      <trkpt lat="46.20945" lon="6.74082">
        <ele>1105</ele>
        <time>2026-07-07T08:01:56.000Z</time>
      </trkpt>
      <trkpt lat="46.20944" lon="6.74089">
        <ele>1106.1999511719</ele>
        <time>2026-07-07T08:02:02.000Z</time>
      </trkpt>
      <trkpt lat="46.20944" lon="6.74095">
        <ele>1106.8000488281</ele>
        <time>2026-07-07T08:02:07.000Z</time>
      </trkpt>
      <trkpt lat="46.20945" lon="6.74099">
        <ele>1107</ele>
        <time>2026-07-07T08:02:10.000Z</time>
      </trkpt>
      <trkpt lat="46.20946" lon="6.74101">
        <ele>1107.1999511719</ele>
        <time>2026-07-07T08:02:12.000Z</time>
      </trkpt>
      <trkpt lat="46.20951" lon="6.7411">
        <ele>1107.4000244141</ele>
        <time>2026-07-07T08:02:19.000Z</time>
      </trkpt>
      <trkpt lat="46.20952" lon="6.74115">
        <ele>1107.8000488281</ele>
        <time>2026-07-07T08:02:23.000Z</time>
      </trkpt>
      <trkpt lat="46.20954" lon="6.74119">
        <ele>1108.1999511719</ele>
        <time>2026-07-07T08:02:26.000Z</time>
      </trkpt>
      <trkpt lat="46.20955" lon="6.74123">
        <ele>1108.4000244141</ele>
        <time>2026-07-07T08:02:29.000Z</time>
      </trkpt>
      <trkpt lat="46.20957" lon="6.74132">
        <ele>1109.1999511719</ele>
        <time>2026-07-07T08:02:36.000Z</time>
      </trkpt>
      <trkpt lat="46.20958" lon="6.74135">
        <ele>1109.5999755859</ele>
        <time>2026-07-07T08:02:39.000Z</time>
      </trkpt>
      <trkpt lat="46.2096" lon="6.74144">
        <ele>1110.4000244141</ele>
        <time>2026-07-07T08:02:47.000Z</time>
      </trkpt>
      <trkpt lat="46.20961" lon="6.74148">
        <ele>1111</ele>
        <time>2026-07-07T08:02:50.000Z</time>
      </trkpt>
      <trkpt lat="46.20962" lon="6.74152">
        <ele>1111.4000244141</ele>
        <time>2026-07-07T08:02:52.000Z</time>
      </trkpt>
      <trkpt lat="46.20967" lon="6.7416">
        <ele>1112.4000244141</ele>
        <time>2026-07-07T08:02:58.000Z</time>
      </trkpt>
      <trkpt lat="46.20968" lon="6.7416">
        <ele>1112.4000244141</ele>
        <time>2026-07-07T08:02:59.000Z</time>
      </trkpt>
      <trkpt lat="46.20969" lon="6.74165">
        <ele>1113.5999755859</ele>
        <time>2026-07-07T08:03:05.000Z</time>
      </trkpt>
      <trkpt lat="46.2097" lon="6.74166">
        <ele>1113.5999755859</ele>
        <time>2026-07-07T08:03:06.000Z</time>
      </trkpt>
      <trkpt lat="46.20971" lon="6.74169">
        <ele>1113.5999755859</ele>
        <time>2026-07-07T08:03:08.000Z</time>
      </trkpt>
      <trkpt lat="46.20973" lon="6.74179">
        <ele>1114.4000244141</ele>
        <time>2026-07-07T08:03:15.000Z</time>
      </trkpt>
      <trkpt lat="46.20974" lon="6.74181">
        <ele>1114.4000244141</ele>
        <time>2026-07-07T08:03:16.000Z</time>
      </trkpt>
      <trkpt lat="46.20976" lon="6.74193">
        <ele>1114.4000244141</ele>
        <time>2026-07-07T08:03:25.000Z</time>
      </trkpt>
      <trkpt lat="46.20977" lon="6.74197">
        <ele>1114.5999755859</ele>
        <time>2026-07-07T08:03:28.000Z</time>
      </trkpt>
      <trkpt lat="46.20979" lon="6.74206">
        <ele>1114.4000244141</ele>
        <time>2026-07-07T08:03:35.000Z</time>
      </trkpt>
      <trkpt lat="46.20983" lon="6.74214">
        <ele>1115.1999511719</ele>
        <time>2026-07-07T08:03:45.000Z</time>
      </trkpt>
      <trkpt lat="46.20983" lon="6.74216">
        <ele>1115.8000488281</ele>
        <time>2026-07-07T08:03:51.000Z</time>
      </trkpt>
      <trkpt lat="46.20984" lon="6.74219">
        <ele>1115.8000488281</ele>
        <time>2026-07-07T08:03:54.000Z</time>
      </trkpt>
      <trkpt lat="46.20988" lon="6.7423">
        <ele>1116.4000244141</ele>
        <time>2026-07-07T08:04:03.000Z</time>
      </trkpt>
      <trkpt lat="46.20989" lon="6.74239">
        <ele>1116</ele>
        <time>2026-07-07T08:04:11.000Z</time>
      </trkpt>
      <trkpt lat="46.20988" lon="6.74241">
        <ele>1116.4000244141</ele>
        <time>2026-07-07T08:04:13.000Z</time>
      </trkpt>
      <trkpt lat="46.20988" lon="6.74244">
        <ele>1116.8000488281</ele>
        <time>2026-07-07T08:04:15.000Z</time>
      </trkpt>
      <trkpt lat="46.20986" lon="6.74253">
        <ele>1117.5999755859</ele>
        <time>2026-07-07T08:04:22.000Z</time>
      </trkpt>
      <trkpt lat="46.20987" lon="6.74255">
        <ele>1117.8000488281</ele>
        <time>2026-07-07T08:04:24.000Z</time>
      </trkpt>
      <trkpt lat="46.20988" lon="6.74259">
        <ele>1119</ele>
        <time>2026-07-07T08:04:28.000Z</time>
      </trkpt>
      <trkpt lat="46.20988" lon="6.74264">
        <ele>1119.8000488281</ele>
        <time>2026-07-07T08:04:32.000Z</time>
      </trkpt>
      <trkpt lat="46.20988" lon="6.74267">
        <ele>1120</ele>
        <time>2026-07-07T08:04:35.000Z</time>
      </trkpt>
      <trkpt lat="46.20986" lon="6.74277">
        <ele>1120</ele>
        <time>2026-07-07T08:04:43.000Z</time>
      </trkpt>
      <trkpt lat="46.20985" lon="6.74284">
        <ele>1120.4000244141</ele>
        <time>2026-07-07T08:04:52.000Z</time>
      </trkpt>
      <trkpt lat="46.20984" lon="6.7429">
        <ele>1120.8000488281</ele>
        <time>2026-07-07T08:04:57.000Z</time>
      </trkpt>
      <trkpt lat="46.20983" lon="6.74293">
        <ele>1120.8000488281</ele>
        <time>2026-07-07T08:05:02.000Z</time>
      </trkpt>
      <trkpt lat="46.20981" lon="6.74295">
        <ele>1121</ele>
        <time>2026-07-07T08:05:12.000Z</time>
      </trkpt>
      <trkpt lat="46.2098" lon="6.74296">
        <ele>1121</ele>
        <time>2026-07-07T08:05:14.000Z</time>
      </trkpt>
      <trkpt lat="46.20979" lon="6.74304">
        <ele>1122</ele>
        <time>2026-07-07T08:05:20.000Z</time>
      </trkpt>
      <trkpt lat="46.2098" lon="6.74305">
        <ele>1122.4000244141</ele>
        <time>2026-07-07T08:05:21.000Z</time>
      </trkpt>
      <trkpt lat="46.20985" lon="6.74314">
        <ele>1122.5999755859</ele>
        <time>2026-07-07T08:05:29.000Z</time>
      </trkpt>
      <trkpt lat="46.2099" lon="6.7432">
        <ele>1122.1999511719</ele>
        <time>2026-07-07T08:05:36.000Z</time>
      </trkpt>
      <trkpt lat="46.20994" lon="6.74324">
        <ele>1121</ele>
        <time>2026-07-07T08:05:44.000Z</time>
      </trkpt>
      <trkpt lat="46.20996" lon="6.74326">
        <ele>1120.8000488281</ele>
        <time>2026-07-07T08:05:46.000Z</time>
      </trkpt>
      <trkpt lat="46.20999" lon="6.74338">
        <ele>1120</ele>
        <time>2026-07-07T08:05:53.000Z</time>
      </trkpt>
      <trkpt lat="46.21" lon="6.74341">
        <ele>1120</ele>
        <time>2026-07-07T08:05:55.000Z</time>
      </trkpt>
      <trkpt lat="46.21004" lon="6.74351">
        <ele>1119.4000244141</ele>
        <time>2026-07-07T08:06:02.000Z</time>
      </trkpt>
      <trkpt lat="46.21004" lon="6.7436">
        <ele>1120.1999511719</ele>
        <time>2026-07-07T08:06:09.000Z</time>
      </trkpt>
      <trkpt lat="46.21004" lon="6.74364">
        <ele>1120.5999755859</ele>
        <time>2026-07-07T08:06:12.000Z</time>
      </trkpt>
      <trkpt lat="46.21004" lon="6.74371">
        <ele>1121</ele>
        <time>2026-07-07T08:06:17.000Z</time>
      </trkpt>
      <trkpt lat="46.2101" lon="6.74383">
        <ele>1120.5999755859</ele>
        <time>2026-07-07T08:06:24.000Z</time>
      </trkpt>
      <trkpt lat="46.21013" lon="6.74393">
        <ele>1120.1999511719</ele>
        <time>2026-07-07T08:06:32.000Z</time>
      </trkpt>
      <trkpt lat="46.21014" lon="6.74396">
        <ele>1120</ele>
        <time>2026-07-07T08:06:35.000Z</time>
      </trkpt>
      <trkpt lat="46.21014" lon="6.744">
        <ele>1119.8000488281</ele>
        <time>2026-07-07T08:06:39.000Z</time>
      </trkpt>
      <trkpt lat="46.21014" lon="6.74402">
        <ele>1119.8000488281</ele>
        <time>2026-07-07T08:06:40.000Z</time>
      </trkpt>
      <trkpt lat="46.21014" lon="6.74403">
        <ele>1119.8000488281</ele>
        <time>2026-07-07T08:06:41.000Z</time>
      </trkpt>
      <trkpt lat="46.21014" lon="6.74404">
        <ele>1119.8000488281</ele>
        <time>2026-07-07T08:06:42.000Z</time>
      </trkpt>
      <trkpt lat="46.21014" lon="6.74405">
        <ele>1119.5999755859</ele>
        <time>2026-07-07T08:06:44.000Z</time>
      </trkpt>
      <trkpt lat="46.21016" lon="6.74409">
        <ele>1119.4000244141</ele>
        <time>2026-07-07T08:06:48.000Z</time>
      </trkpt>
      <trkpt lat="46.21016" lon="6.7441">
        <ele>1119</ele>
        <time>2026-07-07T08:06:50.000Z</time>
      </trkpt>
      <trkpt lat="46.21017" lon="6.7441">
        <ele>1118.8000488281</ele>
        <time>2026-07-07T08:06:52.000Z</time>
      </trkpt>
      <trkpt lat="46.21017" lon="6.7441">
        <ele>1118.5999755859</ele>
        <time>2026-07-07T08:06:53.000Z</time>
      </trkpt>
      <trkpt lat="46.21017" lon="6.74409">
        <ele>1118.5999755859</ele>
        <time>2026-07-07T08:06:54.000Z</time>
      </trkpt>
      <trkpt lat="46.21018" lon="6.74409">
        <ele>1118.4000244141</ele>
        <time>2026-07-07T08:06:55.000Z</time>
      </trkpt>
      <trkpt lat="46.21023" lon="6.74411">
        <ele>1117.8000488281</ele>
        <time>2026-07-07T08:06:59.000Z</time>
      </trkpt>
      <trkpt lat="46.21028" lon="6.74412">
        <ele>1116.8000488281</ele>
        <time>2026-07-07T08:07:03.000Z</time>
      </trkpt>
      <trkpt lat="46.21029" lon="6.74413">
        <ele>1116.5999755859</ele>
        <time>2026-07-07T08:07:04.000Z</time>
      </trkpt>
      <trkpt lat="46.21037" lon="6.74418">
        <ele>1115.5999755859</ele>
        <time>2026-07-07T08:07:11.000Z</time>
      </trkpt>
      <trkpt lat="46.21038" lon="6.7442">
        <ele>1115.4000244141</ele>
        <time>2026-07-07T08:07:13.000Z</time>
      </trkpt>
      <trkpt lat="46.21043" lon="6.74429">
        <ele>1114.4000244141</ele>
        <time>2026-07-07T08:07:21.000Z</time>
      </trkpt>
      <trkpt lat="46.21043" lon="6.7443">
        <ele>1114.1999511719</ele>
        <time>2026-07-07T08:07:22.000Z</time>
      </trkpt>
      <trkpt lat="46.21042" lon="6.74437">
        <ele>1113.8000488281</ele>
        <time>2026-07-07T08:07:30.000Z</time>
      </trkpt>
      <trkpt lat="46.21041" lon="6.74445">
        <ele>1113.4000244141</ele>
        <time>2026-07-07T08:07:39.000Z</time>
      </trkpt>
      <trkpt lat="46.21045" lon="6.74453">
        <ele>1112.5999755859</ele>
        <time>2026-07-07T08:07:48.000Z</time>
      </trkpt>
      <trkpt lat="46.21047" lon="6.74456">
        <ele>1112.4000244141</ele>
        <time>2026-07-07T08:07:55.000Z</time>
      </trkpt>
      <trkpt lat="46.21047" lon="6.74457">
        <ele>1111.8000488281</ele>
        <time>2026-07-07T08:07:58.000Z</time>
      </trkpt>
      <trkpt lat="46.21048" lon="6.74458">
        <ele>1111.4000244141</ele>
        <time>2026-07-07T08:08:03.000Z</time>
      </trkpt>
      <trkpt lat="46.21048" lon="6.74459">
        <ele>1111</ele>
        <time>2026-07-07T08:08:05.000Z</time>
      </trkpt>
      <trkpt lat="46.21051" lon="6.74463">
        <ele>1110.1999511719</ele>
        <time>2026-07-07T08:08:10.000Z</time>
      </trkpt>
      <trkpt lat="46.21052" lon="6.74464">
        <ele>1109.5999755859</ele>
        <time>2026-07-07T08:08:13.000Z</time>
      </trkpt>
      <trkpt lat="46.21052" lon="6.74464">
        <ele>1109.5999755859</ele>
        <time>2026-07-07T08:08:14.000Z</time>
      </trkpt>
      <trkpt lat="46.21052" lon="6.74463">
        <ele>1109.5999755859</ele>
        <time>2026-07-07T08:08:15.000Z</time>
      </trkpt>
      <trkpt lat="46.21052" lon="6.74463">
        <ele>1109.5999755859</ele>
        <time>2026-07-07T08:08:16.000Z</time>
      </trkpt>
      <trkpt lat="46.21052" lon="6.74466">
        <ele>1109.8000488281</ele>
        <time>2026-07-07T08:08:22.000Z</time>
      </trkpt>
      <trkpt lat="46.21052" lon="6.74465">
        <ele>1109.8000488281</ele>
        <time>2026-07-07T08:08:23.000Z</time>
      </trkpt>
      <trkpt lat="46.21052" lon="6.74465">
        <ele>1109.8000488281</ele>
        <time>2026-07-07T08:08:24.000Z</time>
      </trkpt>
      <trkpt lat="46.21052" lon="6.74464">
        <ele>1109.8000488281</ele>
        <time>2026-07-07T08:08:25.000Z</time>
      </trkpt>
      <trkpt lat="46.21052" lon="6.74464">
        <ele>1109.8000488281</ele>
        <time>2026-07-07T08:08:26.000Z</time>
      </trkpt>
      <trkpt lat="46.21054" lon="6.7446">
        <ele>1109.5999755859</ele>
        <time>2026-07-07T08:08:31.000Z</time>
      </trkpt>
      <trkpt lat="46.21052" lon="6.74455">
        <ele>1109.4000244141</ele>
        <time>2026-07-07T08:08:39.000Z</time>
      </trkpt>
      <trkpt lat="46.21051" lon="6.74455">
        <ele>1109.4000244141</ele>
        <time>2026-07-07T08:08:46.000Z</time>
      </trkpt>
      <trkpt lat="46.2105" lon="6.74454">
        <ele>1109.4000244141</ele>
        <time>2026-07-07T08:08:48.000Z</time>
      </trkpt>
      <trkpt lat="46.2105" lon="6.74456">
        <ele>1109.4000244141</ele>
        <time>2026-07-07T08:08:57.000Z</time>
      </trkpt>
      <trkpt lat="46.2105" lon="6.74462">
        <ele>1109.5999755859</ele>
        <time>2026-07-07T08:09:06.000Z</time>
      </trkpt>
      <trkpt lat="46.21051" lon="6.7447">
        <ele>1109.5999755859</ele>
        <time>2026-07-07T08:09:16.000Z</time>
      </trkpt>
      <trkpt lat="46.2105" lon="6.74476">
        <ele>1109.8000488281</ele>
        <time>2026-07-07T08:09:24.000Z</time>
      </trkpt>
      <trkpt lat="46.21047" lon="6.74473">
        <ele>1109.8000488281</ele>
        <time>2026-07-07T08:09:32.000Z</time>
      </trkpt>
      <trkpt lat="46.21047" lon="6.74473">
        <ele>1110</ele>
        <time>2026-07-07T08:09:38.000Z</time>
      </trkpt>
      <trkpt lat="46.21049" lon="6.74473">
        <ele>1109.8000488281</ele>
        <time>2026-07-07T08:09:40.000Z</time>
      </trkpt>
      <trkpt lat="46.21047" lon="6.74482">
        <ele>1110.1999511719</ele>
        <time>2026-07-07T08:09:46.000Z</time>
      </trkpt>
      <trkpt lat="46.21044" lon="6.74496">
        <ele>1110.5999755859</ele>
        <time>2026-07-07T08:09:55.000Z</time>
      </trkpt>
      <trkpt lat="46.2104" lon="6.74504">
        <ele>1111</ele>
        <time>2026-07-07T08:10:03.000Z</time>
      </trkpt>
      <trkpt lat="46.2104" lon="6.74505">
        <ele>1110.8000488281</ele>
        <time>2026-07-07T08:10:04.000Z</time>
      </trkpt>
      <trkpt lat="46.21044" lon="6.74502">
        <ele>1110.8000488281</ele>
        <time>2026-07-07T08:10:08.000Z</time>
      </trkpt>
      <trkpt lat="46.21044" lon="6.74504">
        <ele>1110.8000488281</ele>
        <time>2026-07-07T08:10:11.000Z</time>
      </trkpt>
      <trkpt lat="46.21038" lon="6.74515">
        <ele>1110.8000488281</ele>
        <time>2026-07-07T08:10:17.000Z</time>
      </trkpt>
      <trkpt lat="46.21034" lon="6.7453">
        <ele>1110.5999755859</ele>
        <time>2026-07-07T08:10:25.000Z</time>
      </trkpt>
      <trkpt lat="46.21033" lon="6.74546">
        <ele>1110.4000244141</ele>
        <time>2026-07-07T08:10:34.000Z</time>
      </trkpt>
      <trkpt lat="46.21033" lon="6.74569">
        <ele>1110.1999511719</ele>
        <time>2026-07-07T08:10:46.000Z</time>
      </trkpt>
      <trkpt lat="46.21034" lon="6.7458">
        <ele>1110.1999511719</ele>
        <time>2026-07-07T08:10:53.000Z</time>
      </trkpt>
      <trkpt lat="46.21036" lon="6.74595">
        <ele>1110.4000244141</ele>
        <time>2026-07-07T08:11:02.000Z</time>
      </trkpt>
      <trkpt lat="46.21034" lon="6.7461">
        <ele>1111</ele>
        <time>2026-07-07T08:11:11.000Z</time>
      </trkpt>
      <trkpt lat="46.21034" lon="6.74622">
        <ele>1111</ele>
        <time>2026-07-07T08:11:17.000Z</time>
      </trkpt>
      <trkpt lat="46.21035" lon="6.74625">
        <ele>1111</ele>
        <time>2026-07-07T08:11:19.000Z</time>
      </trkpt>
      <trkpt lat="46.21038" lon="6.74643">
        <ele>1110.8000488281</ele>
        <time>2026-07-07T08:11:29.000Z</time>
      </trkpt>
      <trkpt lat="46.21039" lon="6.74655">
        <ele>1110.5999755859</ele>
        <time>2026-07-07T08:11:38.000Z</time>
      </trkpt>
      <trkpt lat="46.2104" lon="6.74666">
        <ele>1110.4000244141</ele>
        <time>2026-07-07T08:11:49.000Z</time>
      </trkpt>
      <trkpt lat="46.21041" lon="6.74671">
        <ele>1110.4000244141</ele>
        <time>2026-07-07T08:11:56.000Z</time>
      </trkpt>
      <trkpt lat="46.21041" lon="6.74673">
        <ele>1110.4000244141</ele>
        <time>2026-07-07T08:11:59.000Z</time>
      </trkpt>
      <trkpt lat="46.21044" lon="6.74684">
        <ele>1110.4000244141</ele>
        <time>2026-07-07T08:12:10.000Z</time>
      </trkpt>
      <trkpt lat="46.21044" lon="6.74692">
        <ele>1110.5999755859</ele>
        <time>2026-07-07T08:12:22.000Z</time>
      </trkpt>
      <trkpt lat="46.21047" lon="6.74704">
        <ele>1110.5999755859</ele>
        <time>2026-07-07T08:12:33.000Z</time>
      </trkpt>
      <trkpt lat="46.21052" lon="6.74716">
        <ele>1110.5999755859</ele>
        <time>2026-07-07T08:12:44.000Z</time>
      </trkpt>
      <trkpt lat="46.21057" lon="6.74729">
        <ele>1110.8000488281</ele>
        <time>2026-07-07T08:12:55.000Z</time>
      </trkpt>
      <trkpt lat="46.2106" lon="6.74743">
        <ele>1110.4000244141</ele>
        <time>2026-07-07T08:13:08.000Z</time>
      </trkpt>
      <trkpt lat="46.21061" lon="6.74748">
        <ele>1110.4000244141</ele>
        <time>2026-07-07T08:13:14.000Z</time>
      </trkpt>
      <trkpt lat="46.21062" lon="6.74751">
        <ele>1110.4000244141</ele>
        <time>2026-07-07T08:13:17.000Z</time>
      </trkpt>
      <trkpt lat="46.21067" lon="6.74762">
        <ele>1110.5999755859</ele>
        <time>2026-07-07T08:13:28.000Z</time>
      </trkpt>
      <trkpt lat="46.21069" lon="6.74774">
        <ele>1110.4000244141</ele>
        <time>2026-07-07T08:13:40.000Z</time>
      </trkpt>
      <trkpt lat="46.21071" lon="6.74784">
        <ele>1110.1999511719</ele>
        <time>2026-07-07T08:13:50.000Z</time>
      </trkpt>
      <trkpt lat="46.21073" lon="6.74795">
        <ele>1110</ele>
        <time>2026-07-07T08:13:59.000Z</time>
      </trkpt>
      <trkpt lat="46.21073" lon="6.74796">
        <ele>1110</ele>
        <time>2026-07-07T08:14:00.000Z</time>
      </trkpt>
      <trkpt lat="46.21076" lon="6.74806">
        <ele>1109.5999755859</ele>
        <time>2026-07-07T08:14:10.000Z</time>
      </trkpt>
      <trkpt lat="46.21077" lon="6.74808">
        <ele>1109.5999755859</ele>
        <time>2026-07-07T08:14:12.000Z</time>
      </trkpt>
      <trkpt lat="46.21078" lon="6.74813">
        <ele>1109.4000244141</ele>
        <time>2026-07-07T08:14:17.000Z</time>
      </trkpt>
      <trkpt lat="46.2108" lon="6.74821">
        <ele>1109.1999511719</ele>
        <time>2026-07-07T08:14:24.000Z</time>
      </trkpt>
      <trkpt lat="46.21081" lon="6.74832">
        <ele>1109</ele>
        <time>2026-07-07T08:14:34.000Z</time>
      </trkpt>
      <trkpt lat="46.21085" lon="6.74845">
        <ele>1108.8000488281</ele>
        <time>2026-07-07T08:14:44.000Z</time>
      </trkpt>
      <trkpt lat="46.21087" lon="6.74851">
        <ele>1108.8000488281</ele>
        <time>2026-07-07T08:14:50.000Z</time>
      </trkpt>
      <trkpt lat="46.2109" lon="6.74862">
        <ele>1108.8000488281</ele>
        <time>2026-07-07T08:14:57.000Z</time>
      </trkpt>
      <trkpt lat="46.21092" lon="6.74882">
        <ele>1109.4000244141</ele>
        <time>2026-07-07T08:15:07.000Z</time>
      </trkpt>
      <trkpt lat="46.21092" lon="6.74895">
        <ele>1109.8000488281</ele>
        <time>2026-07-07T08:15:13.000Z</time>
      </trkpt>
      <trkpt lat="46.21092" lon="6.74901">
        <ele>1110.1999511719</ele>
        <time>2026-07-07T08:15:16.000Z</time>
      </trkpt>
      <trkpt lat="46.21093" lon="6.74907">
        <ele>1110.1999511719</ele>
        <time>2026-07-07T08:15:19.000Z</time>
      </trkpt>
      <trkpt lat="46.21096" lon="6.74918">
        <ele>1110.5999755859</ele>
        <time>2026-07-07T08:15:26.000Z</time>
      </trkpt>
      <trkpt lat="46.21104" lon="6.74934">
        <ele>1111.1999511719</ele>
        <time>2026-07-07T08:15:36.000Z</time>
      </trkpt>
      <trkpt lat="46.21105" lon="6.74937">
        <ele>1111.1999511719</ele>
        <time>2026-07-07T08:15:38.000Z</time>
      </trkpt>
      <trkpt lat="46.21104" lon="6.74949">
        <ele>1111.5999755859</ele>
        <time>2026-07-07T08:15:46.000Z</time>
      </trkpt>
      <trkpt lat="46.21102" lon="6.74953">
        <ele>1111.8000488281</ele>
        <time>2026-07-07T08:15:50.000Z</time>
      </trkpt>
      <trkpt lat="46.21098" lon="6.74956">
        <ele>1112.1999511719</ele>
        <time>2026-07-07T08:15:55.000Z</time>
      </trkpt>
      <trkpt lat="46.21095" lon="6.7496">
        <ele>1112</ele>
        <time>2026-07-07T08:16:06.000Z</time>
      </trkpt>
      <trkpt lat="46.21097" lon="6.74961">
        <ele>1112</ele>
        <time>2026-07-07T08:16:17.000Z</time>
      </trkpt>
      <trkpt lat="46.21102" lon="6.74954">
        <ele>1112</ele>
        <time>2026-07-07T08:16:25.000Z</time>
      </trkpt>
      <trkpt lat="46.21106" lon="6.7495">
        <ele>1111.8000488281</ele>
        <time>2026-07-07T08:16:31.000Z</time>
      </trkpt>
      <trkpt lat="46.21109" lon="6.74955">
        <ele>1112.1999511719</ele>
        <time>2026-07-07T08:16:36.000Z</time>
      </trkpt>
      <trkpt lat="46.2111" lon="6.7496">
        <ele>1112.1999511719</ele>
        <time>2026-07-07T08:16:39.000Z</time>
      </trkpt>
      <trkpt lat="46.21112" lon="6.74967">
        <ele>1112.8000488281</ele>
        <time>2026-07-07T08:16:43.000Z</time>
      </trkpt>
      <trkpt lat="46.21114" lon="6.74971">
        <ele>1113.4000244141</ele>
        <time>2026-07-07T08:16:46.000Z</time>
      </trkpt>
      <trkpt lat="46.21118" lon="6.74978">
        <ele>1114</ele>
        <time>2026-07-07T08:16:50.000Z</time>
      </trkpt>
      <trkpt lat="46.2112" lon="6.74983">
        <ele>1114.4000244141</ele>
        <time>2026-07-07T08:16:52.000Z</time>
      </trkpt>
      <trkpt lat="46.21125" lon="6.74994">
        <ele>1115.5999755859</ele>
        <time>2026-07-07T08:16:58.000Z</time>
      </trkpt>
      <trkpt lat="46.21125" lon="6.74996">
        <ele>1115.5999755859</ele>
        <time>2026-07-07T08:16:59.000Z</time>
      </trkpt>
      <trkpt lat="46.21126" lon="6.75001">
        <ele>1116.1999511719</ele>
        <time>2026-07-07T08:17:03.000Z</time>
      </trkpt>
      <trkpt lat="46.21127" lon="6.75007">
        <ele>1116.5999755859</ele>
        <time>2026-07-07T08:17:06.000Z</time>
      </trkpt>
      <trkpt lat="46.21127" lon="6.7501">
        <ele>1116.8000488281</ele>
        <time>2026-07-07T08:17:08.000Z</time>
      </trkpt>
      <trkpt lat="46.2113" lon="6.75024">
        <ele>1117.5999755859</ele>
        <time>2026-07-07T08:17:16.000Z</time>
      </trkpt>
      <trkpt lat="46.21132" lon="6.75028">
        <ele>1118</ele>
        <time>2026-07-07T08:17:18.000Z</time>
      </trkpt>
      <trkpt lat="46.21141" lon="6.75045">
        <ele>1118.8000488281</ele>
        <time>2026-07-07T08:17:28.000Z</time>
      </trkpt>
      <trkpt lat="46.21148" lon="6.75056">
        <ele>1119.5999755859</ele>
        <time>2026-07-07T08:17:37.000Z</time>
      </trkpt>
      <trkpt lat="46.21152" lon="6.75062">
        <ele>1119.8000488281</ele>
        <time>2026-07-07T08:17:41.000Z</time>
      </trkpt>
      <trkpt lat="46.21157" lon="6.75068">
        <ele>1120</ele>
        <time>2026-07-07T08:17:45.000Z</time>
      </trkpt>
      <trkpt lat="46.21169" lon="6.75081">
        <ele>1120.1999511719</ele>
        <time>2026-07-07T08:17:56.000Z</time>
      </trkpt>
      <trkpt lat="46.21174" lon="6.7509">
        <ele>1120.5999755859</ele>
        <time>2026-07-07T08:18:01.000Z</time>
      </trkpt>
      <trkpt lat="46.21176" lon="6.75095">
        <ele>1121</ele>
        <time>2026-07-07T08:18:05.000Z</time>
      </trkpt>
      <trkpt lat="46.21176" lon="6.75099">
        <ele>1121.1999511719</ele>
        <time>2026-07-07T08:18:07.000Z</time>
      </trkpt>
      <trkpt lat="46.21181" lon="6.75115">
        <ele>1121.8000488281</ele>
        <time>2026-07-07T08:18:17.000Z</time>
      </trkpt>
      <trkpt lat="46.21181" lon="6.75118">
        <ele>1122</ele>
        <time>2026-07-07T08:18:19.000Z</time>
      </trkpt>
      <trkpt lat="46.21185" lon="6.75129">
        <ele>1123</ele>
        <time>2026-07-07T08:18:25.000Z</time>
      </trkpt>
      <trkpt lat="46.21187" lon="6.75134">
        <ele>1123.4000244141</ele>
        <time>2026-07-07T08:18:28.000Z</time>
      </trkpt>
      <trkpt lat="46.21193" lon="6.75148">
        <ele>1124</ele>
        <time>2026-07-07T08:18:36.000Z</time>
      </trkpt>
      <trkpt lat="46.21194" lon="6.75152">
        <ele>1124</ele>
        <time>2026-07-07T08:18:38.000Z</time>
      </trkpt>
      <trkpt lat="46.21199" lon="6.75165">
        <ele>1125</ele>
        <time>2026-07-07T08:18:46.000Z</time>
      </trkpt>
      <trkpt lat="46.21201" lon="6.75167">
        <ele>1125</ele>
        <time>2026-07-07T08:18:48.000Z</time>
      </trkpt>
      <trkpt lat="46.21203" lon="6.75182">
        <ele>1125.5999755859</ele>
        <time>2026-07-07T08:18:56.000Z</time>
      </trkpt>
      <trkpt lat="46.21202" lon="6.75196">
        <ele>1125.5999755859</ele>
        <time>2026-07-07T08:19:05.000Z</time>
      </trkpt>
      <trkpt lat="46.21203" lon="6.7521">
        <ele>1125.5999755859</ele>
        <time>2026-07-07T08:19:14.000Z</time>
      </trkpt>
      <trkpt lat="46.21203" lon="6.75217">
        <ele>1125.8000488281</ele>
        <time>2026-07-07T08:19:19.000Z</time>
      </trkpt>
      <trkpt lat="46.21204" lon="6.75223">
        <ele>1125.8000488281</ele>
        <time>2026-07-07T08:19:23.000Z</time>
      </trkpt>
      <trkpt lat="46.21204" lon="6.75231">
        <ele>1126.1999511719</ele>
        <time>2026-07-07T08:19:30.000Z</time>
      </trkpt>
      <trkpt lat="46.21204" lon="6.75235">
        <ele>1126.5999755859</ele>
        <time>2026-07-07T08:19:33.000Z</time>
      </trkpt>
      <trkpt lat="46.21203" lon="6.75246">
        <ele>1127.1999511719</ele>
        <time>2026-07-07T08:19:41.000Z</time>
      </trkpt>
      <trkpt lat="46.21203" lon="6.75247">
        <ele>1127.1999511719</ele>
        <time>2026-07-07T08:19:42.000Z</time>
      </trkpt>
      <trkpt lat="46.21203" lon="6.7525">
        <ele>1127.4000244141</ele>
        <time>2026-07-07T08:19:44.000Z</time>
      </trkpt>
      <trkpt lat="46.21205" lon="6.75258">
        <ele>1127.5999755859</ele>
        <time>2026-07-07T08:19:50.000Z</time>
      </trkpt>
      <trkpt lat="46.21208" lon="6.75264">
        <ele>1128.1999511719</ele>
        <time>2026-07-07T08:19:56.000Z</time>
      </trkpt>
      <trkpt lat="46.21208" lon="6.75265">
        <ele>1128.4000244141</ele>
        <time>2026-07-07T08:19:57.000Z</time>
      </trkpt>
      <trkpt lat="46.2121" lon="6.75271">
        <ele>1128.5999755859</ele>
        <time>2026-07-07T08:20:02.000Z</time>
      </trkpt>
      <trkpt lat="46.21211" lon="6.75277">
        <ele>1129.1999511719</ele>
        <time>2026-07-07T08:20:07.000Z</time>
      </trkpt>
      <trkpt lat="46.21212" lon="6.75278">
        <ele>1129.1999511719</ele>
        <time>2026-07-07T08:20:08.000Z</time>
      </trkpt>
      <trkpt lat="46.21213" lon="6.75282">
        <ele>1129.5999755859</ele>
        <time>2026-07-07T08:20:11.000Z</time>
      </trkpt>
      <trkpt lat="46.21214" lon="6.75285">
        <ele>1129.8000488281</ele>
        <time>2026-07-07T08:20:14.000Z</time>
      </trkpt>
      <trkpt lat="46.21217" lon="6.75288">
        <ele>1130.1999511719</ele>
        <time>2026-07-07T08:20:18.000Z</time>
      </trkpt>
      <trkpt lat="46.2122" lon="6.75292">
        <ele>1130.1999511719</ele>
        <time>2026-07-07T08:20:22.000Z</time>
      </trkpt>
      <trkpt lat="46.21222" lon="6.75297">
        <ele>1130.8000488281</ele>
        <time>2026-07-07T08:20:27.000Z</time>
      </trkpt>
      <trkpt lat="46.21223" lon="6.75303">
        <ele>1131.1999511719</ele>
        <time>2026-07-07T08:20:31.000Z</time>
      </trkpt>
      <trkpt lat="46.21224" lon="6.75308">
        <ele>1132</ele>
        <time>2026-07-07T08:20:35.000Z</time>
      </trkpt>
      <trkpt lat="46.21225" lon="6.75311">
        <ele>1132.4000244141</ele>
        <time>2026-07-07T08:20:37.000Z</time>
      </trkpt>
      <trkpt lat="46.21227" lon="6.75318">
        <ele>1133.5999755859</ele>
        <time>2026-07-07T08:20:44.000Z</time>
      </trkpt>
      <trkpt lat="46.21228" lon="6.75319">
        <ele>1133.8000488281</ele>
        <time>2026-07-07T08:20:47.000Z</time>
      </trkpt>
      <trkpt lat="46.21232" lon="6.75324">
        <ele>1134.5999755859</ele>
        <time>2026-07-07T08:20:53.000Z</time>
      </trkpt>
      <trkpt lat="46.21233" lon="6.75327">
        <ele>1135</ele>
        <time>2026-07-07T08:20:56.000Z</time>
      </trkpt>
      <trkpt lat="46.21236" lon="6.75331">
        <ele>1135.5999755859</ele>
        <time>2026-07-07T08:21:01.000Z</time>
      </trkpt>
      <trkpt lat="46.21237" lon="6.75333">
        <ele>1136</ele>
        <time>2026-07-07T08:21:04.000Z</time>
      </trkpt>
      <trkpt lat="46.2124" lon="6.75337">
        <ele>1136.8000488281</ele>
        <time>2026-07-07T08:21:08.000Z</time>
      </trkpt>
      <trkpt lat="46.21243" lon="6.7534">
        <ele>1137.1999511719</ele>
        <time>2026-07-07T08:21:11.000Z</time>
      </trkpt>
      <trkpt lat="46.21247" lon="6.75342">
        <ele>1138</ele>
        <time>2026-07-07T08:21:16.000Z</time>
      </trkpt>
      <trkpt lat="46.21247" lon="6.75343">
        <ele>1138.4000244141</ele>
        <time>2026-07-07T08:21:18.000Z</time>
      </trkpt>
      <trkpt lat="46.2125" lon="6.75348">
        <ele>1139</ele>
        <time>2026-07-07T08:21:24.000Z</time>
      </trkpt>
      <trkpt lat="46.2125" lon="6.75349">
        <ele>1139.1999511719</ele>
        <time>2026-07-07T08:21:25.000Z</time>
      </trkpt>
      <trkpt lat="46.21252" lon="6.75355">
        <ele>1140.1999511719</ele>
        <time>2026-07-07T08:21:31.000Z</time>
      </trkpt>
      <trkpt lat="46.21253" lon="6.75356">
        <ele>1140.1999511719</ele>
        <time>2026-07-07T08:21:32.000Z</time>
      </trkpt>
      <trkpt lat="46.21256" lon="6.75361">
        <ele>1141.1999511719</ele>
        <time>2026-07-07T08:21:39.000Z</time>
      </trkpt>
      <trkpt lat="46.21257" lon="6.75362">
        <ele>1141.4000244141</ele>
        <time>2026-07-07T08:21:40.000Z</time>
      </trkpt>
      <trkpt lat="46.2126" lon="6.75368">
        <ele>1142.4000244141</ele>
        <time>2026-07-07T08:21:47.000Z</time>
      </trkpt>
      <trkpt lat="46.2126" lon="6.75369">
        <ele>1142.5999755859</ele>
        <time>2026-07-07T08:21:48.000Z</time>
      </trkpt>
      <trkpt lat="46.21263" lon="6.75375">
        <ele>1143.4000244141</ele>
        <time>2026-07-07T08:21:55.000Z</time>
      </trkpt>
      <trkpt lat="46.21263" lon="6.75377">
        <ele>1143.5999755859</ele>
        <time>2026-07-07T08:21:56.000Z</time>
      </trkpt>
      <trkpt lat="46.21268" lon="6.75385">
        <ele>1144.4000244141</ele>
        <time>2026-07-07T08:22:03.000Z</time>
      </trkpt>
      <trkpt lat="46.21268" lon="6.75386">
        <ele>1144.5999755859</ele>
        <time>2026-07-07T08:22:04.000Z</time>
      </trkpt>
      <trkpt lat="46.21271" lon="6.7539">
        <ele>1145.5999755859</ele>
        <time>2026-07-07T08:22:12.000Z</time>
      </trkpt>
      <trkpt lat="46.21272" lon="6.75391">
        <ele>1145.8000488281</ele>
        <time>2026-07-07T08:22:13.000Z</time>
      </trkpt>
      <trkpt lat="46.21278" lon="6.75396">
        <ele>1146.5999755859</ele>
        <time>2026-07-07T08:22:19.000Z</time>
      </trkpt>
      <trkpt lat="46.21279" lon="6.75398">
        <ele>1147.1999511719</ele>
        <time>2026-07-07T08:22:22.000Z</time>
      </trkpt>
      <trkpt lat="46.21283" lon="6.75401">
        <ele>1147.8000488281</ele>
        <time>2026-07-07T08:22:26.000Z</time>
      </trkpt>
      <trkpt lat="46.21287" lon="6.75405">
        <ele>1148.5999755859</ele>
        <time>2026-07-07T08:22:31.000Z</time>
      </trkpt>
      <trkpt lat="46.21289" lon="6.75408">
        <ele>1149</ele>
        <time>2026-07-07T08:22:33.000Z</time>
      </trkpt>
      <trkpt lat="46.21291" lon="6.75412">
        <ele>1149.5999755859</ele>
        <time>2026-07-07T08:22:37.000Z</time>
      </trkpt>
      <trkpt lat="46.21293" lon="6.75413">
        <ele>1150</ele>
        <time>2026-07-07T08:22:39.000Z</time>
      </trkpt>
      <trkpt lat="46.21297" lon="6.75414">
        <ele>1151.1999511719</ele>
        <time>2026-07-07T08:22:45.000Z</time>
      </trkpt>
      <trkpt lat="46.21298" lon="6.75414">
        <ele>1151.1999511719</ele>
        <time>2026-07-07T08:22:46.000Z</time>
      </trkpt>
      <trkpt lat="46.21301" lon="6.75414">
        <ele>1152.1999511719</ele>
        <time>2026-07-07T08:22:52.000Z</time>
      </trkpt>
      <trkpt lat="46.21302" lon="6.75414">
        <ele>1152.5999755859</ele>
        <time>2026-07-07T08:22:54.000Z</time>
      </trkpt>
      <trkpt lat="46.21303" lon="6.75413">
        <ele>1153.4000244141</ele>
        <time>2026-07-07T08:22:59.000Z</time>
      </trkpt>
      <trkpt lat="46.21305" lon="6.75413">
        <ele>1153.8000488281</ele>
        <time>2026-07-07T08:23:02.000Z</time>
      </trkpt>
      <trkpt lat="46.21309" lon="6.75413">
        <ele>1154.4000244141</ele>
        <time>2026-07-07T08:23:06.000Z</time>
      </trkpt>
      <trkpt lat="46.21313" lon="6.75415">
        <ele>1154.8000488281</ele>
        <time>2026-07-07T08:23:09.000Z</time>
      </trkpt>
      <trkpt lat="46.21318" lon="6.75418">
        <ele>1155.4000244141</ele>
        <time>2026-07-07T08:23:13.000Z</time>
      </trkpt>
      <trkpt lat="46.2132" lon="6.75418">
        <ele>1155.8000488281</ele>
        <time>2026-07-07T08:23:15.000Z</time>
      </trkpt>
      <trkpt lat="46.21323" lon="6.75419">
        <ele>1156.5999755859</ele>
        <time>2026-07-07T08:23:19.000Z</time>
      </trkpt>
      <trkpt lat="46.21326" lon="6.75419">
        <ele>1157</ele>
        <time>2026-07-07T08:23:21.000Z</time>
      </trkpt>
      <trkpt lat="46.21331" lon="6.7542">
        <ele>1157.5999755859</ele>
        <time>2026-07-07T08:23:25.000Z</time>
      </trkpt>
      <trkpt lat="46.21333" lon="6.75419">
        <ele>1158.4000244141</ele>
        <time>2026-07-07T08:23:28.000Z</time>
      </trkpt>
      <trkpt lat="46.21336" lon="6.75419">
        <ele>1158.8000488281</ele>
        <time>2026-07-07T08:23:31.000Z</time>
      </trkpt>
      <trkpt lat="46.21339" lon="6.75418">
        <ele>1159.4000244141</ele>
        <time>2026-07-07T08:23:34.000Z</time>
      </trkpt>
      <trkpt lat="46.21341" lon="6.75418">
        <ele>1160</ele>
        <time>2026-07-07T08:23:36.000Z</time>
      </trkpt>
      <trkpt lat="46.21344" lon="6.75418">
        <ele>1160.5999755859</ele>
        <time>2026-07-07T08:23:40.000Z</time>
      </trkpt>
      <trkpt lat="46.21346" lon="6.75418">
        <ele>1161</ele>
        <time>2026-07-07T08:23:42.000Z</time>
      </trkpt>
      <trkpt lat="46.21351" lon="6.75417">
        <ele>1162</ele>
        <time>2026-07-07T08:23:48.000Z</time>
      </trkpt>
      <trkpt lat="46.21351" lon="6.75418">
        <ele>1162.1999511719</ele>
        <time>2026-07-07T08:23:49.000Z</time>
      </trkpt>
      <trkpt lat="46.21354" lon="6.75417">
        <ele>1163.1999511719</ele>
        <time>2026-07-07T08:23:56.000Z</time>
      </trkpt>
      <trkpt lat="46.21357" lon="6.75417">
        <ele>1163.5999755859</ele>
        <time>2026-07-07T08:23:58.000Z</time>
      </trkpt>
      <trkpt lat="46.21362" lon="6.75418">
        <ele>1164.4000244141</ele>
        <time>2026-07-07T08:24:02.000Z</time>
      </trkpt>
      <trkpt lat="46.21365" lon="6.75418">
        <ele>1165</ele>
        <time>2026-07-07T08:24:06.000Z</time>
      </trkpt>
      <trkpt lat="46.21367" lon="6.75418">
        <ele>1165.4000244141</ele>
        <time>2026-07-07T08:24:08.000Z</time>
      </trkpt>
      <trkpt lat="46.21374" lon="6.75418">
        <ele>1166.5999755859</ele>
        <time>2026-07-07T08:24:14.000Z</time>
      </trkpt>
      <trkpt lat="46.21375" lon="6.75418">
        <ele>1166.8000488281</ele>
        <time>2026-07-07T08:24:15.000Z</time>
      </trkpt>
      <trkpt lat="46.21379" lon="6.75417">
        <ele>1167.5999755859</ele>
        <time>2026-07-07T08:24:19.000Z</time>
      </trkpt>
      <trkpt lat="46.21382" lon="6.75419">
        <ele>1168.5999755859</ele>
        <time>2026-07-07T08:24:24.000Z</time>
      </trkpt>
      <trkpt lat="46.21389" lon="6.75421">
        <ele>1169.4000244141</ele>
        <time>2026-07-07T08:24:29.000Z</time>
      </trkpt>
      <trkpt lat="46.2139" lon="6.75422">
        <ele>1169.5999755859</ele>
        <time>2026-07-07T08:24:30.000Z</time>
      </trkpt>
      <trkpt lat="46.21394" lon="6.75425">
        <ele>1170.4000244141</ele>
        <time>2026-07-07T08:24:34.000Z</time>
      </trkpt>
      <trkpt lat="46.21395" lon="6.75427">
        <ele>1170.5999755859</ele>
        <time>2026-07-07T08:24:36.000Z</time>
      </trkpt>
      <trkpt lat="46.21398" lon="6.75429">
        <ele>1171.5999755859</ele>
        <time>2026-07-07T08:24:41.000Z</time>
      </trkpt>
      <trkpt lat="46.21402" lon="6.75433">
        <ele>1172.4000244141</ele>
        <time>2026-07-07T08:24:46.000Z</time>
      </trkpt>
      <trkpt lat="46.21405" lon="6.75434">
        <ele>1172.8000488281</ele>
        <time>2026-07-07T08:24:49.000Z</time>
      </trkpt>
      <trkpt lat="46.2141" lon="6.75436">
        <ele>1173.8000488281</ele>
        <time>2026-07-07T08:24:54.000Z</time>
      </trkpt>
      <trkpt lat="46.21415" lon="6.7544">
        <ele>1174.8000488281</ele>
        <time>2026-07-07T08:25:00.000Z</time>
      </trkpt>
      <trkpt lat="46.21417" lon="6.75442">
        <ele>1175.1999511719</ele>
        <time>2026-07-07T08:25:02.000Z</time>
      </trkpt>
      <trkpt lat="46.2142" lon="6.75447">
        <ele>1176</ele>
        <time>2026-07-07T08:25:07.000Z</time>
      </trkpt>
      <trkpt lat="46.21422" lon="6.7545">
        <ele>1176.5999755859</ele>
        <time>2026-07-07T08:25:10.000Z</time>
      </trkpt>
      <trkpt lat="46.21425" lon="6.75453">
        <ele>1177.1999511719</ele>
        <time>2026-07-07T08:25:13.000Z</time>
      </trkpt>
      <trkpt lat="46.21429" lon="6.7546">
        <ele>1178.1999511719</ele>
        <time>2026-07-07T08:25:19.000Z</time>
      </trkpt>
      <trkpt lat="46.21429" lon="6.75461">
        <ele>1178.1999511719</ele>
        <time>2026-07-07T08:25:20.000Z</time>
      </trkpt>
      <trkpt lat="46.2143" lon="6.75467">
        <ele>1179.4000244141</ele>
        <time>2026-07-07T08:25:26.000Z</time>
      </trkpt>
      <trkpt lat="46.21431" lon="6.75469">
        <ele>1179.5999755859</ele>
        <time>2026-07-07T08:25:27.000Z</time>
      </trkpt>
      <trkpt lat="46.21432" lon="6.75475">
        <ele>1180.4000244141</ele>
        <time>2026-07-07T08:25:33.000Z</time>
      </trkpt>
      <trkpt lat="46.21435" lon="6.7548">
        <ele>1181.4000244141</ele>
        <time>2026-07-07T08:25:39.000Z</time>
      </trkpt>
      <trkpt lat="46.21436" lon="6.75481">
        <ele>1181.5999755859</ele>
        <time>2026-07-07T08:25:40.000Z</time>
      </trkpt>
      <trkpt lat="46.2144" lon="6.75487">
        <ele>1182</ele>
        <time>2026-07-07T08:25:47.000Z</time>
      </trkpt>
      <trkpt lat="46.21443" lon="6.7549">
        <ele>1181</ele>
        <time>2026-07-07T08:25:55.000Z</time>
      </trkpt>
      <trkpt lat="46.21443" lon="6.7549">
        <ele>1180.5999755859</ele>
        <time>2026-07-07T08:25:56.000Z</time>
      </trkpt>
      <trkpt lat="46.2144" lon="6.75494">
        <ele>1180</ele>
        <time>2026-07-07T08:26:03.000Z</time>
      </trkpt>
      <trkpt lat="46.21441" lon="6.75495">
        <ele>1180</ele>
        <time>2026-07-07T08:26:06.000Z</time>
      </trkpt>
      <trkpt lat="46.21441" lon="6.75496">
        <ele>1180</ele>
        <time>2026-07-07T08:26:08.000Z</time>
      </trkpt>
      <trkpt lat="46.21441" lon="6.75496">
        <ele>1180</ele>
        <time>2026-07-07T08:26:09.000Z</time>
      </trkpt>
      <trkpt lat="46.21441" lon="6.75494">
        <ele>1179.8000488281</ele>
        <time>2026-07-07T08:26:14.000Z</time>
      </trkpt>
      <trkpt lat="46.21441" lon="6.75494">
        <ele>1179.5999755859</ele>
        <time>2026-07-07T08:26:18.000Z</time>
      </trkpt>
      <trkpt lat="46.21441" lon="6.75494">
        <ele>1179.5999755859</ele>
        <time>2026-07-07T08:26:19.000Z</time>
      </trkpt>
      <trkpt lat="46.21441" lon="6.75495">
        <ele>1179.1999511719</ele>
        <time>2026-07-07T08:26:22.000Z</time>
      </trkpt>
      <trkpt lat="46.21441" lon="6.75495">
        <ele>1179</ele>
        <time>2026-07-07T08:26:24.000Z</time>
      </trkpt>
      <trkpt lat="46.21441" lon="6.75493">
        <ele>1179</ele>
        <time>2026-07-07T08:26:27.000Z</time>
      </trkpt>
      <trkpt lat="46.21442" lon="6.75492">
        <ele>1179</ele>
        <time>2026-07-07T08:26:30.000Z</time>
      </trkpt>
      <trkpt lat="46.21442" lon="6.75492">
        <ele>1179</ele>
        <time>2026-07-07T08:26:32.000Z</time>
      </trkpt>
      <trkpt lat="46.21443" lon="6.75492">
        <ele>1179</ele>
        <time>2026-07-07T08:26:34.000Z</time>
      </trkpt>
      <trkpt lat="46.21444" lon="6.75492">
        <ele>1179</ele>
        <time>2026-07-07T08:26:37.000Z</time>
      </trkpt>
      <trkpt lat="46.21444" lon="6.75493">
        <ele>1179.4000244141</ele>
        <time>2026-07-07T08:26:40.000Z</time>
      </trkpt>
      <trkpt lat="46.21446" lon="6.75495">
        <ele>1179.5999755859</ele>
        <time>2026-07-07T08:26:48.000Z</time>
      </trkpt>
      <trkpt lat="46.21446" lon="6.75495">
        <ele>1179.5999755859</ele>
        <time>2026-07-07T08:26:50.000Z</time>
      </trkpt>
      <trkpt lat="46.21441" lon="6.75492">
        <ele>1179.5999755859</ele>
        <time>2026-07-07T08:26:58.000Z</time>
      </trkpt>
      <trkpt lat="46.21442" lon="6.75491">
        <ele>1179.5999755859</ele>
        <time>2026-07-07T08:27:02.000Z</time>
      </trkpt>
      <trkpt lat="46.21444" lon="6.75491">
        <ele>1179.5999755859</ele>
        <time>2026-07-07T08:27:08.000Z</time>
      </trkpt>
      <trkpt lat="46.2145" lon="6.75493">
        <ele>1179.5999755859</ele>
        <time>2026-07-07T08:27:15.000Z</time>
      </trkpt>
      <trkpt lat="46.21446" lon="6.75492">
        <ele>1179.5999755859</ele>
        <time>2026-07-07T08:27:27.000Z</time>
      </trkpt>
      <trkpt lat="46.21441" lon="6.75491">
        <ele>1179.4000244141</ele>
        <time>2026-07-07T08:27:37.000Z</time>
      </trkpt>
      <trkpt lat="46.21436" lon="6.75493">
        <ele>1179.5999755859</ele>
        <time>2026-07-07T08:27:47.000Z</time>
      </trkpt>
      <trkpt lat="46.21437" lon="6.75493">
        <ele>1179.4000244141</ele>
        <time>2026-07-07T08:27:56.000Z</time>
      </trkpt>
      <trkpt lat="46.21439" lon="6.75493">
        <ele>1179.5999755859</ele>
        <time>2026-07-07T08:28:06.000Z</time>
      </trkpt>
      <trkpt lat="46.21442" lon="6.75494">
        <ele>1179.4000244141</ele>
        <time>2026-07-07T08:28:19.000Z</time>
      </trkpt>
      <trkpt lat="46.21443" lon="6.75493">
        <ele>1179.4000244141</ele>
        <time>2026-07-07T08:28:28.000Z</time>
      </trkpt>
      <trkpt lat="46.21442" lon="6.75493">
        <ele>1179.4000244141</ele>
        <time>2026-07-07T08:28:33.000Z</time>
      </trkpt>
      <trkpt lat="46.21441" lon="6.75493">
        <ele>1179.1999511719</ele>
        <time>2026-07-07T08:28:39.000Z</time>
      </trkpt>
      <trkpt lat="46.21441" lon="6.75493">
        <ele>1179.1999511719</ele>
        <time>2026-07-07T08:28:40.000Z</time>
      </trkpt>
      <trkpt lat="46.21439" lon="6.75491">
        <ele>1179.1999511719</ele>
        <time>2026-07-07T08:28:51.000Z</time>
      </trkpt>
      <trkpt lat="46.21439" lon="6.75489">
        <ele>1179.4000244141</ele>
        <time>2026-07-07T08:29:02.000Z</time>
      </trkpt>
      <trkpt lat="46.21438" lon="6.75488">
        <ele>1179.1999511719</ele>
        <time>2026-07-07T08:29:06.000Z</time>
      </trkpt>
      <trkpt lat="46.21439" lon="6.7549">
        <ele>1179</ele>
        <time>2026-07-07T08:29:15.000Z</time>
      </trkpt>
      <trkpt lat="46.21439" lon="6.75493">
        <ele>1179</ele>
        <time>2026-07-07T08:29:20.000Z</time>
      </trkpt>
      <trkpt lat="46.2144" lon="6.75495">
        <ele>1179</ele>
        <time>2026-07-07T08:29:24.000Z</time>
      </trkpt>
      <trkpt lat="46.2144" lon="6.75495">
        <ele>1179</ele>
        <time>2026-07-07T08:29:26.000Z</time>
      </trkpt>
      <trkpt lat="46.2144" lon="6.75494">
        <ele>1179</ele>
        <time>2026-07-07T08:29:28.000Z</time>
      </trkpt>
      <trkpt lat="46.2144" lon="6.7549">
        <ele>1178.8000488281</ele>
        <time>2026-07-07T08:29:35.000Z</time>
      </trkpt>
      <trkpt lat="46.21438" lon="6.75487">
        <ele>1179</ele>
        <time>2026-07-07T08:29:45.000Z</time>
      </trkpt>
      <trkpt lat="46.21441" lon="6.75491">
        <ele>1179</ele>
        <time>2026-07-07T08:29:53.000Z</time>
      </trkpt>
      <trkpt lat="46.21442" lon="6.75491">
        <ele>1179</ele>
        <time>2026-07-07T08:29:55.000Z</time>
      </trkpt>
      <trkpt lat="46.21441" lon="6.75491">
        <ele>1179</ele>
        <time>2026-07-07T08:29:56.000Z</time>
      </trkpt>
      <trkpt lat="46.21441" lon="6.75491">
        <ele>1179</ele>
        <time>2026-07-07T08:29:57.000Z</time>
      </trkpt>
      <trkpt lat="46.21441" lon="6.75491">
        <ele>1179</ele>
        <time>2026-07-07T08:29:58.000Z</time>
      </trkpt>
      <trkpt lat="46.21442" lon="6.75491">
        <ele>1179.1999511719</ele>
        <time>2026-07-07T08:30:04.000Z</time>
      </trkpt>
      <trkpt lat="46.21441" lon="6.7549">
        <ele>1179</ele>
        <time>2026-07-07T08:30:14.000Z</time>
      </trkpt>
      <trkpt lat="46.2144" lon="6.75487">
        <ele>1179</ele>
        <time>2026-07-07T08:30:25.000Z</time>
      </trkpt>
      <trkpt lat="46.21444" lon="6.7549">
        <ele>1178.8000488281</ele>
        <time>2026-07-07T08:30:34.000Z</time>
      </trkpt>
      <trkpt lat="46.21445" lon="6.75491">
        <ele>1179</ele>
        <time>2026-07-07T08:30:36.000Z</time>
      </trkpt>
      <trkpt lat="46.21445" lon="6.75492">
        <ele>1179</ele>
        <time>2026-07-07T08:30:40.000Z</time>
      </trkpt>
      <trkpt lat="46.21445" lon="6.75493">
        <ele>1179</ele>
        <time>2026-07-07T08:30:42.000Z</time>
      </trkpt>
      <trkpt lat="46.21444" lon="6.75493">
        <ele>1178.8000488281</ele>
        <time>2026-07-07T08:30:45.000Z</time>
      </trkpt>
      <trkpt lat="46.21444" lon="6.75495">
        <ele>1178.8000488281</ele>
        <time>2026-07-07T08:30:54.000Z</time>
      </trkpt>
      <trkpt lat="46.21444" lon="6.75496">
        <ele>1179</ele>
        <time>2026-07-07T08:31:03.000Z</time>
      </trkpt>
      <trkpt lat="46.21444" lon="6.75493">
        <ele>1179</ele>
        <time>2026-07-07T08:31:07.000Z</time>
      </trkpt>
      <trkpt lat="46.21444" lon="6.75492">
        <ele>1178.8000488281</ele>
        <time>2026-07-07T08:31:11.000Z</time>
      </trkpt>
      <trkpt lat="46.21442" lon="6.75494">
        <ele>1179</ele>
        <time>2026-07-07T08:31:21.000Z</time>
      </trkpt>
      <trkpt lat="46.21438" lon="6.75494">
        <ele>1178.8000488281</ele>
        <time>2026-07-07T08:31:32.000Z</time>
      </trkpt>
      <trkpt lat="46.21441" lon="6.75488">
        <ele>1179.1999511719</ele>
        <time>2026-07-07T08:31:40.000Z</time>
      </trkpt>
      <trkpt lat="46.2144" lon="6.75486">
        <ele>1180.5999755859</ele>
        <time>2026-07-07T08:31:46.000Z</time>
      </trkpt>
      <trkpt lat="46.21439" lon="6.75485">
        <ele>1180.8000488281</ele>
        <time>2026-07-07T08:31:47.000Z</time>
      </trkpt>
      <trkpt lat="46.21437" lon="6.75481">
        <ele>1181</ele>
        <time>2026-07-07T08:31:54.000Z</time>
      </trkpt>
      <trkpt lat="46.21436" lon="6.7548">
        <ele>1181.1999511719</ele>
        <time>2026-07-07T08:31:58.000Z</time>
      </trkpt>
      <trkpt lat="46.21435" lon="6.75479">
        <ele>1181.1999511719</ele>
        <time>2026-07-07T08:32:01.000Z</time>
      </trkpt>
      <trkpt lat="46.21435" lon="6.7548">
        <ele>1181.1999511719</ele>
        <time>2026-07-07T08:32:03.000Z</time>
      </trkpt>
      <trkpt lat="46.21434" lon="6.7548">
        <ele>1181.1999511719</ele>
        <time>2026-07-07T08:32:06.000Z</time>
      </trkpt>
      <trkpt lat="46.21434" lon="6.75481">
        <ele>1181.1999511719</ele>
        <time>2026-07-07T08:32:07.000Z</time>
      </trkpt>
      <trkpt lat="46.21432" lon="6.75481">
        <ele>1181.4000244141</ele>
        <time>2026-07-07T08:32:15.000Z</time>
      </trkpt>
      <trkpt lat="46.21432" lon="6.75482">
        <ele>1181.5999755859</ele>
        <time>2026-07-07T08:32:17.000Z</time>
      </trkpt>
      <trkpt lat="46.21433" lon="6.75489">
        <ele>1182.4000244141</ele>
        <time>2026-07-07T08:32:23.000Z</time>
      </trkpt>
      <trkpt lat="46.21433" lon="6.75491">
        <ele>1182.8000488281</ele>
        <time>2026-07-07T08:32:25.000Z</time>
      </trkpt>
      <trkpt lat="46.21432" lon="6.75496">
        <ele>1183.5999755859</ele>
        <time>2026-07-07T08:32:30.000Z</time>
      </trkpt>
      <trkpt lat="46.21432" lon="6.75496">
        <ele>1183.8000488281</ele>
        <time>2026-07-07T08:32:31.000Z</time>
      </trkpt>
      <trkpt lat="46.21432" lon="6.755">
        <ele>1184.4000244141</ele>
        <time>2026-07-07T08:32:34.000Z</time>
      </trkpt>
      <trkpt lat="46.21432" lon="6.75504">
        <ele>1185</ele>
        <time>2026-07-07T08:32:37.000Z</time>
      </trkpt>
      <trkpt lat="46.21433" lon="6.75505">
        <ele>1185.1999511719</ele>
        <time>2026-07-07T08:32:38.000Z</time>
      </trkpt>
      <trkpt lat="46.21433" lon="6.75511">
        <ele>1186</ele>
        <time>2026-07-07T08:32:44.000Z</time>
      </trkpt>
      <trkpt lat="46.21434" lon="6.75513">
        <ele>1186.4000244141</ele>
        <time>2026-07-07T08:32:47.000Z</time>
      </trkpt>
      <trkpt lat="46.21435" lon="6.75516">
        <ele>1187</ele>
        <time>2026-07-07T08:32:55.000Z</time>
      </trkpt>
      <trkpt lat="46.21439" lon="6.75514">
        <ele>1186.8000488281</ele>
        <time>2026-07-07T08:33:05.000Z</time>
      </trkpt>
      <trkpt lat="46.21447" lon="6.75516">
        <ele>1186.5999755859</ele>
        <time>2026-07-07T08:33:15.000Z</time>
      </trkpt>
      <trkpt lat="46.2145" lon="6.75517">
        <ele>1186.4000244141</ele>
        <time>2026-07-07T08:33:24.000Z</time>
      </trkpt>
      <trkpt lat="46.21451" lon="6.75518">
        <ele>1186.1999511719</ele>
        <time>2026-07-07T08:33:33.000Z</time>
      </trkpt>
      <trkpt lat="46.21451" lon="6.75518">
        <ele>1186.1999511719</ele>
        <time>2026-07-07T08:33:41.000Z</time>
      </trkpt>
      <trkpt lat="46.21451" lon="6.75518">
        <ele>1186.1999511719</ele>
        <time>2026-07-07T08:33:42.000Z</time>
      </trkpt>
      <trkpt lat="46.2145" lon="6.7552">
        <ele>1186.1999511719</ele>
        <time>2026-07-07T08:33:51.000Z</time>
      </trkpt>
      <trkpt lat="46.2145" lon="6.75521">
        <ele>1186.1999511719</ele>
        <time>2026-07-07T08:33:52.000Z</time>
      </trkpt>
      <trkpt lat="46.2145" lon="6.75521">
        <ele>1186.1999511719</ele>
        <time>2026-07-07T08:33:53.000Z</time>
      </trkpt>
      <trkpt lat="46.2145" lon="6.7552">
        <ele>1186</ele>
        <time>2026-07-07T08:33:54.000Z</time>
      </trkpt>
      <trkpt lat="46.2145" lon="6.7552">
        <ele>1186</ele>
        <time>2026-07-07T08:33:55.000Z</time>
      </trkpt>
      <trkpt lat="46.2145" lon="6.75517">
        <ele>1186.4000244141</ele>
        <time>2026-07-07T08:34:07.000Z</time>
      </trkpt>
      <trkpt lat="46.21451" lon="6.75515">
        <ele>1186.5999755859</ele>
        <time>2026-07-07T08:34:17.000Z</time>
      </trkpt>
      <trkpt lat="46.21449" lon="6.75517">
        <ele>1186.5999755859</ele>
        <time>2026-07-07T08:34:20.000Z</time>
      </trkpt>
      <trkpt lat="46.21446" lon="6.75519">
        <ele>1186.4000244141</ele>
        <time>2026-07-07T08:34:26.000Z</time>
      </trkpt>
      <trkpt lat="46.21443" lon="6.75516">
        <ele>1186.4000244141</ele>
        <time>2026-07-07T08:34:33.000Z</time>
      </trkpt>
      <trkpt lat="46.21442" lon="6.75515">
        <ele>1186.4000244141</ele>
        <time>2026-07-07T08:34:34.000Z</time>
      </trkpt>
      <trkpt lat="46.21439" lon="6.75512">
        <ele>1186.1999511719</ele>
        <time>2026-07-07T08:34:44.000Z</time>
      </trkpt>
      <trkpt lat="46.21441" lon="6.7551">
        <ele>1186.1999511719</ele>
        <time>2026-07-07T08:34:56.000Z</time>
      </trkpt>
      <trkpt lat="46.21442" lon="6.7551">
        <ele>1186.1999511719</ele>
        <time>2026-07-07T08:35:04.000Z</time>
      </trkpt>
      <trkpt lat="46.21443" lon="6.75512">
        <ele>1186.1999511719</ele>
        <time>2026-07-07T08:35:12.000Z</time>
      </trkpt>
      <trkpt lat="46.21445" lon="6.75513">
        <ele>1186.1999511719</ele>
        <time>2026-07-07T08:35:21.000Z</time>
      </trkpt>
      <trkpt lat="46.21437" lon="6.75515">
        <ele>1186</ele>
        <time>2026-07-07T08:35:31.000Z</time>
      </trkpt>
      <trkpt lat="46.21432" lon="6.7552">
        <ele>1186.1999511719</ele>
        <time>2026-07-07T08:35:40.000Z</time>
      </trkpt>
      <trkpt lat="46.21431" lon="6.75528">
        <ele>1186.8000488281</ele>
        <time>2026-07-07T08:35:47.000Z</time>
      </trkpt>
      <trkpt lat="46.21431" lon="6.75528">
        <ele>1187</ele>
        <time>2026-07-07T08:35:48.000Z</time>
      </trkpt>
      <trkpt lat="46.21432" lon="6.75527">
        <ele>1187</ele>
        <time>2026-07-07T08:35:50.000Z</time>
      </trkpt>
      <trkpt lat="46.21431" lon="6.75527">
        <ele>1187</ele>
        <time>2026-07-07T08:35:54.000Z</time>
      </trkpt>
      <trkpt lat="46.21429" lon="6.75533">
        <ele>1187.4000244141</ele>
        <time>2026-07-07T08:36:01.000Z</time>
      </trkpt>
      <trkpt lat="46.2143" lon="6.75536">
        <ele>1188.1999511719</ele>
        <time>2026-07-07T08:36:08.000Z</time>
      </trkpt>
      <trkpt lat="46.21431" lon="6.75536">
        <ele>1188.1999511719</ele>
        <time>2026-07-07T08:36:09.000Z</time>
      </trkpt>
      <trkpt lat="46.2143" lon="6.7554">
        <ele>1188.8000488281</ele>
        <time>2026-07-07T08:36:18.000Z</time>
      </trkpt>
      <trkpt lat="46.21431" lon="6.75538">
        <ele>1188.5999755859</ele>
        <time>2026-07-07T08:36:28.000Z</time>
      </trkpt>
      <trkpt lat="46.2143" lon="6.75534">
        <ele>1188.8000488281</ele>
        <time>2026-07-07T08:36:37.000Z</time>
      </trkpt>
      <trkpt lat="46.21428" lon="6.75534">
        <ele>1188.8000488281</ele>
        <time>2026-07-07T08:36:42.000Z</time>
      </trkpt>
      <trkpt lat="46.2143" lon="6.75532">
        <ele>1188.4000244141</ele>
        <time>2026-07-07T08:36:47.000Z</time>
      </trkpt>
      <trkpt lat="46.21429" lon="6.75536">
        <ele>1188.4000244141</ele>
        <time>2026-07-07T08:36:54.000Z</time>
      </trkpt>
      <trkpt lat="46.2143" lon="6.75536">
        <ele>1188.5999755859</ele>
        <time>2026-07-07T08:37:04.000Z</time>
      </trkpt>
      <trkpt lat="46.2143" lon="6.75536">
        <ele>1188.5999755859</ele>
        <time>2026-07-07T08:37:05.000Z</time>
      </trkpt>
      <trkpt lat="46.21429" lon="6.75538">
        <ele>1188.8000488281</ele>
        <time>2026-07-07T08:37:08.000Z</time>
      </trkpt>
      <trkpt lat="46.21427" lon="6.75541">
        <ele>1188.8000488281</ele>
        <time>2026-07-07T08:37:14.000Z</time>
      </trkpt>
      <trkpt lat="46.21427" lon="6.75539">
        <ele>1188.8000488281</ele>
        <time>2026-07-07T08:37:18.000Z</time>
      </trkpt>
      <trkpt lat="46.21427" lon="6.75539">
        <ele>1188.5999755859</ele>
        <time>2026-07-07T08:37:22.000Z</time>
      </trkpt>
      <trkpt lat="46.21426" lon="6.75539">
        <ele>1188.5999755859</ele>
        <time>2026-07-07T08:37:23.000Z</time>
      </trkpt>
      <trkpt lat="46.21425" lon="6.75539">
        <ele>1188.4000244141</ele>
        <time>2026-07-07T08:37:31.000Z</time>
      </trkpt>
      <trkpt lat="46.21427" lon="6.75537">
        <ele>1188.4000244141</ele>
        <time>2026-07-07T08:37:39.000Z</time>
      </trkpt>
      <trkpt lat="46.21428" lon="6.75538">
        <ele>1188.4000244141</ele>
        <time>2026-07-07T08:37:43.000Z</time>
      </trkpt>
      <trkpt lat="46.21431" lon="6.75539">
        <ele>1188.5999755859</ele>
        <time>2026-07-07T08:37:50.000Z</time>
      </trkpt>
      <trkpt lat="46.21429" lon="6.75535">
        <ele>1188.8000488281</ele>
        <time>2026-07-07T08:37:59.000Z</time>
      </trkpt>
      <trkpt lat="46.21429" lon="6.75533">
        <ele>1188.8000488281</ele>
        <time>2026-07-07T08:38:02.000Z</time>
      </trkpt>
      <trkpt lat="46.21428" lon="6.75536">
        <ele>1188.8000488281</ele>
        <time>2026-07-07T08:38:09.000Z</time>
      </trkpt>
      <trkpt lat="46.21424" lon="6.75539">
        <ele>1188.5999755859</ele>
        <time>2026-07-07T08:38:18.000Z</time>
      </trkpt>
      <trkpt lat="46.21424" lon="6.75541">
        <ele>1188.5999755859</ele>
        <time>2026-07-07T08:38:25.000Z</time>
      </trkpt>
      <trkpt lat="46.21425" lon="6.75541">
        <ele>1188.4000244141</ele>
        <time>2026-07-07T08:38:31.000Z</time>
      </trkpt>
      <trkpt lat="46.21426" lon="6.75539">
        <ele>1188.5999755859</ele>
        <time>2026-07-07T08:38:36.000Z</time>
      </trkpt>
      <trkpt lat="46.21424" lon="6.7554">
        <ele>1188.5999755859</ele>
        <time>2026-07-07T08:38:41.000Z</time>
      </trkpt>
      <trkpt lat="46.21424" lon="6.75542">
        <ele>1188.5999755859</ele>
        <time>2026-07-07T08:38:44.000Z</time>
      </trkpt>
      <trkpt lat="46.21424" lon="6.75543">
        <ele>1188.5999755859</ele>
        <time>2026-07-07T08:38:45.000Z</time>
      </trkpt>
      <trkpt lat="46.21426" lon="6.75541">
        <ele>1188.8000488281</ele>
        <time>2026-07-07T08:38:55.000Z</time>
      </trkpt>
      <trkpt lat="46.21427" lon="6.75541">
        <ele>1188.8000488281</ele>
        <time>2026-07-07T08:39:00.000Z</time>
      </trkpt>
      <trkpt lat="46.21428" lon="6.75542">
        <ele>1188.5999755859</ele>
        <time>2026-07-07T08:39:05.000Z</time>
      </trkpt>
      <trkpt lat="46.21428" lon="6.75542">
        <ele>1188.4000244141</ele>
        <time>2026-07-07T08:39:11.000Z</time>
      </trkpt>
      <trkpt lat="46.21427" lon="6.75541">
        <ele>1188.4000244141</ele>
        <time>2026-07-07T08:39:15.000Z</time>
      </trkpt>
      <trkpt lat="46.21429" lon="6.7554">
        <ele>1188.4000244141</ele>
        <time>2026-07-07T08:39:24.000Z</time>
      </trkpt>
      <trkpt lat="46.21431" lon="6.75538">
        <ele>1188.4000244141</ele>
        <time>2026-07-07T08:39:37.000Z</time>
      </trkpt>
      <trkpt lat="46.21427" lon="6.75535">
        <ele>1188.8000488281</ele>
        <time>2026-07-07T08:39:50.000Z</time>
      </trkpt>
      <trkpt lat="46.21425" lon="6.75537">
        <ele>1188.4000244141</ele>
        <time>2026-07-07T08:39:58.000Z</time>
      </trkpt>
      <trkpt lat="46.21427" lon="6.75536">
        <ele>1188.5999755859</ele>
        <time>2026-07-07T08:40:07.000Z</time>
      </trkpt>
      <trkpt lat="46.2143" lon="6.75536">
        <ele>1188.8000488281</ele>
        <time>2026-07-07T08:40:19.000Z</time>
      </trkpt>
      <trkpt lat="46.21434" lon="6.75538">
        <ele>1188.8000488281</ele>
        <time>2026-07-07T08:40:29.000Z</time>
      </trkpt>
      <trkpt lat="46.21436" lon="6.7554">
        <ele>1188.8000488281</ele>
        <time>2026-07-07T08:40:41.000Z</time>
      </trkpt>
      <trkpt lat="46.21434" lon="6.7554">
        <ele>1188.8000488281</ele>
        <time>2026-07-07T08:40:50.000Z</time>
      </trkpt>
      <trkpt lat="46.21431" lon="6.75539">
        <ele>1188.5999755859</ele>
        <time>2026-07-07T08:40:59.000Z</time>
      </trkpt>
      <trkpt lat="46.21429" lon="6.75536">
        <ele>1188.4000244141</ele>
        <time>2026-07-07T08:41:06.000Z</time>
      </trkpt>
      <trkpt lat="46.21429" lon="6.75536">
        <ele>1188.4000244141</ele>
        <time>2026-07-07T08:41:07.000Z</time>
      </trkpt>
      <trkpt lat="46.21427" lon="6.75535">
        <ele>1188.4000244141</ele>
        <time>2026-07-07T08:41:12.000Z</time>
      </trkpt>
      <trkpt lat="46.21428" lon="6.75535">
        <ele>1188.4000244141</ele>
        <time>2026-07-07T08:41:20.000Z</time>
      </trkpt>
      <trkpt lat="46.21429" lon="6.75537">
        <ele>1188.5999755859</ele>
        <time>2026-07-07T08:41:30.000Z</time>
      </trkpt>
      <trkpt lat="46.21433" lon="6.75533">
        <ele>1188.4000244141</ele>
        <time>2026-07-07T08:41:39.000Z</time>
      </trkpt>
      <trkpt lat="46.21434" lon="6.75535">
        <ele>1188.5999755859</ele>
        <time>2026-07-07T08:41:50.000Z</time>
      </trkpt>
      <trkpt lat="46.21432" lon="6.75536">
        <ele>1188.5999755859</ele>
        <time>2026-07-07T08:41:58.000Z</time>
      </trkpt>
      <trkpt lat="46.2143" lon="6.75536">
        <ele>1188.5999755859</ele>
        <time>2026-07-07T08:42:04.000Z</time>
      </trkpt>
      <trkpt lat="46.21429" lon="6.75536">
        <ele>1188.8000488281</ele>
        <time>2026-07-07T08:42:08.000Z</time>
      </trkpt>
      <trkpt lat="46.21431" lon="6.75533">
        <ele>1188.8000488281</ele>
        <time>2026-07-07T08:42:18.000Z</time>
      </trkpt>
      <trkpt lat="46.21433" lon="6.75532">
        <ele>1189</ele>
        <time>2026-07-07T08:42:23.000Z</time>
      </trkpt>
      <trkpt lat="46.21436" lon="6.75531">
        <ele>1188.8000488281</ele>
        <time>2026-07-07T08:42:29.000Z</time>
      </trkpt>
      <trkpt lat="46.21434" lon="6.75534">
        <ele>1188.4000244141</ele>
        <time>2026-07-07T08:42:37.000Z</time>
      </trkpt>
      <trkpt lat="46.2143" lon="6.75537">
        <ele>1188.4000244141</ele>
        <time>2026-07-07T08:42:43.000Z</time>
      </trkpt>
      <trkpt lat="46.21429" lon="6.75538">
        <ele>1188.4000244141</ele>
        <time>2026-07-07T08:42:48.000Z</time>
      </trkpt>
      <trkpt lat="46.21428" lon="6.75538">
        <ele>1188.1999511719</ele>
        <time>2026-07-07T08:42:55.000Z</time>
      </trkpt>
      <trkpt lat="46.21427" lon="6.75538">
        <ele>1188.4000244141</ele>
        <time>2026-07-07T08:43:02.000Z</time>
      </trkpt>
      <trkpt lat="46.21426" lon="6.75537">
        <ele>1188.4000244141</ele>
        <time>2026-07-07T08:43:06.000Z</time>
      </trkpt>
      <trkpt lat="46.21424" lon="6.75535">
        <ele>1188.8000488281</ele>
        <time>2026-07-07T08:43:17.000Z</time>
      </trkpt>
      <trkpt lat="46.21427" lon="6.75537">
        <ele>1188.8000488281</ele>
        <time>2026-07-07T08:43:28.000Z</time>
      </trkpt>
      <trkpt lat="46.21432" lon="6.75532">
        <ele>1188.8000488281</ele>
        <time>2026-07-07T08:43:37.000Z</time>
      </trkpt>
      <trkpt lat="46.21432" lon="6.75535">
        <ele>1188.8000488281</ele>
        <time>2026-07-07T08:43:47.000Z</time>
      </trkpt>
      <trkpt lat="46.21429" lon="6.75536">
        <ele>1188.5999755859</ele>
        <time>2026-07-07T08:43:57.000Z</time>
      </trkpt>
      <trkpt lat="46.21425" lon="6.75538">
        <ele>1188.4000244141</ele>
        <time>2026-07-07T08:44:07.000Z</time>
      </trkpt>
      <trkpt lat="46.21425" lon="6.75539">
        <ele>1188.5999755859</ele>
        <time>2026-07-07T08:44:15.000Z</time>
      </trkpt>
      <trkpt lat="46.21417" lon="6.75542">
        <ele>1188.5999755859</ele>
        <time>2026-07-07T08:44:22.000Z</time>
      </trkpt>
      <trkpt lat="46.21422" lon="6.75539">
        <ele>1188.5999755859</ele>
        <time>2026-07-07T08:44:30.000Z</time>
      </trkpt>
      <trkpt lat="46.21425" lon="6.75539">
        <ele>1188.5999755859</ele>
        <time>2026-07-07T08:44:33.000Z</time>
      </trkpt>
      <trkpt lat="46.21426" lon="6.75539">
        <ele>1188.8000488281</ele>
        <time>2026-07-07T08:44:35.000Z</time>
      </trkpt>
      <trkpt lat="46.21427" lon="6.75537">
        <ele>1188.8000488281</ele>
        <time>2026-07-07T08:44:37.000Z</time>
      </trkpt>
      <trkpt lat="46.21429" lon="6.75535">
        <ele>1188.8000488281</ele>
        <time>2026-07-07T08:44:42.000Z</time>
      </trkpt>
      <trkpt lat="46.2143" lon="6.75535">
        <ele>1188.8000488281</ele>
        <time>2026-07-07T08:44:46.000Z</time>
      </trkpt>
      <trkpt lat="46.2143" lon="6.75535">
        <ele>1188.8000488281</ele>
        <time>2026-07-07T08:44:48.000Z</time>
      </trkpt>
      <trkpt lat="46.21429" lon="6.75536">
        <ele>1189.1999511719</ele>
        <time>2026-07-07T08:45:00.000Z</time>
      </trkpt>
      <trkpt lat="46.2143" lon="6.75536">
        <ele>1189.1999511719</ele>
        <time>2026-07-07T08:45:01.000Z</time>
      </trkpt>
      <trkpt lat="46.21431" lon="6.75536">
        <ele>1189.1999511719</ele>
        <time>2026-07-07T08:45:03.000Z</time>
      </trkpt>
      <trkpt lat="46.21433" lon="6.75535">
        <ele>1189.1999511719</ele>
        <time>2026-07-07T08:45:07.000Z</time>
      </trkpt>
      <trkpt lat="46.21433" lon="6.75534">
        <ele>1189.1999511719</ele>
        <time>2026-07-07T08:45:10.000Z</time>
      </trkpt>
      <trkpt lat="46.21433" lon="6.75537">
        <ele>1189</ele>
        <time>2026-07-07T08:45:19.000Z</time>
      </trkpt>
      <trkpt lat="46.21432" lon="6.75537">
        <ele>1188.8000488281</ele>
        <time>2026-07-07T08:45:20.000Z</time>
      </trkpt>
      <trkpt lat="46.21427" lon="6.75538">
        <ele>1188.8000488281</ele>
        <time>2026-07-07T08:45:32.000Z</time>
      </trkpt>
      <trkpt lat="46.21428" lon="6.75537">
        <ele>1188.8000488281</ele>
        <time>2026-07-07T08:45:41.000Z</time>
      </trkpt>
      <trkpt lat="46.21424" lon="6.75539">
        <ele>1188.8000488281</ele>
        <time>2026-07-07T08:45:49.000Z</time>
      </trkpt>
      <trkpt lat="46.21426" lon="6.75539">
        <ele>1188.8000488281</ele>
        <time>2026-07-07T08:45:57.000Z</time>
      </trkpt>
      <trkpt lat="46.21425" lon="6.75542">
        <ele>1188.8000488281</ele>
        <time>2026-07-07T08:46:10.000Z</time>
      </trkpt>
      <trkpt lat="46.21425" lon="6.75541">
        <ele>1188.8000488281</ele>
        <time>2026-07-07T08:46:16.000Z</time>
      </trkpt>
      <trkpt lat="46.21425" lon="6.75541">
        <ele>1188.8000488281</ele>
        <time>2026-07-07T08:46:19.000Z</time>
      </trkpt>
      <trkpt lat="46.21426" lon="6.75541">
        <ele>1188.8000488281</ele>
        <time>2026-07-07T08:46:23.000Z</time>
      </trkpt>
      <trkpt lat="46.21426" lon="6.75541">
        <ele>1188.8000488281</ele>
        <time>2026-07-07T08:46:25.000Z</time>
      </trkpt>
      <trkpt lat="46.21427" lon="6.75541">
        <ele>1188.8000488281</ele>
        <time>2026-07-07T08:46:29.000Z</time>
      </trkpt>
      <trkpt lat="46.21428" lon="6.75544">
        <ele>1189</ele>
        <time>2026-07-07T08:46:38.000Z</time>
      </trkpt>
      <trkpt lat="46.2143" lon="6.75548">
        <ele>1189.4000244141</ele>
        <time>2026-07-07T08:46:47.000Z</time>
      </trkpt>
      <trkpt lat="46.21428" lon="6.75546">
        <ele>1189.5999755859</ele>
        <time>2026-07-07T08:46:55.000Z</time>
      </trkpt>
      <trkpt lat="46.21426" lon="6.75548">
        <ele>1189.5999755859</ele>
        <time>2026-07-07T08:47:02.000Z</time>
      </trkpt>
      <trkpt lat="46.21421" lon="6.75556">
        <ele>1189.5999755859</ele>
        <time>2026-07-07T08:47:08.000Z</time>
      </trkpt>
      <trkpt lat="46.21425" lon="6.75557">
        <ele>1189.5999755859</ele>
        <time>2026-07-07T08:47:13.000Z</time>
      </trkpt>
      <trkpt lat="46.21427" lon="6.7556">
        <ele>1190</ele>
        <time>2026-07-07T08:47:16.000Z</time>
      </trkpt>
      <trkpt lat="46.21428" lon="6.75561">
        <ele>1190.1999511719</ele>
        <time>2026-07-07T08:47:17.000Z</time>
      </trkpt>
      <trkpt lat="46.2143" lon="6.75566">
        <ele>1190.8000488281</ele>
        <time>2026-07-07T08:47:23.000Z</time>
      </trkpt>
      <trkpt lat="46.21431" lon="6.75567">
        <ele>1190.8000488281</ele>
        <time>2026-07-07T08:47:27.000Z</time>
      </trkpt>
      <trkpt lat="46.21432" lon="6.7557">
        <ele>1191.1999511719</ele>
        <time>2026-07-07T08:47:30.000Z</time>
      </trkpt>
      <trkpt lat="46.21433" lon="6.75571">
        <ele>1191.1999511719</ele>
        <time>2026-07-07T08:47:31.000Z</time>
      </trkpt>
      <trkpt lat="46.21438" lon="6.75578">
        <ele>1191.8000488281</ele>
        <time>2026-07-07T08:47:39.000Z</time>
      </trkpt>
      <trkpt lat="46.2144" lon="6.75587">
        <ele>1192.4000244141</ele>
        <time>2026-07-07T08:47:46.000Z</time>
      </trkpt>
      <trkpt lat="46.21442" lon="6.75599">
        <ele>1193.1999511719</ele>
        <time>2026-07-07T08:47:54.000Z</time>
      </trkpt>
      <trkpt lat="46.21442" lon="6.75601">
        <ele>1193.4000244141</ele>
        <time>2026-07-07T08:47:55.000Z</time>
      </trkpt>
      <trkpt lat="46.21442" lon="6.75604">
        <ele>1193.8000488281</ele>
        <time>2026-07-07T08:47:57.000Z</time>
      </trkpt>
      <trkpt lat="46.21444" lon="6.75608">
        <ele>1194.1999511719</ele>
        <time>2026-07-07T08:48:01.000Z</time>
      </trkpt>
      <trkpt lat="46.21445" lon="6.75612">
        <ele>1194.4000244141</ele>
        <time>2026-07-07T08:48:04.000Z</time>
      </trkpt>
      <trkpt lat="46.21449" lon="6.75618">
        <ele>1195.1999511719</ele>
        <time>2026-07-07T08:48:09.000Z</time>
      </trkpt>
      <trkpt lat="46.21454" lon="6.75628">
        <ele>1195.4000244141</ele>
        <time>2026-07-07T08:48:17.000Z</time>
      </trkpt>
      <trkpt lat="46.21459" lon="6.75639">
        <ele>1195.8000488281</ele>
        <time>2026-07-07T08:48:26.000Z</time>
      </trkpt>
      <trkpt lat="46.21464" lon="6.7565">
        <ele>1196.1999511719</ele>
        <time>2026-07-07T08:48:34.000Z</time>
      </trkpt>
      <trkpt lat="46.21465" lon="6.75658">
        <ele>1196.4000244141</ele>
        <time>2026-07-07T08:48:39.000Z</time>
      </trkpt>
      <trkpt lat="46.21466" lon="6.7566">
        <ele>1196.4000244141</ele>
        <time>2026-07-07T08:48:42.000Z</time>
      </trkpt>
      <trkpt lat="46.21465" lon="6.75659">
        <ele>1196.4000244141</ele>
        <time>2026-07-07T08:48:52.000Z</time>
      </trkpt>
      <trkpt lat="46.21465" lon="6.7566">
        <ele>1196.4000244141</ele>
        <time>2026-07-07T08:48:54.000Z</time>
      </trkpt>
      <trkpt lat="46.21464" lon="6.75658">
        <ele>1196.1999511719</ele>
        <time>2026-07-07T08:49:01.000Z</time>
      </trkpt>
      <trkpt lat="46.21464" lon="6.7566">
        <ele>1196.4000244141</ele>
        <time>2026-07-07T08:49:05.000Z</time>
      </trkpt>
      <trkpt lat="46.21464" lon="6.75661">
        <ele>1196.4000244141</ele>
        <time>2026-07-07T08:49:08.000Z</time>
      </trkpt>
      <trkpt lat="46.21466" lon="6.75662">
        <ele>1196.5999755859</ele>
        <time>2026-07-07T08:49:14.000Z</time>
      </trkpt>
      <trkpt lat="46.21468" lon="6.75662">
        <ele>1196.8000488281</ele>
        <time>2026-07-07T08:49:19.000Z</time>
      </trkpt>
      <trkpt lat="46.21467" lon="6.75661">
        <ele>1196.5999755859</ele>
        <time>2026-07-07T08:49:24.000Z</time>
      </trkpt>
      <trkpt lat="46.21463" lon="6.75661">
        <ele>1196.5999755859</ele>
        <time>2026-07-07T08:49:28.000Z</time>
      </trkpt>
      <trkpt lat="46.21463" lon="6.75661">
        <ele>1196.4000244141</ele>
        <time>2026-07-07T08:49:29.000Z</time>
      </trkpt>
      <trkpt lat="46.21464" lon="6.75659">
        <ele>1196.1999511719</ele>
        <time>2026-07-07T08:49:40.000Z</time>
      </trkpt>
      <trkpt lat="46.21467" lon="6.75658">
        <ele>1196.4000244141</ele>
        <time>2026-07-07T08:49:50.000Z</time>
      </trkpt>
      <trkpt lat="46.21464" lon="6.7566">
        <ele>1196.4000244141</ele>
        <time>2026-07-07T08:50:03.000Z</time>
      </trkpt>
      <trkpt lat="46.21464" lon="6.75662">
        <ele>1196.4000244141</ele>
        <time>2026-07-07T08:50:12.000Z</time>
      </trkpt>
      <trkpt lat="46.21468" lon="6.75661">
        <ele>1196.1999511719</ele>
        <time>2026-07-07T08:50:20.000Z</time>
      </trkpt>
      <trkpt lat="46.21468" lon="6.75661">
        <ele>1195.8000488281</ele>
        <time>2026-07-07T08:50:22.000Z</time>
      </trkpt>
      <trkpt lat="46.21466" lon="6.75663">
        <ele>1195.8000488281</ele>
        <time>2026-07-07T08:50:33.000Z</time>
      </trkpt>
      <trkpt lat="46.21463" lon="6.75657">
        <ele>1195.8000488281</ele>
        <time>2026-07-07T08:50:46.000Z</time>
      </trkpt>
      <trkpt lat="46.21463" lon="6.75656">
        <ele>1195.8000488281</ele>
        <time>2026-07-07T08:50:51.000Z</time>
      </trkpt>
      <trkpt lat="46.21463" lon="6.7566">
        <ele>1195.5999755859</ele>
        <time>2026-07-07T08:51:03.000Z</time>
      </trkpt>
      <trkpt lat="46.21462" lon="6.75662">
        <ele>1195.5999755859</ele>
        <time>2026-07-07T08:51:13.000Z</time>
      </trkpt>
      <trkpt lat="46.21462" lon="6.75664">
        <ele>1195.4000244141</ele>
        <time>2026-07-07T08:51:20.000Z</time>
      </trkpt>
      <trkpt lat="46.2146" lon="6.75664">
        <ele>1195.5999755859</ele>
        <time>2026-07-07T08:51:23.000Z</time>
      </trkpt>
      <trkpt lat="46.21462" lon="6.75664">
        <ele>1195.8000488281</ele>
        <time>2026-07-07T08:51:31.000Z</time>
      </trkpt>
      <trkpt lat="46.21464" lon="6.75663">
        <ele>1195.8000488281</ele>
        <time>2026-07-07T08:51:39.000Z</time>
      </trkpt>
      <trkpt lat="46.21464" lon="6.75663">
        <ele>1195.5999755859</ele>
        <time>2026-07-07T08:51:44.000Z</time>
      </trkpt>
      <trkpt lat="46.21463" lon="6.75663">
        <ele>1195.5999755859</ele>
        <time>2026-07-07T08:51:45.000Z</time>
      </trkpt>
      <trkpt lat="46.21463" lon="6.75664">
        <ele>1195.5999755859</ele>
        <time>2026-07-07T08:51:49.000Z</time>
      </trkpt>
      <trkpt lat="46.21463" lon="6.75664">
        <ele>1195.4000244141</ele>
        <time>2026-07-07T08:51:50.000Z</time>
      </trkpt>
      <trkpt lat="46.21465" lon="6.75662">
        <ele>1195.4000244141</ele>
        <time>2026-07-07T08:51:58.000Z</time>
      </trkpt>
      <trkpt lat="46.21464" lon="6.75661">
        <ele>1195.4000244141</ele>
        <time>2026-07-07T08:52:08.000Z</time>
      </trkpt>
      <trkpt lat="46.21464" lon="6.75661">
        <ele>1195.4000244141</ele>
        <time>2026-07-07T08:52:09.000Z</time>
      </trkpt>
      <trkpt lat="46.21463" lon="6.75662">
        <ele>1195.1999511719</ele>
        <time>2026-07-07T08:52:25.000Z</time>
      </trkpt>
      <trkpt lat="46.21466" lon="6.75662">
        <ele>1195.5999755859</ele>
        <time>2026-07-07T08:52:39.000Z</time>
      </trkpt>
      <trkpt lat="46.21468" lon="6.75665">
        <ele>1195.1999511719</ele>
        <time>2026-07-07T08:52:48.000Z</time>
      </trkpt>
      <trkpt lat="46.21465" lon="6.75674">
        <ele>1195.5999755859</ele>
        <time>2026-07-07T08:52:54.000Z</time>
      </trkpt>
      <trkpt lat="46.21464" lon="6.75677">
        <ele>1195.5999755859</ele>
        <time>2026-07-07T08:52:58.000Z</time>
      </trkpt>
      <trkpt lat="46.21463" lon="6.75677">
        <ele>1195.5999755859</ele>
        <time>2026-07-07T08:53:00.000Z</time>
      </trkpt>
      <trkpt lat="46.21463" lon="6.75677">
        <ele>1195.5999755859</ele>
        <time>2026-07-07T08:53:01.000Z</time>
      </trkpt>
      <trkpt lat="46.21464" lon="6.75676">
        <ele>1195.5999755859</ele>
        <time>2026-07-07T08:53:02.000Z</time>
      </trkpt>
      <trkpt lat="46.21464" lon="6.75676">
        <ele>1195.5999755859</ele>
        <time>2026-07-07T08:53:06.000Z</time>
      </trkpt>
      <trkpt lat="46.21464" lon="6.75676">
        <ele>1195.5999755859</ele>
        <time>2026-07-07T08:53:07.000Z</time>
      </trkpt>
      <trkpt lat="46.21464" lon="6.75677">
        <ele>1195.5999755859</ele>
        <time>2026-07-07T08:53:14.000Z</time>
      </trkpt>
      <trkpt lat="46.21463" lon="6.75676">
        <ele>1195.5999755859</ele>
        <time>2026-07-07T08:53:23.000Z</time>
      </trkpt>
      <trkpt lat="46.21466" lon="6.75667">
        <ele>1195.1999511719</ele>
        <time>2026-07-07T08:53:32.000Z</time>
      </trkpt>
      <trkpt lat="46.21463" lon="6.75665">
        <ele>1195</ele>
        <time>2026-07-07T08:53:41.000Z</time>
      </trkpt>
      <trkpt lat="46.21462" lon="6.75667">
        <ele>1195</ele>
        <time>2026-07-07T08:53:54.000Z</time>
      </trkpt>
      <trkpt lat="46.21463" lon="6.75665">
        <ele>1195</ele>
        <time>2026-07-07T08:54:07.000Z</time>
      </trkpt>
      <trkpt lat="46.21465" lon="6.75666">
        <ele>1195.1999511719</ele>
        <time>2026-07-07T08:54:15.000Z</time>
      </trkpt>
      <trkpt lat="46.21466" lon="6.75667">
        <ele>1195</ele>
        <time>2026-07-07T08:54:35.000Z</time>
      </trkpt>
      <trkpt lat="46.21466" lon="6.7567">
        <ele>1195.1999511719</ele>
        <time>2026-07-07T08:54:41.000Z</time>
      </trkpt>
      <trkpt lat="46.21465" lon="6.75667">
        <ele>1195.1999511719</ele>
        <time>2026-07-07T08:54:49.000Z</time>
      </trkpt>
      <trkpt lat="46.21465" lon="6.75668">
        <ele>1195.4000244141</ele>
        <time>2026-07-07T08:54:52.000Z</time>
      </trkpt>
      <trkpt lat="46.21465" lon="6.75668">
        <ele>1195.4000244141</ele>
        <time>2026-07-07T08:55:02.000Z</time>
      </trkpt>
      <trkpt lat="46.21466" lon="6.75669">
        <ele>1195.4000244141</ele>
        <time>2026-07-07T08:55:13.000Z</time>
      </trkpt>
      <trkpt lat="46.21467" lon="6.75672">
        <ele>1195.5999755859</ele>
        <time>2026-07-07T08:55:22.000Z</time>
      </trkpt>
      <trkpt lat="46.21464" lon="6.7567">
        <ele>1195.8000488281</ele>
        <time>2026-07-07T08:55:29.000Z</time>
      </trkpt>
      <trkpt lat="46.21464" lon="6.75676">
        <ele>1196</ele>
        <time>2026-07-07T08:55:40.000Z</time>
      </trkpt>
      <trkpt lat="46.21465" lon="6.7569">
        <ele>1196.4000244141</ele>
        <time>2026-07-07T08:55:49.000Z</time>
      </trkpt>
      <trkpt lat="46.21465" lon="6.75692">
        <ele>1196.4000244141</ele>
        <time>2026-07-07T08:55:50.000Z</time>
      </trkpt>
      <trkpt lat="46.21464" lon="6.75697">
        <ele>1196.5999755859</ele>
        <time>2026-07-07T08:55:55.000Z</time>
      </trkpt>
      <trkpt lat="46.21463" lon="6.75703">
        <ele>1196.5999755859</ele>
        <time>2026-07-07T08:55:59.000Z</time>
      </trkpt>
      <trkpt lat="46.21461" lon="6.75721">
        <ele>1196.5999755859</ele>
        <time>2026-07-07T08:56:10.000Z</time>
      </trkpt>
      <trkpt lat="46.21458" lon="6.75736">
        <ele>1196.5999755859</ele>
        <time>2026-07-07T08:56:19.000Z</time>
      </trkpt>
      <trkpt lat="46.21455" lon="6.75754">
        <ele>1197</ele>
        <time>2026-07-07T08:56:28.000Z</time>
      </trkpt>
      <trkpt lat="46.21452" lon="6.75765">
        <ele>1197.5999755859</ele>
        <time>2026-07-07T08:56:36.000Z</time>
      </trkpt>
      <trkpt lat="46.2145" lon="6.75776">
        <ele>1198</ele>
        <time>2026-07-07T08:56:42.000Z</time>
      </trkpt>
      <trkpt lat="46.21449" lon="6.75779">
        <ele>1198</ele>
        <time>2026-07-07T08:56:44.000Z</time>
      </trkpt>
      <trkpt lat="46.21449" lon="6.7578">
        <ele>1198</ele>
        <time>2026-07-07T08:56:45.000Z</time>
      </trkpt>
      <trkpt lat="46.21445" lon="6.75791">
        <ele>1198.5999755859</ele>
        <time>2026-07-07T08:56:51.000Z</time>
      </trkpt>
      <trkpt lat="46.21445" lon="6.75794">
        <ele>1198.5999755859</ele>
        <time>2026-07-07T08:56:53.000Z</time>
      </trkpt>
      <trkpt lat="46.21443" lon="6.75802">
        <ele>1199</ele>
        <time>2026-07-07T08:57:00.000Z</time>
      </trkpt>
      <trkpt lat="46.21439" lon="6.75821">
        <ele>1199.5999755859</ele>
        <time>2026-07-07T08:57:10.000Z</time>
      </trkpt>
      <trkpt lat="46.21435" lon="6.75831">
        <ele>1200.5999755859</ele>
        <time>2026-07-07T08:57:19.000Z</time>
      </trkpt>
      <trkpt lat="46.21434" lon="6.75834">
        <ele>1200.5999755859</ele>
        <time>2026-07-07T08:57:21.000Z</time>
      </trkpt>
      <trkpt lat="46.21434" lon="6.75843">
        <ele>1200.8000488281</ele>
        <time>2026-07-07T08:57:27.000Z</time>
      </trkpt>
      <trkpt lat="46.21435" lon="6.75855">
        <ele>1200.8000488281</ele>
        <time>2026-07-07T08:57:35.000Z</time>
      </trkpt>
      <trkpt lat="46.21433" lon="6.75865">
        <ele>1201.5999755859</ele>
        <time>2026-07-07T08:57:43.000Z</time>
      </trkpt>
      <trkpt lat="46.21432" lon="6.75868">
        <ele>1202</ele>
        <time>2026-07-07T08:57:45.000Z</time>
      </trkpt>
      <trkpt lat="46.21429" lon="6.7588">
        <ele>1202.1999511719</ele>
        <time>2026-07-07T08:57:53.000Z</time>
      </trkpt>
      <trkpt lat="46.21428" lon="6.75896">
        <ele>1202.5999755859</ele>
        <time>2026-07-07T08:58:03.000Z</time>
      </trkpt>
      <trkpt lat="46.21428" lon="6.75912">
        <ele>1202.4000244141</ele>
        <time>2026-07-07T08:58:12.000Z</time>
      </trkpt>
      <trkpt lat="46.21426" lon="6.75917">
        <ele>1202.5999755859</ele>
        <time>2026-07-07T08:58:15.000Z</time>
      </trkpt>
      <trkpt lat="46.21423" lon="6.7592">
        <ele>1203</ele>
        <time>2026-07-07T08:58:19.000Z</time>
      </trkpt>
      <trkpt lat="46.21419" lon="6.75923">
        <ele>1203.5999755859</ele>
        <time>2026-07-07T08:58:23.000Z</time>
      </trkpt>
      <trkpt lat="46.21416" lon="6.75924">
        <ele>1204.8000488281</ele>
        <time>2026-07-07T08:58:27.000Z</time>
      </trkpt>
      <trkpt lat="46.21415" lon="6.75925">
        <ele>1205.4000244141</ele>
        <time>2026-07-07T08:58:29.000Z</time>
      </trkpt>
      <trkpt lat="46.21414" lon="6.75927">
        <ele>1205.8000488281</ele>
        <time>2026-07-07T08:58:31.000Z</time>
      </trkpt>
      <trkpt lat="46.2141" lon="6.75933">
        <ele>1207</ele>
        <time>2026-07-07T08:58:37.000Z</time>
      </trkpt>
      <trkpt lat="46.21409" lon="6.75935">
        <ele>1207.1999511719</ele>
        <time>2026-07-07T08:58:39.000Z</time>
      </trkpt>
      <trkpt lat="46.21407" lon="6.7594">
        <ele>1208</ele>
        <time>2026-07-07T08:58:44.000Z</time>
      </trkpt>
      <trkpt lat="46.21405" lon="6.75944">
        <ele>1208.8000488281</ele>
        <time>2026-07-07T08:58:48.000Z</time>
      </trkpt>
      <trkpt lat="46.21404" lon="6.75947">
        <ele>1209.1999511719</ele>
        <time>2026-07-07T08:58:50.000Z</time>
      </trkpt>
      <trkpt lat="46.214" lon="6.75957">
        <ele>1209.8000488281</ele>
        <time>2026-07-07T08:58:58.000Z</time>
      </trkpt>
      <trkpt lat="46.21399" lon="6.75961">
        <ele>1210.1999511719</ele>
        <time>2026-07-07T08:59:00.000Z</time>
      </trkpt>
      <trkpt lat="46.21397" lon="6.7597">
        <ele>1210.8000488281</ele>
        <time>2026-07-07T08:59:07.000Z</time>
      </trkpt>
      <trkpt lat="46.21399" lon="6.75977">
        <ele>1210</ele>
        <time>2026-07-07T08:59:17.000Z</time>
      </trkpt>
      <trkpt lat="46.21401" lon="6.75983">
        <ele>1209.1999511719</ele>
        <time>2026-07-07T08:59:21.000Z</time>
      </trkpt>
      <trkpt lat="46.21403" lon="6.75991">
        <ele>1208.4000244141</ele>
        <time>2026-07-07T08:59:25.000Z</time>
      </trkpt>
      <trkpt lat="46.21401" lon="6.75999">
        <ele>1208.8000488281</ele>
        <time>2026-07-07T08:59:31.000Z</time>
      </trkpt>
      <trkpt lat="46.214" lon="6.76002">
        <ele>1209</ele>
        <time>2026-07-07T08:59:33.000Z</time>
      </trkpt>
      <trkpt lat="46.21393" lon="6.76011">
        <ele>1210.1999511719</ele>
        <time>2026-07-07T08:59:43.000Z</time>
      </trkpt>
      <trkpt lat="46.21389" lon="6.76015">
        <ele>1210.8000488281</ele>
        <time>2026-07-07T08:59:48.000Z</time>
      </trkpt>
      <trkpt lat="46.21387" lon="6.76018">
        <ele>1211.1999511719</ele>
        <time>2026-07-07T08:59:51.000Z</time>
      </trkpt>
      <trkpt lat="46.21387" lon="6.76019">
        <ele>1211.1999511719</ele>
        <time>2026-07-07T08:59:52.000Z</time>
      </trkpt>
      <trkpt lat="46.21384" lon="6.76029">
        <ele>1212.1999511719</ele>
        <time>2026-07-07T09:00:00.000Z</time>
      </trkpt>
      <trkpt lat="46.21383" lon="6.76031">
        <ele>1212.5999755859</ele>
        <time>2026-07-07T09:00:02.000Z</time>
      </trkpt>
      <trkpt lat="46.21381" lon="6.76035">
        <ele>1213.1999511719</ele>
        <time>2026-07-07T09:00:06.000Z</time>
      </trkpt>
      <trkpt lat="46.21377" lon="6.76044">
        <ele>1214.1999511719</ele>
        <time>2026-07-07T09:00:12.000Z</time>
      </trkpt>
      <trkpt lat="46.21376" lon="6.76047">
        <ele>1214.1999511719</ele>
        <time>2026-07-07T09:00:14.000Z</time>
      </trkpt>
      <trkpt lat="46.21375" lon="6.76054">
        <ele>1214.5999755859</ele>
        <time>2026-07-07T09:00:19.000Z</time>
      </trkpt>
      <trkpt lat="46.21373" lon="6.76065">
        <ele>1214.1999511719</ele>
        <time>2026-07-07T09:00:27.000Z</time>
      </trkpt>
      <trkpt lat="46.21375" lon="6.76077">
        <ele>1214.1999511719</ele>
        <time>2026-07-07T09:00:35.000Z</time>
      </trkpt>
      <trkpt lat="46.21378" lon="6.76086">
        <ele>1214.4000244141</ele>
        <time>2026-07-07T09:00:44.000Z</time>
      </trkpt>
      <trkpt lat="46.21375" lon="6.76087">
        <ele>1214.4000244141</ele>
        <time>2026-07-07T09:00:51.000Z</time>
      </trkpt>
      <trkpt lat="46.21375" lon="6.76088">
        <ele>1214.4000244141</ele>
        <time>2026-07-07T09:00:54.000Z</time>
      </trkpt>
      <trkpt lat="46.21375" lon="6.76088">
        <ele>1214.5999755859</ele>
        <time>2026-07-07T09:01:01.000Z</time>
      </trkpt>
      <trkpt lat="46.21374" lon="6.76088">
        <ele>1214.5999755859</ele>
        <time>2026-07-07T09:01:04.000Z</time>
      </trkpt>
      <trkpt lat="46.21373" lon="6.7608">
        <ele>1214.1999511719</ele>
        <time>2026-07-07T09:01:14.000Z</time>
      </trkpt>
      <trkpt lat="46.21372" lon="6.76066">
        <ele>1214.4000244141</ele>
        <time>2026-07-07T09:01:23.000Z</time>
      </trkpt>
      <trkpt lat="46.21375" lon="6.76069">
        <ele>1214.4000244141</ele>
        <time>2026-07-07T09:01:28.000Z</time>
      </trkpt>
      <trkpt lat="46.21376" lon="6.7607">
        <ele>1214.4000244141</ele>
        <time>2026-07-07T09:01:29.000Z</time>
      </trkpt>
      <trkpt lat="46.21378" lon="6.76073">
        <ele>1214.1999511719</ele>
        <time>2026-07-07T09:01:36.000Z</time>
      </trkpt>
      <trkpt lat="46.21379" lon="6.76074">
        <ele>1214.1999511719</ele>
        <time>2026-07-07T09:01:37.000Z</time>
      </trkpt>
      <trkpt lat="46.21383" lon="6.76079">
        <ele>1214.1999511719</ele>
        <time>2026-07-07T09:01:46.000Z</time>
      </trkpt>
      <trkpt lat="46.21383" lon="6.76079">
        <ele>1214.1999511719</ele>
        <time>2026-07-07T09:01:48.000Z</time>
      </trkpt>
      <trkpt lat="46.21382" lon="6.76079">
        <ele>1214.1999511719</ele>
        <time>2026-07-07T09:01:49.000Z</time>
      </trkpt>
      <trkpt lat="46.21382" lon="6.76079">
        <ele>1214.1999511719</ele>
        <time>2026-07-07T09:01:50.000Z</time>
      </trkpt>
      <trkpt lat="46.21381" lon="6.7608">
        <ele>1214.4000244141</ele>
        <time>2026-07-07T09:01:51.000Z</time>
      </trkpt>
      <trkpt lat="46.21381" lon="6.76081">
        <ele>1214.4000244141</ele>
        <time>2026-07-07T09:01:53.000Z</time>
      </trkpt>
      <trkpt lat="46.21379" lon="6.76083">
        <ele>1214.4000244141</ele>
        <time>2026-07-07T09:01:59.000Z</time>
      </trkpt>
      <trkpt lat="46.2138" lon="6.7608">
        <ele>1214.1999511719</ele>
        <time>2026-07-07T09:02:04.000Z</time>
      </trkpt>
      <trkpt lat="46.21379" lon="6.76074">
        <ele>1214</ele>
        <time>2026-07-07T09:02:08.000Z</time>
      </trkpt>
      <trkpt lat="46.21379" lon="6.76064">
        <ele>1214.1999511719</ele>
        <time>2026-07-07T09:02:13.000Z</time>
      </trkpt>
      <trkpt lat="46.21378" lon="6.76061">
        <ele>1214.1999511719</ele>
        <time>2026-07-07T09:02:15.000Z</time>
      </trkpt>
      <trkpt lat="46.21375" lon="6.76061">
        <ele>1214.1999511719</ele>
        <time>2026-07-07T09:02:22.000Z</time>
      </trkpt>
      <trkpt lat="46.21375" lon="6.76062">
        <ele>1214.1999511719</ele>
        <time>2026-07-07T09:02:23.000Z</time>
      </trkpt>
      <trkpt lat="46.21374" lon="6.76066">
        <ele>1214.1999511719</ele>
        <time>2026-07-07T09:02:31.000Z</time>
      </trkpt>
      <trkpt lat="46.21376" lon="6.76063">
        <ele>1214.4000244141</ele>
        <time>2026-07-07T09:02:40.000Z</time>
      </trkpt>
      <trkpt lat="46.21375" lon="6.76061">
        <ele>1214.5999755859</ele>
        <time>2026-07-07T09:02:46.000Z</time>
      </trkpt>
      <trkpt lat="46.21375" lon="6.76061">
        <ele>1214.5999755859</ele>
        <time>2026-07-07T09:02:47.000Z</time>
      </trkpt>
      <trkpt lat="46.21375" lon="6.7606">
        <ele>1214.5999755859</ele>
        <time>2026-07-07T09:02:49.000Z</time>
      </trkpt>
      <trkpt lat="46.21375" lon="6.7606">
        <ele>1214.4000244141</ele>
        <time>2026-07-07T09:02:50.000Z</time>
      </trkpt>
      <trkpt lat="46.21375" lon="6.76057">
        <ele>1214.4000244141</ele>
        <time>2026-07-07T09:02:56.000Z</time>
      </trkpt>
      <trkpt lat="46.21375" lon="6.76054">
        <ele>1214.4000244141</ele>
        <time>2026-07-07T09:03:00.000Z</time>
      </trkpt>
      <trkpt lat="46.21374" lon="6.76052">
        <ele>1214.4000244141</ele>
        <time>2026-07-07T09:03:12.000Z</time>
      </trkpt>
      <trkpt lat="46.21373" lon="6.76057">
        <ele>1214.1999511719</ele>
        <time>2026-07-07T09:03:20.000Z</time>
      </trkpt>
      <trkpt lat="46.2137" lon="6.76063">
        <ele>1214.4000244141</ele>
        <time>2026-07-07T09:03:26.000Z</time>
      </trkpt>
      <trkpt lat="46.2137" lon="6.7607">
        <ele>1214.4000244141</ele>
        <time>2026-07-07T09:03:35.000Z</time>
      </trkpt>
      <trkpt lat="46.21371" lon="6.76071">
        <ele>1214.4000244141</ele>
        <time>2026-07-07T09:03:45.000Z</time>
      </trkpt>
      <trkpt lat="46.21371" lon="6.7607">
        <ele>1214.4000244141</ele>
        <time>2026-07-07T09:03:54.000Z</time>
      </trkpt>
      <trkpt lat="46.2137" lon="6.76069">
        <ele>1214.4000244141</ele>
        <time>2026-07-07T09:03:59.000Z</time>
      </trkpt>
      <trkpt lat="46.21369" lon="6.7607">
        <ele>1214.4000244141</ele>
        <time>2026-07-07T09:04:05.000Z</time>
      </trkpt>
      <trkpt lat="46.21369" lon="6.76071">
        <ele>1214.4000244141</ele>
        <time>2026-07-07T09:04:12.000Z</time>
      </trkpt>
      <trkpt lat="46.2137" lon="6.76073">
        <ele>1214.4000244141</ele>
        <time>2026-07-07T09:04:19.000Z</time>
      </trkpt>
      <trkpt lat="46.2137" lon="6.76073">
        <ele>1214.4000244141</ele>
        <time>2026-07-07T09:04:27.000Z</time>
      </trkpt>
      <trkpt lat="46.2137" lon="6.76073">
        <ele>1214.5999755859</ele>
        <time>2026-07-07T09:04:34.000Z</time>
      </trkpt>
      <trkpt lat="46.21371" lon="6.76073">
        <ele>1214.4000244141</ele>
        <time>2026-07-07T09:04:42.000Z</time>
      </trkpt>
      <trkpt lat="46.21373" lon="6.76075">
        <ele>1214.5999755859</ele>
        <time>2026-07-07T09:04:46.000Z</time>
      </trkpt>
      <trkpt lat="46.21373" lon="6.76076">
        <ele>1214.5999755859</ele>
        <time>2026-07-07T09:04:49.000Z</time>
      </trkpt>
      <trkpt lat="46.21375" lon="6.76077">
        <ele>1214.5999755859</ele>
        <time>2026-07-07T09:04:56.000Z</time>
      </trkpt>
      <trkpt lat="46.21375" lon="6.76077">
        <ele>1214.5999755859</ele>
        <time>2026-07-07T09:04:59.000Z</time>
      </trkpt>
      <trkpt lat="46.21374" lon="6.76077">
        <ele>1214.5999755859</ele>
        <time>2026-07-07T09:05:01.000Z</time>
      </trkpt>
      <trkpt lat="46.21373" lon="6.76077">
        <ele>1214.5999755859</ele>
        <time>2026-07-07T09:05:06.000Z</time>
      </trkpt>
      <trkpt lat="46.21371" lon="6.76078">
        <ele>1214.5999755859</ele>
        <time>2026-07-07T09:05:13.000Z</time>
      </trkpt>
      <trkpt lat="46.21371" lon="6.76078">
        <ele>1214.5999755859</ele>
        <time>2026-07-07T09:05:14.000Z</time>
      </trkpt>
      <trkpt lat="46.21371" lon="6.76078">
        <ele>1214.5999755859</ele>
        <time>2026-07-07T09:05:15.000Z</time>
      </trkpt>
      <trkpt lat="46.2137" lon="6.76078">
        <ele>1214.5999755859</ele>
        <time>2026-07-07T09:05:20.000Z</time>
      </trkpt>
      <trkpt lat="46.2137" lon="6.76078">
        <ele>1214.5999755859</ele>
        <time>2026-07-07T09:05:23.000Z</time>
      </trkpt>
      <trkpt lat="46.2137" lon="6.76078">
        <ele>1214.5999755859</ele>
        <time>2026-07-07T09:05:24.000Z</time>
      </trkpt>
      <trkpt lat="46.2137" lon="6.76078">
        <ele>1214.5999755859</ele>
        <time>2026-07-07T09:05:25.000Z</time>
      </trkpt>
      <trkpt lat="46.21368" lon="6.7608">
        <ele>1214.5999755859</ele>
        <time>2026-07-07T09:05:34.000Z</time>
      </trkpt>
      <trkpt lat="46.21368" lon="6.76083">
        <ele>1214.5999755859</ele>
        <time>2026-07-07T09:05:39.000Z</time>
      </trkpt>
      <trkpt lat="46.21368" lon="6.76085">
        <ele>1214.5999755859</ele>
        <time>2026-07-07T09:05:43.000Z</time>
      </trkpt>
      <trkpt lat="46.2137" lon="6.76089">
        <ele>1214.5999755859</ele>
        <time>2026-07-07T09:05:51.000Z</time>
      </trkpt>
      <trkpt lat="46.21371" lon="6.76092">
        <ele>1214.5999755859</ele>
        <time>2026-07-07T09:05:56.000Z</time>
      </trkpt>
      <trkpt lat="46.21371" lon="6.76091">
        <ele>1214.5999755859</ele>
        <time>2026-07-07T09:06:05.000Z</time>
      </trkpt>
      <trkpt lat="46.21371" lon="6.76091">
        <ele>1214.5999755859</ele>
        <time>2026-07-07T09:06:08.000Z</time>
      </trkpt>
      <trkpt lat="46.21371" lon="6.76091">
        <ele>1214.5999755859</ele>
        <time>2026-07-07T09:06:10.000Z</time>
      </trkpt>
      <trkpt lat="46.2137" lon="6.76091">
        <ele>1214.5999755859</ele>
        <time>2026-07-07T09:06:15.000Z</time>
      </trkpt>
      <trkpt lat="46.21369" lon="6.76091">
        <ele>1214.4000244141</ele>
        <time>2026-07-07T09:06:23.000Z</time>
      </trkpt>
      <trkpt lat="46.21368" lon="6.76091">
        <ele>1214.4000244141</ele>
        <time>2026-07-07T09:06:26.000Z</time>
      </trkpt>
      <trkpt lat="46.21366" lon="6.76091">
        <ele>1214.4000244141</ele>
        <time>2026-07-07T09:06:31.000Z</time>
      </trkpt>
      <trkpt lat="46.21365" lon="6.76091">
        <ele>1214.4000244141</ele>
        <time>2026-07-07T09:06:32.000Z</time>
      </trkpt>
      <trkpt lat="46.21363" lon="6.7609">
        <ele>1214.1999511719</ele>
        <time>2026-07-07T09:06:37.000Z</time>
      </trkpt>
      <trkpt lat="46.21358" lon="6.76093">
        <ele>1214.1999511719</ele>
        <time>2026-07-07T09:06:47.000Z</time>
      </trkpt>
      <trkpt lat="46.21356" lon="6.76111">
        <ele>1214.4000244141</ele>
        <time>2026-07-07T09:06:58.000Z</time>
      </trkpt>
      <trkpt lat="46.21353" lon="6.76139">
        <ele>1215</ele>
        <time>2026-07-07T09:07:03.000Z</time>
      </trkpt>
      <trkpt lat="46.21352" lon="6.76146">
        <ele>1215.4000244141</ele>
        <time>2026-07-07T09:07:04.000Z</time>
      </trkpt>
      <trkpt lat="46.2135" lon="6.76155">
        <ele>1216.8000488281</ele>
        <time>2026-07-07T09:07:06.000Z</time>
      </trkpt>
      <trkpt lat="46.21348" lon="6.76167">
        <ele>1218.4000244141</ele>
        <time>2026-07-07T09:07:08.000Z</time>
      </trkpt>
      <trkpt lat="46.21345" lon="6.76177">
        <ele>1220.1999511719</ele>
        <time>2026-07-07T09:07:10.000Z</time>
      </trkpt>
      <trkpt lat="46.21342" lon="6.76187">
        <ele>1222</ele>
        <time>2026-07-07T09:07:12.000Z</time>
      </trkpt>
      <trkpt lat="46.2134" lon="6.76197">
        <ele>1223.5999755859</ele>
        <time>2026-07-07T09:07:14.000Z</time>
      </trkpt>
      <trkpt lat="46.21337" lon="6.76207">
        <ele>1224.5999755859</ele>
        <time>2026-07-07T09:07:16.000Z</time>
      </trkpt>
      <trkpt lat="46.21332" lon="6.76224">
        <ele>1225.4000244141</ele>
        <time>2026-07-07T09:07:19.000Z</time>
      </trkpt>
      <trkpt lat="46.21331" lon="6.76229">
        <ele>1225.8000488281</ele>
        <time>2026-07-07T09:07:20.000Z</time>
      </trkpt>
      <trkpt lat="46.21326" lon="6.76243">
        <ele>1227.1999511719</ele>
        <time>2026-07-07T09:07:23.000Z</time>
      </trkpt>
      <trkpt lat="46.21324" lon="6.76252">
        <ele>1228.1999511719</ele>
        <time>2026-07-07T09:07:25.000Z</time>
      </trkpt>
      <trkpt lat="46.21322" lon="6.76257">
        <ele>1228.5999755859</ele>
        <time>2026-07-07T09:07:26.000Z</time>
      </trkpt>
      <trkpt lat="46.21317" lon="6.76272">
        <ele>1230</ele>
        <time>2026-07-07T09:07:29.000Z</time>
      </trkpt>
      <trkpt lat="46.21314" lon="6.76281">
        <ele>1231</ele>
        <time>2026-07-07T09:07:31.000Z</time>
      </trkpt>
      <trkpt lat="46.21312" lon="6.76286">
        <ele>1231.5999755859</ele>
        <time>2026-07-07T09:07:32.000Z</time>
      </trkpt>
      <trkpt lat="46.21309" lon="6.76295">
        <ele>1232.5999755859</ele>
        <time>2026-07-07T09:07:34.000Z</time>
      </trkpt>
      <trkpt lat="46.21305" lon="6.76304">
        <ele>1233.8000488281</ele>
        <time>2026-07-07T09:07:36.000Z</time>
      </trkpt>
      <trkpt lat="46.21302" lon="6.76312">
        <ele>1235</ele>
        <time>2026-07-07T09:07:38.000Z</time>
      </trkpt>
      <trkpt lat="46.21299" lon="6.7632">
        <ele>1236.4000244141</ele>
        <time>2026-07-07T09:07:40.000Z</time>
      </trkpt>
      <trkpt lat="46.21298" lon="6.76325">
        <ele>1237</ele>
        <time>2026-07-07T09:07:41.000Z</time>
      </trkpt>
      <trkpt lat="46.21296" lon="6.76328">
        <ele>1237.8000488281</ele>
        <time>2026-07-07T09:07:42.000Z</time>
      </trkpt>
      <trkpt lat="46.21294" lon="6.76336">
        <ele>1239</ele>
        <time>2026-07-07T09:07:44.000Z</time>
      </trkpt>
      <trkpt lat="46.21291" lon="6.76347">
        <ele>1240.4000244141</ele>
        <time>2026-07-07T09:07:46.000Z</time>
      </trkpt>
      <trkpt lat="46.21289" lon="6.76352">
        <ele>1241</ele>
        <time>2026-07-07T09:07:47.000Z</time>
      </trkpt>
      <trkpt lat="46.21288" lon="6.76357">
        <ele>1241.5999755859</ele>
        <time>2026-07-07T09:07:48.000Z</time>
      </trkpt>
      <trkpt lat="46.21285" lon="6.76366">
        <ele>1242.8000488281</ele>
        <time>2026-07-07T09:07:50.000Z</time>
      </trkpt>
      <trkpt lat="46.21284" lon="6.7637">
        <ele>1243.4000244141</ele>
        <time>2026-07-07T09:07:51.000Z</time>
      </trkpt>
      <trkpt lat="46.21284" lon="6.76373">
        <ele>1243.8000488281</ele>
        <time>2026-07-07T09:07:52.000Z</time>
      </trkpt>
      <trkpt lat="46.21282" lon="6.76377">
        <ele>1244.4000244141</ele>
        <time>2026-07-07T09:07:53.000Z</time>
      </trkpt>
      <trkpt lat="46.21281" lon="6.76381">
        <ele>1245</ele>
        <time>2026-07-07T09:07:54.000Z</time>
      </trkpt>
      <trkpt lat="46.21279" lon="6.76388">
        <ele>1246.1999511719</ele>
        <time>2026-07-07T09:07:56.000Z</time>
      </trkpt>
      <trkpt lat="46.21276" lon="6.76394">
        <ele>1247.4000244141</ele>
        <time>2026-07-07T09:07:58.000Z</time>
      </trkpt>
      <trkpt lat="46.21272" lon="6.76403">
        <ele>1248.8000488281</ele>
        <time>2026-07-07T09:08:01.000Z</time>
      </trkpt>
      <trkpt lat="46.2127" lon="6.76407">
        <ele>1249.4000244141</ele>
        <time>2026-07-07T09:08:02.000Z</time>
      </trkpt>
      <trkpt lat="46.21269" lon="6.7641">
        <ele>1250</ele>
        <time>2026-07-07T09:08:03.000Z</time>
      </trkpt>
      <trkpt lat="46.21267" lon="6.76416">
        <ele>1251.1999511719</ele>
        <time>2026-07-07T09:08:05.000Z</time>
      </trkpt>
      <trkpt lat="46.21265" lon="6.76422">
        <ele>1252.4000244141</ele>
        <time>2026-07-07T09:08:07.000Z</time>
      </trkpt>
      <trkpt lat="46.21262" lon="6.7643">
        <ele>1253.8000488281</ele>
        <time>2026-07-07T09:08:09.000Z</time>
      </trkpt>
      <trkpt lat="46.2126" lon="6.76437">
        <ele>1255.1999511719</ele>
        <time>2026-07-07T09:08:11.000Z</time>
      </trkpt>
      <trkpt lat="46.21259" lon="6.76441">
        <ele>1255.8000488281</ele>
        <time>2026-07-07T09:08:12.000Z</time>
      </trkpt>
      <trkpt lat="46.21257" lon="6.76444">
        <ele>1256.4000244141</ele>
        <time>2026-07-07T09:08:13.000Z</time>
      </trkpt>
      <trkpt lat="46.21256" lon="6.76451">
        <ele>1257.4000244141</ele>
        <time>2026-07-07T09:08:15.000Z</time>
      </trkpt>
      <trkpt lat="46.21254" lon="6.76457">
        <ele>1258.5999755859</ele>
        <time>2026-07-07T09:08:17.000Z</time>
      </trkpt>
      <trkpt lat="46.21252" lon="6.76464">
        <ele>1260</ele>
        <time>2026-07-07T09:08:19.000Z</time>
      </trkpt>
      <trkpt lat="46.2125" lon="6.76471">
        <ele>1261.4000244141</ele>
        <time>2026-07-07T09:08:21.000Z</time>
      </trkpt>
      <trkpt lat="46.21247" lon="6.76478">
        <ele>1262.8000488281</ele>
        <time>2026-07-07T09:08:23.000Z</time>
      </trkpt>
      <trkpt lat="46.21245" lon="6.76484">
        <ele>1264.4000244141</ele>
        <time>2026-07-07T09:08:25.000Z</time>
      </trkpt>
      <trkpt lat="46.21243" lon="6.7649">
        <ele>1266.1999511719</ele>
        <time>2026-07-07T09:08:27.000Z</time>
      </trkpt>
      <trkpt lat="46.2124" lon="6.76497">
        <ele>1267.5999755859</ele>
        <time>2026-07-07T09:08:29.000Z</time>
      </trkpt>
      <trkpt lat="46.21237" lon="6.76502">
        <ele>1269.1999511719</ele>
        <time>2026-07-07T09:08:31.000Z</time>
      </trkpt>
      <trkpt lat="46.21235" lon="6.76507">
        <ele>1270.5999755859</ele>
        <time>2026-07-07T09:08:33.000Z</time>
      </trkpt>
      <trkpt lat="46.21234" lon="6.7651">
        <ele>1271.4000244141</ele>
        <time>2026-07-07T09:08:34.000Z</time>
      </trkpt>
      <trkpt lat="46.21233" lon="6.76513">
        <ele>1272.1999511719</ele>
        <time>2026-07-07T09:08:35.000Z</time>
      </trkpt>
      <trkpt lat="46.21231" lon="6.76519">
        <ele>1273.8000488281</ele>
        <time>2026-07-07T09:08:37.000Z</time>
      </trkpt>
      <trkpt lat="46.2123" lon="6.76525">
        <ele>1275.4000244141</ele>
        <time>2026-07-07T09:08:39.000Z</time>
      </trkpt>
      <trkpt lat="46.21227" lon="6.76533">
        <ele>1277</ele>
        <time>2026-07-07T09:08:41.000Z</time>
      </trkpt>
      <trkpt lat="46.21226" lon="6.76539">
        <ele>1278.5999755859</ele>
        <time>2026-07-07T09:08:43.000Z</time>
      </trkpt>
      <trkpt lat="46.21223" lon="6.76547">
        <ele>1280.1999511719</ele>
        <time>2026-07-07T09:08:45.000Z</time>
      </trkpt>
      <trkpt lat="46.2122" lon="6.76553">
        <ele>1281.8000488281</ele>
        <time>2026-07-07T09:08:47.000Z</time>
      </trkpt>
      <trkpt lat="46.21216" lon="6.7656">
        <ele>1283.5999755859</ele>
        <time>2026-07-07T09:08:49.000Z</time>
      </trkpt>
      <trkpt lat="46.21214" lon="6.76565">
        <ele>1285.5999755859</ele>
        <time>2026-07-07T09:08:51.000Z</time>
      </trkpt>
      <trkpt lat="46.21212" lon="6.76572">
        <ele>1287.1999511719</ele>
        <time>2026-07-07T09:08:53.000Z</time>
      </trkpt>
      <trkpt lat="46.21209" lon="6.76578">
        <ele>1289</ele>
        <time>2026-07-07T09:08:55.000Z</time>
      </trkpt>
      <trkpt lat="46.21208" lon="6.76582">
        <ele>1289.8000488281</ele>
        <time>2026-07-07T09:08:56.000Z</time>
      </trkpt>
      <trkpt lat="46.21206" lon="6.76584">
        <ele>1290.8000488281</ele>
        <time>2026-07-07T09:08:57.000Z</time>
      </trkpt>
      <trkpt lat="46.21204" lon="6.76591">
        <ele>1292.5999755859</ele>
        <time>2026-07-07T09:08:59.000Z</time>
      </trkpt>
      <trkpt lat="46.21201" lon="6.76598">
        <ele>1294.5999755859</ele>
        <time>2026-07-07T09:09:01.000Z</time>
      </trkpt>
      <trkpt lat="46.21199" lon="6.76604">
        <ele>1296.4000244141</ele>
        <time>2026-07-07T09:09:03.000Z</time>
      </trkpt>
      <trkpt lat="46.21197" lon="6.76611">
        <ele>1298</ele>
        <time>2026-07-07T09:09:05.000Z</time>
      </trkpt>
      <trkpt lat="46.21195" lon="6.76618">
        <ele>1300</ele>
        <time>2026-07-07T09:09:07.000Z</time>
      </trkpt>
      <trkpt lat="46.21193" lon="6.76624">
        <ele>1302</ele>
        <time>2026-07-07T09:09:09.000Z</time>
      </trkpt>
      <trkpt lat="46.21193" lon="6.76632">
        <ele>1304</ele>
        <time>2026-07-07T09:09:11.000Z</time>
      </trkpt>
      <trkpt lat="46.21191" lon="6.76636">
        <ele>1305</ele>
        <time>2026-07-07T09:09:12.000Z</time>
      </trkpt>
      <trkpt lat="46.2119" lon="6.76643">
        <ele>1307</ele>
        <time>2026-07-07T09:09:14.000Z</time>
      </trkpt>
      <trkpt lat="46.21189" lon="6.76647">
        <ele>1308</ele>
        <time>2026-07-07T09:09:15.000Z</time>
      </trkpt>
      <trkpt lat="46.21188" lon="6.7665">
        <ele>1309</ele>
        <time>2026-07-07T09:09:16.000Z</time>
      </trkpt>
      <trkpt lat="46.21186" lon="6.76655">
        <ele>1310</ele>
        <time>2026-07-07T09:09:17.000Z</time>
      </trkpt>
      <trkpt lat="46.21185" lon="6.76658">
        <ele>1311</ele>
        <time>2026-07-07T09:09:18.000Z</time>
      </trkpt>
      <trkpt lat="46.21183" lon="6.76661">
        <ele>1312.1999511719</ele>
        <time>2026-07-07T09:09:19.000Z</time>
      </trkpt>
      <trkpt lat="46.21182" lon="6.76664">
        <ele>1313.1999511719</ele>
        <time>2026-07-07T09:09:20.000Z</time>
      </trkpt>
      <trkpt lat="46.21181" lon="6.76667">
        <ele>1314.4000244141</ele>
        <time>2026-07-07T09:09:21.000Z</time>
      </trkpt>
      <trkpt lat="46.2118" lon="6.76671">
        <ele>1315.4000244141</ele>
        <time>2026-07-07T09:09:22.000Z</time>
      </trkpt>
      <trkpt lat="46.21179" lon="6.76674">
        <ele>1316.4000244141</ele>
        <time>2026-07-07T09:09:23.000Z</time>
      </trkpt>
      <trkpt lat="46.21178" lon="6.76677">
        <ele>1317.4000244141</ele>
        <time>2026-07-07T09:09:24.000Z</time>
      </trkpt>
      <trkpt lat="46.21177" lon="6.7668">
        <ele>1318.4000244141</ele>
        <time>2026-07-07T09:09:25.000Z</time>
      </trkpt>
      <trkpt lat="46.21176" lon="6.76683">
        <ele>1319.4000244141</ele>
        <time>2026-07-07T09:09:26.000Z</time>
      </trkpt>
      <trkpt lat="46.21174" lon="6.76687">
        <ele>1320.5999755859</ele>
        <time>2026-07-07T09:09:27.000Z</time>
      </trkpt>
      <trkpt lat="46.21173" lon="6.7669">
        <ele>1321.5999755859</ele>
        <time>2026-07-07T09:09:28.000Z</time>
      </trkpt>
      <trkpt lat="46.21172" lon="6.76693">
        <ele>1322.8000488281</ele>
        <time>2026-07-07T09:09:29.000Z</time>
      </trkpt>
      <trkpt lat="46.21171" lon="6.76696">
        <ele>1323.8000488281</ele>
        <time>2026-07-07T09:09:30.000Z</time>
      </trkpt>
      <trkpt lat="46.2117" lon="6.76699">
        <ele>1325</ele>
        <time>2026-07-07T09:09:31.000Z</time>
      </trkpt>
      <trkpt lat="46.21169" lon="6.76703">
        <ele>1326</ele>
        <time>2026-07-07T09:09:32.000Z</time>
      </trkpt>
      <trkpt lat="46.21167" lon="6.76706">
        <ele>1327.1999511719</ele>
        <time>2026-07-07T09:09:33.000Z</time>
      </trkpt>
      <trkpt lat="46.21166" lon="6.76709">
        <ele>1328.1999511719</ele>
        <time>2026-07-07T09:09:34.000Z</time>
      </trkpt>
      <trkpt lat="46.21165" lon="6.76712">
        <ele>1329.1999511719</ele>
        <time>2026-07-07T09:09:35.000Z</time>
      </trkpt>
      <trkpt lat="46.21164" lon="6.76716">
        <ele>1330.4000244141</ele>
        <time>2026-07-07T09:09:36.000Z</time>
      </trkpt>
      <trkpt lat="46.21163" lon="6.76719">
        <ele>1331.4000244141</ele>
        <time>2026-07-07T09:09:37.000Z</time>
      </trkpt>
      <trkpt lat="46.21162" lon="6.76723">
        <ele>1332.5999755859</ele>
        <time>2026-07-07T09:09:38.000Z</time>
      </trkpt>
      <trkpt lat="46.21161" lon="6.76726">
        <ele>1333.8000488281</ele>
        <time>2026-07-07T09:09:39.000Z</time>
      </trkpt>
      <trkpt lat="46.2116" lon="6.7673">
        <ele>1334.8000488281</ele>
        <time>2026-07-07T09:09:40.000Z</time>
      </trkpt>
      <trkpt lat="46.21158" lon="6.76733">
        <ele>1336</ele>
        <time>2026-07-07T09:09:41.000Z</time>
      </trkpt>
      <trkpt lat="46.21157" lon="6.76737">
        <ele>1337.1999511719</ele>
        <time>2026-07-07T09:09:42.000Z</time>
      </trkpt>
      <trkpt lat="46.21155" lon="6.7674">
        <ele>1338.1999511719</ele>
        <time>2026-07-07T09:09:43.000Z</time>
      </trkpt>
      <trkpt lat="46.21154" lon="6.76744">
        <ele>1339.4000244141</ele>
        <time>2026-07-07T09:09:44.000Z</time>
      </trkpt>
      <trkpt lat="46.21152" lon="6.76747">
        <ele>1340.5999755859</ele>
        <time>2026-07-07T09:09:45.000Z</time>
      </trkpt>
      <trkpt lat="46.21151" lon="6.7675">
        <ele>1341.8000488281</ele>
        <time>2026-07-07T09:09:46.000Z</time>
      </trkpt>
      <trkpt lat="46.2115" lon="6.76753">
        <ele>1343</ele>
        <time>2026-07-07T09:09:47.000Z</time>
      </trkpt>
      <trkpt lat="46.21148" lon="6.76756">
        <ele>1344.1999511719</ele>
        <time>2026-07-07T09:09:48.000Z</time>
      </trkpt>
      <trkpt lat="46.21147" lon="6.76759">
        <ele>1345.4000244141</ele>
        <time>2026-07-07T09:09:49.000Z</time>
      </trkpt>
      <trkpt lat="46.21145" lon="6.76763">
        <ele>1346.8000488281</ele>
        <time>2026-07-07T09:09:50.000Z</time>
      </trkpt>
      <trkpt lat="46.21144" lon="6.76765">
        <ele>1348</ele>
        <time>2026-07-07T09:09:51.000Z</time>
      </trkpt>
      <trkpt lat="46.21143" lon="6.76768">
        <ele>1349</ele>
        <time>2026-07-07T09:09:52.000Z</time>
      </trkpt>
      <trkpt lat="46.21141" lon="6.76771">
        <ele>1350.1999511719</ele>
        <time>2026-07-07T09:09:53.000Z</time>
      </trkpt>
      <trkpt lat="46.2114" lon="6.76775">
        <ele>1351.4000244141</ele>
        <time>2026-07-07T09:09:54.000Z</time>
      </trkpt>
      <trkpt lat="46.21139" lon="6.76778">
        <ele>1352.8000488281</ele>
        <time>2026-07-07T09:09:55.000Z</time>
      </trkpt>
      <trkpt lat="46.21137" lon="6.76781">
        <ele>1354</ele>
        <time>2026-07-07T09:09:56.000Z</time>
      </trkpt>
      <trkpt lat="46.21136" lon="6.76784">
        <ele>1355.1999511719</ele>
        <time>2026-07-07T09:09:57.000Z</time>
      </trkpt>
      <trkpt lat="46.21135" lon="6.76787">
        <ele>1356.4000244141</ele>
        <time>2026-07-07T09:09:58.000Z</time>
      </trkpt>
      <trkpt lat="46.21134" lon="6.7679">
        <ele>1357.5999755859</ele>
        <time>2026-07-07T09:09:59.000Z</time>
      </trkpt>
      <trkpt lat="46.21133" lon="6.76793">
        <ele>1358.8000488281</ele>
        <time>2026-07-07T09:10:00.000Z</time>
      </trkpt>
      <trkpt lat="46.21132" lon="6.76796">
        <ele>1360</ele>
        <time>2026-07-07T09:10:01.000Z</time>
      </trkpt>
      <trkpt lat="46.21131" lon="6.76799">
        <ele>1361.1999511719</ele>
        <time>2026-07-07T09:10:02.000Z</time>
      </trkpt>
      <trkpt lat="46.2113" lon="6.76801">
        <ele>1362.5999755859</ele>
        <time>2026-07-07T09:10:03.000Z</time>
      </trkpt>
      <trkpt lat="46.21129" lon="6.76804">
        <ele>1363.8000488281</ele>
        <time>2026-07-07T09:10:04.000Z</time>
      </trkpt>
      <trkpt lat="46.21128" lon="6.76806">
        <ele>1365</ele>
        <time>2026-07-07T09:10:05.000Z</time>
      </trkpt>
      <trkpt lat="46.21128" lon="6.76808">
        <ele>1366.4000244141</ele>
        <time>2026-07-07T09:10:06.000Z</time>
      </trkpt>
      <trkpt lat="46.21126" lon="6.76811">
        <ele>1367.5999755859</ele>
        <time>2026-07-07T09:10:07.000Z</time>
      </trkpt>
      <trkpt lat="46.21126" lon="6.76813">
        <ele>1369</ele>
        <time>2026-07-07T09:10:08.000Z</time>
      </trkpt>
      <trkpt lat="46.21124" lon="6.76817">
        <ele>1370.4000244141</ele>
        <time>2026-07-07T09:10:09.000Z</time>
      </trkpt>
      <trkpt lat="46.21123" lon="6.76822">
        <ele>1372</ele>
        <time>2026-07-07T09:10:10.000Z</time>
      </trkpt>
      <trkpt lat="46.21122" lon="6.76826">
        <ele>1373.4000244141</ele>
        <time>2026-07-07T09:10:11.000Z</time>
      </trkpt>
      <trkpt lat="46.21122" lon="6.7683">
        <ele>1374.8000488281</ele>
        <time>2026-07-07T09:10:12.000Z</time>
      </trkpt>
      <trkpt lat="46.21121" lon="6.76834">
        <ele>1376.1999511719</ele>
        <time>2026-07-07T09:10:13.000Z</time>
      </trkpt>
      <trkpt lat="46.2112" lon="6.76837">
        <ele>1377.4000244141</ele>
        <time>2026-07-07T09:10:14.000Z</time>
      </trkpt>
      <trkpt lat="46.2112" lon="6.7684">
        <ele>1378.8000488281</ele>
        <time>2026-07-07T09:10:15.000Z</time>
      </trkpt>
      <trkpt lat="46.21118" lon="6.76843">
        <ele>1380</ele>
        <time>2026-07-07T09:10:16.000Z</time>
      </trkpt>
      <trkpt lat="46.21117" lon="6.76848">
        <ele>1381.1999511719</ele>
        <time>2026-07-07T09:10:17.000Z</time>
      </trkpt>
      <trkpt lat="46.21116" lon="6.76851">
        <ele>1382.4000244141</ele>
        <time>2026-07-07T09:10:18.000Z</time>
      </trkpt>
      <trkpt lat="46.21115" lon="6.76855">
        <ele>1383.5999755859</ele>
        <time>2026-07-07T09:10:19.000Z</time>
      </trkpt>
      <trkpt lat="46.21113" lon="6.76859">
        <ele>1384.5999755859</ele>
        <time>2026-07-07T09:10:20.000Z</time>
      </trkpt>
      <trkpt lat="46.21112" lon="6.76863">
        <ele>1385.8000488281</ele>
        <time>2026-07-07T09:10:21.000Z</time>
      </trkpt>
      <trkpt lat="46.21111" lon="6.76867">
        <ele>1387</ele>
        <time>2026-07-07T09:10:22.000Z</time>
      </trkpt>
      <trkpt lat="46.21109" lon="6.76872">
        <ele>1388.1999511719</ele>
        <time>2026-07-07T09:10:23.000Z</time>
      </trkpt>
      <trkpt lat="46.21107" lon="6.76877">
        <ele>1389.4000244141</ele>
        <time>2026-07-07T09:10:24.000Z</time>
      </trkpt>
      <trkpt lat="46.21106" lon="6.76881">
        <ele>1390.8000488281</ele>
        <time>2026-07-07T09:10:25.000Z</time>
      </trkpt>
      <trkpt lat="46.21104" lon="6.76885">
        <ele>1392.1999511719</ele>
        <time>2026-07-07T09:10:26.000Z</time>
      </trkpt>
      <trkpt lat="46.21102" lon="6.7689">
        <ele>1393.5999755859</ele>
        <time>2026-07-07T09:10:27.000Z</time>
      </trkpt>
      <trkpt lat="46.21101" lon="6.76895">
        <ele>1395</ele>
        <time>2026-07-07T09:10:28.000Z</time>
      </trkpt>
      <trkpt lat="46.211" lon="6.76899">
        <ele>1396.1999511719</ele>
        <time>2026-07-07T09:10:29.000Z</time>
      </trkpt>
      <trkpt lat="46.21099" lon="6.76904">
        <ele>1397.4000244141</ele>
        <time>2026-07-07T09:10:30.000Z</time>
      </trkpt>
      <trkpt lat="46.21098" lon="6.76908">
        <ele>1398.5999755859</ele>
        <time>2026-07-07T09:10:31.000Z</time>
      </trkpt>
      <trkpt lat="46.21096" lon="6.76913">
        <ele>1399.8000488281</ele>
        <time>2026-07-07T09:10:32.000Z</time>
      </trkpt>
      <trkpt lat="46.21094" lon="6.76918">
        <ele>1400.8000488281</ele>
        <time>2026-07-07T09:10:33.000Z</time>
      </trkpt>
      <trkpt lat="46.21093" lon="6.76923">
        <ele>1401.5999755859</ele>
        <time>2026-07-07T09:10:34.000Z</time>
      </trkpt>
      <trkpt lat="46.21091" lon="6.76927">
        <ele>1402.5999755859</ele>
        <time>2026-07-07T09:10:35.000Z</time>
      </trkpt>
      <trkpt lat="46.21088" lon="6.76937">
        <ele>1404</ele>
        <time>2026-07-07T09:10:37.000Z</time>
      </trkpt>
      <trkpt lat="46.21087" lon="6.76942">
        <ele>1404.5999755859</ele>
        <time>2026-07-07T09:10:38.000Z</time>
      </trkpt>
      <trkpt lat="46.21085" lon="6.76946">
        <ele>1405.4000244141</ele>
        <time>2026-07-07T09:10:39.000Z</time>
      </trkpt>
      <trkpt lat="46.21082" lon="6.76955">
        <ele>1407</ele>
        <time>2026-07-07T09:10:41.000Z</time>
      </trkpt>
      <trkpt lat="46.21078" lon="6.76964">
        <ele>1408.5999755859</ele>
        <time>2026-07-07T09:10:43.000Z</time>
      </trkpt>
      <trkpt lat="46.21075" lon="6.76973">
        <ele>1410.1999511719</ele>
        <time>2026-07-07T09:10:45.000Z</time>
      </trkpt>
      <trkpt lat="46.21071" lon="6.76981">
        <ele>1412</ele>
        <time>2026-07-07T09:10:47.000Z</time>
      </trkpt>
      <trkpt lat="46.2107" lon="6.76985">
        <ele>1413</ele>
        <time>2026-07-07T09:10:48.000Z</time>
      </trkpt>
      <trkpt lat="46.21068" lon="6.76989">
        <ele>1413.8000488281</ele>
        <time>2026-07-07T09:10:49.000Z</time>
      </trkpt>
      <trkpt lat="46.21064" lon="6.76999">
        <ele>1415.5999755859</ele>
        <time>2026-07-07T09:10:51.000Z</time>
      </trkpt>
      <trkpt lat="46.21061" lon="6.77008">
        <ele>1417.5999755859</ele>
        <time>2026-07-07T09:10:53.000Z</time>
      </trkpt>
      <trkpt lat="46.21058" lon="6.77017">
        <ele>1419.4000244141</ele>
        <time>2026-07-07T09:10:55.000Z</time>
      </trkpt>
      <trkpt lat="46.21055" lon="6.77026">
        <ele>1421.4000244141</ele>
        <time>2026-07-07T09:10:57.000Z</time>
      </trkpt>
      <trkpt lat="46.21051" lon="6.77035">
        <ele>1423.1999511719</ele>
        <time>2026-07-07T09:10:59.000Z</time>
      </trkpt>
      <trkpt lat="46.21048" lon="6.77044">
        <ele>1425.1999511719</ele>
        <time>2026-07-07T09:11:01.000Z</time>
      </trkpt>
      <trkpt lat="46.21046" lon="6.77049">
        <ele>1426.1999511719</ele>
        <time>2026-07-07T09:11:02.000Z</time>
      </trkpt>
      <trkpt lat="46.21044" lon="6.77054">
        <ele>1427.1999511719</ele>
        <time>2026-07-07T09:11:03.000Z</time>
      </trkpt>
      <trkpt lat="46.21043" lon="6.77058">
        <ele>1428.4000244141</ele>
        <time>2026-07-07T09:11:04.000Z</time>
      </trkpt>
      <trkpt lat="46.21042" lon="6.77063">
        <ele>1429.4000244141</ele>
        <time>2026-07-07T09:11:05.000Z</time>
      </trkpt>
      <trkpt lat="46.2104" lon="6.77068">
        <ele>1430.4000244141</ele>
        <time>2026-07-07T09:11:06.000Z</time>
      </trkpt>
      <trkpt lat="46.21038" lon="6.77072">
        <ele>1431.4000244141</ele>
        <time>2026-07-07T09:11:07.000Z</time>
      </trkpt>
      <trkpt lat="46.21037" lon="6.77077">
        <ele>1432.5999755859</ele>
        <time>2026-07-07T09:11:08.000Z</time>
      </trkpt>
      <trkpt lat="46.21035" lon="6.77081">
        <ele>1433.5999755859</ele>
        <time>2026-07-07T09:11:09.000Z</time>
      </trkpt>
      <trkpt lat="46.21034" lon="6.77086">
        <ele>1434.5999755859</ele>
        <time>2026-07-07T09:11:10.000Z</time>
      </trkpt>
      <trkpt lat="46.21033" lon="6.7709">
        <ele>1435.8000488281</ele>
        <time>2026-07-07T09:11:11.000Z</time>
      </trkpt>
      <trkpt lat="46.21032" lon="6.77094">
        <ele>1436.8000488281</ele>
        <time>2026-07-07T09:11:12.000Z</time>
      </trkpt>
      <trkpt lat="46.2103" lon="6.77099">
        <ele>1437.8000488281</ele>
        <time>2026-07-07T09:11:13.000Z</time>
      </trkpt>
      <trkpt lat="46.21029" lon="6.77104">
        <ele>1439</ele>
        <time>2026-07-07T09:11:14.000Z</time>
      </trkpt>
      <trkpt lat="46.21027" lon="6.77108">
        <ele>1440.1999511719</ele>
        <time>2026-07-07T09:11:15.000Z</time>
      </trkpt>
      <trkpt lat="46.21026" lon="6.77113">
        <ele>1441.4000244141</ele>
        <time>2026-07-07T09:11:16.000Z</time>
      </trkpt>
      <trkpt lat="46.21024" lon="6.77118">
        <ele>1442.5999755859</ele>
        <time>2026-07-07T09:11:17.000Z</time>
      </trkpt>
      <trkpt lat="46.21023" lon="6.77122">
        <ele>1443.5999755859</ele>
        <time>2026-07-07T09:11:18.000Z</time>
      </trkpt>
      <trkpt lat="46.21021" lon="6.77127">
        <ele>1444.8000488281</ele>
        <time>2026-07-07T09:11:19.000Z</time>
      </trkpt>
      <trkpt lat="46.2102" lon="6.77132">
        <ele>1446</ele>
        <time>2026-07-07T09:11:20.000Z</time>
      </trkpt>
      <trkpt lat="46.21019" lon="6.77135">
        <ele>1447.4000244141</ele>
        <time>2026-07-07T09:11:21.000Z</time>
      </trkpt>
      <trkpt lat="46.21018" lon="6.77139">
        <ele>1448.4000244141</ele>
        <time>2026-07-07T09:11:22.000Z</time>
      </trkpt>
      <trkpt lat="46.21017" lon="6.77144">
        <ele>1449.4000244141</ele>
        <time>2026-07-07T09:11:23.000Z</time>
      </trkpt>
      <trkpt lat="46.21015" lon="6.77149">
        <ele>1450.1999511719</ele>
        <time>2026-07-07T09:11:24.000Z</time>
      </trkpt>
      <trkpt lat="46.2101" lon="6.77163">
        <ele>1451.8000488281</ele>
        <time>2026-07-07T09:11:27.000Z</time>
      </trkpt>
      <trkpt lat="46.21006" lon="6.77173">
        <ele>1452.8000488281</ele>
        <time>2026-07-07T09:11:29.000Z</time>
      </trkpt>
      <trkpt lat="46.21004" lon="6.77179">
        <ele>1454</ele>
        <time>2026-07-07T09:11:31.000Z</time>
      </trkpt>
      <trkpt lat="46.21003" lon="6.77179">
        <ele>1454.4000244141</ele>
        <time>2026-07-07T09:11:32.000Z</time>
      </trkpt>
      <trkpt lat="46.21004" lon="6.77177">
        <ele>1454.8000488281</ele>
        <time>2026-07-07T09:11:37.000Z</time>
      </trkpt>
      <trkpt lat="46.21006" lon="6.77177">
        <ele>1454.8000488281</ele>
        <time>2026-07-07T09:11:46.000Z</time>
      </trkpt>
      <trkpt lat="46.21006" lon="6.77177">
        <ele>1454.5999755859</ele>
        <time>2026-07-07T09:11:48.000Z</time>
      </trkpt>
      <trkpt lat="46.21007" lon="6.77177">
        <ele>1454.5999755859</ele>
        <time>2026-07-07T09:11:51.000Z</time>
      </trkpt>
      <trkpt lat="46.21007" lon="6.77175">
        <ele>1454.5999755859</ele>
        <time>2026-07-07T09:11:58.000Z</time>
      </trkpt>
      <trkpt lat="46.21007" lon="6.77175">
        <ele>1454.5999755859</ele>
        <time>2026-07-07T09:11:59.000Z</time>
      </trkpt>
      <trkpt lat="46.21006" lon="6.77176">
        <ele>1454.5999755859</ele>
        <time>2026-07-07T09:12:01.000Z</time>
      </trkpt>
      <trkpt lat="46.21005" lon="6.77185">
        <ele>1455</ele>
        <time>2026-07-07T09:12:07.000Z</time>
      </trkpt>
      <trkpt lat="46.21004" lon="6.77187">
        <ele>1455.1999511719</ele>
        <time>2026-07-07T09:12:08.000Z</time>
      </trkpt>
      <trkpt lat="46.21002" lon="6.77195">
        <ele>1456</ele>
        <time>2026-07-07T09:12:11.000Z</time>
      </trkpt>
      <trkpt lat="46.20998" lon="6.77204">
        <ele>1457.1999511719</ele>
        <time>2026-07-07T09:12:14.000Z</time>
      </trkpt>
      <trkpt lat="46.20997" lon="6.77208">
        <ele>1457.8000488281</ele>
        <time>2026-07-07T09:12:15.000Z</time>
      </trkpt>
      <trkpt lat="46.20994" lon="6.77214">
        <ele>1458.5999755859</ele>
        <time>2026-07-07T09:12:17.000Z</time>
      </trkpt>
      <trkpt lat="46.20991" lon="6.77222">
        <ele>1459.8000488281</ele>
        <time>2026-07-07T09:12:19.000Z</time>
      </trkpt>
      <trkpt lat="46.20987" lon="6.77231">
        <ele>1461</ele>
        <time>2026-07-07T09:12:21.000Z</time>
      </trkpt>
      <trkpt lat="46.20984" lon="6.77241">
        <ele>1462.4000244141</ele>
        <time>2026-07-07T09:12:23.000Z</time>
      </trkpt>
      <trkpt lat="46.20982" lon="6.7725">
        <ele>1464</ele>
        <time>2026-07-07T09:12:25.000Z</time>
      </trkpt>
      <trkpt lat="46.20979" lon="6.77259">
        <ele>1465.4000244141</ele>
        <time>2026-07-07T09:12:27.000Z</time>
      </trkpt>
      <trkpt lat="46.20976" lon="6.77268">
        <ele>1466.8000488281</ele>
        <time>2026-07-07T09:12:29.000Z</time>
      </trkpt>
      <trkpt lat="46.20973" lon="6.77276">
        <ele>1468.4000244141</ele>
        <time>2026-07-07T09:12:31.000Z</time>
      </trkpt>
      <trkpt lat="46.20969" lon="6.77285">
        <ele>1470</ele>
        <time>2026-07-07T09:12:33.000Z</time>
      </trkpt>
      <trkpt lat="46.20967" lon="6.77289">
        <ele>1470.8000488281</ele>
        <time>2026-07-07T09:12:34.000Z</time>
      </trkpt>
      <trkpt lat="46.20966" lon="6.77294">
        <ele>1471.5999755859</ele>
        <time>2026-07-07T09:12:35.000Z</time>
      </trkpt>
      <trkpt lat="46.20963" lon="6.77303">
        <ele>1473.1999511719</ele>
        <time>2026-07-07T09:12:37.000Z</time>
      </trkpt>
      <trkpt lat="46.2096" lon="6.77312">
        <ele>1475</ele>
        <time>2026-07-07T09:12:39.000Z</time>
      </trkpt>
      <trkpt lat="46.20957" lon="6.77322">
        <ele>1476.8000488281</ele>
        <time>2026-07-07T09:12:41.000Z</time>
      </trkpt>
      <trkpt lat="46.20954" lon="6.77331">
        <ele>1478.5999755859</ele>
        <time>2026-07-07T09:12:43.000Z</time>
      </trkpt>
      <trkpt lat="46.20951" lon="6.77341">
        <ele>1480.5999755859</ele>
        <time>2026-07-07T09:12:45.000Z</time>
      </trkpt>
      <trkpt lat="46.20948" lon="6.77351">
        <ele>1482.4000244141</ele>
        <time>2026-07-07T09:12:47.000Z</time>
      </trkpt>
      <trkpt lat="46.20945" lon="6.7736">
        <ele>1483.5999755859</ele>
        <time>2026-07-07T09:12:49.000Z</time>
      </trkpt>
      <trkpt lat="46.20941" lon="6.77373">
        <ele>1485</ele>
        <time>2026-07-07T09:12:52.000Z</time>
      </trkpt>
      <trkpt lat="46.20938" lon="6.77383">
        <ele>1486</ele>
        <time>2026-07-07T09:12:54.000Z</time>
      </trkpt>
      <trkpt lat="46.20935" lon="6.77392">
        <ele>1487.1999511719</ele>
        <time>2026-07-07T09:12:56.000Z</time>
      </trkpt>
      <trkpt lat="46.20933" lon="6.77396">
        <ele>1487.8000488281</ele>
        <time>2026-07-07T09:12:57.000Z</time>
      </trkpt>
      <trkpt lat="46.20932" lon="6.77401">
        <ele>1488.4000244141</ele>
        <time>2026-07-07T09:12:58.000Z</time>
      </trkpt>
      <trkpt lat="46.20928" lon="6.7741">
        <ele>1489.4000244141</ele>
        <time>2026-07-07T09:13:00.000Z</time>
      </trkpt>
      <trkpt lat="46.20925" lon="6.77419">
        <ele>1490.8000488281</ele>
        <time>2026-07-07T09:13:02.000Z</time>
      </trkpt>
      <trkpt lat="46.20922" lon="6.77429">
        <ele>1492.1999511719</ele>
        <time>2026-07-07T09:13:04.000Z</time>
      </trkpt>
      <trkpt lat="46.20919" lon="6.77438">
        <ele>1493.4000244141</ele>
        <time>2026-07-07T09:13:06.000Z</time>
      </trkpt>
      <trkpt lat="46.20916" lon="6.77447">
        <ele>1494.8000488281</ele>
        <time>2026-07-07T09:13:08.000Z</time>
      </trkpt>
      <trkpt lat="46.20913" lon="6.77456">
        <ele>1496.1999511719</ele>
        <time>2026-07-07T09:13:10.000Z</time>
      </trkpt>
      <trkpt lat="46.2091" lon="6.77465">
        <ele>1497.5999755859</ele>
        <time>2026-07-07T09:13:12.000Z</time>
      </trkpt>
      <trkpt lat="46.20907" lon="6.77474">
        <ele>1499</ele>
        <time>2026-07-07T09:13:14.000Z</time>
      </trkpt>
      <trkpt lat="46.20904" lon="6.77483">
        <ele>1500.4000244141</ele>
        <time>2026-07-07T09:13:16.000Z</time>
      </trkpt>
      <trkpt lat="46.20901" lon="6.77492">
        <ele>1502</ele>
        <time>2026-07-07T09:13:18.000Z</time>
      </trkpt>
      <trkpt lat="46.20898" lon="6.77502">
        <ele>1503.5999755859</ele>
        <time>2026-07-07T09:13:20.000Z</time>
      </trkpt>
      <trkpt lat="46.20895" lon="6.7751">
        <ele>1505.4000244141</ele>
        <time>2026-07-07T09:13:22.000Z</time>
      </trkpt>
      <trkpt lat="46.20894" lon="6.77515">
        <ele>1506.1999511719</ele>
        <time>2026-07-07T09:13:23.000Z</time>
      </trkpt>
      <trkpt lat="46.20892" lon="6.7752">
        <ele>1507.1999511719</ele>
        <time>2026-07-07T09:13:24.000Z</time>
      </trkpt>
      <trkpt lat="46.2089" lon="6.77528">
        <ele>1508.4000244141</ele>
        <time>2026-07-07T09:13:26.000Z</time>
      </trkpt>
      <trkpt lat="46.20884" lon="6.77542">
        <ele>1509.5999755859</ele>
        <time>2026-07-07T09:13:29.000Z</time>
      </trkpt>
      <trkpt lat="46.20882" lon="6.77547">
        <ele>1509.8000488281</ele>
        <time>2026-07-07T09:13:30.000Z</time>
      </trkpt>
      <trkpt lat="46.20881" lon="6.77551">
        <ele>1509.8000488281</ele>
        <time>2026-07-07T09:13:31.000Z</time>
      </trkpt>
      <trkpt lat="46.20875" lon="6.77565">
        <ele>1510.1999511719</ele>
        <time>2026-07-07T09:13:34.000Z</time>
      </trkpt>
      <trkpt lat="46.20871" lon="6.77575">
        <ele>1510.5999755859</ele>
        <time>2026-07-07T09:13:36.000Z</time>
      </trkpt>
      <trkpt lat="46.20864" lon="6.77597">
        <ele>1511.5999755859</ele>
        <time>2026-07-07T09:13:41.000Z</time>
      </trkpt>
      <trkpt lat="46.20859" lon="6.77616">
        <ele>1512.8000488281</ele>
        <time>2026-07-07T09:13:45.000Z</time>
      </trkpt>
      <trkpt lat="46.20857" lon="6.77621">
        <ele>1513</ele>
        <time>2026-07-07T09:13:46.000Z</time>
      </trkpt>
      <trkpt lat="46.2085" lon="6.77648">
        <ele>1513.4000244141</ele>
        <time>2026-07-07T09:13:52.000Z</time>
      </trkpt>
      <trkpt lat="46.20842" lon="6.77672">
        <ele>1512.8000488281</ele>
        <time>2026-07-07T09:13:57.000Z</time>
      </trkpt>
      <trkpt lat="46.20833" lon="6.77699">
        <ele>1512.4000244141</ele>
        <time>2026-07-07T09:14:03.000Z</time>
      </trkpt>
      <trkpt lat="46.20825" lon="6.77723">
        <ele>1512.4000244141</ele>
        <time>2026-07-07T09:14:08.000Z</time>
      </trkpt>
      <trkpt lat="46.20822" lon="6.77733">
        <ele>1512.5999755859</ele>
        <time>2026-07-07T09:14:10.000Z</time>
      </trkpt>
      <trkpt lat="46.20812" lon="6.77759">
        <ele>1513.1999511719</ele>
        <time>2026-07-07T09:14:16.000Z</time>
      </trkpt>
      <trkpt lat="46.20807" lon="6.77772">
        <ele>1512</ele>
        <time>2026-07-07T09:14:19.000Z</time>
      </trkpt>
      <trkpt lat="46.20806" lon="6.77775">
        <ele>1511.5999755859</ele>
        <time>2026-07-07T09:14:20.000Z</time>
      </trkpt>
      <trkpt lat="46.20802" lon="6.77782">
        <ele>1511.1999511719</ele>
        <time>2026-07-07T09:14:23.000Z</time>
      </trkpt>
      <trkpt lat="46.20801" lon="6.77784">
        <ele>1511</ele>
        <time>2026-07-07T09:14:24.000Z</time>
      </trkpt>
      <trkpt lat="46.20795" lon="6.7779">
        <ele>1511</ele>
        <time>2026-07-07T09:14:29.000Z</time>
      </trkpt>
      <trkpt lat="46.20792" lon="6.77791">
        <ele>1511</ele>
        <time>2026-07-07T09:14:31.000Z</time>
      </trkpt>
      <trkpt lat="46.20787" lon="6.77791">
        <ele>1511.1999511719</ele>
        <time>2026-07-07T09:14:37.000Z</time>
      </trkpt>
      <trkpt lat="46.20787" lon="6.77796">
        <ele>1511</ele>
        <time>2026-07-07T09:14:42.000Z</time>
      </trkpt>
      <trkpt lat="46.20787" lon="6.77797">
        <ele>1511</ele>
        <time>2026-07-07T09:14:43.000Z</time>
      </trkpt>
      <trkpt lat="46.20788" lon="6.778">
        <ele>1511.1999511719</ele>
        <time>2026-07-07T09:14:49.000Z</time>
      </trkpt>
      <trkpt lat="46.20788" lon="6.778">
        <ele>1511.4000244141</ele>
        <time>2026-07-07T09:14:50.000Z</time>
      </trkpt>
      <trkpt lat="46.20791" lon="6.77806">
        <ele>1511.5999755859</ele>
        <time>2026-07-07T09:14:56.000Z</time>
      </trkpt>
      <trkpt lat="46.20791" lon="6.7781">
        <ele>1511.4000244141</ele>
        <time>2026-07-07T09:14:59.000Z</time>
      </trkpt>
      <trkpt lat="46.20789" lon="6.77814">
        <ele>1511.1999511719</ele>
        <time>2026-07-07T09:15:07.000Z</time>
      </trkpt>
      <trkpt lat="46.20788" lon="6.77815">
        <ele>1511.1999511719</ele>
        <time>2026-07-07T09:15:09.000Z</time>
      </trkpt>
      <trkpt lat="46.20787" lon="6.77816">
        <ele>1511</ele>
        <time>2026-07-07T09:15:17.000Z</time>
      </trkpt>
      <trkpt lat="46.20787" lon="6.77819">
        <ele>1511</ele>
        <time>2026-07-07T09:15:23.000Z</time>
      </trkpt>
      <trkpt lat="46.20785" lon="6.77819">
        <ele>1510.8000488281</ele>
        <time>2026-07-07T09:15:26.000Z</time>
      </trkpt>
      <trkpt lat="46.20785" lon="6.77818">
        <ele>1510.8000488281</ele>
        <time>2026-07-07T09:15:27.000Z</time>
      </trkpt>
      <trkpt lat="46.20786" lon="6.77819">
        <ele>1510.5999755859</ele>
        <time>2026-07-07T09:15:35.000Z</time>
      </trkpt>
      <trkpt lat="46.20786" lon="6.77819">
        <ele>1510.5999755859</ele>
        <time>2026-07-07T09:15:37.000Z</time>
      </trkpt>
      <trkpt lat="46.20785" lon="6.77818">
        <ele>1510.4000244141</ele>
        <time>2026-07-07T09:15:42.000Z</time>
      </trkpt>
      <trkpt lat="46.20784" lon="6.77819">
        <ele>1510.4000244141</ele>
        <time>2026-07-07T09:15:53.000Z</time>
      </trkpt>
      <trkpt lat="46.20783" lon="6.77819">
        <ele>1510.5999755859</ele>
        <time>2026-07-07T09:15:57.000Z</time>
      </trkpt>
      <trkpt lat="46.20783" lon="6.77819">
        <ele>1510.4000244141</ele>
        <time>2026-07-07T09:16:01.000Z</time>
      </trkpt>
      <trkpt lat="46.20783" lon="6.77818">
        <ele>1510.4000244141</ele>
        <time>2026-07-07T09:16:02.000Z</time>
      </trkpt>
      <trkpt lat="46.20783" lon="6.77818">
        <ele>1510.4000244141</ele>
        <time>2026-07-07T09:16:03.000Z</time>
      </trkpt>
      <trkpt lat="46.20783" lon="6.77817">
        <ele>1510.1999511719</ele>
        <time>2026-07-07T09:16:04.000Z</time>
      </trkpt>
      <trkpt lat="46.20784" lon="6.77817">
        <ele>1510.1999511719</ele>
        <time>2026-07-07T09:16:05.000Z</time>
      </trkpt>
      <trkpt lat="46.20784" lon="6.77817">
        <ele>1510.1999511719</ele>
        <time>2026-07-07T09:16:06.000Z</time>
      </trkpt>
      <trkpt lat="46.20785" lon="6.77816">
        <ele>1510.1999511719</ele>
        <time>2026-07-07T09:16:07.000Z</time>
      </trkpt>
      <trkpt lat="46.20786" lon="6.77816">
        <ele>1510.1999511719</ele>
        <time>2026-07-07T09:16:09.000Z</time>
      </trkpt>
      <trkpt lat="46.20788" lon="6.77816">
        <ele>1510.1999511719</ele>
        <time>2026-07-07T09:16:14.000Z</time>
      </trkpt>
      <trkpt lat="46.20788" lon="6.77816">
        <ele>1510.1999511719</ele>
        <time>2026-07-07T09:16:16.000Z</time>
      </trkpt>
      <trkpt lat="46.20785" lon="6.77815">
        <ele>1510</ele>
        <time>2026-07-07T09:16:25.000Z</time>
      </trkpt>
      <trkpt lat="46.20781" lon="6.77814">
        <ele>1509.8000488281</ele>
        <time>2026-07-07T09:16:35.000Z</time>
      </trkpt>
      <trkpt lat="46.20781" lon="6.77815">
        <ele>1509.5999755859</ele>
        <time>2026-07-07T09:16:41.000Z</time>
      </trkpt>
      <trkpt lat="46.20786" lon="6.77817">
        <ele>1509.4000244141</ele>
        <time>2026-07-07T09:16:46.000Z</time>
      </trkpt>
      <trkpt lat="46.20784" lon="6.77819">
        <ele>1509.1999511719</ele>
        <time>2026-07-07T09:16:57.000Z</time>
      </trkpt>
      <trkpt lat="46.20784" lon="6.77819">
        <ele>1509</ele>
        <time>2026-07-07T09:17:06.000Z</time>
      </trkpt>
      <trkpt lat="46.20784" lon="6.77819">
        <ele>1509.1999511719</ele>
        <time>2026-07-07T09:17:13.000Z</time>
      </trkpt>
      <trkpt lat="46.20784" lon="6.77818">
        <ele>1509.1999511719</ele>
        <time>2026-07-07T09:17:17.000Z</time>
      </trkpt>
      <trkpt lat="46.20785" lon="6.77818">
        <ele>1509</ele>
        <time>2026-07-07T09:17:29.000Z</time>
      </trkpt>
      <trkpt lat="46.20784" lon="6.77818">
        <ele>1508.5999755859</ele>
        <time>2026-07-07T09:17:40.000Z</time>
      </trkpt>
      <trkpt lat="46.20783" lon="6.77818">
        <ele>1508.5999755859</ele>
        <time>2026-07-07T09:17:41.000Z</time>
      </trkpt>
      <trkpt lat="46.2078" lon="6.77819">
        <ele>1508.5999755859</ele>
        <time>2026-07-07T09:17:53.000Z</time>
      </trkpt>
      <trkpt lat="46.20782" lon="6.77819">
        <ele>1508.4000244141</ele>
        <time>2026-07-07T09:18:05.000Z</time>
      </trkpt>
      <trkpt lat="46.20783" lon="6.77818">
        <ele>1508.5999755859</ele>
        <time>2026-07-07T09:18:19.000Z</time>
      </trkpt>
      <trkpt lat="46.20783" lon="6.77818">
        <ele>1508.4000244141</ele>
        <time>2026-07-07T09:18:30.000Z</time>
      </trkpt>
      <trkpt lat="46.20785" lon="6.7782">
        <ele>1508.4000244141</ele>
        <time>2026-07-07T09:18:45.000Z</time>
      </trkpt>
      <trkpt lat="46.20783" lon="6.77819">
        <ele>1508.1999511719</ele>
        <time>2026-07-07T09:18:59.000Z</time>
      </trkpt>
      <trkpt lat="46.20784" lon="6.77819">
        <ele>1508.4000244141</ele>
        <time>2026-07-07T09:19:13.000Z</time>
      </trkpt>
      <trkpt lat="46.20785" lon="6.77818">
        <ele>1508.4000244141</ele>
        <time>2026-07-07T09:19:18.000Z</time>
      </trkpt>
      <trkpt lat="46.20785" lon="6.77819">
        <ele>1508.4000244141</ele>
        <time>2026-07-07T09:19:25.000Z</time>
      </trkpt>
      <trkpt lat="46.20785" lon="6.77819">
        <ele>1508.4000244141</ele>
        <time>2026-07-07T09:19:26.000Z</time>
      </trkpt>
      <trkpt lat="46.20784" lon="6.77821">
        <ele>1508.4000244141</ele>
        <time>2026-07-07T09:19:37.000Z</time>
      </trkpt>
      <trkpt lat="46.20783" lon="6.77821">
        <ele>1508.1999511719</ele>
        <time>2026-07-07T09:19:47.000Z</time>
      </trkpt>
      <trkpt lat="46.20783" lon="6.7782">
        <ele>1508.1999511719</ele>
        <time>2026-07-07T09:19:59.000Z</time>
      </trkpt>
      <trkpt lat="46.20782" lon="6.77818">
        <ele>1508</ele>
        <time>2026-07-07T09:20:13.000Z</time>
      </trkpt>
      <trkpt lat="46.20784" lon="6.77819">
        <ele>1508.1999511719</ele>
        <time>2026-07-07T09:20:27.000Z</time>
      </trkpt>
      <trkpt lat="46.20783" lon="6.77819">
        <ele>1508.4000244141</ele>
        <time>2026-07-07T09:20:40.000Z</time>
      </trkpt>
      <trkpt lat="46.20783" lon="6.77819">
        <ele>1508.4000244141</ele>
        <time>2026-07-07T09:20:52.000Z</time>
      </trkpt>
      <trkpt lat="46.20784" lon="6.77819">
        <ele>1508.4000244141</ele>
        <time>2026-07-07T09:20:54.000Z</time>
      </trkpt>
      <trkpt lat="46.20784" lon="6.77818">
        <ele>1508.4000244141</ele>
        <time>2026-07-07T09:20:58.000Z</time>
      </trkpt>
      <trkpt lat="46.20785" lon="6.77818">
        <ele>1508.1999511719</ele>
        <time>2026-07-07T09:21:05.000Z</time>
      </trkpt>
      <trkpt lat="46.20785" lon="6.77818">
        <ele>1508.5999755859</ele>
        <time>2026-07-07T09:21:14.000Z</time>
      </trkpt>
      <trkpt lat="46.20784" lon="6.77818">
        <ele>1508.5999755859</ele>
        <time>2026-07-07T09:21:17.000Z</time>
      </trkpt>
      <trkpt lat="46.20785" lon="6.77816">
        <ele>1508.4000244141</ele>
        <time>2026-07-07T09:21:29.000Z</time>
      </trkpt>
      <trkpt lat="46.20787" lon="6.77819">
        <ele>1508.5999755859</ele>
        <time>2026-07-07T09:21:42.000Z</time>
      </trkpt>
      <trkpt lat="46.20788" lon="6.77819">
        <ele>1508.8000488281</ele>
        <time>2026-07-07T09:21:53.000Z</time>
      </trkpt>
      <trkpt lat="46.20785" lon="6.77817">
        <ele>1508.5999755859</ele>
        <time>2026-07-07T09:22:04.000Z</time>
      </trkpt>
      <trkpt lat="46.20785" lon="6.77816">
        <ele>1508.5999755859</ele>
        <time>2026-07-07T09:22:15.000Z</time>
      </trkpt>
      <trkpt lat="46.20783" lon="6.77821">
        <ele>1508.4000244141</ele>
        <time>2026-07-07T09:22:25.000Z</time>
      </trkpt>
      <trkpt lat="46.20782" lon="6.77824">
        <ele>1508.4000244141</ele>
        <time>2026-07-07T09:22:34.000Z</time>
      </trkpt>
      <trkpt lat="46.20782" lon="6.77824">
        <ele>1508.4000244141</ele>
        <time>2026-07-07T09:22:39.000Z</time>
      </trkpt>
      <trkpt lat="46.20782" lon="6.77824">
        <ele>1508.1999511719</ele>
        <time>2026-07-07T09:22:42.000Z</time>
      </trkpt>
      <trkpt lat="46.20781" lon="6.77824">
        <ele>1508.1999511719</ele>
        <time>2026-07-07T09:22:46.000Z</time>
      </trkpt>
      <trkpt lat="46.20782" lon="6.77821">
        <ele>1508.5999755859</ele>
        <time>2026-07-07T09:22:58.000Z</time>
      </trkpt>
      <trkpt lat="46.20781" lon="6.7782">
        <ele>1508.4000244141</ele>
        <time>2026-07-07T09:23:10.000Z</time>
      </trkpt>
      <trkpt lat="46.20782" lon="6.77821">
        <ele>1508.1999511719</ele>
        <time>2026-07-07T09:23:20.000Z</time>
      </trkpt>
      <trkpt lat="46.20781" lon="6.7782">
        <ele>1507.8000488281</ele>
        <time>2026-07-07T09:23:32.000Z</time>
      </trkpt>
      <trkpt lat="46.20781" lon="6.77819">
        <ele>1508</ele>
        <time>2026-07-07T09:23:44.000Z</time>
      </trkpt>
      <trkpt lat="46.20785" lon="6.77821">
        <ele>1507.8000488281</ele>
        <time>2026-07-07T09:23:54.000Z</time>
      </trkpt>
      <trkpt lat="46.20781" lon="6.7782">
        <ele>1507.8000488281</ele>
        <time>2026-07-07T09:24:01.000Z</time>
      </trkpt>
      <trkpt lat="46.20781" lon="6.7782">
        <ele>1507.8000488281</ele>
        <time>2026-07-07T09:24:03.000Z</time>
      </trkpt>
      <trkpt lat="46.20781" lon="6.7782">
        <ele>1507.8000488281</ele>
        <time>2026-07-07T09:24:07.000Z</time>
      </trkpt>
      <trkpt lat="46.20781" lon="6.7782">
        <ele>1507.5999755859</ele>
        <time>2026-07-07T09:24:17.000Z</time>
      </trkpt>
      <trkpt lat="46.20782" lon="6.77821">
        <ele>1507.5999755859</ele>
        <time>2026-07-07T09:24:27.000Z</time>
      </trkpt>
      <trkpt lat="46.20785" lon="6.77821">
        <ele>1507.8000488281</ele>
        <time>2026-07-07T09:24:40.000Z</time>
      </trkpt>
      <trkpt lat="46.20784" lon="6.7782">
        <ele>1507.8000488281</ele>
        <time>2026-07-07T09:24:50.000Z</time>
      </trkpt>
      <trkpt lat="46.20785" lon="6.7782">
        <ele>1507.8000488281</ele>
        <time>2026-07-07T09:24:59.000Z</time>
      </trkpt>
      <trkpt lat="46.20785" lon="6.7782">
        <ele>1507.8000488281</ele>
        <time>2026-07-07T09:25:02.000Z</time>
      </trkpt>
      <trkpt lat="46.20785" lon="6.77821">
        <ele>1508</ele>
        <time>2026-07-07T09:25:14.000Z</time>
      </trkpt>
      <trkpt lat="46.20784" lon="6.7782">
        <ele>1508</ele>
        <time>2026-07-07T09:25:29.000Z</time>
      </trkpt>
      <trkpt lat="46.20785" lon="6.77821">
        <ele>1508.4000244141</ele>
        <time>2026-07-07T09:25:38.000Z</time>
      </trkpt>
      <trkpt lat="46.20785" lon="6.77823">
        <ele>1508</ele>
        <time>2026-07-07T09:25:49.000Z</time>
      </trkpt>
      <trkpt lat="46.20781" lon="6.77823">
        <ele>1508.1999511719</ele>
        <time>2026-07-07T09:25:59.000Z</time>
      </trkpt>
      <trkpt lat="46.20783" lon="6.77822">
        <ele>1508.1999511719</ele>
        <time>2026-07-07T09:26:10.000Z</time>
      </trkpt>
      <trkpt lat="46.20781" lon="6.77828">
        <ele>1507.8000488281</ele>
        <time>2026-07-07T09:26:20.000Z</time>
      </trkpt>
      <trkpt lat="46.20778" lon="6.77833">
        <ele>1507.5999755859</ele>
        <time>2026-07-07T09:26:25.000Z</time>
      </trkpt>
      <trkpt lat="46.20776" lon="6.7784">
        <ele>1507</ele>
        <time>2026-07-07T09:26:32.000Z</time>
      </trkpt>
      <trkpt lat="46.20774" lon="6.77846">
        <ele>1506.4000244141</ele>
        <time>2026-07-07T09:26:39.000Z</time>
      </trkpt>
      <trkpt lat="46.20773" lon="6.77849">
        <ele>1506.1999511719</ele>
        <time>2026-07-07T09:26:42.000Z</time>
      </trkpt>
      <trkpt lat="46.20769" lon="6.77849">
        <ele>1505.4000244141</ele>
        <time>2026-07-07T09:26:49.000Z</time>
      </trkpt>
      <trkpt lat="46.20768" lon="6.77849">
        <ele>1505.1999511719</ele>
        <time>2026-07-07T09:26:50.000Z</time>
      </trkpt>
      <trkpt lat="46.20767" lon="6.77848">
        <ele>1505.1999511719</ele>
        <time>2026-07-07T09:27:00.000Z</time>
      </trkpt>
      <trkpt lat="46.20766" lon="6.77844">
        <ele>1505</ele>
        <time>2026-07-07T09:27:04.000Z</time>
      </trkpt>
      <trkpt lat="46.20765" lon="6.77839">
        <ele>1504.8000488281</ele>
        <time>2026-07-07T09:27:08.000Z</time>
      </trkpt>
      <trkpt lat="46.20765" lon="6.77832">
        <ele>1504.5999755859</ele>
        <time>2026-07-07T09:27:16.000Z</time>
      </trkpt>
      <trkpt lat="46.20766" lon="6.77825">
        <ele>1504.1999511719</ele>
        <time>2026-07-07T09:27:24.000Z</time>
      </trkpt>
      <trkpt lat="46.20766" lon="6.77824">
        <ele>1504.1999511719</ele>
        <time>2026-07-07T09:27:25.000Z</time>
      </trkpt>
      <trkpt lat="46.20769" lon="6.77814">
        <ele>1503.5999755859</ele>
        <time>2026-07-07T09:27:35.000Z</time>
      </trkpt>
      <trkpt lat="46.20772" lon="6.77808">
        <ele>1503.1999511719</ele>
        <time>2026-07-07T09:27:42.000Z</time>
      </trkpt>
      <trkpt lat="46.20772" lon="6.77806">
        <ele>1503.1999511719</ele>
        <time>2026-07-07T09:27:44.000Z</time>
      </trkpt>
      <trkpt lat="46.20775" lon="6.77799">
        <ele>1502.5999755859</ele>
        <time>2026-07-07T09:27:53.000Z</time>
      </trkpt>
      <trkpt lat="46.20777" lon="6.77791">
        <ele>1502.1999511719</ele>
        <time>2026-07-07T09:28:01.000Z</time>
      </trkpt>
      <trkpt lat="46.20777" lon="6.77789">
        <ele>1502.1999511719</ele>
        <time>2026-07-07T09:28:03.000Z</time>
      </trkpt>
      <trkpt lat="46.20779" lon="6.77784">
        <ele>1502</ele>
        <time>2026-07-07T09:28:11.000Z</time>
      </trkpt>
      <trkpt lat="46.20781" lon="6.77777">
        <ele>1501.5999755859</ele>
        <time>2026-07-07T09:28:18.000Z</time>
      </trkpt>
      <trkpt lat="46.20783" lon="6.77765">
        <ele>1501.1999511719</ele>
        <time>2026-07-07T09:28:27.000Z</time>
      </trkpt>
      <trkpt lat="46.20783" lon="6.77764">
        <ele>1501</ele>
        <time>2026-07-07T09:28:28.000Z</time>
      </trkpt>
      <trkpt lat="46.20786" lon="6.77759">
        <ele>1500.4000244141</ele>
        <time>2026-07-07T09:28:37.000Z</time>
      </trkpt>
      <trkpt lat="46.20786" lon="6.77759">
        <ele>1500.4000244141</ele>
        <time>2026-07-07T09:28:38.000Z</time>
      </trkpt>
      <trkpt lat="46.20789" lon="6.77754">
        <ele>1500.1999511719</ele>
        <time>2026-07-07T09:28:45.000Z</time>
      </trkpt>
      <trkpt lat="46.20791" lon="6.77745">
        <ele>1500</ele>
        <time>2026-07-07T09:28:53.000Z</time>
      </trkpt>
      <trkpt lat="46.20793" lon="6.77738">
        <ele>1499.8000488281</ele>
        <time>2026-07-07T09:29:02.000Z</time>
      </trkpt>
      <trkpt lat="46.20794" lon="6.77736">
        <ele>1499.8000488281</ele>
        <time>2026-07-07T09:29:03.000Z</time>
      </trkpt>
      <trkpt lat="46.20797" lon="6.77726">
        <ele>1499.4000244141</ele>
        <time>2026-07-07T09:29:12.000Z</time>
      </trkpt>
      <trkpt lat="46.20799" lon="6.77717">
        <ele>1499.4000244141</ele>
        <time>2026-07-07T09:29:22.000Z</time>
      </trkpt>
      <trkpt lat="46.20802" lon="6.77711">
        <ele>1499</ele>
        <time>2026-07-07T09:29:29.000Z</time>
      </trkpt>
      <trkpt lat="46.20803" lon="6.77708">
        <ele>1498.8000488281</ele>
        <time>2026-07-07T09:29:32.000Z</time>
      </trkpt>
      <trkpt lat="46.20806" lon="6.77701">
        <ele>1498.5999755859</ele>
        <time>2026-07-07T09:29:41.000Z</time>
      </trkpt>
      <trkpt lat="46.20808" lon="6.77697">
        <ele>1498.1999511719</ele>
        <time>2026-07-07T09:29:50.000Z</time>
      </trkpt>
      <trkpt lat="46.20809" lon="6.77692">
        <ele>1498.1999511719</ele>
        <time>2026-07-07T09:29:55.000Z</time>
      </trkpt>
      <trkpt lat="46.2081" lon="6.77692">
        <ele>1498.1999511719</ele>
        <time>2026-07-07T09:29:56.000Z</time>
      </trkpt>
      <trkpt lat="46.2081" lon="6.77691">
        <ele>1498</ele>
        <time>2026-07-07T09:29:57.000Z</time>
      </trkpt>
      <trkpt lat="46.20811" lon="6.7769">
        <ele>1498</ele>
        <time>2026-07-07T09:29:58.000Z</time>
      </trkpt>
      <trkpt lat="46.20812" lon="6.77687">
        <ele>1498</ele>
        <time>2026-07-07T09:30:00.000Z</time>
      </trkpt>
      <trkpt lat="46.20813" lon="6.77686">
        <ele>1498</ele>
        <time>2026-07-07T09:30:01.000Z</time>
      </trkpt>
      <trkpt lat="46.20813" lon="6.77684">
        <ele>1497.8000488281</ele>
        <time>2026-07-07T09:30:03.000Z</time>
      </trkpt>
      <trkpt lat="46.20814" lon="6.77682">
        <ele>1497.8000488281</ele>
        <time>2026-07-07T09:30:05.000Z</time>
      </trkpt>
      <trkpt lat="46.20816" lon="6.77675">
        <ele>1497.5999755859</ele>
        <time>2026-07-07T09:30:11.000Z</time>
      </trkpt>
      <trkpt lat="46.20818" lon="6.77664">
        <ele>1497.4000244141</ele>
        <time>2026-07-07T09:30:20.000Z</time>
      </trkpt>
      <trkpt lat="46.20821" lon="6.77658">
        <ele>1497.1999511719</ele>
        <time>2026-07-07T09:30:25.000Z</time>
      </trkpt>
      <trkpt lat="46.20822" lon="6.77653">
        <ele>1497</ele>
        <time>2026-07-07T09:30:29.000Z</time>
      </trkpt>
      <trkpt lat="46.20823" lon="6.77652">
        <ele>1497</ele>
        <time>2026-07-07T09:30:30.000Z</time>
      </trkpt>
      <trkpt lat="46.20827" lon="6.77646">
        <ele>1496.5999755859</ele>
        <time>2026-07-07T09:30:38.000Z</time>
      </trkpt>
      <trkpt lat="46.20829" lon="6.77643">
        <ele>1496.4000244141</ele>
        <time>2026-07-07T09:30:45.000Z</time>
      </trkpt>
      <trkpt lat="46.2083" lon="6.77641">
        <ele>1496.4000244141</ele>
        <time>2026-07-07T09:30:49.000Z</time>
      </trkpt>
      <trkpt lat="46.2083" lon="6.77639">
        <ele>1496.4000244141</ele>
        <time>2026-07-07T09:30:51.000Z</time>
      </trkpt>
      <trkpt lat="46.20831" lon="6.77637">
        <ele>1496.4000244141</ele>
        <time>2026-07-07T09:30:53.000Z</time>
      </trkpt>
      <trkpt lat="46.20836" lon="6.77628">
        <ele>1496.1999511719</ele>
        <time>2026-07-07T09:31:03.000Z</time>
      </trkpt>
      <trkpt lat="46.20839" lon="6.77621">
        <ele>1496</ele>
        <time>2026-07-07T09:31:09.000Z</time>
      </trkpt>
      <trkpt lat="46.2084" lon="6.77616">
        <ele>1495.8000488281</ele>
        <time>2026-07-07T09:31:14.000Z</time>
      </trkpt>
      <trkpt lat="46.20844" lon="6.77605">
        <ele>1495.8000488281</ele>
        <time>2026-07-07T09:31:23.000Z</time>
      </trkpt>
      <trkpt lat="46.20845" lon="6.77603">
        <ele>1495.8000488281</ele>
        <time>2026-07-07T09:31:24.000Z</time>
      </trkpt>
      <trkpt lat="46.20851" lon="6.77589">
        <ele>1496</ele>
        <time>2026-07-07T09:31:36.000Z</time>
      </trkpt>
      <trkpt lat="46.20855" lon="6.77579">
        <ele>1496.1999511719</ele>
        <time>2026-07-07T09:31:44.000Z</time>
      </trkpt>
      <trkpt lat="46.20861" lon="6.77568">
        <ele>1496.5999755859</ele>
        <time>2026-07-07T09:31:54.000Z</time>
      </trkpt>
      <trkpt lat="46.20865" lon="6.7756">
        <ele>1497</ele>
        <time>2026-07-07T09:32:01.000Z</time>
      </trkpt>
      <trkpt lat="46.20865" lon="6.77558">
        <ele>1497</ele>
        <time>2026-07-07T09:32:03.000Z</time>
      </trkpt>
      <trkpt lat="46.20866" lon="6.77556">
        <ele>1497.1999511719</ele>
        <time>2026-07-07T09:32:04.000Z</time>
      </trkpt>
      <trkpt lat="46.20868" lon="6.77547">
        <ele>1497.1999511719</ele>
        <time>2026-07-07T09:32:12.000Z</time>
      </trkpt>
      <trkpt lat="46.20868" lon="6.77548">
        <ele>1497.1999511719</ele>
        <time>2026-07-07T09:32:21.000Z</time>
      </trkpt>
      <trkpt lat="46.20869" lon="6.77547">
        <ele>1496.8000488281</ele>
        <time>2026-07-07T09:32:32.000Z</time>
      </trkpt>
      <trkpt lat="46.20877" lon="6.7755">
        <ele>1496.4000244141</ele>
        <time>2026-07-07T09:32:41.000Z</time>
      </trkpt>
      <trkpt lat="46.20885" lon="6.77548">
        <ele>1496</ele>
        <time>2026-07-07T09:32:48.000Z</time>
      </trkpt>
      <trkpt lat="46.2089" lon="6.77545">
        <ele>1495.5999755859</ele>
        <time>2026-07-07T09:32:52.000Z</time>
      </trkpt>
      <trkpt lat="46.209" lon="6.77536">
        <ele>1495.1999511719</ele>
        <time>2026-07-07T09:33:01.000Z</time>
      </trkpt>
      <trkpt lat="46.20901" lon="6.77535">
        <ele>1495</ele>
        <time>2026-07-07T09:33:02.000Z</time>
      </trkpt>
      <trkpt lat="46.20908" lon="6.77523">
        <ele>1494.1999511719</ele>
        <time>2026-07-07T09:33:11.000Z</time>
      </trkpt>
      <trkpt lat="46.20908" lon="6.77522">
        <ele>1494</ele>
        <time>2026-07-07T09:33:12.000Z</time>
      </trkpt>
      <trkpt lat="46.20909" lon="6.77511">
        <ele>1493.4000244141</ele>
        <time>2026-07-07T09:33:19.000Z</time>
      </trkpt>
      <trkpt lat="46.20908" lon="6.77503">
        <ele>1492.8000488281</ele>
        <time>2026-07-07T09:33:24.000Z</time>
      </trkpt>
      <trkpt lat="46.20911" lon="6.77495">
        <ele>1492.4000244141</ele>
        <time>2026-07-07T09:33:29.000Z</time>
      </trkpt>
      <trkpt lat="46.20912" lon="6.77489">
        <ele>1491.8000488281</ele>
        <time>2026-07-07T09:33:33.000Z</time>
      </trkpt>
      <trkpt lat="46.20914" lon="6.77485">
        <ele>1491.5999755859</ele>
        <time>2026-07-07T09:33:37.000Z</time>
      </trkpt>
      <trkpt lat="46.20923" lon="6.7748">
        <ele>1491</ele>
        <time>2026-07-07T09:33:44.000Z</time>
      </trkpt>
      <trkpt lat="46.20924" lon="6.7748">
        <ele>1490.8000488281</ele>
        <time>2026-07-07T09:33:45.000Z</time>
      </trkpt>
      <trkpt lat="46.20929" lon="6.77474">
        <ele>1490.1999511719</ele>
        <time>2026-07-07T09:33:52.000Z</time>
      </trkpt>
      <trkpt lat="46.20932" lon="6.77472">
        <ele>1489.8000488281</ele>
        <time>2026-07-07T09:33:56.000Z</time>
      </trkpt>
      <trkpt lat="46.20937" lon="6.77468">
        <ele>1489.4000244141</ele>
        <time>2026-07-07T09:34:01.000Z</time>
      </trkpt>
      <trkpt lat="46.20943" lon="6.77463">
        <ele>1488.8000488281</ele>
        <time>2026-07-07T09:34:08.000Z</time>
      </trkpt>
      <trkpt lat="46.20947" lon="6.77455">
        <ele>1488.4000244141</ele>
        <time>2026-07-07T09:34:15.000Z</time>
      </trkpt>
      <trkpt lat="46.20952" lon="6.77453">
        <ele>1487.8000488281</ele>
        <time>2026-07-07T09:34:19.000Z</time>
      </trkpt>
      <trkpt lat="46.20955" lon="6.77451">
        <ele>1487.4000244141</ele>
        <time>2026-07-07T09:34:23.000Z</time>
      </trkpt>
      <trkpt lat="46.20959" lon="6.77447">
        <ele>1486.8000488281</ele>
        <time>2026-07-07T09:34:29.000Z</time>
      </trkpt>
      <trkpt lat="46.20963" lon="6.77446">
        <ele>1486.1999511719</ele>
        <time>2026-07-07T09:34:32.000Z</time>
      </trkpt>
      <trkpt lat="46.20968" lon="6.77445">
        <ele>1485.5999755859</ele>
        <time>2026-07-07T09:34:36.000Z</time>
      </trkpt>
      <trkpt lat="46.20971" lon="6.77441">
        <ele>1485.1999511719</ele>
        <time>2026-07-07T09:34:40.000Z</time>
      </trkpt>
      <trkpt lat="46.20973" lon="6.77436">
        <ele>1484.8000488281</ele>
        <time>2026-07-07T09:34:48.000Z</time>
      </trkpt>
      <trkpt lat="46.20974" lon="6.77436">
        <ele>1484.8000488281</ele>
        <time>2026-07-07T09:34:55.000Z</time>
      </trkpt>
      <trkpt lat="46.20974" lon="6.77437">
        <ele>1484.8000488281</ele>
        <time>2026-07-07T09:34:59.000Z</time>
      </trkpt>
      <trkpt lat="46.20974" lon="6.77438">
        <ele>1484.8000488281</ele>
        <time>2026-07-07T09:35:11.000Z</time>
      </trkpt>
      <trkpt lat="46.20974" lon="6.77442">
        <ele>1484.8000488281</ele>
        <time>2026-07-07T09:35:19.000Z</time>
      </trkpt>
      <trkpt lat="46.20978" lon="6.77445">
        <ele>1484.8000488281</ele>
        <time>2026-07-07T09:35:27.000Z</time>
      </trkpt>
      <trkpt lat="46.20978" lon="6.77445">
        <ele>1484.5999755859</ele>
        <time>2026-07-07T09:35:28.000Z</time>
      </trkpt>
      <trkpt lat="46.20986" lon="6.77446">
        <ele>1483.8000488281</ele>
        <time>2026-07-07T09:35:37.000Z</time>
      </trkpt>
      <trkpt lat="46.20989" lon="6.77447">
        <ele>1483.5999755859</ele>
        <time>2026-07-07T09:35:42.000Z</time>
      </trkpt>
      <trkpt lat="46.20992" lon="6.77447">
        <ele>1483.1999511719</ele>
        <time>2026-07-07T09:35:47.000Z</time>
      </trkpt>
      <trkpt lat="46.20992" lon="6.77448">
        <ele>1483.1999511719</ele>
        <time>2026-07-07T09:35:51.000Z</time>
      </trkpt>
      <trkpt lat="46.20994" lon="6.7745">
        <ele>1482.8000488281</ele>
        <time>2026-07-07T09:35:56.000Z</time>
      </trkpt>
      <trkpt lat="46.20996" lon="6.77449">
        <ele>1482.5999755859</ele>
        <time>2026-07-07T09:35:58.000Z</time>
      </trkpt>
      <trkpt lat="46.20996" lon="6.77449">
        <ele>1482.5999755859</ele>
        <time>2026-07-07T09:35:59.000Z</time>
      </trkpt>
      <trkpt lat="46.21" lon="6.7745">
        <ele>1482.8000488281</ele>
        <time>2026-07-07T09:36:04.000Z</time>
      </trkpt>
      <trkpt lat="46.21001" lon="6.77449">
        <ele>1482.5999755859</ele>
        <time>2026-07-07T09:36:06.000Z</time>
      </trkpt>
      <trkpt lat="46.21001" lon="6.77449">
        <ele>1482.5999755859</ele>
        <time>2026-07-07T09:36:07.000Z</time>
      </trkpt>
      <trkpt lat="46.21005" lon="6.77448">
        <ele>1482.1999511719</ele>
        <time>2026-07-07T09:36:11.000Z</time>
      </trkpt>
      <trkpt lat="46.21008" lon="6.77447">
        <ele>1482</ele>
        <time>2026-07-07T09:36:14.000Z</time>
      </trkpt>
      <trkpt lat="46.21012" lon="6.77446">
        <ele>1481.5999755859</ele>
        <time>2026-07-07T09:36:20.000Z</time>
      </trkpt>
      <trkpt lat="46.21014" lon="6.77446">
        <ele>1481.1999511719</ele>
        <time>2026-07-07T09:36:23.000Z</time>
      </trkpt>
      <trkpt lat="46.21018" lon="6.77447">
        <ele>1480.4000244141</ele>
        <time>2026-07-07T09:36:28.000Z</time>
      </trkpt>
      <trkpt lat="46.21023" lon="6.77444">
        <ele>1480.5999755859</ele>
        <time>2026-07-07T09:36:33.000Z</time>
      </trkpt>
      <trkpt lat="46.21024" lon="6.77441">
        <ele>1480.4000244141</ele>
        <time>2026-07-07T09:36:36.000Z</time>
      </trkpt>
      <trkpt lat="46.21026" lon="6.77437">
        <ele>1480</ele>
        <time>2026-07-07T09:36:39.000Z</time>
      </trkpt>
      <trkpt lat="46.21027" lon="6.77435">
        <ele>1479.8000488281</ele>
        <time>2026-07-07T09:36:42.000Z</time>
      </trkpt>
      <trkpt lat="46.21025" lon="6.77433">
        <ele>1479.4000244141</ele>
        <time>2026-07-07T09:36:50.000Z</time>
      </trkpt>
      <trkpt lat="46.21026" lon="6.77432">
        <ele>1479.5999755859</ele>
        <time>2026-07-07T09:36:52.000Z</time>
      </trkpt>
      <trkpt lat="46.21027" lon="6.77433">
        <ele>1479.5999755859</ele>
        <time>2026-07-07T09:36:57.000Z</time>
      </trkpt>
      <trkpt lat="46.21027" lon="6.77434">
        <ele>1479.5999755859</ele>
        <time>2026-07-07T09:37:04.000Z</time>
      </trkpt>
      <trkpt lat="46.21025" lon="6.77433">
        <ele>1479.5999755859</ele>
        <time>2026-07-07T09:37:14.000Z</time>
      </trkpt>
      <trkpt lat="46.21025" lon="6.77432">
        <ele>1479.1999511719</ele>
        <time>2026-07-07T09:37:26.000Z</time>
      </trkpt>
      <trkpt lat="46.21025" lon="6.77431">
        <ele>1479.1999511719</ele>
        <time>2026-07-07T09:37:34.000Z</time>
      </trkpt>
      <trkpt lat="46.21024" lon="6.77431">
        <ele>1479</ele>
        <time>2026-07-07T09:37:41.000Z</time>
      </trkpt>
      <trkpt lat="46.21024" lon="6.77431">
        <ele>1479</ele>
        <time>2026-07-07T09:37:42.000Z</time>
      </trkpt>
      <trkpt lat="46.21023" lon="6.77431">
        <ele>1478.8000488281</ele>
        <time>2026-07-07T09:37:48.000Z</time>
      </trkpt>
      <trkpt lat="46.21023" lon="6.77431">
        <ele>1478.5999755859</ele>
        <time>2026-07-07T09:37:51.000Z</time>
      </trkpt>
      <trkpt lat="46.21023" lon="6.77431">
        <ele>1478.4000244141</ele>
        <time>2026-07-07T09:38:01.000Z</time>
      </trkpt>
      <trkpt lat="46.21022" lon="6.7743">
        <ele>1478.5999755859</ele>
        <time>2026-07-07T09:38:10.000Z</time>
      </trkpt>
      <trkpt lat="46.21023" lon="6.77429">
        <ele>1478.4000244141</ele>
        <time>2026-07-07T09:38:19.000Z</time>
      </trkpt>
      <trkpt lat="46.21024" lon="6.77429">
        <ele>1478.4000244141</ele>
        <time>2026-07-07T09:38:33.000Z</time>
      </trkpt>
      <trkpt lat="46.21024" lon="6.7743">
        <ele>1478.4000244141</ele>
        <time>2026-07-07T09:38:37.000Z</time>
      </trkpt>
      <trkpt lat="46.21024" lon="6.77432">
        <ele>1478.4000244141</ele>
        <time>2026-07-07T09:38:41.000Z</time>
      </trkpt>
      <trkpt lat="46.21027" lon="6.77437">
        <ele>1478.8000488281</ele>
        <time>2026-07-07T09:38:47.000Z</time>
      </trkpt>
      <trkpt lat="46.21029" lon="6.77438">
        <ele>1478.8000488281</ele>
        <time>2026-07-07T09:38:48.000Z</time>
      </trkpt>
      <trkpt lat="46.21038" lon="6.77435">
        <ele>1477.8000488281</ele>
        <time>2026-07-07T09:38:57.000Z</time>
      </trkpt>
      <trkpt lat="46.21038" lon="6.77434">
        <ele>1477.8000488281</ele>
        <time>2026-07-07T09:39:04.000Z</time>
      </trkpt>
      <trkpt lat="46.21039" lon="6.77434">
        <ele>1477.8000488281</ele>
        <time>2026-07-07T09:39:13.000Z</time>
      </trkpt>
      <trkpt lat="46.21041" lon="6.77433">
        <ele>1477.8000488281</ele>
        <time>2026-07-07T09:39:16.000Z</time>
      </trkpt>
      <trkpt lat="46.21046" lon="6.77432">
        <ele>1477.4000244141</ele>
        <time>2026-07-07T09:39:24.000Z</time>
      </trkpt>
      <trkpt lat="46.21047" lon="6.77431">
        <ele>1477.4000244141</ele>
        <time>2026-07-07T09:39:25.000Z</time>
      </trkpt>
      <trkpt lat="46.21053" lon="6.77428">
        <ele>1477</ele>
        <time>2026-07-07T09:39:33.000Z</time>
      </trkpt>
      <trkpt lat="46.2106" lon="6.77424">
        <ele>1476.4000244141</ele>
        <time>2026-07-07T09:39:42.000Z</time>
      </trkpt>
      <trkpt lat="46.21068" lon="6.77419">
        <ele>1476.1999511719</ele>
        <time>2026-07-07T09:39:51.000Z</time>
      </trkpt>
      <trkpt lat="46.2107" lon="6.77419">
        <ele>1476.1999511719</ele>
        <time>2026-07-07T09:39:53.000Z</time>
      </trkpt>
      <trkpt lat="46.21074" lon="6.77416">
        <ele>1476</ele>
        <time>2026-07-07T09:39:58.000Z</time>
      </trkpt>
      <trkpt lat="46.21078" lon="6.77415">
        <ele>1475.8000488281</ele>
        <time>2026-07-07T09:40:05.000Z</time>
      </trkpt>
      <trkpt lat="46.21084" lon="6.77409">
        <ele>1475.4000244141</ele>
        <time>2026-07-07T09:40:13.000Z</time>
      </trkpt>
      <trkpt lat="46.21086" lon="6.77408">
        <ele>1475.1999511719</ele>
        <time>2026-07-07T09:40:15.000Z</time>
      </trkpt>
      <trkpt lat="46.21089" lon="6.77405">
        <ele>1474.4000244141</ele>
        <time>2026-07-07T09:40:21.000Z</time>
      </trkpt>
      <trkpt lat="46.21091" lon="6.77401">
        <ele>1474.4000244141</ele>
        <time>2026-07-07T09:40:26.000Z</time>
      </trkpt>
      <trkpt lat="46.21093" lon="6.77398">
        <ele>1474.1999511719</ele>
        <time>2026-07-07T09:40:32.000Z</time>
      </trkpt>
      <trkpt lat="46.21094" lon="6.77396">
        <ele>1474.1999511719</ele>
        <time>2026-07-07T09:40:34.000Z</time>
      </trkpt>
      <trkpt lat="46.21094" lon="6.77395">
        <ele>1474.1999511719</ele>
        <time>2026-07-07T09:40:35.000Z</time>
      </trkpt>
      <trkpt lat="46.21095" lon="6.77397">
        <ele>1473.8000488281</ele>
        <time>2026-07-07T09:40:43.000Z</time>
      </trkpt>
      <trkpt lat="46.21097" lon="6.77396">
        <ele>1473.5999755859</ele>
        <time>2026-07-07T09:40:56.000Z</time>
      </trkpt>
      <trkpt lat="46.21098" lon="6.77394">
        <ele>1473.1999511719</ele>
        <time>2026-07-07T09:41:06.000Z</time>
      </trkpt>
      <trkpt lat="46.21098" lon="6.77394">
        <ele>1473.1999511719</ele>
        <time>2026-07-07T09:41:10.000Z</time>
      </trkpt>
      <trkpt lat="46.21095" lon="6.77391">
        <ele>1473.1999511719</ele>
        <time>2026-07-07T09:41:17.000Z</time>
      </trkpt>
      <trkpt lat="46.21094" lon="6.7739">
        <ele>1472.8000488281</ele>
        <time>2026-07-07T09:41:26.000Z</time>
      </trkpt>
      <trkpt lat="46.21097" lon="6.77391">
        <ele>1472.8000488281</ele>
        <time>2026-07-07T09:41:35.000Z</time>
      </trkpt>
      <trkpt lat="46.21096" lon="6.77388">
        <ele>1472.5999755859</ele>
        <time>2026-07-07T09:41:45.000Z</time>
      </trkpt>
      <trkpt lat="46.21098" lon="6.77382">
        <ele>1472.1999511719</ele>
        <time>2026-07-07T09:41:52.000Z</time>
      </trkpt>
      <trkpt lat="46.21098" lon="6.7738">
        <ele>1472</ele>
        <time>2026-07-07T09:41:55.000Z</time>
      </trkpt>
      <trkpt lat="46.21098" lon="6.77379">
        <ele>1471.8000488281</ele>
        <time>2026-07-07T09:41:58.000Z</time>
      </trkpt>
      <trkpt lat="46.21099" lon="6.77377">
        <ele>1471.5999755859</ele>
        <time>2026-07-07T09:42:03.000Z</time>
      </trkpt>
      <trkpt lat="46.21105" lon="6.77378">
        <ele>1471.8000488281</ele>
        <time>2026-07-07T09:42:11.000Z</time>
      </trkpt>
      <trkpt lat="46.21112" lon="6.77375">
        <ele>1472.1999511719</ele>
        <time>2026-07-07T09:42:19.000Z</time>
      </trkpt>
      <trkpt lat="46.21116" lon="6.77373">
        <ele>1472.4000244141</ele>
        <time>2026-07-07T09:42:23.000Z</time>
      </trkpt>
      <trkpt lat="46.2112" lon="6.7737">
        <ele>1472.4000244141</ele>
        <time>2026-07-07T09:42:28.000Z</time>
      </trkpt>
      <trkpt lat="46.21125" lon="6.77367">
        <ele>1472.1999511719</ele>
        <time>2026-07-07T09:42:36.000Z</time>
      </trkpt>
      <trkpt lat="46.21128" lon="6.77366">
        <ele>1472.4000244141</ele>
        <time>2026-07-07T09:42:45.000Z</time>
      </trkpt>
      <trkpt lat="46.21133" lon="6.77362">
        <ele>1472.1999511719</ele>
        <time>2026-07-07T09:42:53.000Z</time>
      </trkpt>
      <trkpt lat="46.21136" lon="6.7736">
        <ele>1471.1999511719</ele>
        <time>2026-07-07T09:42:59.000Z</time>
      </trkpt>
      <trkpt lat="46.21139" lon="6.77357">
        <ele>1471.1999511719</ele>
        <time>2026-07-07T09:43:05.000Z</time>
      </trkpt>
      <trkpt lat="46.21141" lon="6.77355">
        <ele>1471.1999511719</ele>
        <time>2026-07-07T09:43:13.000Z</time>
      </trkpt>
      <trkpt lat="46.2114" lon="6.77354">
        <ele>1471.4000244141</ele>
        <time>2026-07-07T09:43:22.000Z</time>
      </trkpt>
      <trkpt lat="46.21142" lon="6.77354">
        <ele>1471.1999511719</ele>
        <time>2026-07-07T09:43:32.000Z</time>
      </trkpt>
      <trkpt lat="46.21149" lon="6.77346">
        <ele>1470.4000244141</ele>
        <time>2026-07-07T09:43:42.000Z</time>
      </trkpt>
      <trkpt lat="46.21156" lon="6.77338">
        <ele>1470.1999511719</ele>
        <time>2026-07-07T09:43:53.000Z</time>
      </trkpt>
      <trkpt lat="46.21162" lon="6.77334">
        <ele>1470.1999511719</ele>
        <time>2026-07-07T09:44:03.000Z</time>
      </trkpt>
      <trkpt lat="46.21166" lon="6.77332">
        <ele>1470.1999511719</ele>
        <time>2026-07-07T09:44:13.000Z</time>
      </trkpt>
      <trkpt lat="46.21168" lon="6.77331">
        <ele>1470</ele>
        <time>2026-07-07T09:44:15.000Z</time>
      </trkpt>
      <trkpt lat="46.21173" lon="6.77328">
        <ele>1470</ele>
        <time>2026-07-07T09:44:23.000Z</time>
      </trkpt>
      <trkpt lat="46.21177" lon="6.77323">
        <ele>1469.5999755859</ele>
        <time>2026-07-07T09:44:32.000Z</time>
      </trkpt>
      <trkpt lat="46.21179" lon="6.77316">
        <ele>1469.4000244141</ele>
        <time>2026-07-07T09:44:40.000Z</time>
      </trkpt>
      <trkpt lat="46.21176" lon="6.77314">
        <ele>1469</ele>
        <time>2026-07-07T09:44:44.000Z</time>
      </trkpt>
      <trkpt lat="46.21173" lon="6.77312">
        <ele>1468</ele>
        <time>2026-07-07T09:44:50.000Z</time>
      </trkpt>
      <trkpt lat="46.21173" lon="6.77312">
        <ele>1468</ele>
        <time>2026-07-07T09:44:51.000Z</time>
      </trkpt>
      <trkpt lat="46.21172" lon="6.77307">
        <ele>1467.4000244141</ele>
        <time>2026-07-07T09:44:58.000Z</time>
      </trkpt>
      <trkpt lat="46.21172" lon="6.77307">
        <ele>1467.4000244141</ele>
        <time>2026-07-07T09:45:10.000Z</time>
      </trkpt>
      <trkpt lat="46.21172" lon="6.7731">
        <ele>1467.1999511719</ele>
        <time>2026-07-07T09:45:19.000Z</time>
      </trkpt>
      <trkpt lat="46.21175" lon="6.77311">
        <ele>1467.4000244141</ele>
        <time>2026-07-07T09:45:24.000Z</time>
      </trkpt>
      <trkpt lat="46.21177" lon="6.77311">
        <ele>1468</ele>
        <time>2026-07-07T09:45:27.000Z</time>
      </trkpt>
      <trkpt lat="46.21185" lon="6.77309">
        <ele>1468.5999755859</ele>
        <time>2026-07-07T09:45:36.000Z</time>
      </trkpt>
      <trkpt lat="46.21185" lon="6.77309">
        <ele>1468.5999755859</ele>
        <time>2026-07-07T09:45:37.000Z</time>
      </trkpt>
      <trkpt lat="46.21191" lon="6.77302">
        <ele>1468.5999755859</ele>
        <time>2026-07-07T09:45:44.000Z</time>
      </trkpt>
      <trkpt lat="46.21193" lon="6.77298">
        <ele>1468.5999755859</ele>
        <time>2026-07-07T09:45:47.000Z</time>
      </trkpt>
      <trkpt lat="46.21197" lon="6.7729">
        <ele>1468.5999755859</ele>
        <time>2026-07-07T09:45:55.000Z</time>
      </trkpt>
      <trkpt lat="46.21198" lon="6.77287">
        <ele>1468.5999755859</ele>
        <time>2026-07-07T09:45:58.000Z</time>
      </trkpt>
      <trkpt lat="46.212" lon="6.77283">
        <ele>1468.5999755859</ele>
        <time>2026-07-07T09:46:05.000Z</time>
      </trkpt>
      <trkpt lat="46.21205" lon="6.77274">
        <ele>1468.4000244141</ele>
        <time>2026-07-07T09:46:13.000Z</time>
      </trkpt>
      <trkpt lat="46.21209" lon="6.77266">
        <ele>1468.4000244141</ele>
        <time>2026-07-07T09:46:23.000Z</time>
      </trkpt>
      <trkpt lat="46.21209" lon="6.77261">
        <ele>1468.5999755859</ele>
        <time>2026-07-07T09:46:31.000Z</time>
      </trkpt>
      <trkpt lat="46.21214" lon="6.77255">
        <ele>1468</ele>
        <time>2026-07-07T09:46:40.000Z</time>
      </trkpt>
      <trkpt lat="46.21219" lon="6.77249">
        <ele>1468</ele>
        <time>2026-07-07T09:46:49.000Z</time>
      </trkpt>
      <trkpt lat="46.21227" lon="6.77242">
        <ele>1467.5999755859</ele>
        <time>2026-07-07T09:47:00.000Z</time>
      </trkpt>
      <trkpt lat="46.21231" lon="6.77238">
        <ele>1467.4000244141</ele>
        <time>2026-07-07T09:47:08.000Z</time>
      </trkpt>
      <trkpt lat="46.21238" lon="6.77235">
        <ele>1467.1999511719</ele>
        <time>2026-07-07T09:47:16.000Z</time>
      </trkpt>
      <trkpt lat="46.21238" lon="6.77234">
        <ele>1467.1999511719</ele>
        <time>2026-07-07T09:47:17.000Z</time>
      </trkpt>
      <trkpt lat="46.21244" lon="6.77233">
        <ele>1466.8000488281</ele>
        <time>2026-07-07T09:47:26.000Z</time>
      </trkpt>
      <trkpt lat="46.21245" lon="6.77233">
        <ele>1466.8000488281</ele>
        <time>2026-07-07T09:47:27.000Z</time>
      </trkpt>
      <trkpt lat="46.21247" lon="6.77229">
        <ele>1466.4000244141</ele>
        <time>2026-07-07T09:47:37.000Z</time>
      </trkpt>
      <trkpt lat="46.2125" lon="6.77227">
        <ele>1466.1999511719</ele>
        <time>2026-07-07T09:47:47.000Z</time>
      </trkpt>
      <trkpt lat="46.2125" lon="6.77227">
        <ele>1466.1999511719</ele>
        <time>2026-07-07T09:47:49.000Z</time>
      </trkpt>
      <trkpt lat="46.21248" lon="6.77228">
        <ele>1466.1999511719</ele>
        <time>2026-07-07T09:47:58.000Z</time>
      </trkpt>
      <trkpt lat="46.21247" lon="6.77229">
        <ele>1466.1999511719</ele>
        <time>2026-07-07T09:48:07.000Z</time>
      </trkpt>
      <trkpt lat="46.21249" lon="6.77232">
        <ele>1466.4000244141</ele>
        <time>2026-07-07T09:48:15.000Z</time>
      </trkpt>
      <trkpt lat="46.21249" lon="6.77232">
        <ele>1466.1999511719</ele>
        <time>2026-07-07T09:48:26.000Z</time>
      </trkpt>
      <trkpt lat="46.21248" lon="6.77233">
        <ele>1466.1999511719</ele>
        <time>2026-07-07T09:48:37.000Z</time>
      </trkpt>
      <trkpt lat="46.21248" lon="6.77234">
        <ele>1466.1999511719</ele>
        <time>2026-07-07T09:48:39.000Z</time>
      </trkpt>
      <trkpt lat="46.21248" lon="6.77233">
        <ele>1466</ele>
        <time>2026-07-07T09:48:45.000Z</time>
      </trkpt>
      <trkpt lat="46.21248" lon="6.77237">
        <ele>1466.1999511719</ele>
        <time>2026-07-07T09:48:53.000Z</time>
      </trkpt>
      <trkpt lat="46.21248" lon="6.77238">
        <ele>1466.1999511719</ele>
        <time>2026-07-07T09:48:59.000Z</time>
      </trkpt>
      <trkpt lat="46.21249" lon="6.77238">
        <ele>1466.4000244141</ele>
        <time>2026-07-07T09:49:04.000Z</time>
      </trkpt>
      <trkpt lat="46.21249" lon="6.77243">
        <ele>1466.8000488281</ele>
        <time>2026-07-07T09:49:13.000Z</time>
      </trkpt>
      <trkpt lat="46.21248" lon="6.77246">
        <ele>1467.8000488281</ele>
        <time>2026-07-07T09:49:20.000Z</time>
      </trkpt>
      <trkpt lat="46.21248" lon="6.77247">
        <ele>1467.8000488281</ele>
        <time>2026-07-07T09:49:23.000Z</time>
      </trkpt>
      <trkpt lat="46.21249" lon="6.77247">
        <ele>1467.8000488281</ele>
        <time>2026-07-07T09:49:26.000Z</time>
      </trkpt>
      <trkpt lat="46.21249" lon="6.77249">
        <ele>1468.1999511719</ele>
        <time>2026-07-07T09:49:33.000Z</time>
      </trkpt>
      <trkpt lat="46.2125" lon="6.7725">
        <ele>1468.5999755859</ele>
        <time>2026-07-07T09:49:37.000Z</time>
      </trkpt>
      <trkpt lat="46.2125" lon="6.77251">
        <ele>1468.8000488281</ele>
        <time>2026-07-07T09:49:39.000Z</time>
      </trkpt>
      <trkpt lat="46.21251" lon="6.77252">
        <ele>1469</ele>
        <time>2026-07-07T09:49:41.000Z</time>
      </trkpt>
      <trkpt lat="46.21251" lon="6.77253">
        <ele>1469.1999511719</ele>
        <time>2026-07-07T09:49:43.000Z</time>
      </trkpt>
      <trkpt lat="46.21253" lon="6.77255">
        <ele>1470</ele>
        <time>2026-07-07T09:49:50.000Z</time>
      </trkpt>
      <trkpt lat="46.21252" lon="6.77256">
        <ele>1470.1999511719</ele>
        <time>2026-07-07T09:49:52.000Z</time>
      </trkpt>
      <trkpt lat="46.21252" lon="6.77257">
        <ele>1470.5999755859</ele>
        <time>2026-07-07T09:49:54.000Z</time>
      </trkpt>
      <trkpt lat="46.21251" lon="6.77258">
        <ele>1471.1999511719</ele>
        <time>2026-07-07T09:49:57.000Z</time>
      </trkpt>
      <trkpt lat="46.2125" lon="6.77259">
        <ele>1471.4000244141</ele>
        <time>2026-07-07T09:50:00.000Z</time>
      </trkpt>
      <trkpt lat="46.21252" lon="6.77262">
        <ele>1471.8000488281</ele>
        <time>2026-07-07T09:50:08.000Z</time>
      </trkpt>
      <trkpt lat="46.21254" lon="6.77262">
        <ele>1471.5999755859</ele>
        <time>2026-07-07T09:50:12.000Z</time>
      </trkpt>
      <trkpt lat="46.21256" lon="6.77262">
        <ele>1471.5999755859</ele>
        <time>2026-07-07T09:50:15.000Z</time>
      </trkpt>
      <trkpt lat="46.21257" lon="6.77262">
        <ele>1471.5999755859</ele>
        <time>2026-07-07T09:50:17.000Z</time>
      </trkpt>
      <trkpt lat="46.21258" lon="6.77266">
        <ele>1471.8000488281</ele>
        <time>2026-07-07T09:50:23.000Z</time>
      </trkpt>
      <trkpt lat="46.21258" lon="6.77266">
        <ele>1472</ele>
        <time>2026-07-07T09:50:26.000Z</time>
      </trkpt>
      <trkpt lat="46.21258" lon="6.77266">
        <ele>1472.1999511719</ele>
        <time>2026-07-07T09:50:27.000Z</time>
      </trkpt>
      <trkpt lat="46.21259" lon="6.77267">
        <ele>1472.5999755859</ele>
        <time>2026-07-07T09:50:33.000Z</time>
      </trkpt>
      <trkpt lat="46.21259" lon="6.77268">
        <ele>1472.8000488281</ele>
        <time>2026-07-07T09:50:36.000Z</time>
      </trkpt>
      <trkpt lat="46.21258" lon="6.7727">
        <ele>1473.1999511719</ele>
        <time>2026-07-07T09:50:39.000Z</time>
      </trkpt>
      <trkpt lat="46.21257" lon="6.7727">
        <ele>1473.4000244141</ele>
        <time>2026-07-07T09:50:45.000Z</time>
      </trkpt>
      <trkpt lat="46.21258" lon="6.77271">
        <ele>1473.5999755859</ele>
        <time>2026-07-07T09:50:58.000Z</time>
      </trkpt>
      <trkpt lat="46.21258" lon="6.77272">
        <ele>1473.4000244141</ele>
        <time>2026-07-07T09:51:03.000Z</time>
      </trkpt>
      <trkpt lat="46.21257" lon="6.77273">
        <ele>1473.4000244141</ele>
        <time>2026-07-07T09:51:08.000Z</time>
      </trkpt>
      <trkpt lat="46.21258" lon="6.77272">
        <ele>1473.4000244141</ele>
        <time>2026-07-07T09:51:14.000Z</time>
      </trkpt>
      <trkpt lat="46.21259" lon="6.77272">
        <ele>1473.1999511719</ele>
        <time>2026-07-07T09:51:19.000Z</time>
      </trkpt>
      <trkpt lat="46.21258" lon="6.77271">
        <ele>1473.1999511719</ele>
        <time>2026-07-07T09:51:25.000Z</time>
      </trkpt>
      <trkpt lat="46.21258" lon="6.7727">
        <ele>1473.1999511719</ele>
        <time>2026-07-07T09:51:29.000Z</time>
      </trkpt>
      <trkpt lat="46.21258" lon="6.77273">
        <ele>1473.1999511719</ele>
        <time>2026-07-07T09:51:42.000Z</time>
      </trkpt>
      <trkpt lat="46.21257" lon="6.77273">
        <ele>1473</ele>
        <time>2026-07-07T09:51:47.000Z</time>
      </trkpt>
      <trkpt lat="46.21257" lon="6.77273">
        <ele>1472.8000488281</ele>
        <time>2026-07-07T09:51:49.000Z</time>
      </trkpt>
      <trkpt lat="46.21257" lon="6.77273">
        <ele>1472.8000488281</ele>
        <time>2026-07-07T09:51:58.000Z</time>
      </trkpt>
      <trkpt lat="46.21257" lon="6.77274">
        <ele>1472.8000488281</ele>
        <time>2026-07-07T09:52:01.000Z</time>
      </trkpt>
      <trkpt lat="46.21258" lon="6.77274">
        <ele>1473</ele>
        <time>2026-07-07T09:52:10.000Z</time>
      </trkpt>
      <trkpt lat="46.21258" lon="6.77274">
        <ele>1473.1999511719</ele>
        <time>2026-07-07T09:52:23.000Z</time>
      </trkpt>
      <trkpt lat="46.21258" lon="6.77274">
        <ele>1473.1999511719</ele>
        <time>2026-07-07T09:52:35.000Z</time>
      </trkpt>
      <trkpt lat="46.21257" lon="6.77273">
        <ele>1473.4000244141</ele>
        <time>2026-07-07T09:52:44.000Z</time>
      </trkpt>
      <trkpt lat="46.21257" lon="6.77273">
        <ele>1473.1999511719</ele>
        <time>2026-07-07T09:52:52.000Z</time>
      </trkpt>
      <trkpt lat="46.21258" lon="6.77273">
        <ele>1473.1999511719</ele>
        <time>2026-07-07T09:52:53.000Z</time>
      </trkpt>
      <trkpt lat="46.21259" lon="6.77273">
        <ele>1473.1999511719</ele>
        <time>2026-07-07T09:52:58.000Z</time>
      </trkpt>
      <trkpt lat="46.21259" lon="6.77274">
        <ele>1473.1999511719</ele>
        <time>2026-07-07T09:53:06.000Z</time>
      </trkpt>
      <trkpt lat="46.21259" lon="6.77273">
        <ele>1473.1999511719</ele>
        <time>2026-07-07T09:53:13.000Z</time>
      </trkpt>
      <trkpt lat="46.21258" lon="6.77272">
        <ele>1473.4000244141</ele>
        <time>2026-07-07T09:53:19.000Z</time>
      </trkpt>
      <trkpt lat="46.21257" lon="6.77273">
        <ele>1473.4000244141</ele>
        <time>2026-07-07T09:53:24.000Z</time>
      </trkpt>
      <trkpt lat="46.21257" lon="6.77273">
        <ele>1473.4000244141</ele>
        <time>2026-07-07T09:53:29.000Z</time>
      </trkpt>
      <trkpt lat="46.21257" lon="6.77273">
        <ele>1473.5999755859</ele>
        <time>2026-07-07T09:53:38.000Z</time>
      </trkpt>
      <trkpt lat="46.21257" lon="6.77273">
        <ele>1473.5999755859</ele>
        <time>2026-07-07T09:53:39.000Z</time>
      </trkpt>
      <trkpt lat="46.21258" lon="6.77273">
        <ele>1473.5999755859</ele>
        <time>2026-07-07T09:53:45.000Z</time>
      </trkpt>
      <trkpt lat="46.21258" lon="6.77273">
        <ele>1473.5999755859</ele>
        <time>2026-07-07T09:53:49.000Z</time>
      </trkpt>
      <trkpt lat="46.21259" lon="6.77273">
        <ele>1473.4000244141</ele>
        <time>2026-07-07T09:53:55.000Z</time>
      </trkpt>
      <trkpt lat="46.21259" lon="6.77273">
        <ele>1473.8000488281</ele>
        <time>2026-07-07T09:53:58.000Z</time>
      </trkpt>
      <trkpt lat="46.21258" lon="6.77273">
        <ele>1473.5999755859</ele>
        <time>2026-07-07T09:54:08.000Z</time>
      </trkpt>
      <trkpt lat="46.21257" lon="6.77273">
        <ele>1473.5999755859</ele>
        <time>2026-07-07T09:54:12.000Z</time>
      </trkpt>
      <trkpt lat="46.21258" lon="6.77272">
        <ele>1473.5999755859</ele>
        <time>2026-07-07T09:54:21.000Z</time>
      </trkpt>
      <trkpt lat="46.21258" lon="6.77272">
        <ele>1473.5999755859</ele>
        <time>2026-07-07T09:54:24.000Z</time>
      </trkpt>
      <trkpt lat="46.21257" lon="6.77273">
        <ele>1473.5999755859</ele>
        <time>2026-07-07T09:54:36.000Z</time>
      </trkpt>
      <trkpt lat="46.21258" lon="6.77273">
        <ele>1473.8000488281</ele>
        <time>2026-07-07T09:54:40.000Z</time>
      </trkpt>
      <trkpt lat="46.2126" lon="6.77274">
        <ele>1473.8000488281</ele>
        <time>2026-07-07T09:54:47.000Z</time>
      </trkpt>
      <trkpt lat="46.2126" lon="6.77274">
        <ele>1473.8000488281</ele>
        <time>2026-07-07T09:54:48.000Z</time>
      </trkpt>
      <trkpt lat="46.21259" lon="6.77273">
        <ele>1473.8000488281</ele>
        <time>2026-07-07T09:54:49.000Z</time>
      </trkpt>
      <trkpt lat="46.21258" lon="6.77272">
        <ele>1474.1999511719</ele>
        <time>2026-07-07T09:54:59.000Z</time>
      </trkpt>
      <trkpt lat="46.21258" lon="6.77273">
        <ele>1474</ele>
        <time>2026-07-07T09:55:03.000Z</time>
      </trkpt>
      <trkpt lat="46.21259" lon="6.77274">
        <ele>1474</ele>
        <time>2026-07-07T09:55:11.000Z</time>
      </trkpt>
      <trkpt lat="46.21258" lon="6.77274">
        <ele>1474</ele>
        <time>2026-07-07T09:55:14.000Z</time>
      </trkpt>
      <trkpt lat="46.21257" lon="6.77272">
        <ele>1474</ele>
        <time>2026-07-07T09:55:24.000Z</time>
      </trkpt>
      <trkpt lat="46.21257" lon="6.77273">
        <ele>1474</ele>
        <time>2026-07-07T09:55:32.000Z</time>
      </trkpt>
      <trkpt lat="46.21257" lon="6.77272">
        <ele>1474.1999511719</ele>
        <time>2026-07-07T09:55:34.000Z</time>
      </trkpt>
      <trkpt lat="46.21256" lon="6.77272">
        <ele>1474.1999511719</ele>
        <time>2026-07-07T09:55:36.000Z</time>
      </trkpt>
      <trkpt lat="46.21256" lon="6.77272">
        <ele>1474.1999511719</ele>
        <time>2026-07-07T09:55:37.000Z</time>
      </trkpt>
      <trkpt lat="46.21257" lon="6.77272">
        <ele>1474.1999511719</ele>
        <time>2026-07-07T09:55:42.000Z</time>
      </trkpt>
      <trkpt lat="46.21257" lon="6.77273">
        <ele>1474.1999511719</ele>
        <time>2026-07-07T09:55:43.000Z</time>
      </trkpt>
      <trkpt lat="46.21258" lon="6.77273">
        <ele>1474.1999511719</ele>
        <time>2026-07-07T09:55:44.000Z</time>
      </trkpt>
      <trkpt lat="46.21258" lon="6.77273">
        <ele>1474.1999511719</ele>
        <time>2026-07-07T09:55:45.000Z</time>
      </trkpt>
      <trkpt lat="46.21258" lon="6.77273">
        <ele>1474.1999511719</ele>
        <time>2026-07-07T09:55:48.000Z</time>
      </trkpt>
      <trkpt lat="46.21258" lon="6.77272">
        <ele>1474.1999511719</ele>
        <time>2026-07-07T09:56:02.000Z</time>
      </trkpt>
      <trkpt lat="46.21257" lon="6.77273">
        <ele>1474.1999511719</ele>
        <time>2026-07-07T09:56:16.000Z</time>
      </trkpt>
      <trkpt lat="46.21258" lon="6.77273">
        <ele>1474</ele>
        <time>2026-07-07T09:56:26.000Z</time>
      </trkpt>
      <trkpt lat="46.21258" lon="6.77274">
        <ele>1474.1999511719</ele>
        <time>2026-07-07T09:56:38.000Z</time>
      </trkpt>
      <trkpt lat="46.21258" lon="6.77274">
        <ele>1474.1999511719</ele>
        <time>2026-07-07T09:56:43.000Z</time>
      </trkpt>
      <trkpt lat="46.21258" lon="6.77274">
        <ele>1474.1999511719</ele>
        <time>2026-07-07T09:56:52.000Z</time>
      </trkpt>
      <trkpt lat="46.21258" lon="6.77273">
        <ele>1474.1999511719</ele>
        <time>2026-07-07T09:57:02.000Z</time>
      </trkpt>
      <trkpt lat="46.21259" lon="6.77272">
        <ele>1474.4000244141</ele>
        <time>2026-07-07T09:57:14.000Z</time>
      </trkpt>
      <trkpt lat="46.21258" lon="6.77272">
        <ele>1474.1999511719</ele>
        <time>2026-07-07T09:57:19.000Z</time>
      </trkpt>
      <trkpt lat="46.21257" lon="6.77272">
        <ele>1474.4000244141</ele>
        <time>2026-07-07T09:57:25.000Z</time>
      </trkpt>
      <trkpt lat="46.21259" lon="6.77273">
        <ele>1474.5999755859</ele>
        <time>2026-07-07T09:57:32.000Z</time>
      </trkpt>
      <trkpt lat="46.21259" lon="6.77274">
        <ele>1474.5999755859</ele>
        <time>2026-07-07T09:57:36.000Z</time>
      </trkpt>
      <trkpt lat="46.21257" lon="6.77273">
        <ele>1474.5999755859</ele>
        <time>2026-07-07T09:57:51.000Z</time>
      </trkpt>
      <trkpt lat="46.21259" lon="6.77274">
        <ele>1474.5999755859</ele>
        <time>2026-07-07T09:58:04.000Z</time>
      </trkpt>
      <trkpt lat="46.21257" lon="6.77273">
        <ele>1474.5999755859</ele>
        <time>2026-07-07T09:58:17.000Z</time>
      </trkpt>
      <trkpt lat="46.21257" lon="6.77273">
        <ele>1474.5999755859</ele>
        <time>2026-07-07T09:58:26.000Z</time>
      </trkpt>
      <trkpt lat="46.21257" lon="6.77273">
        <ele>1474.4000244141</ele>
        <time>2026-07-07T09:58:31.000Z</time>
      </trkpt>
      <trkpt lat="46.21256" lon="6.77272">
        <ele>1474.5999755859</ele>
        <time>2026-07-07T09:58:41.000Z</time>
      </trkpt>
      <trkpt lat="46.21257" lon="6.77271">
        <ele>1474.8000488281</ele>
        <time>2026-07-07T09:58:49.000Z</time>
      </trkpt>
      <trkpt lat="46.21256" lon="6.77272">
        <ele>1474.4000244141</ele>
        <time>2026-07-07T09:58:58.000Z</time>
      </trkpt>
      <trkpt lat="46.21258" lon="6.77273">
        <ele>1474.5999755859</ele>
        <time>2026-07-07T09:59:13.000Z</time>
      </trkpt>
      <trkpt lat="46.21257" lon="6.77274">
        <ele>1474.5999755859</ele>
        <time>2026-07-07T09:59:27.000Z</time>
      </trkpt>
      <trkpt lat="46.21257" lon="6.77273">
        <ele>1474.4000244141</ele>
        <time>2026-07-07T09:59:32.000Z</time>
      </trkpt>
      <trkpt lat="46.21259" lon="6.77272">
        <ele>1474.5999755859</ele>
        <time>2026-07-07T09:59:41.000Z</time>
      </trkpt>
      <trkpt lat="46.21259" lon="6.77273">
        <ele>1474.8000488281</ele>
        <time>2026-07-07T09:59:55.000Z</time>
      </trkpt>
      <trkpt lat="46.21258" lon="6.77273">
        <ele>1474.8000488281</ele>
        <time>2026-07-07T10:00:07.000Z</time>
      </trkpt>
      <trkpt lat="46.21258" lon="6.77273">
        <ele>1474.8000488281</ele>
        <time>2026-07-07T10:00:20.000Z</time>
      </trkpt>
      <trkpt lat="46.21258" lon="6.77272">
        <ele>1474.8000488281</ele>
        <time>2026-07-07T10:00:34.000Z</time>
      </trkpt>
      <trkpt lat="46.21259" lon="6.77274">
        <ele>1475</ele>
        <time>2026-07-07T10:00:46.000Z</time>
      </trkpt>
      <trkpt lat="46.21257" lon="6.77272">
        <ele>1475</ele>
        <time>2026-07-07T10:00:58.000Z</time>
      </trkpt>
      <trkpt lat="46.21255" lon="6.77271">
        <ele>1475</ele>
        <time>2026-07-07T10:01:11.000Z</time>
      </trkpt>
      <trkpt lat="46.21257" lon="6.77272">
        <ele>1475</ele>
        <time>2026-07-07T10:01:29.000Z</time>
      </trkpt>
      <trkpt lat="46.21257" lon="6.77271">
        <ele>1475</ele>
        <time>2026-07-07T10:01:32.000Z</time>
      </trkpt>
      <trkpt lat="46.21257" lon="6.77268">
        <ele>1475</ele>
        <time>2026-07-07T10:01:44.000Z</time>
      </trkpt>
      <trkpt lat="46.21257" lon="6.77269">
        <ele>1475.1999511719</ele>
        <time>2026-07-07T10:01:56.000Z</time>
      </trkpt>
      <trkpt lat="46.21257" lon="6.7727">
        <ele>1475.4000244141</ele>
        <time>2026-07-07T10:01:57.000Z</time>
      </trkpt>
      <trkpt lat="46.21257" lon="6.77272">
        <ele>1475.1999511719</ele>
        <time>2026-07-07T10:02:08.000Z</time>
      </trkpt>
      <trkpt lat="46.21257" lon="6.77272">
        <ele>1475.1999511719</ele>
        <time>2026-07-07T10:02:21.000Z</time>
      </trkpt>
      <trkpt lat="46.21257" lon="6.77272">
        <ele>1475.4000244141</ele>
        <time>2026-07-07T10:02:34.000Z</time>
      </trkpt>
      <trkpt lat="46.21257" lon="6.77273">
        <ele>1475.1999511719</ele>
        <time>2026-07-07T10:02:48.000Z</time>
      </trkpt>
      <trkpt lat="46.21256" lon="6.77273">
        <ele>1475.1999511719</ele>
        <time>2026-07-07T10:03:06.000Z</time>
      </trkpt>
      <trkpt lat="46.21256" lon="6.77273">
        <ele>1475.1999511719</ele>
        <time>2026-07-07T10:03:30.000Z</time>
      </trkpt>
      <trkpt lat="46.21256" lon="6.77273">
        <ele>1475.1999511719</ele>
        <time>2026-07-07T10:03:47.000Z</time>
      </trkpt>
      <trkpt lat="46.21256" lon="6.77273">
        <ele>1475.1999511719</ele>
        <time>2026-07-07T10:04:07.000Z</time>
      </trkpt>
      <trkpt lat="46.21256" lon="6.77273">
        <ele>1475.1999511719</ele>
        <time>2026-07-07T10:04:25.000Z</time>
      </trkpt>
      <trkpt lat="46.21258" lon="6.77273">
        <ele>1475</ele>
        <time>2026-07-07T10:04:42.000Z</time>
      </trkpt>
      <trkpt lat="46.21258" lon="6.77273">
        <ele>1475</ele>
        <time>2026-07-07T10:04:59.000Z</time>
      </trkpt>
      <trkpt lat="46.21258" lon="6.77273">
        <ele>1474.8000488281</ele>
        <time>2026-07-07T10:05:06.000Z</time>
      </trkpt>
      <trkpt lat="46.21258" lon="6.77273">
        <ele>1474.5999755859</ele>
        <time>2026-07-07T10:05:33.000Z</time>
      </trkpt>
      <trkpt lat="46.21257" lon="6.77272">
        <ele>1474.5999755859</ele>
        <time>2026-07-07T10:05:47.000Z</time>
      </trkpt>
      <trkpt lat="46.21258" lon="6.77272">
        <ele>1474.5999755859</ele>
        <time>2026-07-07T10:06:05.000Z</time>
      </trkpt>
      <trkpt lat="46.21256" lon="6.77271">
        <ele>1474.8000488281</ele>
        <time>2026-07-07T10:06:17.000Z</time>
      </trkpt>
      <trkpt lat="46.21257" lon="6.77272">
        <ele>1474.4000244141</ele>
        <time>2026-07-07T10:06:28.000Z</time>
      </trkpt>
      <trkpt lat="46.21256" lon="6.7727">
        <ele>1474.5999755859</ele>
        <time>2026-07-07T10:06:43.000Z</time>
      </trkpt>
      <trkpt lat="46.21256" lon="6.77271">
        <ele>1474.4000244141</ele>
        <time>2026-07-07T10:06:56.000Z</time>
      </trkpt>
      <trkpt lat="46.21257" lon="6.77271">
        <ele>1474.5999755859</ele>
        <time>2026-07-07T10:07:15.000Z</time>
      </trkpt>
      <trkpt lat="46.21258" lon="6.77271">
        <ele>1474.5999755859</ele>
        <time>2026-07-07T10:07:27.000Z</time>
      </trkpt>
      <trkpt lat="46.21257" lon="6.7727">
        <ele>1474.5999755859</ele>
        <time>2026-07-07T10:07:39.000Z</time>
      </trkpt>
      <trkpt lat="46.21256" lon="6.77269">
        <ele>1474.5999755859</ele>
        <time>2026-07-07T10:07:49.000Z</time>
      </trkpt>
      <trkpt lat="46.21258" lon="6.77273">
        <ele>1474.5999755859</ele>
        <time>2026-07-07T10:07:59.000Z</time>
      </trkpt>
      <trkpt lat="46.21258" lon="6.77273">
        <ele>1474.5999755859</ele>
        <time>2026-07-07T10:08:12.000Z</time>
      </trkpt>
      <trkpt lat="46.21257" lon="6.77272">
        <ele>1474.8000488281</ele>
        <time>2026-07-07T10:08:24.000Z</time>
      </trkpt>
      <trkpt lat="46.21257" lon="6.77271">
        <ele>1475</ele>
        <time>2026-07-07T10:08:37.000Z</time>
      </trkpt>
      <trkpt lat="46.21257" lon="6.7727">
        <ele>1475</ele>
        <time>2026-07-07T10:08:58.000Z</time>
      </trkpt>
      <trkpt lat="46.21256" lon="6.7727">
        <ele>1475</ele>
        <time>2026-07-07T10:09:20.000Z</time>
      </trkpt>
      <trkpt lat="46.21256" lon="6.77271">
        <ele>1475</ele>
        <time>2026-07-07T10:09:34.000Z</time>
      </trkpt>
      <trkpt lat="46.21258" lon="6.77272">
        <ele>1475.1999511719</ele>
        <time>2026-07-07T10:09:45.000Z</time>
      </trkpt>
      <trkpt lat="46.21258" lon="6.77272">
        <ele>1475.1999511719</ele>
        <time>2026-07-07T10:09:46.000Z</time>
      </trkpt>
      <trkpt lat="46.21258" lon="6.77272">
        <ele>1475.1999511719</ele>
        <time>2026-07-07T10:09:48.000Z</time>
      </trkpt>
      <trkpt lat="46.21258" lon="6.77272">
        <ele>1475.1999511719</ele>
        <time>2026-07-07T10:09:49.000Z</time>
      </trkpt>
      <trkpt lat="46.21258" lon="6.77272">
        <ele>1475</ele>
        <time>2026-07-07T10:09:56.000Z</time>
      </trkpt>
      <trkpt lat="46.21258" lon="6.77272">
        <ele>1475.1999511719</ele>
        <time>2026-07-07T10:10:03.000Z</time>
      </trkpt>
      <trkpt lat="46.21258" lon="6.77272">
        <ele>1475.1999511719</ele>
        <time>2026-07-07T10:10:04.000Z</time>
      </trkpt>
      <trkpt lat="46.21257" lon="6.77272">
        <ele>1474.8000488281</ele>
        <time>2026-07-07T10:10:11.000Z</time>
      </trkpt>
      <trkpt lat="46.21257" lon="6.77272">
        <ele>1474.8000488281</ele>
        <time>2026-07-07T10:10:13.000Z</time>
      </trkpt>
      <trkpt lat="46.21257" lon="6.77272">
        <ele>1474.8000488281</ele>
        <time>2026-07-07T10:10:14.000Z</time>
      </trkpt>
      <trkpt lat="46.21256" lon="6.77271">
        <ele>1474.8000488281</ele>
        <time>2026-07-07T10:10:21.000Z</time>
      </trkpt>
      <trkpt lat="46.21257" lon="6.7727">
        <ele>1474.8000488281</ele>
        <time>2026-07-07T10:10:27.000Z</time>
      </trkpt>
      <trkpt lat="46.21257" lon="6.7727">
        <ele>1474.8000488281</ele>
        <time>2026-07-07T10:10:28.000Z</time>
      </trkpt>
      <trkpt lat="46.21257" lon="6.77271">
        <ele>1474.8000488281</ele>
        <time>2026-07-07T10:10:29.000Z</time>
      </trkpt>
      <trkpt lat="46.21257" lon="6.77271">
        <ele>1475</ele>
        <time>2026-07-07T10:10:31.000Z</time>
      </trkpt>
      <trkpt lat="46.21258" lon="6.77272">
        <ele>1475</ele>
        <time>2026-07-07T10:10:37.000Z</time>
      </trkpt>
      <trkpt lat="46.21258" lon="6.77272">
        <ele>1475</ele>
        <time>2026-07-07T10:10:43.000Z</time>
      </trkpt>
      <trkpt lat="46.21258" lon="6.77272">
        <ele>1475</ele>
        <time>2026-07-07T10:10:51.000Z</time>
      </trkpt>
      <trkpt lat="46.21259" lon="6.77273">
        <ele>1475</ele>
        <time>2026-07-07T10:11:04.000Z</time>
      </trkpt>
      <trkpt lat="46.21256" lon="6.77269">
        <ele>1475</ele>
        <time>2026-07-07T10:11:17.000Z</time>
      </trkpt>
      <trkpt lat="46.21256" lon="6.77269">
        <ele>1474.8000488281</ele>
        <time>2026-07-07T10:11:24.000Z</time>
      </trkpt>
      <trkpt lat="46.21257" lon="6.7727">
        <ele>1474.8000488281</ele>
        <time>2026-07-07T10:11:32.000Z</time>
      </trkpt>
      <trkpt lat="46.21256" lon="6.7727">
        <ele>1474.8000488281</ele>
        <time>2026-07-07T10:11:43.000Z</time>
      </trkpt>
      <trkpt lat="46.21257" lon="6.77271">
        <ele>1475</ele>
        <time>2026-07-07T10:11:57.000Z</time>
      </trkpt>
      <trkpt lat="46.21258" lon="6.77272">
        <ele>1475</ele>
        <time>2026-07-07T10:12:10.000Z</time>
      </trkpt>
      <trkpt lat="46.21259" lon="6.77271">
        <ele>1475</ele>
        <time>2026-07-07T10:12:24.000Z</time>
      </trkpt>
      <trkpt lat="46.21257" lon="6.7727">
        <ele>1474.8000488281</ele>
        <time>2026-07-07T10:12:32.000Z</time>
      </trkpt>
      <trkpt lat="46.21258" lon="6.77272">
        <ele>1474.5999755859</ele>
        <time>2026-07-07T10:12:42.000Z</time>
      </trkpt>
      <trkpt lat="46.21258" lon="6.77272">
        <ele>1474.8000488281</ele>
        <time>2026-07-07T10:12:56.000Z</time>
      </trkpt>
      <trkpt lat="46.21257" lon="6.77271">
        <ele>1474.8000488281</ele>
        <time>2026-07-07T10:13:07.000Z</time>
      </trkpt>
      <trkpt lat="46.21257" lon="6.77272">
        <ele>1474.8000488281</ele>
        <time>2026-07-07T10:13:10.000Z</time>
      </trkpt>
      <trkpt lat="46.21257" lon="6.77271">
        <ele>1474.8000488281</ele>
        <time>2026-07-07T10:13:13.000Z</time>
      </trkpt>
      <trkpt lat="46.21257" lon="6.77271">
        <ele>1474.8000488281</ele>
        <time>2026-07-07T10:13:17.000Z</time>
      </trkpt>
      <trkpt lat="46.21257" lon="6.77271">
        <ele>1474.8000488281</ele>
        <time>2026-07-07T10:13:19.000Z</time>
      </trkpt>
      <trkpt lat="46.21258" lon="6.77272">
        <ele>1474.8000488281</ele>
        <time>2026-07-07T10:13:32.000Z</time>
      </trkpt>
      <trkpt lat="46.21258" lon="6.77272">
        <ele>1474.5999755859</ele>
        <time>2026-07-07T10:13:35.000Z</time>
      </trkpt>
      <trkpt lat="46.21258" lon="6.77272">
        <ele>1474.8000488281</ele>
        <time>2026-07-07T10:13:42.000Z</time>
      </trkpt>
      <trkpt lat="46.21258" lon="6.77272">
        <ele>1474.5999755859</ele>
        <time>2026-07-07T10:13:52.000Z</time>
      </trkpt>
      <trkpt lat="46.21258" lon="6.77272">
        <ele>1474.5999755859</ele>
        <time>2026-07-07T10:13:56.000Z</time>
      </trkpt>
      <trkpt lat="46.21258" lon="6.77272">
        <ele>1474.5999755859</ele>
        <time>2026-07-07T10:14:15.000Z</time>
      </trkpt>
      <trkpt lat="46.21257" lon="6.77271">
        <ele>1474.8000488281</ele>
        <time>2026-07-07T10:14:27.000Z</time>
      </trkpt>
      <trkpt lat="46.21257" lon="6.77273">
        <ele>1474.5999755859</ele>
        <time>2026-07-07T10:14:39.000Z</time>
      </trkpt>
      <trkpt lat="46.21257" lon="6.77273">
        <ele>1475</ele>
        <time>2026-07-07T10:14:50.000Z</time>
      </trkpt>
      <trkpt lat="46.21257" lon="6.77272">
        <ele>1474.8000488281</ele>
        <time>2026-07-07T10:14:55.000Z</time>
      </trkpt>
      <trkpt lat="46.21257" lon="6.77272">
        <ele>1474.8000488281</ele>
        <time>2026-07-07T10:14:56.000Z</time>
      </trkpt>
      <trkpt lat="46.21257" lon="6.77272">
        <ele>1474.5999755859</ele>
        <time>2026-07-07T10:14:58.000Z</time>
      </trkpt>
      <trkpt lat="46.21257" lon="6.77272">
        <ele>1474.5999755859</ele>
        <time>2026-07-07T10:15:02.000Z</time>
      </trkpt>
      <trkpt lat="46.21257" lon="6.77271">
        <ele>1474.5999755859</ele>
        <time>2026-07-07T10:15:04.000Z</time>
      </trkpt>
      <trkpt lat="46.21257" lon="6.77271">
        <ele>1474.5999755859</ele>
        <time>2026-07-07T10:15:07.000Z</time>
      </trkpt>
      <trkpt lat="46.21257" lon="6.77271">
        <ele>1474.5999755859</ele>
        <time>2026-07-07T10:15:13.000Z</time>
      </trkpt>
      <trkpt lat="46.21257" lon="6.77272">
        <ele>1474.5999755859</ele>
        <time>2026-07-07T10:15:18.000Z</time>
      </trkpt>
      <trkpt lat="46.21257" lon="6.77272">
        <ele>1474.5999755859</ele>
        <time>2026-07-07T10:15:27.000Z</time>
      </trkpt>
      <trkpt lat="46.21258" lon="6.77272">
        <ele>1474.5999755859</ele>
        <time>2026-07-07T10:15:31.000Z</time>
      </trkpt>
      <trkpt lat="46.21258" lon="6.77272">
        <ele>1474.5999755859</ele>
        <time>2026-07-07T10:15:36.000Z</time>
      </trkpt>
      <trkpt lat="46.21255" lon="6.77272">
        <ele>1474.5999755859</ele>
        <time>2026-07-07T10:15:46.000Z</time>
      </trkpt>
      <trkpt lat="46.21255" lon="6.77272">
        <ele>1474.4000244141</ele>
        <time>2026-07-07T10:15:50.000Z</time>
      </trkpt>
      <trkpt lat="46.21257" lon="6.77272">
        <ele>1474.5999755859</ele>
        <time>2026-07-07T10:16:00.000Z</time>
      </trkpt>
      <trkpt lat="46.21257" lon="6.77273">
        <ele>1474.4000244141</ele>
        <time>2026-07-07T10:16:07.000Z</time>
      </trkpt>
      <trkpt lat="46.21257" lon="6.77272">
        <ele>1474.4000244141</ele>
        <time>2026-07-07T10:16:14.000Z</time>
      </trkpt>
      <trkpt lat="46.21257" lon="6.77273">
        <ele>1474.5999755859</ele>
        <time>2026-07-07T10:16:27.000Z</time>
      </trkpt>
      <trkpt lat="46.21257" lon="6.77273">
        <ele>1474.5999755859</ele>
        <time>2026-07-07T10:16:31.000Z</time>
      </trkpt>
      <trkpt lat="46.21257" lon="6.77272">
        <ele>1474.5999755859</ele>
        <time>2026-07-07T10:16:38.000Z</time>
      </trkpt>
      <trkpt lat="46.21257" lon="6.77271">
        <ele>1474.5999755859</ele>
        <time>2026-07-07T10:16:41.000Z</time>
      </trkpt>
      <trkpt lat="46.21259" lon="6.77272">
        <ele>1474.5999755859</ele>
        <time>2026-07-07T10:16:54.000Z</time>
      </trkpt>
      <trkpt lat="46.2126" lon="6.77274">
        <ele>1474.4000244141</ele>
        <time>2026-07-07T10:17:08.000Z</time>
      </trkpt>
      <trkpt lat="46.2126" lon="6.77274">
        <ele>1474.5999755859</ele>
        <time>2026-07-07T10:17:16.000Z</time>
      </trkpt>
      <trkpt lat="46.21259" lon="6.77276">
        <ele>1474.5999755859</ele>
        <time>2026-07-07T10:17:23.000Z</time>
      </trkpt>
      <trkpt lat="46.21257" lon="6.77272">
        <ele>1474.5999755859</ele>
        <time>2026-07-07T10:17:36.000Z</time>
      </trkpt>
      <trkpt lat="46.21257" lon="6.77273">
        <ele>1474.5999755859</ele>
        <time>2026-07-07T10:17:52.000Z</time>
      </trkpt>
      <trkpt lat="46.21257" lon="6.77272">
        <ele>1474.4000244141</ele>
        <time>2026-07-07T10:18:05.000Z</time>
      </trkpt>
      <trkpt lat="46.21258" lon="6.77274">
        <ele>1474.4000244141</ele>
        <time>2026-07-07T10:18:18.000Z</time>
      </trkpt>
      <trkpt lat="46.21257" lon="6.77273">
        <ele>1474.4000244141</ele>
        <time>2026-07-07T10:18:32.000Z</time>
      </trkpt>
      <trkpt lat="46.21254" lon="6.77269">
        <ele>1474.4000244141</ele>
        <time>2026-07-07T10:18:46.000Z</time>
      </trkpt>
      <trkpt lat="46.21257" lon="6.77272">
        <ele>1474.4000244141</ele>
        <time>2026-07-07T10:18:59.000Z</time>
      </trkpt>
      <trkpt lat="46.21258" lon="6.77273">
        <ele>1474.5999755859</ele>
        <time>2026-07-07T10:19:13.000Z</time>
      </trkpt>
      <trkpt lat="46.21256" lon="6.77271">
        <ele>1474.4000244141</ele>
        <time>2026-07-07T10:19:24.000Z</time>
      </trkpt>
      <trkpt lat="46.21257" lon="6.77272">
        <ele>1474.4000244141</ele>
        <time>2026-07-07T10:19:37.000Z</time>
      </trkpt>
      <trkpt lat="46.21257" lon="6.77273">
        <ele>1474.5999755859</ele>
        <time>2026-07-07T10:19:54.000Z</time>
      </trkpt>
      <trkpt lat="46.21258" lon="6.77272">
        <ele>1474.5999755859</ele>
        <time>2026-07-07T10:20:14.000Z</time>
      </trkpt>
      <trkpt lat="46.21258" lon="6.77274">
        <ele>1474.5999755859</ele>
        <time>2026-07-07T10:20:27.000Z</time>
      </trkpt>
      <trkpt lat="46.21256" lon="6.77272">
        <ele>1474.8000488281</ele>
        <time>2026-07-07T10:20:41.000Z</time>
      </trkpt>
      <trkpt lat="46.21256" lon="6.77269">
        <ele>1474.5999755859</ele>
        <time>2026-07-07T10:20:53.000Z</time>
      </trkpt>
      <trkpt lat="46.21256" lon="6.77271">
        <ele>1474.8000488281</ele>
        <time>2026-07-07T10:21:04.000Z</time>
      </trkpt>
      <trkpt lat="46.21257" lon="6.77272">
        <ele>1474.8000488281</ele>
        <time>2026-07-07T10:21:14.000Z</time>
      </trkpt>
      <trkpt lat="46.21257" lon="6.7727">
        <ele>1474.8000488281</ele>
        <time>2026-07-07T10:21:19.000Z</time>
      </trkpt>
      <trkpt lat="46.21257" lon="6.7727">
        <ele>1474.8000488281</ele>
        <time>2026-07-07T10:21:21.000Z</time>
      </trkpt>
      <trkpt lat="46.21257" lon="6.77271">
        <ele>1474.8000488281</ele>
        <time>2026-07-07T10:21:25.000Z</time>
      </trkpt>
      <trkpt lat="46.21257" lon="6.77271">
        <ele>1475</ele>
        <time>2026-07-07T10:21:32.000Z</time>
      </trkpt>
      <trkpt lat="46.21258" lon="6.77272">
        <ele>1475</ele>
        <time>2026-07-07T10:21:42.000Z</time>
      </trkpt>
      <trkpt lat="46.21259" lon="6.77273">
        <ele>1475.1999511719</ele>
        <time>2026-07-07T10:21:58.000Z</time>
      </trkpt>
      <trkpt lat="46.21257" lon="6.77273">
        <ele>1474.8000488281</ele>
        <time>2026-07-07T10:22:11.000Z</time>
      </trkpt>
      <trkpt lat="46.21257" lon="6.77271">
        <ele>1474.8000488281</ele>
        <time>2026-07-07T10:22:24.000Z</time>
      </trkpt>
      <trkpt lat="46.21258" lon="6.77272">
        <ele>1474.8000488281</ele>
        <time>2026-07-07T10:22:39.000Z</time>
      </trkpt>
      <trkpt lat="46.21258" lon="6.77273">
        <ele>1474.8000488281</ele>
        <time>2026-07-07T10:22:41.000Z</time>
      </trkpt>
      <trkpt lat="46.21257" lon="6.77273">
        <ele>1474.8000488281</ele>
        <time>2026-07-07T10:23:03.000Z</time>
      </trkpt>
      <trkpt lat="46.21258" lon="6.77274">
        <ele>1475</ele>
        <time>2026-07-07T10:23:24.000Z</time>
      </trkpt>
      <trkpt lat="46.21258" lon="6.77273">
        <ele>1474.5999755859</ele>
        <time>2026-07-07T10:23:42.000Z</time>
      </trkpt>
      <trkpt lat="46.21257" lon="6.77271">
        <ele>1475</ele>
        <time>2026-07-07T10:23:51.000Z</time>
      </trkpt>
      <trkpt lat="46.21257" lon="6.77272">
        <ele>1474.5999755859</ele>
        <time>2026-07-07T10:24:04.000Z</time>
      </trkpt>
      <trkpt lat="46.21256" lon="6.77272">
        <ele>1474.5999755859</ele>
        <time>2026-07-07T10:24:18.000Z</time>
      </trkpt>
      <trkpt lat="46.21256" lon="6.7727">
        <ele>1474.8000488281</ele>
        <time>2026-07-07T10:24:32.000Z</time>
      </trkpt>
      <trkpt lat="46.21256" lon="6.77269">
        <ele>1474.8000488281</ele>
        <time>2026-07-07T10:24:38.000Z</time>
      </trkpt>
      <trkpt lat="46.21256" lon="6.77269">
        <ele>1474.8000488281</ele>
        <time>2026-07-07T10:24:44.000Z</time>
      </trkpt>
      <trkpt lat="46.21257" lon="6.77272">
        <ele>1474.8000488281</ele>
        <time>2026-07-07T10:25:02.000Z</time>
      </trkpt>
      <trkpt lat="46.21257" lon="6.77271">
        <ele>1474.8000488281</ele>
        <time>2026-07-07T10:25:14.000Z</time>
      </trkpt>
      <trkpt lat="46.21257" lon="6.77271">
        <ele>1475</ele>
        <time>2026-07-07T10:25:31.000Z</time>
      </trkpt>
      <trkpt lat="46.21256" lon="6.7727">
        <ele>1475</ele>
        <time>2026-07-07T10:25:46.000Z</time>
      </trkpt>
      <trkpt lat="46.21257" lon="6.77271">
        <ele>1475</ele>
        <time>2026-07-07T10:25:58.000Z</time>
      </trkpt>
      <trkpt lat="46.21257" lon="6.77271">
        <ele>1475.1999511719</ele>
        <time>2026-07-07T10:26:10.000Z</time>
      </trkpt>
      <trkpt lat="46.21257" lon="6.7727">
        <ele>1476</ele>
        <time>2026-07-07T10:26:20.000Z</time>
      </trkpt>
      <trkpt lat="46.21257" lon="6.7727">
        <ele>1475.8000488281</ele>
        <time>2026-07-07T10:26:33.000Z</time>
      </trkpt>
      <trkpt lat="46.21257" lon="6.77271">
        <ele>1475.8000488281</ele>
        <time>2026-07-07T10:26:41.000Z</time>
      </trkpt>
      <trkpt lat="46.21257" lon="6.7727">
        <ele>1475.5999755859</ele>
        <time>2026-07-07T10:26:44.000Z</time>
      </trkpt>
      <trkpt lat="46.21256" lon="6.7727">
        <ele>1475.8000488281</ele>
        <time>2026-07-07T10:26:51.000Z</time>
      </trkpt>
      <trkpt lat="46.21256" lon="6.77271">
        <ele>1475.8000488281</ele>
        <time>2026-07-07T10:27:00.000Z</time>
      </trkpt>
      <trkpt lat="46.21258" lon="6.77271">
        <ele>1475.8000488281</ele>
        <time>2026-07-07T10:27:08.000Z</time>
      </trkpt>
      <trkpt lat="46.21258" lon="6.77271">
        <ele>1475.8000488281</ele>
        <time>2026-07-07T10:27:09.000Z</time>
      </trkpt>
      <trkpt lat="46.21258" lon="6.77272">
        <ele>1475.8000488281</ele>
        <time>2026-07-07T10:27:17.000Z</time>
      </trkpt>
      <trkpt lat="46.21257" lon="6.77272">
        <ele>1476</ele>
        <time>2026-07-07T10:27:20.000Z</time>
      </trkpt>
      <trkpt lat="46.21257" lon="6.77271">
        <ele>1476</ele>
        <time>2026-07-07T10:27:25.000Z</time>
      </trkpt>
      <trkpt lat="46.21257" lon="6.77271">
        <ele>1475.8000488281</ele>
        <time>2026-07-07T10:27:27.000Z</time>
      </trkpt>
      <trkpt lat="46.21257" lon="6.77271">
        <ele>1475.8000488281</ele>
        <time>2026-07-07T10:27:28.000Z</time>
      </trkpt>
      <trkpt lat="46.21256" lon="6.77271">
        <ele>1475.8000488281</ele>
        <time>2026-07-07T10:27:31.000Z</time>
      </trkpt>
      <trkpt lat="46.21256" lon="6.77271">
        <ele>1475.8000488281</ele>
        <time>2026-07-07T10:27:41.000Z</time>
      </trkpt>
      <trkpt lat="46.21259" lon="6.77272">
        <ele>1476</ele>
        <time>2026-07-07T10:27:51.000Z</time>
      </trkpt>
      <trkpt lat="46.2126" lon="6.77272">
        <ele>1475.8000488281</ele>
        <time>2026-07-07T10:27:54.000Z</time>
      </trkpt>
      <trkpt lat="46.21258" lon="6.77273">
        <ele>1475.8000488281</ele>
        <time>2026-07-07T10:28:04.000Z</time>
      </trkpt>
      <trkpt lat="46.21257" lon="6.7727">
        <ele>1475.5999755859</ele>
        <time>2026-07-07T10:28:14.000Z</time>
      </trkpt>
      <trkpt lat="46.21258" lon="6.7727">
        <ele>1475.8000488281</ele>
        <time>2026-07-07T10:28:22.000Z</time>
      </trkpt>
      <trkpt lat="46.21258" lon="6.77271">
        <ele>1475.5999755859</ele>
        <time>2026-07-07T10:28:29.000Z</time>
      </trkpt>
      <trkpt lat="46.21258" lon="6.77271">
        <ele>1476</ele>
        <time>2026-07-07T10:28:33.000Z</time>
      </trkpt>
      <trkpt lat="46.21257" lon="6.7727">
        <ele>1475.5999755859</ele>
        <time>2026-07-07T10:28:45.000Z</time>
      </trkpt>
      <trkpt lat="46.21258" lon="6.7727">
        <ele>1475.4000244141</ele>
        <time>2026-07-07T10:28:49.000Z</time>
      </trkpt>
      <trkpt lat="46.21258" lon="6.77271">
        <ele>1475.4000244141</ele>
        <time>2026-07-07T10:28:56.000Z</time>
      </trkpt>
      <trkpt lat="46.21258" lon="6.77272">
        <ele>1475.4000244141</ele>
        <time>2026-07-07T10:29:08.000Z</time>
      </trkpt>
      <trkpt lat="46.21257" lon="6.77271">
        <ele>1475.4000244141</ele>
        <time>2026-07-07T10:29:17.000Z</time>
      </trkpt>
      <trkpt lat="46.21258" lon="6.77271">
        <ele>1475.4000244141</ele>
        <time>2026-07-07T10:29:18.000Z</time>
      </trkpt>
      <trkpt lat="46.21259" lon="6.7727">
        <ele>1475.5999755859</ele>
        <time>2026-07-07T10:29:30.000Z</time>
      </trkpt>
      <trkpt lat="46.21259" lon="6.7727">
        <ele>1475.5999755859</ele>
        <time>2026-07-07T10:29:41.000Z</time>
      </trkpt>
      <trkpt lat="46.21257" lon="6.77269">
        <ele>1475.4000244141</ele>
        <time>2026-07-07T10:29:53.000Z</time>
      </trkpt>
      <trkpt lat="46.21255" lon="6.7727">
        <ele>1475.1999511719</ele>
        <time>2026-07-07T10:30:03.000Z</time>
      </trkpt>
      <trkpt lat="46.21255" lon="6.77269">
        <ele>1474.8000488281</ele>
        <time>2026-07-07T10:30:08.000Z</time>
      </trkpt>
      <trkpt lat="46.21253" lon="6.77268">
        <ele>1474.8000488281</ele>
        <time>2026-07-07T10:30:12.000Z</time>
      </trkpt>
      <trkpt lat="46.21253" lon="6.77266">
        <ele>1474.1999511719</ele>
        <time>2026-07-07T10:30:16.000Z</time>
      </trkpt>
      <trkpt lat="46.21252" lon="6.77261">
        <ele>1473.5999755859</ele>
        <time>2026-07-07T10:30:20.000Z</time>
      </trkpt>
      <trkpt lat="46.21251" lon="6.77259">
        <ele>1473.5999755859</ele>
        <time>2026-07-07T10:30:26.000Z</time>
      </trkpt>
      <trkpt lat="46.2125" lon="6.77257">
        <ele>1473.1999511719</ele>
        <time>2026-07-07T10:30:32.000Z</time>
      </trkpt>
      <trkpt lat="46.21249" lon="6.77256">
        <ele>1473</ele>
        <time>2026-07-07T10:30:33.000Z</time>
      </trkpt>
      <trkpt lat="46.21249" lon="6.77256">
        <ele>1472.8000488281</ele>
        <time>2026-07-07T10:30:34.000Z</time>
      </trkpt>
      <trkpt lat="46.21248" lon="6.77254">
        <ele>1472</ele>
        <time>2026-07-07T10:30:38.000Z</time>
      </trkpt>
      <trkpt lat="46.21248" lon="6.77253">
        <ele>1471.8000488281</ele>
        <time>2026-07-07T10:30:39.000Z</time>
      </trkpt>
      <trkpt lat="46.21248" lon="6.77252">
        <ele>1471.5999755859</ele>
        <time>2026-07-07T10:30:41.000Z</time>
      </trkpt>
      <trkpt lat="46.21248" lon="6.77249">
        <ele>1470.8000488281</ele>
        <time>2026-07-07T10:30:46.000Z</time>
      </trkpt>
      <trkpt lat="46.21248" lon="6.77246">
        <ele>1470.4000244141</ele>
        <time>2026-07-07T10:30:48.000Z</time>
      </trkpt>
      <trkpt lat="46.21247" lon="6.77244">
        <ele>1470</ele>
        <time>2026-07-07T10:30:50.000Z</time>
      </trkpt>
      <trkpt lat="46.21247" lon="6.77243">
        <ele>1469.8000488281</ele>
        <time>2026-07-07T10:30:52.000Z</time>
      </trkpt>
      <trkpt lat="46.21248" lon="6.77236">
        <ele>1468.5999755859</ele>
        <time>2026-07-07T10:30:59.000Z</time>
      </trkpt>
      <trkpt lat="46.21247" lon="6.77235">
        <ele>1468.4000244141</ele>
        <time>2026-07-07T10:31:00.000Z</time>
      </trkpt>
      <trkpt lat="46.21243" lon="6.77229">
        <ele>1468</ele>
        <time>2026-07-07T10:31:08.000Z</time>
      </trkpt>
      <trkpt lat="46.21243" lon="6.77228">
        <ele>1468.1999511719</ele>
        <time>2026-07-07T10:31:15.000Z</time>
      </trkpt>
      <trkpt lat="46.21244" lon="6.77228">
        <ele>1468.1999511719</ele>
        <time>2026-07-07T10:31:21.000Z</time>
      </trkpt>
      <trkpt lat="46.21243" lon="6.7723">
        <ele>1468.1999511719</ele>
        <time>2026-07-07T10:31:26.000Z</time>
      </trkpt>
      <trkpt lat="46.21235" lon="6.77233">
        <ele>1468.5999755859</ele>
        <time>2026-07-07T10:31:34.000Z</time>
      </trkpt>
      <trkpt lat="46.21235" lon="6.77234">
        <ele>1468.5999755859</ele>
        <time>2026-07-07T10:31:35.000Z</time>
      </trkpt>
      <trkpt lat="46.21231" lon="6.77237">
        <ele>1468.8000488281</ele>
        <time>2026-07-07T10:31:41.000Z</time>
      </trkpt>
      <trkpt lat="46.21228" lon="6.77239">
        <ele>1469</ele>
        <time>2026-07-07T10:31:44.000Z</time>
      </trkpt>
      <trkpt lat="46.21223" lon="6.77244">
        <ele>1469.1999511719</ele>
        <time>2026-07-07T10:31:52.000Z</time>
      </trkpt>
      <trkpt lat="46.21222" lon="6.77245">
        <ele>1469.1999511719</ele>
        <time>2026-07-07T10:31:53.000Z</time>
      </trkpt>
      <trkpt lat="46.21216" lon="6.77251">
        <ele>1469.4000244141</ele>
        <time>2026-07-07T10:32:02.000Z</time>
      </trkpt>
      <trkpt lat="46.21217" lon="6.77251">
        <ele>1469.5999755859</ele>
        <time>2026-07-07T10:32:05.000Z</time>
      </trkpt>
      <trkpt lat="46.21217" lon="6.77251">
        <ele>1469.5999755859</ele>
        <time>2026-07-07T10:32:06.000Z</time>
      </trkpt>
      <trkpt lat="46.21216" lon="6.77252">
        <ele>1469.4000244141</ele>
        <time>2026-07-07T10:32:08.000Z</time>
      </trkpt>
      <trkpt lat="46.21215" lon="6.77254">
        <ele>1469.5999755859</ele>
        <time>2026-07-07T10:32:11.000Z</time>
      </trkpt>
      <trkpt lat="46.21214" lon="6.77256">
        <ele>1469.5999755859</ele>
        <time>2026-07-07T10:32:13.000Z</time>
      </trkpt>
      <trkpt lat="46.21213" lon="6.77258">
        <ele>1469.8000488281</ele>
        <time>2026-07-07T10:32:15.000Z</time>
      </trkpt>
      <trkpt lat="46.2121" lon="6.77262">
        <ele>1470</ele>
        <time>2026-07-07T10:32:19.000Z</time>
      </trkpt>
      <trkpt lat="46.2121" lon="6.77263">
        <ele>1470</ele>
        <time>2026-07-07T10:32:20.000Z</time>
      </trkpt>
      <trkpt lat="46.21208" lon="6.77267">
        <ele>1470</ele>
        <time>2026-07-07T10:32:24.000Z</time>
      </trkpt>
      <trkpt lat="46.21206" lon="6.77271">
        <ele>1470</ele>
        <time>2026-07-07T10:32:28.000Z</time>
      </trkpt>
      <trkpt lat="46.21203" lon="6.77277">
        <ele>1470.4000244141</ele>
        <time>2026-07-07T10:32:36.000Z</time>
      </trkpt>
      <trkpt lat="46.21196" lon="6.7729">
        <ele>1470.5999755859</ele>
        <time>2026-07-07T10:32:48.000Z</time>
      </trkpt>
      <trkpt lat="46.21192" lon="6.77296">
        <ele>1470.8000488281</ele>
        <time>2026-07-07T10:32:54.000Z</time>
      </trkpt>
      <trkpt lat="46.2119" lon="6.77299">
        <ele>1470.8000488281</ele>
        <time>2026-07-07T10:32:57.000Z</time>
      </trkpt>
      <trkpt lat="46.21183" lon="6.77312">
        <ele>1470.8000488281</ele>
        <time>2026-07-07T10:33:08.000Z</time>
      </trkpt>
      <trkpt lat="46.21178" lon="6.77321">
        <ele>1471.1999511719</ele>
        <time>2026-07-07T10:33:16.000Z</time>
      </trkpt>
      <trkpt lat="46.21174" lon="6.77326">
        <ele>1471.8000488281</ele>
        <time>2026-07-07T10:33:22.000Z</time>
      </trkpt>
      <trkpt lat="46.21172" lon="6.77327">
        <ele>1471.8000488281</ele>
        <time>2026-07-07T10:33:24.000Z</time>
      </trkpt>
      <trkpt lat="46.21164" lon="6.77331">
        <ele>1472</ele>
        <time>2026-07-07T10:33:33.000Z</time>
      </trkpt>
      <trkpt lat="46.21156" lon="6.77337">
        <ele>1472</ele>
        <time>2026-07-07T10:33:43.000Z</time>
      </trkpt>
      <trkpt lat="46.21149" lon="6.77344">
        <ele>1472.1999511719</ele>
        <time>2026-07-07T10:33:53.000Z</time>
      </trkpt>
      <trkpt lat="46.21146" lon="6.77351">
        <ele>1472.5999755859</ele>
        <time>2026-07-07T10:34:02.000Z</time>
      </trkpt>
      <trkpt lat="46.21146" lon="6.77352">
        <ele>1472.8000488281</ele>
        <time>2026-07-07T10:34:03.000Z</time>
      </trkpt>
      <trkpt lat="46.21145" lon="6.77351">
        <ele>1472.8000488281</ele>
        <time>2026-07-07T10:34:10.000Z</time>
      </trkpt>
      <trkpt lat="46.21143" lon="6.7735">
        <ele>1472.5999755859</ele>
        <time>2026-07-07T10:34:19.000Z</time>
      </trkpt>
      <trkpt lat="46.21139" lon="6.77352">
        <ele>1473</ele>
        <time>2026-07-07T10:34:25.000Z</time>
      </trkpt>
      <trkpt lat="46.21136" lon="6.77356">
        <ele>1473.4000244141</ele>
        <time>2026-07-07T10:34:29.000Z</time>
      </trkpt>
      <trkpt lat="46.21129" lon="6.77358">
        <ele>1473.8000488281</ele>
        <time>2026-07-07T10:34:37.000Z</time>
      </trkpt>
      <trkpt lat="46.21127" lon="6.77362">
        <ele>1474</ele>
        <time>2026-07-07T10:34:43.000Z</time>
      </trkpt>
      <trkpt lat="46.21125" lon="6.77364">
        <ele>1474.1999511719</ele>
        <time>2026-07-07T10:34:45.000Z</time>
      </trkpt>
      <trkpt lat="46.21121" lon="6.77368">
        <ele>1474.1999511719</ele>
        <time>2026-07-07T10:34:52.000Z</time>
      </trkpt>
      <trkpt lat="46.2112" lon="6.77369">
        <ele>1474.1999511719</ele>
        <time>2026-07-07T10:34:53.000Z</time>
      </trkpt>
      <trkpt lat="46.2112" lon="6.7737">
        <ele>1474.4000244141</ele>
        <time>2026-07-07T10:34:54.000Z</time>
      </trkpt>
      <trkpt lat="46.21119" lon="6.7737">
        <ele>1474.4000244141</ele>
        <time>2026-07-07T10:34:55.000Z</time>
      </trkpt>
      <trkpt lat="46.21115" lon="6.77374">
        <ele>1474.1999511719</ele>
        <time>2026-07-07T10:35:01.000Z</time>
      </trkpt>
      <trkpt lat="46.21112" lon="6.77375">
        <ele>1474.4000244141</ele>
        <time>2026-07-07T10:35:08.000Z</time>
      </trkpt>
      <trkpt lat="46.21112" lon="6.77376">
        <ele>1474.4000244141</ele>
        <time>2026-07-07T10:35:09.000Z</time>
      </trkpt>
      <trkpt lat="46.21111" lon="6.77375">
        <ele>1474.4000244141</ele>
        <time>2026-07-07T10:35:10.000Z</time>
      </trkpt>
      <trkpt lat="46.21111" lon="6.77375">
        <ele>1474.4000244141</ele>
        <time>2026-07-07T10:35:11.000Z</time>
      </trkpt>
      <trkpt lat="46.21109" lon="6.77376">
        <ele>1474.5999755859</ele>
        <time>2026-07-07T10:35:17.000Z</time>
      </trkpt>
      <trkpt lat="46.21108" lon="6.77374">
        <ele>1474.4000244141</ele>
        <time>2026-07-07T10:35:27.000Z</time>
      </trkpt>
      <trkpt lat="46.21104" lon="6.77375">
        <ele>1474.1999511719</ele>
        <time>2026-07-07T10:35:37.000Z</time>
      </trkpt>
      <trkpt lat="46.21098" lon="6.77379">
        <ele>1474.1999511719</ele>
        <time>2026-07-07T10:35:46.000Z</time>
      </trkpt>
      <trkpt lat="46.21095" lon="6.77386">
        <ele>1474.4000244141</ele>
        <time>2026-07-07T10:35:55.000Z</time>
      </trkpt>
      <trkpt lat="46.21095" lon="6.77388">
        <ele>1474.8000488281</ele>
        <time>2026-07-07T10:35:59.000Z</time>
      </trkpt>
      <trkpt lat="46.21094" lon="6.77391">
        <ele>1475.1999511719</ele>
        <time>2026-07-07T10:36:03.000Z</time>
      </trkpt>
      <trkpt lat="46.21088" lon="6.77399">
        <ele>1475.8000488281</ele>
        <time>2026-07-07T10:36:12.000Z</time>
      </trkpt>
      <trkpt lat="46.21087" lon="6.774">
        <ele>1476</ele>
        <time>2026-07-07T10:36:15.000Z</time>
      </trkpt>
      <trkpt lat="46.21086" lon="6.77402">
        <ele>1476</ele>
        <time>2026-07-07T10:36:18.000Z</time>
      </trkpt>
      <trkpt lat="46.21085" lon="6.77403">
        <ele>1476.1999511719</ele>
        <time>2026-07-07T10:36:20.000Z</time>
      </trkpt>
      <trkpt lat="46.21083" lon="6.77406">
        <ele>1476.5999755859</ele>
        <time>2026-07-07T10:36:26.000Z</time>
      </trkpt>
      <trkpt lat="46.2108" lon="6.77409">
        <ele>1476.8000488281</ele>
        <time>2026-07-07T10:36:35.000Z</time>
      </trkpt>
      <trkpt lat="46.2108" lon="6.77408">
        <ele>1476.8000488281</ele>
        <time>2026-07-07T10:36:37.000Z</time>
      </trkpt>
      <trkpt lat="46.2108" lon="6.77408">
        <ele>1477</ele>
        <time>2026-07-07T10:36:44.000Z</time>
      </trkpt>
      <trkpt lat="46.2108" lon="6.77409">
        <ele>1477</ele>
        <time>2026-07-07T10:36:54.000Z</time>
      </trkpt>
      <trkpt lat="46.2108" lon="6.77402">
        <ele>1477</ele>
        <time>2026-07-07T10:37:01.000Z</time>
      </trkpt>
      <trkpt lat="46.21081" lon="6.77401">
        <ele>1477</ele>
        <time>2026-07-07T10:37:02.000Z</time>
      </trkpt>
      <trkpt lat="46.21089" lon="6.77396">
        <ele>1476.5999755859</ele>
        <time>2026-07-07T10:37:11.000Z</time>
      </trkpt>
      <trkpt lat="46.21095" lon="6.7739">
        <ele>1475.8000488281</ele>
        <time>2026-07-07T10:37:20.000Z</time>
      </trkpt>
      <trkpt lat="46.21096" lon="6.77389">
        <ele>1475.5999755859</ele>
        <time>2026-07-07T10:37:22.000Z</time>
      </trkpt>
      <trkpt lat="46.211" lon="6.77389">
        <ele>1475.4000244141</ele>
        <time>2026-07-07T10:37:31.000Z</time>
      </trkpt>
      <trkpt lat="46.21101" lon="6.77387">
        <ele>1475.4000244141</ele>
        <time>2026-07-07T10:37:39.000Z</time>
      </trkpt>
      <trkpt lat="46.211" lon="6.77386">
        <ele>1475.4000244141</ele>
        <time>2026-07-07T10:37:42.000Z</time>
      </trkpt>
      <trkpt lat="46.21103" lon="6.77382">
        <ele>1475.1999511719</ele>
        <time>2026-07-07T10:37:51.000Z</time>
      </trkpt>
      <trkpt lat="46.21106" lon="6.77383">
        <ele>1474.8000488281</ele>
        <time>2026-07-07T10:37:58.000Z</time>
      </trkpt>
      <trkpt lat="46.21107" lon="6.77383">
        <ele>1474.5999755859</ele>
        <time>2026-07-07T10:37:59.000Z</time>
      </trkpt>
      <trkpt lat="46.21108" lon="6.77386">
        <ele>1475.1999511719</ele>
        <time>2026-07-07T10:38:10.000Z</time>
      </trkpt>
      <trkpt lat="46.21107" lon="6.77383">
        <ele>1475.5999755859</ele>
        <time>2026-07-07T10:38:21.000Z</time>
      </trkpt>
      <trkpt lat="46.21108" lon="6.77382">
        <ele>1475.8000488281</ele>
        <time>2026-07-07T10:38:27.000Z</time>
      </trkpt>
      <trkpt lat="46.21108" lon="6.77383">
        <ele>1476</ele>
        <time>2026-07-07T10:38:32.000Z</time>
      </trkpt>
      <trkpt lat="46.21107" lon="6.77383">
        <ele>1475.8000488281</ele>
        <time>2026-07-07T10:38:40.000Z</time>
      </trkpt>
      <trkpt lat="46.21107" lon="6.77384">
        <ele>1476</ele>
        <time>2026-07-07T10:38:51.000Z</time>
      </trkpt>
      <trkpt lat="46.21107" lon="6.77384">
        <ele>1476</ele>
        <time>2026-07-07T10:39:00.000Z</time>
      </trkpt>
      <trkpt lat="46.21106" lon="6.77382">
        <ele>1475.8000488281</ele>
        <time>2026-07-07T10:39:11.000Z</time>
      </trkpt>
      <trkpt lat="46.21106" lon="6.77383">
        <ele>1476</ele>
        <time>2026-07-07T10:39:20.000Z</time>
      </trkpt>
      <trkpt lat="46.21104" lon="6.77385">
        <ele>1475.8000488281</ele>
        <time>2026-07-07T10:39:30.000Z</time>
      </trkpt>
      <trkpt lat="46.21104" lon="6.77385">
        <ele>1476</ele>
        <time>2026-07-07T10:39:34.000Z</time>
      </trkpt>
      <trkpt lat="46.21107" lon="6.77386">
        <ele>1476</ele>
        <time>2026-07-07T10:39:44.000Z</time>
      </trkpt>
      <trkpt lat="46.21109" lon="6.77388">
        <ele>1476.1999511719</ele>
        <time>2026-07-07T10:39:57.000Z</time>
      </trkpt>
      <trkpt lat="46.21109" lon="6.77387">
        <ele>1476.1999511719</ele>
        <time>2026-07-07T10:40:07.000Z</time>
      </trkpt>
      <trkpt lat="46.21109" lon="6.77386">
        <ele>1476.4000244141</ele>
        <time>2026-07-07T10:40:10.000Z</time>
      </trkpt>
      <trkpt lat="46.21108" lon="6.77385">
        <ele>1476.4000244141</ele>
        <time>2026-07-07T10:40:20.000Z</time>
      </trkpt>
      <trkpt lat="46.21107" lon="6.77385">
        <ele>1476.4000244141</ele>
        <time>2026-07-07T10:40:25.000Z</time>
      </trkpt>
      <trkpt lat="46.21107" lon="6.77385">
        <ele>1476.4000244141</ele>
        <time>2026-07-07T10:40:28.000Z</time>
      </trkpt>
      <trkpt lat="46.21107" lon="6.77387">
        <ele>1476.1999511719</ele>
        <time>2026-07-07T10:40:33.000Z</time>
      </trkpt>
      <trkpt lat="46.21107" lon="6.77388">
        <ele>1476.1999511719</ele>
        <time>2026-07-07T10:40:37.000Z</time>
      </trkpt>
      <trkpt lat="46.21106" lon="6.77388">
        <ele>1476.1999511719</ele>
        <time>2026-07-07T10:40:45.000Z</time>
      </trkpt>
      <trkpt lat="46.21107" lon="6.77388">
        <ele>1476.4000244141</ele>
        <time>2026-07-07T10:40:54.000Z</time>
      </trkpt>
      <trkpt lat="46.21106" lon="6.77386">
        <ele>1476.4000244141</ele>
        <time>2026-07-07T10:41:07.000Z</time>
      </trkpt>
      <trkpt lat="46.21107" lon="6.77386">
        <ele>1476.8000488281</ele>
        <time>2026-07-07T10:41:18.000Z</time>
      </trkpt>
      <trkpt lat="46.21107" lon="6.77386">
        <ele>1476.8000488281</ele>
        <time>2026-07-07T10:41:21.000Z</time>
      </trkpt>
      <trkpt lat="46.21106" lon="6.77387">
        <ele>1476.8000488281</ele>
        <time>2026-07-07T10:41:34.000Z</time>
      </trkpt>
      <trkpt lat="46.21111" lon="6.77402">
        <ele>1477</ele>
        <time>2026-07-07T10:41:44.000Z</time>
      </trkpt>
      <trkpt lat="46.21114" lon="6.774">
        <ele>1477</ele>
        <time>2026-07-07T10:41:54.000Z</time>
      </trkpt>
      <trkpt lat="46.21114" lon="6.77406">
        <ele>1476.8000488281</ele>
        <time>2026-07-07T10:42:02.000Z</time>
      </trkpt>
      <trkpt lat="46.21112" lon="6.77404">
        <ele>1477</ele>
        <time>2026-07-07T10:42:13.000Z</time>
      </trkpt>
      <trkpt lat="46.2111" lon="6.774">
        <ele>1477.1999511719</ele>
        <time>2026-07-07T10:42:25.000Z</time>
      </trkpt>
      <trkpt lat="46.21108" lon="6.77395">
        <ele>1477.1999511719</ele>
        <time>2026-07-07T10:42:35.000Z</time>
      </trkpt>
      <trkpt lat="46.21109" lon="6.77397">
        <ele>1477.1999511719</ele>
        <time>2026-07-07T10:42:39.000Z</time>
      </trkpt>
      <trkpt lat="46.21109" lon="6.77397">
        <ele>1477.1999511719</ele>
        <time>2026-07-07T10:42:42.000Z</time>
      </trkpt>
      <trkpt lat="46.2111" lon="6.77395">
        <ele>1477.4000244141</ele>
        <time>2026-07-07T10:42:45.000Z</time>
      </trkpt>
      <trkpt lat="46.21109" lon="6.7739">
        <ele>1477.4000244141</ele>
        <time>2026-07-07T10:42:59.000Z</time>
      </trkpt>
      <trkpt lat="46.21108" lon="6.77389">
        <ele>1477</ele>
        <time>2026-07-07T10:43:09.000Z</time>
      </trkpt>
      <trkpt lat="46.21108" lon="6.77394">
        <ele>1477.1999511719</ele>
        <time>2026-07-07T10:43:17.000Z</time>
      </trkpt>
      <trkpt lat="46.21107" lon="6.77397">
        <ele>1476.5999755859</ele>
        <time>2026-07-07T10:43:26.000Z</time>
      </trkpt>
      <trkpt lat="46.21107" lon="6.77398">
        <ele>1476.5999755859</ele>
        <time>2026-07-07T10:43:27.000Z</time>
      </trkpt>
      <trkpt lat="46.21105" lon="6.77398">
        <ele>1476.8000488281</ele>
        <time>2026-07-07T10:43:39.000Z</time>
      </trkpt>
      <trkpt lat="46.21106" lon="6.77391">
        <ele>1477</ele>
        <time>2026-07-07T10:43:50.000Z</time>
      </trkpt>
      <trkpt lat="46.21108" lon="6.7739">
        <ele>1476.8000488281</ele>
        <time>2026-07-07T10:44:01.000Z</time>
      </trkpt>
      <trkpt lat="46.21107" lon="6.77391">
        <ele>1477</ele>
        <time>2026-07-07T10:44:13.000Z</time>
      </trkpt>
      <trkpt lat="46.21107" lon="6.77389">
        <ele>1476.8000488281</ele>
        <time>2026-07-07T10:44:20.000Z</time>
      </trkpt>
      <trkpt lat="46.21108" lon="6.77387">
        <ele>1476.8000488281</ele>
        <time>2026-07-07T10:44:30.000Z</time>
      </trkpt>
      <trkpt lat="46.21109" lon="6.7739">
        <ele>1477</ele>
        <time>2026-07-07T10:44:39.000Z</time>
      </trkpt>
      <trkpt lat="46.21107" lon="6.77389">
        <ele>1477.1999511719</ele>
        <time>2026-07-07T10:44:51.000Z</time>
      </trkpt>
      <trkpt lat="46.21106" lon="6.77385">
        <ele>1477.1999511719</ele>
        <time>2026-07-07T10:45:04.000Z</time>
      </trkpt>
      <trkpt lat="46.21108" lon="6.77385">
        <ele>1477.4000244141</ele>
        <time>2026-07-07T10:45:13.000Z</time>
      </trkpt>
      <trkpt lat="46.21108" lon="6.77386">
        <ele>1477.8000488281</ele>
        <time>2026-07-07T10:45:22.000Z</time>
      </trkpt>
      <trkpt lat="46.21108" lon="6.77386">
        <ele>1477.8000488281</ele>
        <time>2026-07-07T10:45:23.000Z</time>
      </trkpt>
      <trkpt lat="46.21108" lon="6.77387">
        <ele>1477.8000488281</ele>
        <time>2026-07-07T10:45:30.000Z</time>
      </trkpt>
      <trkpt lat="46.21108" lon="6.7739">
        <ele>1477.1999511719</ele>
        <time>2026-07-07T10:45:39.000Z</time>
      </trkpt>
      <trkpt lat="46.21109" lon="6.77394">
        <ele>1477</ele>
        <time>2026-07-07T10:45:43.000Z</time>
      </trkpt>
      <trkpt lat="46.21109" lon="6.77396">
        <ele>1477</ele>
        <time>2026-07-07T10:45:50.000Z</time>
      </trkpt>
      <trkpt lat="46.2111" lon="6.77397">
        <ele>1477</ele>
        <time>2026-07-07T10:45:58.000Z</time>
      </trkpt>
      <trkpt lat="46.21111" lon="6.77397">
        <ele>1477</ele>
        <time>2026-07-07T10:46:06.000Z</time>
      </trkpt>
      <trkpt lat="46.21108" lon="6.77391">
        <ele>1477</ele>
        <time>2026-07-07T10:46:15.000Z</time>
      </trkpt>
      <trkpt lat="46.21107" lon="6.77388">
        <ele>1476.8000488281</ele>
        <time>2026-07-07T10:46:22.000Z</time>
      </trkpt>
      <trkpt lat="46.21107" lon="6.77388">
        <ele>1476.8000488281</ele>
        <time>2026-07-07T10:46:23.000Z</time>
      </trkpt>
      <trkpt lat="46.21107" lon="6.77386">
        <ele>1476.5999755859</ele>
        <time>2026-07-07T10:46:29.000Z</time>
      </trkpt>
      <trkpt lat="46.21106" lon="6.77384">
        <ele>1476.5999755859</ele>
        <time>2026-07-07T10:46:39.000Z</time>
      </trkpt>
      <trkpt lat="46.21107" lon="6.77386">
        <ele>1476.5999755859</ele>
        <time>2026-07-07T10:46:47.000Z</time>
      </trkpt>
      <trkpt lat="46.21107" lon="6.77388">
        <ele>1476.8000488281</ele>
        <time>2026-07-07T10:46:54.000Z</time>
      </trkpt>
      <trkpt lat="46.21106" lon="6.77386">
        <ele>1476.8000488281</ele>
        <time>2026-07-07T10:47:02.000Z</time>
      </trkpt>
      <trkpt lat="46.2111" lon="6.77386">
        <ele>1476.8000488281</ele>
        <time>2026-07-07T10:47:14.000Z</time>
      </trkpt>
      <trkpt lat="46.21109" lon="6.77382">
        <ele>1476.8000488281</ele>
        <time>2026-07-07T10:47:21.000Z</time>
      </trkpt>
      <trkpt lat="46.21107" lon="6.77383">
        <ele>1476.8000488281</ele>
        <time>2026-07-07T10:47:34.000Z</time>
      </trkpt>
      <trkpt lat="46.21106" lon="6.77382">
        <ele>1477</ele>
        <time>2026-07-07T10:47:45.000Z</time>
      </trkpt>
      <trkpt lat="46.21104" lon="6.77383">
        <ele>1477</ele>
        <time>2026-07-07T10:47:56.000Z</time>
      </trkpt>
      <trkpt lat="46.21106" lon="6.77386">
        <ele>1477</ele>
        <time>2026-07-07T10:48:07.000Z</time>
      </trkpt>
      <trkpt lat="46.21106" lon="6.77385">
        <ele>1477</ele>
        <time>2026-07-07T10:48:14.000Z</time>
      </trkpt>
      <trkpt lat="46.21106" lon="6.77386">
        <ele>1477</ele>
        <time>2026-07-07T10:48:24.000Z</time>
      </trkpt>
      <trkpt lat="46.21107" lon="6.77386">
        <ele>1477</ele>
        <time>2026-07-07T10:48:25.000Z</time>
      </trkpt>
      <trkpt lat="46.21107" lon="6.77387">
        <ele>1476.8000488281</ele>
        <time>2026-07-07T10:48:33.000Z</time>
      </trkpt>
      <trkpt lat="46.21107" lon="6.77388">
        <ele>1477</ele>
        <time>2026-07-07T10:48:40.000Z</time>
      </trkpt>
      <trkpt lat="46.21109" lon="6.7739">
        <ele>1477</ele>
        <time>2026-07-07T10:48:48.000Z</time>
      </trkpt>
      <trkpt lat="46.21109" lon="6.77391">
        <ele>1477</ele>
        <time>2026-07-07T10:48:57.000Z</time>
      </trkpt>
      <trkpt lat="46.21109" lon="6.77389">
        <ele>1477</ele>
        <time>2026-07-07T10:49:05.000Z</time>
      </trkpt>
      <trkpt lat="46.21108" lon="6.77385">
        <ele>1477.1999511719</ele>
        <time>2026-07-07T10:49:14.000Z</time>
      </trkpt>
      <trkpt lat="46.21108" lon="6.77384">
        <ele>1477</ele>
        <time>2026-07-07T10:49:28.000Z</time>
      </trkpt>
      <trkpt lat="46.21108" lon="6.77389">
        <ele>1476.8000488281</ele>
        <time>2026-07-07T10:49:34.000Z</time>
      </trkpt>
      <trkpt lat="46.21108" lon="6.77388">
        <ele>1476.8000488281</ele>
        <time>2026-07-07T10:49:44.000Z</time>
      </trkpt>
      <trkpt lat="46.21108" lon="6.7739">
        <ele>1476.8000488281</ele>
        <time>2026-07-07T10:49:53.000Z</time>
      </trkpt>
      <trkpt lat="46.21108" lon="6.77392">
        <ele>1476.5999755859</ele>
        <time>2026-07-07T10:50:04.000Z</time>
      </trkpt>
      <trkpt lat="46.21107" lon="6.77392">
        <ele>1476.8000488281</ele>
        <time>2026-07-07T10:50:16.000Z</time>
      </trkpt>
      <trkpt lat="46.21107" lon="6.77395">
        <ele>1476.8000488281</ele>
        <time>2026-07-07T10:50:26.000Z</time>
      </trkpt>
      <trkpt lat="46.21108" lon="6.77395">
        <ele>1476.8000488281</ele>
        <time>2026-07-07T10:50:35.000Z</time>
      </trkpt>
      <trkpt lat="46.21109" lon="6.77396">
        <ele>1477</ele>
        <time>2026-07-07T10:50:46.000Z</time>
      </trkpt>
      <trkpt lat="46.21109" lon="6.77398">
        <ele>1476.8000488281</ele>
        <time>2026-07-07T10:50:56.000Z</time>
      </trkpt>
      <trkpt lat="46.21107" lon="6.77395">
        <ele>1476.8000488281</ele>
        <time>2026-07-07T10:51:07.000Z</time>
      </trkpt>
      <trkpt lat="46.21106" lon="6.77392">
        <ele>1477</ele>
        <time>2026-07-07T10:51:17.000Z</time>
      </trkpt>
      <trkpt lat="46.21105" lon="6.77388">
        <ele>1477</ele>
        <time>2026-07-07T10:51:29.000Z</time>
      </trkpt>
      <trkpt lat="46.21105" lon="6.77383">
        <ele>1477</ele>
        <time>2026-07-07T10:51:38.000Z</time>
      </trkpt>
      <trkpt lat="46.21106" lon="6.77385">
        <ele>1476.8000488281</ele>
        <time>2026-07-07T10:51:44.000Z</time>
      </trkpt>
      <trkpt lat="46.21107" lon="6.77385">
        <ele>1476.8000488281</ele>
        <time>2026-07-07T10:51:49.000Z</time>
      </trkpt>
      <trkpt lat="46.21108" lon="6.7739">
        <ele>1476.5999755859</ele>
        <time>2026-07-07T10:52:02.000Z</time>
      </trkpt>
      <trkpt lat="46.21108" lon="6.77388">
        <ele>1476.5999755859</ele>
        <time>2026-07-07T10:52:14.000Z</time>
      </trkpt>
      <trkpt lat="46.21108" lon="6.77388">
        <ele>1476.5999755859</ele>
        <time>2026-07-07T10:52:23.000Z</time>
      </trkpt>
      <trkpt lat="46.21107" lon="6.77391">
        <ele>1476.8000488281</ele>
        <time>2026-07-07T10:52:32.000Z</time>
      </trkpt>
      <trkpt lat="46.21108" lon="6.77394">
        <ele>1477</ele>
        <time>2026-07-07T10:52:42.000Z</time>
      </trkpt>
      <trkpt lat="46.21107" lon="6.77389">
        <ele>1477</ele>
        <time>2026-07-07T10:52:52.000Z</time>
      </trkpt>
      <trkpt lat="46.21107" lon="6.77387">
        <ele>1477.1999511719</ele>
        <time>2026-07-07T10:53:01.000Z</time>
      </trkpt>
      <trkpt lat="46.21107" lon="6.77386">
        <ele>1477.1999511719</ele>
        <time>2026-07-07T10:53:09.000Z</time>
      </trkpt>
      <trkpt lat="46.21106" lon="6.77383">
        <ele>1477.1999511719</ele>
        <time>2026-07-07T10:53:20.000Z</time>
      </trkpt>
      <trkpt lat="46.21108" lon="6.77384">
        <ele>1477.1999511719</ele>
        <time>2026-07-07T10:53:29.000Z</time>
      </trkpt>
      <trkpt lat="46.21108" lon="6.77383">
        <ele>1477</ele>
        <time>2026-07-07T10:53:38.000Z</time>
      </trkpt>
      <trkpt lat="46.21106" lon="6.77382">
        <ele>1477</ele>
        <time>2026-07-07T10:53:46.000Z</time>
      </trkpt>
      <trkpt lat="46.21106" lon="6.77386">
        <ele>1476.8000488281</ele>
        <time>2026-07-07T10:53:53.000Z</time>
      </trkpt>
      <trkpt lat="46.21106" lon="6.77388">
        <ele>1477</ele>
        <time>2026-07-07T10:54:05.000Z</time>
      </trkpt>
      <trkpt lat="46.21108" lon="6.77387">
        <ele>1477.1999511719</ele>
        <time>2026-07-07T10:54:19.000Z</time>
      </trkpt>
      <trkpt lat="46.21108" lon="6.77385">
        <ele>1476.8000488281</ele>
        <time>2026-07-07T10:54:26.000Z</time>
      </trkpt>
      <trkpt lat="46.21107" lon="6.77385">
        <ele>1477</ele>
        <time>2026-07-07T10:54:35.000Z</time>
      </trkpt>
      <trkpt lat="46.21106" lon="6.77389">
        <ele>1477.1999511719</ele>
        <time>2026-07-07T10:54:48.000Z</time>
      </trkpt>
      <trkpt lat="46.21106" lon="6.77386">
        <ele>1477.1999511719</ele>
        <time>2026-07-07T10:54:59.000Z</time>
      </trkpt>
      <trkpt lat="46.21107" lon="6.77389">
        <ele>1477.4000244141</ele>
        <time>2026-07-07T10:55:09.000Z</time>
      </trkpt>
      <trkpt lat="46.2111" lon="6.77396">
        <ele>1477.1999511719</ele>
        <time>2026-07-07T10:55:21.000Z</time>
      </trkpt>
      <trkpt lat="46.21109" lon="6.77399">
        <ele>1477.1999511719</ele>
        <time>2026-07-07T10:55:30.000Z</time>
      </trkpt>
      <trkpt lat="46.21108" lon="6.77398">
        <ele>1477.4000244141</ele>
        <time>2026-07-07T10:55:39.000Z</time>
      </trkpt>
      <trkpt lat="46.21107" lon="6.77398">
        <ele>1477.4000244141</ele>
        <time>2026-07-07T10:55:48.000Z</time>
      </trkpt>
      <trkpt lat="46.21106" lon="6.77396">
        <ele>1477.4000244141</ele>
        <time>2026-07-07T10:56:02.000Z</time>
      </trkpt>
      <trkpt lat="46.21106" lon="6.77393">
        <ele>1477.1999511719</ele>
        <time>2026-07-07T10:56:13.000Z</time>
      </trkpt>
      <trkpt lat="46.21106" lon="6.77391">
        <ele>1477.4000244141</ele>
        <time>2026-07-07T10:56:24.000Z</time>
      </trkpt>
      <trkpt lat="46.21108" lon="6.77389">
        <ele>1477.4000244141</ele>
        <time>2026-07-07T10:56:36.000Z</time>
      </trkpt>
      <trkpt lat="46.2111" lon="6.77389">
        <ele>1477.4000244141</ele>
        <time>2026-07-07T10:56:48.000Z</time>
      </trkpt>
      <trkpt lat="46.2111" lon="6.77389">
        <ele>1477.4000244141</ele>
        <time>2026-07-07T10:57:02.000Z</time>
      </trkpt>
      <trkpt lat="46.21107" lon="6.77392">
        <ele>1477.5999755859</ele>
        <time>2026-07-07T10:57:12.000Z</time>
      </trkpt>
      <trkpt lat="46.21106" lon="6.77392">
        <ele>1477.5999755859</ele>
        <time>2026-07-07T10:57:24.000Z</time>
      </trkpt>
      <trkpt lat="46.21106" lon="6.77393">
        <ele>1477.5999755859</ele>
        <time>2026-07-07T10:57:38.000Z</time>
      </trkpt>
      <trkpt lat="46.21107" lon="6.77395">
        <ele>1477.5999755859</ele>
        <time>2026-07-07T10:57:49.000Z</time>
      </trkpt>
      <trkpt lat="46.2111" lon="6.77397">
        <ele>1477.5999755859</ele>
        <time>2026-07-07T10:58:02.000Z</time>
      </trkpt>
      <trkpt lat="46.21108" lon="6.77397">
        <ele>1477.5999755859</ele>
        <time>2026-07-07T10:58:11.000Z</time>
      </trkpt>
      <trkpt lat="46.21107" lon="6.77397">
        <ele>1477.5999755859</ele>
        <time>2026-07-07T10:58:22.000Z</time>
      </trkpt>
      <trkpt lat="46.21107" lon="6.77395">
        <ele>1477.5999755859</ele>
        <time>2026-07-07T10:58:31.000Z</time>
      </trkpt>
      <trkpt lat="46.21107" lon="6.77391">
        <ele>1477.5999755859</ele>
        <time>2026-07-07T10:58:42.000Z</time>
      </trkpt>
      <trkpt lat="46.2111" lon="6.77392">
        <ele>1477.4000244141</ele>
        <time>2026-07-07T10:58:55.000Z</time>
      </trkpt>
      <trkpt lat="46.21112" lon="6.77396">
        <ele>1477.5999755859</ele>
        <time>2026-07-07T10:59:06.000Z</time>
      </trkpt>
      <trkpt lat="46.21109" lon="6.77393">
        <ele>1477.5999755859</ele>
        <time>2026-07-07T10:59:15.000Z</time>
      </trkpt>
      <trkpt lat="46.21109" lon="6.77389">
        <ele>1477.5999755859</ele>
        <time>2026-07-07T10:59:24.000Z</time>
      </trkpt>
      <trkpt lat="46.21109" lon="6.7739">
        <ele>1477.5999755859</ele>
        <time>2026-07-07T10:59:36.000Z</time>
      </trkpt>
      <trkpt lat="46.2111" lon="6.7739">
        <ele>1477.5999755859</ele>
        <time>2026-07-07T10:59:47.000Z</time>
      </trkpt>
      <trkpt lat="46.2111" lon="6.77387">
        <ele>1477.8000488281</ele>
        <time>2026-07-07T10:59:57.000Z</time>
      </trkpt>
      <trkpt lat="46.2111" lon="6.7739">
        <ele>1477.8000488281</ele>
        <time>2026-07-07T11:00:02.000Z</time>
      </trkpt>
      <trkpt lat="46.21109" lon="6.77389">
        <ele>1477.5999755859</ele>
        <time>2026-07-07T11:00:11.000Z</time>
      </trkpt>
      <trkpt lat="46.2111" lon="6.77385">
        <ele>1477.5999755859</ele>
        <time>2026-07-07T11:00:22.000Z</time>
      </trkpt>
      <trkpt lat="46.21111" lon="6.77388">
        <ele>1477.5999755859</ele>
        <time>2026-07-07T11:00:32.000Z</time>
      </trkpt>
      <trkpt lat="46.21106" lon="6.77381">
        <ele>1477.5999755859</ele>
        <time>2026-07-07T11:00:41.000Z</time>
      </trkpt>
      <trkpt lat="46.21106" lon="6.77383">
        <ele>1477.8000488281</ele>
        <time>2026-07-07T11:00:51.000Z</time>
      </trkpt>
      <trkpt lat="46.21106" lon="6.77386">
        <ele>1477.8000488281</ele>
        <time>2026-07-07T11:01:01.000Z</time>
      </trkpt>
      <trkpt lat="46.21106" lon="6.77386">
        <ele>1477.8000488281</ele>
        <time>2026-07-07T11:01:02.000Z</time>
      </trkpt>
      <trkpt lat="46.21107" lon="6.77387">
        <ele>1477.8000488281</ele>
        <time>2026-07-07T11:01:11.000Z</time>
      </trkpt>
      <trkpt lat="46.21113" lon="6.77386">
        <ele>1477.8000488281</ele>
        <time>2026-07-07T11:01:24.000Z</time>
      </trkpt>
      <trkpt lat="46.21115" lon="6.77383">
        <ele>1477.8000488281</ele>
        <time>2026-07-07T11:01:37.000Z</time>
      </trkpt>
      <trkpt lat="46.21112" lon="6.77393">
        <ele>1477.5999755859</ele>
        <time>2026-07-07T11:01:43.000Z</time>
      </trkpt>
      <trkpt lat="46.21112" lon="6.77394">
        <ele>1477.5999755859</ele>
        <time>2026-07-07T11:01:52.000Z</time>
      </trkpt>
      <trkpt lat="46.21111" lon="6.77392">
        <ele>1477.4000244141</ele>
        <time>2026-07-07T11:02:02.000Z</time>
      </trkpt>
      <trkpt lat="46.2111" lon="6.77392">
        <ele>1477.4000244141</ele>
        <time>2026-07-07T11:02:12.000Z</time>
      </trkpt>
      <trkpt lat="46.2111" lon="6.77394">
        <ele>1477.5999755859</ele>
        <time>2026-07-07T11:02:20.000Z</time>
      </trkpt>
      <trkpt lat="46.21109" lon="6.77388">
        <ele>1477.5999755859</ele>
        <time>2026-07-07T11:02:30.000Z</time>
      </trkpt>
      <trkpt lat="46.21109" lon="6.77389">
        <ele>1477.4000244141</ele>
        <time>2026-07-07T11:02:43.000Z</time>
      </trkpt>
      <trkpt lat="46.21109" lon="6.77388">
        <ele>1477.4000244141</ele>
        <time>2026-07-07T11:02:55.000Z</time>
      </trkpt>
      <trkpt lat="46.21108" lon="6.77387">
        <ele>1477.4000244141</ele>
        <time>2026-07-07T11:03:04.000Z</time>
      </trkpt>
      <trkpt lat="46.21111" lon="6.77386">
        <ele>1477.4000244141</ele>
        <time>2026-07-07T11:03:13.000Z</time>
      </trkpt>
      <trkpt lat="46.2111" lon="6.77377">
        <ele>1477.4000244141</ele>
        <time>2026-07-07T11:03:30.000Z</time>
      </trkpt>
      <trkpt lat="46.21109" lon="6.7738">
        <ele>1477.1999511719</ele>
        <time>2026-07-07T11:03:41.000Z</time>
      </trkpt>
      <trkpt lat="46.21108" lon="6.77385">
        <ele>1477</ele>
        <time>2026-07-07T11:03:47.000Z</time>
      </trkpt>
      <trkpt lat="46.21108" lon="6.77387">
        <ele>1477.1999511719</ele>
        <time>2026-07-07T11:03:51.000Z</time>
      </trkpt>
      <trkpt lat="46.21108" lon="6.77387">
        <ele>1477.1999511719</ele>
        <time>2026-07-07T11:03:52.000Z</time>
      </trkpt>
      <trkpt lat="46.21108" lon="6.77387">
        <ele>1477.4000244141</ele>
        <time>2026-07-07T11:04:06.000Z</time>
      </trkpt>
      <trkpt lat="46.21108" lon="6.77389">
        <ele>1477.1999511719</ele>
        <time>2026-07-07T11:04:12.000Z</time>
      </trkpt>
      <trkpt lat="46.21109" lon="6.7739">
        <ele>1477.1999511719</ele>
        <time>2026-07-07T11:04:17.000Z</time>
      </trkpt>
      <trkpt lat="46.21109" lon="6.7739">
        <ele>1477.1999511719</ele>
        <time>2026-07-07T11:04:23.000Z</time>
      </trkpt>
      <trkpt lat="46.21108" lon="6.77394">
        <ele>1477.1999511719</ele>
        <time>2026-07-07T11:04:31.000Z</time>
      </trkpt>
      <trkpt lat="46.21096" lon="6.77369">
        <ele>1477.4000244141</ele>
        <time>2026-07-07T11:04:45.000Z</time>
      </trkpt>
      <trkpt lat="46.21107" lon="6.77385">
        <ele>1477.5999755859</ele>
        <time>2026-07-07T11:05:00.000Z</time>
      </trkpt>
      <trkpt lat="46.21107" lon="6.77385">
        <ele>1477.4000244141</ele>
        <time>2026-07-07T11:05:11.000Z</time>
      </trkpt>
      <trkpt lat="46.21106" lon="6.77384">
        <ele>1477.4000244141</ele>
        <time>2026-07-07T11:05:12.000Z</time>
      </trkpt>
      <trkpt lat="46.21107" lon="6.77383">
        <ele>1477.4000244141</ele>
        <time>2026-07-07T11:05:19.000Z</time>
      </trkpt>
      <trkpt lat="46.21108" lon="6.77385">
        <ele>1477.1999511719</ele>
        <time>2026-07-07T11:05:30.000Z</time>
      </trkpt>
      <trkpt lat="46.21107" lon="6.77383">
        <ele>1477</ele>
        <time>2026-07-07T11:05:38.000Z</time>
      </trkpt>
      <trkpt lat="46.21106" lon="6.77382">
        <ele>1477</ele>
        <time>2026-07-07T11:05:47.000Z</time>
      </trkpt>
      <trkpt lat="46.21107" lon="6.7738">
        <ele>1477.1999511719</ele>
        <time>2026-07-07T11:05:55.000Z</time>
      </trkpt>
      <trkpt lat="46.21107" lon="6.77383">
        <ele>1477.1999511719</ele>
        <time>2026-07-07T11:06:00.000Z</time>
      </trkpt>
      <trkpt lat="46.21106" lon="6.77385">
        <ele>1476.8000488281</ele>
        <time>2026-07-07T11:06:11.000Z</time>
      </trkpt>
      <trkpt lat="46.21105" lon="6.77383">
        <ele>1477</ele>
        <time>2026-07-07T11:06:14.000Z</time>
      </trkpt>
      <trkpt lat="46.21104" lon="6.77383">
        <ele>1477</ele>
        <time>2026-07-07T11:06:17.000Z</time>
      </trkpt>
      <trkpt lat="46.21104" lon="6.77383">
        <ele>1477</ele>
        <time>2026-07-07T11:06:18.000Z</time>
      </trkpt>
      <trkpt lat="46.21103" lon="6.77384">
        <ele>1477</ele>
        <time>2026-07-07T11:06:20.000Z</time>
      </trkpt>
      <trkpt lat="46.21097" lon="6.77387">
        <ele>1477.1999511719</ele>
        <time>2026-07-07T11:06:26.000Z</time>
      </trkpt>
      <trkpt lat="46.21093" lon="6.7739">
        <ele>1477.5999755859</ele>
        <time>2026-07-07T11:06:32.000Z</time>
      </trkpt>
      <trkpt lat="46.21091" lon="6.77395">
        <ele>1478</ele>
        <time>2026-07-07T11:06:36.000Z</time>
      </trkpt>
      <trkpt lat="46.2109" lon="6.77397">
        <ele>1478</ele>
        <time>2026-07-07T11:06:38.000Z</time>
      </trkpt>
      <trkpt lat="46.21088" lon="6.77398">
        <ele>1478.1999511719</ele>
        <time>2026-07-07T11:06:40.000Z</time>
      </trkpt>
      <trkpt lat="46.21086" lon="6.77401">
        <ele>1478.4000244141</ele>
        <time>2026-07-07T11:06:45.000Z</time>
      </trkpt>
      <trkpt lat="46.2108" lon="6.77407">
        <ele>1478.8000488281</ele>
        <time>2026-07-07T11:06:52.000Z</time>
      </trkpt>
      <trkpt lat="46.21079" lon="6.77408">
        <ele>1479</ele>
        <time>2026-07-07T11:06:53.000Z</time>
      </trkpt>
      <trkpt lat="46.21077" lon="6.77409">
        <ele>1479.1999511719</ele>
        <time>2026-07-07T11:06:55.000Z</time>
      </trkpt>
      <trkpt lat="46.2107" lon="6.77416">
        <ele>1479.4000244141</ele>
        <time>2026-07-07T11:07:03.000Z</time>
      </trkpt>
      <trkpt lat="46.21063" lon="6.77419">
        <ele>1479.8000488281</ele>
        <time>2026-07-07T11:07:10.000Z</time>
      </trkpt>
      <trkpt lat="46.21061" lon="6.7742">
        <ele>1479.8000488281</ele>
        <time>2026-07-07T11:07:12.000Z</time>
      </trkpt>
      <trkpt lat="46.21058" lon="6.77421">
        <ele>1480.1999511719</ele>
        <time>2026-07-07T11:07:16.000Z</time>
      </trkpt>
      <trkpt lat="46.21052" lon="6.77425">
        <ele>1480.5999755859</ele>
        <time>2026-07-07T11:07:21.000Z</time>
      </trkpt>
      <trkpt lat="46.21047" lon="6.77428">
        <ele>1481</ele>
        <time>2026-07-07T11:07:25.000Z</time>
      </trkpt>
      <trkpt lat="46.21043" lon="6.77429">
        <ele>1481.4000244141</ele>
        <time>2026-07-07T11:07:28.000Z</time>
      </trkpt>
      <trkpt lat="46.21037" lon="6.77433">
        <ele>1482</ele>
        <time>2026-07-07T11:07:35.000Z</time>
      </trkpt>
      <trkpt lat="46.21036" lon="6.77433">
        <ele>1482</ele>
        <time>2026-07-07T11:07:36.000Z</time>
      </trkpt>
      <trkpt lat="46.21028" lon="6.77436">
        <ele>1482.5999755859</ele>
        <time>2026-07-07T11:07:43.000Z</time>
      </trkpt>
      <trkpt lat="46.21023" lon="6.77438">
        <ele>1483</ele>
        <time>2026-07-07T11:07:47.000Z</time>
      </trkpt>
      <trkpt lat="46.21018" lon="6.7744">
        <ele>1483.4000244141</ele>
        <time>2026-07-07T11:07:51.000Z</time>
      </trkpt>
      <trkpt lat="46.21012" lon="6.77441">
        <ele>1484</ele>
        <time>2026-07-07T11:07:57.000Z</time>
      </trkpt>
      <trkpt lat="46.2101" lon="6.77441">
        <ele>1484.1999511719</ele>
        <time>2026-07-07T11:07:58.000Z</time>
      </trkpt>
      <trkpt lat="46.21001" lon="6.77443">
        <ele>1485</ele>
        <time>2026-07-07T11:08:07.000Z</time>
      </trkpt>
      <trkpt lat="46.20999" lon="6.77443">
        <ele>1485</ele>
        <time>2026-07-07T11:08:08.000Z</time>
      </trkpt>
      <trkpt lat="46.20989" lon="6.77443">
        <ele>1486.1999511719</ele>
        <time>2026-07-07T11:08:17.000Z</time>
      </trkpt>
      <trkpt lat="46.2098" lon="6.77441">
        <ele>1487</ele>
        <time>2026-07-07T11:08:24.000Z</time>
      </trkpt>
      <trkpt lat="46.20979" lon="6.77441">
        <ele>1487</ele>
        <time>2026-07-07T11:08:26.000Z</time>
      </trkpt>
      <trkpt lat="46.20978" lon="6.77441">
        <ele>1487.1999511719</ele>
        <time>2026-07-07T11:08:27.000Z</time>
      </trkpt>
      <trkpt lat="46.20969" lon="6.77442">
        <ele>1487.8000488281</ele>
        <time>2026-07-07T11:08:34.000Z</time>
      </trkpt>
      <trkpt lat="46.20966" lon="6.77447">
        <ele>1488.1999511719</ele>
        <time>2026-07-07T11:08:38.000Z</time>
      </trkpt>
      <trkpt lat="46.20965" lon="6.77449">
        <ele>1488.5999755859</ele>
        <time>2026-07-07T11:08:40.000Z</time>
      </trkpt>
      <trkpt lat="46.20959" lon="6.77453">
        <ele>1489.4000244141</ele>
        <time>2026-07-07T11:08:45.000Z</time>
      </trkpt>
      <trkpt lat="46.20956" lon="6.77454">
        <ele>1489.8000488281</ele>
        <time>2026-07-07T11:08:48.000Z</time>
      </trkpt>
      <trkpt lat="46.20953" lon="6.77457">
        <ele>1490.4000244141</ele>
        <time>2026-07-07T11:08:52.000Z</time>
      </trkpt>
      <trkpt lat="46.20949" lon="6.7746">
        <ele>1491</ele>
        <time>2026-07-07T11:08:56.000Z</time>
      </trkpt>
      <trkpt lat="46.20943" lon="6.77464">
        <ele>1491.4000244141</ele>
        <time>2026-07-07T11:09:02.000Z</time>
      </trkpt>
      <trkpt lat="46.20942" lon="6.77465">
        <ele>1491.4000244141</ele>
        <time>2026-07-07T11:09:03.000Z</time>
      </trkpt>
      <trkpt lat="46.20936" lon="6.7747">
        <ele>1492.1999511719</ele>
        <time>2026-07-07T11:09:10.000Z</time>
      </trkpt>
      <trkpt lat="46.20935" lon="6.7747">
        <ele>1492.4000244141</ele>
        <time>2026-07-07T11:09:13.000Z</time>
      </trkpt>
      <trkpt lat="46.20935" lon="6.77471">
        <ele>1492.5999755859</ele>
        <time>2026-07-07T11:09:15.000Z</time>
      </trkpt>
      <trkpt lat="46.20935" lon="6.77472">
        <ele>1492.5999755859</ele>
        <time>2026-07-07T11:09:17.000Z</time>
      </trkpt>
      <trkpt lat="46.20931" lon="6.77479">
        <ele>1493</ele>
        <time>2026-07-07T11:09:24.000Z</time>
      </trkpt>
      <trkpt lat="46.20928" lon="6.77483">
        <ele>1493.4000244141</ele>
        <time>2026-07-07T11:09:28.000Z</time>
      </trkpt>
      <trkpt lat="46.20925" lon="6.77484">
        <ele>1493.8000488281</ele>
        <time>2026-07-07T11:09:31.000Z</time>
      </trkpt>
      <trkpt lat="46.20919" lon="6.77485">
        <ele>1494.5999755859</ele>
        <time>2026-07-07T11:09:38.000Z</time>
      </trkpt>
      <trkpt lat="46.20917" lon="6.77487">
        <ele>1494.8000488281</ele>
        <time>2026-07-07T11:09:40.000Z</time>
      </trkpt>
      <trkpt lat="46.20912" lon="6.77497">
        <ele>1495.5999755859</ele>
        <time>2026-07-07T11:09:47.000Z</time>
      </trkpt>
      <trkpt lat="46.20911" lon="6.77498">
        <ele>1496</ele>
        <time>2026-07-07T11:09:55.000Z</time>
      </trkpt>
      <trkpt lat="46.20911" lon="6.77508">
        <ele>1496.4000244141</ele>
        <time>2026-07-07T11:10:02.000Z</time>
      </trkpt>
      <trkpt lat="46.20911" lon="6.77512">
        <ele>1496.8000488281</ele>
        <time>2026-07-07T11:10:04.000Z</time>
      </trkpt>
      <trkpt lat="46.20911" lon="6.77523">
        <ele>1497.5999755859</ele>
        <time>2026-07-07T11:10:10.000Z</time>
      </trkpt>
      <trkpt lat="46.20909" lon="6.77526">
        <ele>1498</ele>
        <time>2026-07-07T11:10:12.000Z</time>
      </trkpt>
      <trkpt lat="46.20904" lon="6.77534">
        <ele>1498.5999755859</ele>
        <time>2026-07-07T11:10:18.000Z</time>
      </trkpt>
      <trkpt lat="46.20902" lon="6.77536">
        <ele>1499</ele>
        <time>2026-07-07T11:10:20.000Z</time>
      </trkpt>
      <trkpt lat="46.20894" lon="6.77544">
        <ele>1500</ele>
        <time>2026-07-07T11:10:27.000Z</time>
      </trkpt>
      <trkpt lat="46.2089" lon="6.77546">
        <ele>1500.4000244141</ele>
        <time>2026-07-07T11:10:31.000Z</time>
      </trkpt>
      <trkpt lat="46.20881" lon="6.7755">
        <ele>1501</ele>
        <time>2026-07-07T11:10:38.000Z</time>
      </trkpt>
      <trkpt lat="46.20878" lon="6.77551">
        <ele>1501.1999511719</ele>
        <time>2026-07-07T11:10:40.000Z</time>
      </trkpt>
      <trkpt lat="46.20868" lon="6.77559">
        <ele>1502</ele>
        <time>2026-07-07T11:10:49.000Z</time>
      </trkpt>
      <trkpt lat="46.2086" lon="6.77568">
        <ele>1502</ele>
        <time>2026-07-07T11:10:57.000Z</time>
      </trkpt>
      <trkpt lat="46.20855" lon="6.7758">
        <ele>1501.8000488281</ele>
        <time>2026-07-07T11:11:05.000Z</time>
      </trkpt>
      <trkpt lat="46.2085" lon="6.77594">
        <ele>1501.4000244141</ele>
        <time>2026-07-07T11:11:13.000Z</time>
      </trkpt>
      <trkpt lat="46.20847" lon="6.77609">
        <ele>1501</ele>
        <time>2026-07-07T11:11:21.000Z</time>
      </trkpt>
      <trkpt lat="46.20842" lon="6.77622">
        <ele>1501</ele>
        <time>2026-07-07T11:11:28.000Z</time>
      </trkpt>
      <trkpt lat="46.2084" lon="6.77635">
        <ele>1501.4000244141</ele>
        <time>2026-07-07T11:11:36.000Z</time>
      </trkpt>
      <trkpt lat="46.20838" lon="6.77646">
        <ele>1501.5999755859</ele>
        <time>2026-07-07T11:11:41.000Z</time>
      </trkpt>
      <trkpt lat="46.20836" lon="6.7765">
        <ele>1501.5999755859</ele>
        <time>2026-07-07T11:11:43.000Z</time>
      </trkpt>
      <trkpt lat="46.20834" lon="6.77654">
        <ele>1501.8000488281</ele>
        <time>2026-07-07T11:11:45.000Z</time>
      </trkpt>
      <trkpt lat="46.2083" lon="6.77661">
        <ele>1502</ele>
        <time>2026-07-07T11:11:49.000Z</time>
      </trkpt>
      <trkpt lat="46.20828" lon="6.77664">
        <ele>1502</ele>
        <time>2026-07-07T11:11:51.000Z</time>
      </trkpt>
      <trkpt lat="46.20826" lon="6.7767">
        <ele>1502.4000244141</ele>
        <time>2026-07-07T11:11:55.000Z</time>
      </trkpt>
      <trkpt lat="46.2082" lon="6.77678">
        <ele>1502.4000244141</ele>
        <time>2026-07-07T11:12:01.000Z</time>
      </trkpt>
      <trkpt lat="46.20816" lon="6.77688">
        <ele>1502.5999755859</ele>
        <time>2026-07-07T11:12:08.000Z</time>
      </trkpt>
      <trkpt lat="46.20814" lon="6.77694">
        <ele>1502.8000488281</ele>
        <time>2026-07-07T11:12:12.000Z</time>
      </trkpt>
      <trkpt lat="46.20811" lon="6.77704">
        <ele>1503.1999511719</ele>
        <time>2026-07-07T11:12:18.000Z</time>
      </trkpt>
      <trkpt lat="46.2081" lon="6.77705">
        <ele>1503.1999511719</ele>
        <time>2026-07-07T11:12:19.000Z</time>
      </trkpt>
      <trkpt lat="46.20804" lon="6.77722">
        <ele>1504</ele>
        <time>2026-07-07T11:12:29.000Z</time>
      </trkpt>
      <trkpt lat="46.20801" lon="6.7773">
        <ele>1504.1999511719</ele>
        <time>2026-07-07T11:12:34.000Z</time>
      </trkpt>
      <trkpt lat="46.20801" lon="6.77732">
        <ele>1504.4000244141</ele>
        <time>2026-07-07T11:12:35.000Z</time>
      </trkpt>
      <trkpt lat="46.20796" lon="6.77744">
        <ele>1505.1999511719</ele>
        <time>2026-07-07T11:12:42.000Z</time>
      </trkpt>
      <trkpt lat="46.20796" lon="6.77745">
        <ele>1505.1999511719</ele>
        <time>2026-07-07T11:12:43.000Z</time>
      </trkpt>
      <trkpt lat="46.20795" lon="6.77747">
        <ele>1505.4000244141</ele>
        <time>2026-07-07T11:12:44.000Z</time>
      </trkpt>
      <trkpt lat="46.20795" lon="6.77752">
        <ele>1505.5999755859</ele>
        <time>2026-07-07T11:12:47.000Z</time>
      </trkpt>
      <trkpt lat="46.20795" lon="6.77755">
        <ele>1505.8000488281</ele>
        <time>2026-07-07T11:12:49.000Z</time>
      </trkpt>
      <trkpt lat="46.20796" lon="6.77757">
        <ele>1505.8000488281</ele>
        <time>2026-07-07T11:12:50.000Z</time>
      </trkpt>
      <trkpt lat="46.20797" lon="6.7776">
        <ele>1506.1999511719</ele>
        <time>2026-07-07T11:12:53.000Z</time>
      </trkpt>
      <trkpt lat="46.20798" lon="6.77762">
        <ele>1506.4000244141</ele>
        <time>2026-07-07T11:12:55.000Z</time>
      </trkpt>
      <trkpt lat="46.20799" lon="6.77769">
        <ele>1507.5999755859</ele>
        <time>2026-07-07T11:12:59.000Z</time>
      </trkpt>
      <trkpt lat="46.20799" lon="6.77773">
        <ele>1508.1999511719</ele>
        <time>2026-07-07T11:13:01.000Z</time>
      </trkpt>
      <trkpt lat="46.20799" lon="6.77777">
        <ele>1508.8000488281</ele>
        <time>2026-07-07T11:13:03.000Z</time>
      </trkpt>
      <trkpt lat="46.20797" lon="6.77781">
        <ele>1509.5999755859</ele>
        <time>2026-07-07T11:13:07.000Z</time>
      </trkpt>
      <trkpt lat="46.20796" lon="6.77782">
        <ele>1509.8000488281</ele>
        <time>2026-07-07T11:13:08.000Z</time>
      </trkpt>
      <trkpt lat="46.20794" lon="6.77788">
        <ele>1510.8000488281</ele>
        <time>2026-07-07T11:13:13.000Z</time>
      </trkpt>
      <trkpt lat="46.20793" lon="6.77791">
        <ele>1511.1999511719</ele>
        <time>2026-07-07T11:13:15.000Z</time>
      </trkpt>
      <trkpt lat="46.20791" lon="6.77798">
        <ele>1511.5999755859</ele>
        <time>2026-07-07T11:13:19.000Z</time>
      </trkpt>
      <trkpt lat="46.20791" lon="6.77801">
        <ele>1512</ele>
        <time>2026-07-07T11:13:21.000Z</time>
      </trkpt>
      <trkpt lat="46.20791" lon="6.77802">
        <ele>1512.1999511719</ele>
        <time>2026-07-07T11:13:22.000Z</time>
      </trkpt>
      <trkpt lat="46.20789" lon="6.77807">
        <ele>1513</ele>
        <time>2026-07-07T11:13:26.000Z</time>
      </trkpt>
      <trkpt lat="46.20787" lon="6.77811">
        <ele>1513.8000488281</ele>
        <time>2026-07-07T11:13:29.000Z</time>
      </trkpt>
      <trkpt lat="46.20785" lon="6.77814">
        <ele>1514.1999511719</ele>
        <time>2026-07-07T11:13:31.000Z</time>
      </trkpt>
      <trkpt lat="46.20785" lon="6.77817">
        <ele>1514.5999755859</ele>
        <time>2026-07-07T11:13:35.000Z</time>
      </trkpt>
      <trkpt lat="46.20785" lon="6.77818">
        <ele>1514.5999755859</ele>
        <time>2026-07-07T11:13:36.000Z</time>
      </trkpt>
      <trkpt lat="46.20789" lon="6.77822">
        <ele>1514.5999755859</ele>
        <time>2026-07-07T11:13:42.000Z</time>
      </trkpt>
      <trkpt lat="46.20791" lon="6.77822">
        <ele>1514.5999755859</ele>
        <time>2026-07-07T11:13:47.000Z</time>
      </trkpt>
      <trkpt lat="46.20792" lon="6.77822">
        <ele>1514.5999755859</ele>
        <time>2026-07-07T11:13:50.000Z</time>
      </trkpt>
      <trkpt lat="46.20792" lon="6.77821">
        <ele>1514.4000244141</ele>
        <time>2026-07-07T11:13:54.000Z</time>
      </trkpt>
      <trkpt lat="46.20792" lon="6.77821">
        <ele>1514.4000244141</ele>
        <time>2026-07-07T11:13:56.000Z</time>
      </trkpt>
      <trkpt lat="46.20792" lon="6.7782">
        <ele>1514.4000244141</ele>
        <time>2026-07-07T11:13:58.000Z</time>
      </trkpt>
      <trkpt lat="46.20793" lon="6.77821">
        <ele>1514.4000244141</ele>
        <time>2026-07-07T11:14:09.000Z</time>
      </trkpt>
      <trkpt lat="46.20793" lon="6.7782">
        <ele>1514.4000244141</ele>
        <time>2026-07-07T11:14:15.000Z</time>
      </trkpt>
      <trkpt lat="46.20794" lon="6.77819">
        <ele>1514.4000244141</ele>
        <time>2026-07-07T11:14:16.000Z</time>
      </trkpt>
      <trkpt lat="46.20794" lon="6.77818">
        <ele>1514.4000244141</ele>
        <time>2026-07-07T11:14:17.000Z</time>
      </trkpt>
      <trkpt lat="46.20794" lon="6.77818">
        <ele>1514.4000244141</ele>
        <time>2026-07-07T11:14:18.000Z</time>
      </trkpt>
      <trkpt lat="46.20794" lon="6.77817">
        <ele>1514.1999511719</ele>
        <time>2026-07-07T11:14:19.000Z</time>
      </trkpt>
      <trkpt lat="46.20794" lon="6.77817">
        <ele>1514.1999511719</ele>
        <time>2026-07-07T11:14:21.000Z</time>
      </trkpt>
      <trkpt lat="46.20794" lon="6.77818">
        <ele>1514.1999511719</ele>
        <time>2026-07-07T11:14:24.000Z</time>
      </trkpt>
      <trkpt lat="46.20795" lon="6.77818">
        <ele>1514.4000244141</ele>
        <time>2026-07-07T11:14:27.000Z</time>
      </trkpt>
      <trkpt lat="46.20795" lon="6.77819">
        <ele>1514.4000244141</ele>
        <time>2026-07-07T11:14:29.000Z</time>
      </trkpt>
      <trkpt lat="46.20792" lon="6.77823">
        <ele>1514.4000244141</ele>
        <time>2026-07-07T11:14:36.000Z</time>
      </trkpt>
      <trkpt lat="46.20792" lon="6.7782">
        <ele>1514.4000244141</ele>
        <time>2026-07-07T11:14:40.000Z</time>
      </trkpt>
      <trkpt lat="46.20792" lon="6.77819">
        <ele>1514.5999755859</ele>
        <time>2026-07-07T11:14:44.000Z</time>
      </trkpt>
      <trkpt lat="46.20791" lon="6.77817">
        <ele>1514.4000244141</ele>
        <time>2026-07-07T11:14:49.000Z</time>
      </trkpt>
      <trkpt lat="46.20791" lon="6.77817">
        <ele>1514.1999511719</ele>
        <time>2026-07-07T11:14:51.000Z</time>
      </trkpt>
      <trkpt lat="46.20791" lon="6.77819">
        <ele>1514.4000244141</ele>
        <time>2026-07-07T11:14:55.000Z</time>
      </trkpt>
      <trkpt lat="46.20793" lon="6.77819">
        <ele>1514.1999511719</ele>
        <time>2026-07-07T11:15:06.000Z</time>
      </trkpt>
      <trkpt lat="46.20794" lon="6.77815">
        <ele>1514.1999511719</ele>
        <time>2026-07-07T11:15:15.000Z</time>
      </trkpt>
      <trkpt lat="46.20795" lon="6.77816">
        <ele>1514.1999511719</ele>
        <time>2026-07-07T11:15:25.000Z</time>
      </trkpt>
      <trkpt lat="46.20792" lon="6.77817">
        <ele>1514.1999511719</ele>
        <time>2026-07-07T11:15:36.000Z</time>
      </trkpt>
      <trkpt lat="46.20791" lon="6.77813">
        <ele>1514</ele>
        <time>2026-07-07T11:15:43.000Z</time>
      </trkpt>
      <trkpt lat="46.20792" lon="6.7781">
        <ele>1514</ele>
        <time>2026-07-07T11:15:48.000Z</time>
      </trkpt>
      <trkpt lat="46.20792" lon="6.77808">
        <ele>1514</ele>
        <time>2026-07-07T11:15:51.000Z</time>
      </trkpt>
      <trkpt lat="46.20793" lon="6.77804">
        <ele>1514.1999511719</ele>
        <time>2026-07-07T11:16:00.000Z</time>
      </trkpt>
      <trkpt lat="46.20795" lon="6.778">
        <ele>1514</ele>
        <time>2026-07-07T11:16:09.000Z</time>
      </trkpt>
      <trkpt lat="46.20796" lon="6.77801">
        <ele>1514.1999511719</ele>
        <time>2026-07-07T11:16:21.000Z</time>
      </trkpt>
      <trkpt lat="46.20797" lon="6.77806">
        <ele>1514</ele>
        <time>2026-07-07T11:16:29.000Z</time>
      </trkpt>
      <trkpt lat="46.20796" lon="6.77806">
        <ele>1514</ele>
        <time>2026-07-07T11:16:31.000Z</time>
      </trkpt>
      <trkpt lat="46.20796" lon="6.77805">
        <ele>1514</ele>
        <time>2026-07-07T11:16:38.000Z</time>
      </trkpt>
      <trkpt lat="46.20794" lon="6.77803">
        <ele>1514</ele>
        <time>2026-07-07T11:16:46.000Z</time>
      </trkpt>
      <trkpt lat="46.20795" lon="6.77801">
        <ele>1513.8000488281</ele>
        <time>2026-07-07T11:16:52.000Z</time>
      </trkpt>
      <trkpt lat="46.20798" lon="6.77793">
        <ele>1514</ele>
        <time>2026-07-07T11:16:56.000Z</time>
      </trkpt>
      <trkpt lat="46.20808" lon="6.77768">
        <ele>1514.4000244141</ele>
        <time>2026-07-07T11:17:01.000Z</time>
      </trkpt>
      <trkpt lat="46.20815" lon="6.77749">
        <ele>1515.1999511719</ele>
        <time>2026-07-07T11:17:05.000Z</time>
      </trkpt>
      <trkpt lat="46.2082" lon="6.77736">
        <ele>1516</ele>
        <time>2026-07-07T11:17:08.000Z</time>
      </trkpt>
      <trkpt lat="46.2083" lon="6.77709">
        <ele>1515.8000488281</ele>
        <time>2026-07-07T11:17:14.000Z</time>
      </trkpt>
      <trkpt lat="46.20837" lon="6.77686">
        <ele>1515.5999755859</ele>
        <time>2026-07-07T11:17:19.000Z</time>
      </trkpt>
      <trkpt lat="46.20847" lon="6.77659">
        <ele>1515.1999511719</ele>
        <time>2026-07-07T11:17:25.000Z</time>
      </trkpt>
      <trkpt lat="46.20856" lon="6.77635">
        <ele>1515.5999755859</ele>
        <time>2026-07-07T11:17:30.000Z</time>
      </trkpt>
      <trkpt lat="46.20858" lon="6.7763">
        <ele>1515.5999755859</ele>
        <time>2026-07-07T11:17:31.000Z</time>
      </trkpt>
      <trkpt lat="46.20868" lon="6.77604">
        <ele>1515.8000488281</ele>
        <time>2026-07-07T11:17:37.000Z</time>
      </trkpt>
      <trkpt lat="46.20874" lon="6.77586">
        <ele>1514.4000244141</ele>
        <time>2026-07-07T11:17:41.000Z</time>
      </trkpt>
      <trkpt lat="46.20875" lon="6.7758">
        <ele>1514</ele>
        <time>2026-07-07T11:17:42.000Z</time>
      </trkpt>
      <trkpt lat="46.20883" lon="6.77556">
        <ele>1513</ele>
        <time>2026-07-07T11:17:47.000Z</time>
      </trkpt>
      <trkpt lat="46.20891" lon="6.77534">
        <ele>1512</ele>
        <time>2026-07-07T11:17:52.000Z</time>
      </trkpt>
      <trkpt lat="46.20897" lon="6.77516">
        <ele>1511.8000488281</ele>
        <time>2026-07-07T11:17:56.000Z</time>
      </trkpt>
      <trkpt lat="46.209" lon="6.77507">
        <ele>1510.8000488281</ele>
        <time>2026-07-07T11:17:58.000Z</time>
      </trkpt>
      <trkpt lat="46.20902" lon="6.77498">
        <ele>1509</ele>
        <time>2026-07-07T11:18:00.000Z</time>
      </trkpt>
      <trkpt lat="46.20904" lon="6.77493">
        <ele>1508.1999511719</ele>
        <time>2026-07-07T11:18:01.000Z</time>
      </trkpt>
      <trkpt lat="46.20905" lon="6.77489">
        <ele>1507.1999511719</ele>
        <time>2026-07-07T11:18:02.000Z</time>
      </trkpt>
      <trkpt lat="46.20908" lon="6.77479">
        <ele>1505.4000244141</ele>
        <time>2026-07-07T11:18:04.000Z</time>
      </trkpt>
      <trkpt lat="46.20911" lon="6.7747">
        <ele>1503.5999755859</ele>
        <time>2026-07-07T11:18:06.000Z</time>
      </trkpt>
      <trkpt lat="46.20914" lon="6.7746">
        <ele>1502</ele>
        <time>2026-07-07T11:18:08.000Z</time>
      </trkpt>
      <trkpt lat="46.20917" lon="6.77451">
        <ele>1500.5999755859</ele>
        <time>2026-07-07T11:18:10.000Z</time>
      </trkpt>
      <trkpt lat="46.2092" lon="6.77442">
        <ele>1499.1999511719</ele>
        <time>2026-07-07T11:18:12.000Z</time>
      </trkpt>
      <trkpt lat="46.20923" lon="6.77433">
        <ele>1497.8000488281</ele>
        <time>2026-07-07T11:18:14.000Z</time>
      </trkpt>
      <trkpt lat="46.20926" lon="6.77424">
        <ele>1496.4000244141</ele>
        <time>2026-07-07T11:18:16.000Z</time>
      </trkpt>
      <trkpt lat="46.20929" lon="6.77415">
        <ele>1494.8000488281</ele>
        <time>2026-07-07T11:18:18.000Z</time>
      </trkpt>
      <trkpt lat="46.20932" lon="6.77406">
        <ele>1493.4000244141</ele>
        <time>2026-07-07T11:18:20.000Z</time>
      </trkpt>
      <trkpt lat="46.20935" lon="6.77396">
        <ele>1492</ele>
        <time>2026-07-07T11:18:22.000Z</time>
      </trkpt>
      <trkpt lat="46.20938" lon="6.77387">
        <ele>1490.5999755859</ele>
        <time>2026-07-07T11:18:24.000Z</time>
      </trkpt>
      <trkpt lat="46.20941" lon="6.77377">
        <ele>1489.1999511719</ele>
        <time>2026-07-07T11:18:26.000Z</time>
      </trkpt>
      <trkpt lat="46.20944" lon="6.77368">
        <ele>1488</ele>
        <time>2026-07-07T11:18:28.000Z</time>
      </trkpt>
      <trkpt lat="46.20949" lon="6.77354">
        <ele>1486.5999755859</ele>
        <time>2026-07-07T11:18:31.000Z</time>
      </trkpt>
      <trkpt lat="46.20952" lon="6.77345">
        <ele>1485.5999755859</ele>
        <time>2026-07-07T11:18:33.000Z</time>
      </trkpt>
      <trkpt lat="46.20955" lon="6.77337">
        <ele>1484.1999511719</ele>
        <time>2026-07-07T11:18:35.000Z</time>
      </trkpt>
      <trkpt lat="46.20958" lon="6.77329">
        <ele>1482.8000488281</ele>
        <time>2026-07-07T11:18:37.000Z</time>
      </trkpt>
      <trkpt lat="46.2096" lon="6.77321">
        <ele>1481.1999511719</ele>
        <time>2026-07-07T11:18:39.000Z</time>
      </trkpt>
      <trkpt lat="46.20962" lon="6.77314">
        <ele>1479.5999755859</ele>
        <time>2026-07-07T11:18:41.000Z</time>
      </trkpt>
      <trkpt lat="46.20965" lon="6.77305">
        <ele>1477.8000488281</ele>
        <time>2026-07-07T11:18:43.000Z</time>
      </trkpt>
      <trkpt lat="46.20967" lon="6.77297">
        <ele>1476</ele>
        <time>2026-07-07T11:18:45.000Z</time>
      </trkpt>
      <trkpt lat="46.20969" lon="6.77292">
        <ele>1475.1999511719</ele>
        <time>2026-07-07T11:18:46.000Z</time>
      </trkpt>
      <trkpt lat="46.2097" lon="6.77288">
        <ele>1474.1999511719</ele>
        <time>2026-07-07T11:18:47.000Z</time>
      </trkpt>
      <trkpt lat="46.20973" lon="6.77278">
        <ele>1472.5999755859</ele>
        <time>2026-07-07T11:18:49.000Z</time>
      </trkpt>
      <trkpt lat="46.20977" lon="6.77268">
        <ele>1470.8000488281</ele>
        <time>2026-07-07T11:18:51.000Z</time>
      </trkpt>
      <trkpt lat="46.2098" lon="6.77258">
        <ele>1469.4000244141</ele>
        <time>2026-07-07T11:18:53.000Z</time>
      </trkpt>
      <trkpt lat="46.20983" lon="6.77249">
        <ele>1468</ele>
        <time>2026-07-07T11:18:55.000Z</time>
      </trkpt>
      <trkpt lat="46.20987" lon="6.77237">
        <ele>1466.4000244141</ele>
        <time>2026-07-07T11:18:57.000Z</time>
      </trkpt>
      <trkpt lat="46.20991" lon="6.77226">
        <ele>1465</ele>
        <time>2026-07-07T11:18:59.000Z</time>
      </trkpt>
      <trkpt lat="46.20994" lon="6.77216">
        <ele>1463.5999755859</ele>
        <time>2026-07-07T11:19:01.000Z</time>
      </trkpt>
      <trkpt lat="46.20997" lon="6.77208">
        <ele>1462</ele>
        <time>2026-07-07T11:19:03.000Z</time>
      </trkpt>
      <trkpt lat="46.21" lon="6.77198">
        <ele>1460.5999755859</ele>
        <time>2026-07-07T11:19:05.000Z</time>
      </trkpt>
      <trkpt lat="46.21002" lon="6.7719">
        <ele>1459.1999511719</ele>
        <time>2026-07-07T11:19:07.000Z</time>
      </trkpt>
      <trkpt lat="46.21006" lon="6.77181">
        <ele>1457.8000488281</ele>
        <time>2026-07-07T11:19:09.000Z</time>
      </trkpt>
      <trkpt lat="46.21009" lon="6.77172">
        <ele>1456.5999755859</ele>
        <time>2026-07-07T11:19:11.000Z</time>
      </trkpt>
      <trkpt lat="46.21012" lon="6.77164">
        <ele>1455.4000244141</ele>
        <time>2026-07-07T11:19:13.000Z</time>
      </trkpt>
      <trkpt lat="46.21015" lon="6.77155">
        <ele>1454.1999511719</ele>
        <time>2026-07-07T11:19:15.000Z</time>
      </trkpt>
      <trkpt lat="46.21019" lon="6.77147">
        <ele>1453</ele>
        <time>2026-07-07T11:19:17.000Z</time>
      </trkpt>
      <trkpt lat="46.21021" lon="6.77139">
        <ele>1452</ele>
        <time>2026-07-07T11:19:19.000Z</time>
      </trkpt>
      <trkpt lat="46.21024" lon="6.77131">
        <ele>1450.5999755859</ele>
        <time>2026-07-07T11:19:21.000Z</time>
      </trkpt>
      <trkpt lat="46.21027" lon="6.77121">
        <ele>1448.8000488281</ele>
        <time>2026-07-07T11:19:23.000Z</time>
      </trkpt>
      <trkpt lat="46.21028" lon="6.77117">
        <ele>1447.8000488281</ele>
        <time>2026-07-07T11:19:24.000Z</time>
      </trkpt>
      <trkpt lat="46.21029" lon="6.77112">
        <ele>1446.5999755859</ele>
        <time>2026-07-07T11:19:25.000Z</time>
      </trkpt>
      <trkpt lat="46.21031" lon="6.77108">
        <ele>1445.4000244141</ele>
        <time>2026-07-07T11:19:26.000Z</time>
      </trkpt>
      <trkpt lat="46.21032" lon="6.77103">
        <ele>1444.1999511719</ele>
        <time>2026-07-07T11:19:27.000Z</time>
      </trkpt>
      <trkpt lat="46.21033" lon="6.77099">
        <ele>1443</ele>
        <time>2026-07-07T11:19:28.000Z</time>
      </trkpt>
      <trkpt lat="46.21035" lon="6.77094">
        <ele>1442</ele>
        <time>2026-07-07T11:19:29.000Z</time>
      </trkpt>
      <trkpt lat="46.21036" lon="6.7709">
        <ele>1440.8000488281</ele>
        <time>2026-07-07T11:19:30.000Z</time>
      </trkpt>
      <trkpt lat="46.21038" lon="6.77085">
        <ele>1439.5999755859</ele>
        <time>2026-07-07T11:19:31.000Z</time>
      </trkpt>
      <trkpt lat="46.2104" lon="6.77081">
        <ele>1438.4000244141</ele>
        <time>2026-07-07T11:19:32.000Z</time>
      </trkpt>
      <trkpt lat="46.21041" lon="6.77076">
        <ele>1437.1999511719</ele>
        <time>2026-07-07T11:19:33.000Z</time>
      </trkpt>
      <trkpt lat="46.21043" lon="6.77071">
        <ele>1436</ele>
        <time>2026-07-07T11:19:34.000Z</time>
      </trkpt>
      <trkpt lat="46.21045" lon="6.77067">
        <ele>1434.8000488281</ele>
        <time>2026-07-07T11:19:35.000Z</time>
      </trkpt>
      <trkpt lat="46.21047" lon="6.77063">
        <ele>1433.8000488281</ele>
        <time>2026-07-07T11:19:36.000Z</time>
      </trkpt>
      <trkpt lat="46.21049" lon="6.77058">
        <ele>1432.8000488281</ele>
        <time>2026-07-07T11:19:37.000Z</time>
      </trkpt>
      <trkpt lat="46.21051" lon="6.77054">
        <ele>1431.8000488281</ele>
        <time>2026-07-07T11:19:38.000Z</time>
      </trkpt>
      <trkpt lat="46.21052" lon="6.77049">
        <ele>1430.8000488281</ele>
        <time>2026-07-07T11:19:39.000Z</time>
      </trkpt>
      <trkpt lat="46.21054" lon="6.77045">
        <ele>1429.8000488281</ele>
        <time>2026-07-07T11:19:40.000Z</time>
      </trkpt>
      <trkpt lat="46.21056" lon="6.77041">
        <ele>1428.8000488281</ele>
        <time>2026-07-07T11:19:41.000Z</time>
      </trkpt>
      <trkpt lat="46.2106" lon="6.77031">
        <ele>1426.5999755859</ele>
        <time>2026-07-07T11:19:43.000Z</time>
      </trkpt>
      <trkpt lat="46.21061" lon="6.77026">
        <ele>1425.4000244141</ele>
        <time>2026-07-07T11:19:44.000Z</time>
      </trkpt>
      <trkpt lat="46.21063" lon="6.77021">
        <ele>1424.4000244141</ele>
        <time>2026-07-07T11:19:45.000Z</time>
      </trkpt>
      <trkpt lat="46.21064" lon="6.77016">
        <ele>1423.1999511719</ele>
        <time>2026-07-07T11:19:46.000Z</time>
      </trkpt>
      <trkpt lat="46.21065" lon="6.77012">
        <ele>1422.1999511719</ele>
        <time>2026-07-07T11:19:47.000Z</time>
      </trkpt>
      <trkpt lat="46.21068" lon="6.77003">
        <ele>1420.4000244141</ele>
        <time>2026-07-07T11:19:49.000Z</time>
      </trkpt>
      <trkpt lat="46.21071" lon="6.76994">
        <ele>1418.5999755859</ele>
        <time>2026-07-07T11:19:51.000Z</time>
      </trkpt>
      <trkpt lat="46.21074" lon="6.76984">
        <ele>1416.8000488281</ele>
        <time>2026-07-07T11:19:53.000Z</time>
      </trkpt>
      <trkpt lat="46.21077" lon="6.76976">
        <ele>1414.8000488281</ele>
        <time>2026-07-07T11:19:55.000Z</time>
      </trkpt>
      <trkpt lat="46.21081" lon="6.76967">
        <ele>1412.8000488281</ele>
        <time>2026-07-07T11:19:57.000Z</time>
      </trkpt>
      <trkpt lat="46.21085" lon="6.76958">
        <ele>1410.8000488281</ele>
        <time>2026-07-07T11:19:59.000Z</time>
      </trkpt>
      <trkpt lat="46.21089" lon="6.7695">
        <ele>1408.8000488281</ele>
        <time>2026-07-07T11:20:01.000Z</time>
      </trkpt>
      <trkpt lat="46.21091" lon="6.76947">
        <ele>1407</ele>
        <time>2026-07-07T11:20:03.000Z</time>
      </trkpt>
      <trkpt lat="46.21091" lon="6.76946">
        <ele>1406.1999511719</ele>
        <time>2026-07-07T11:20:04.000Z</time>
      </trkpt>
      <trkpt lat="46.21091" lon="6.76947">
        <ele>1405.8000488281</ele>
        <time>2026-07-07T11:20:05.000Z</time>
      </trkpt>
      <trkpt lat="46.21089" lon="6.76948">
        <ele>1405.5999755859</ele>
        <time>2026-07-07T11:20:12.000Z</time>
      </trkpt>
      <trkpt lat="46.21088" lon="6.76949">
        <ele>1405.5999755859</ele>
        <time>2026-07-07T11:20:18.000Z</time>
      </trkpt>
      <trkpt lat="46.21089" lon="6.76947">
        <ele>1405.5999755859</ele>
        <time>2026-07-07T11:20:22.000Z</time>
      </trkpt>
      <trkpt lat="46.2109" lon="6.76947">
        <ele>1405.5999755859</ele>
        <time>2026-07-07T11:20:30.000Z</time>
      </trkpt>
      <trkpt lat="46.2109" lon="6.76947">
        <ele>1405.4000244141</ele>
        <time>2026-07-07T11:20:33.000Z</time>
      </trkpt>
      <trkpt lat="46.21089" lon="6.76944">
        <ele>1405.8000488281</ele>
        <time>2026-07-07T11:20:45.000Z</time>
      </trkpt>
      <trkpt lat="46.21089" lon="6.76944">
        <ele>1406.1999511719</ele>
        <time>2026-07-07T11:20:49.000Z</time>
      </trkpt>
      <trkpt lat="46.21092" lon="6.76944">
        <ele>1406</ele>
        <time>2026-07-07T11:20:54.000Z</time>
      </trkpt>
      <trkpt lat="46.21096" lon="6.76936">
        <ele>1404.5999755859</ele>
        <time>2026-07-07T11:21:00.000Z</time>
      </trkpt>
      <trkpt lat="46.21098" lon="6.76929">
        <ele>1403.4000244141</ele>
        <time>2026-07-07T11:21:03.000Z</time>
      </trkpt>
      <trkpt lat="46.21101" lon="6.76919">
        <ele>1402</ele>
        <time>2026-07-07T11:21:06.000Z</time>
      </trkpt>
      <trkpt lat="46.21103" lon="6.76911">
        <ele>1401</ele>
        <time>2026-07-07T11:21:08.000Z</time>
      </trkpt>
      <trkpt lat="46.21106" lon="6.76903">
        <ele>1399.5999755859</ele>
        <time>2026-07-07T11:21:10.000Z</time>
      </trkpt>
      <trkpt lat="46.21109" lon="6.76895">
        <ele>1397.8000488281</ele>
        <time>2026-07-07T11:21:12.000Z</time>
      </trkpt>
      <trkpt lat="46.21111" lon="6.76891">
        <ele>1396.5999755859</ele>
        <time>2026-07-07T11:21:13.000Z</time>
      </trkpt>
      <trkpt lat="46.21112" lon="6.76887">
        <ele>1395.1999511719</ele>
        <time>2026-07-07T11:21:14.000Z</time>
      </trkpt>
      <trkpt lat="46.21114" lon="6.76882">
        <ele>1393.8000488281</ele>
        <time>2026-07-07T11:21:15.000Z</time>
      </trkpt>
      <trkpt lat="46.21115" lon="6.76878">
        <ele>1392.4000244141</ele>
        <time>2026-07-07T11:21:16.000Z</time>
      </trkpt>
      <trkpt lat="46.21117" lon="6.76874">
        <ele>1391</ele>
        <time>2026-07-07T11:21:17.000Z</time>
      </trkpt>
      <trkpt lat="46.21118" lon="6.7687">
        <ele>1389.8000488281</ele>
        <time>2026-07-07T11:21:18.000Z</time>
      </trkpt>
      <trkpt lat="46.2112" lon="6.76865">
        <ele>1388.4000244141</ele>
        <time>2026-07-07T11:21:19.000Z</time>
      </trkpt>
      <trkpt lat="46.21121" lon="6.76861">
        <ele>1387.1999511719</ele>
        <time>2026-07-07T11:21:20.000Z</time>
      </trkpt>
      <trkpt lat="46.21123" lon="6.76857">
        <ele>1385.8000488281</ele>
        <time>2026-07-07T11:21:21.000Z</time>
      </trkpt>
      <trkpt lat="46.21125" lon="6.76852">
        <ele>1384.5999755859</ele>
        <time>2026-07-07T11:21:22.000Z</time>
      </trkpt>
      <trkpt lat="46.21126" lon="6.7685">
        <ele>1383.1999511719</ele>
        <time>2026-07-07T11:21:23.000Z</time>
      </trkpt>
      <trkpt lat="46.21127" lon="6.76845">
        <ele>1381.8000488281</ele>
        <time>2026-07-07T11:21:24.000Z</time>
      </trkpt>
      <trkpt lat="46.21128" lon="6.7684">
        <ele>1380.4000244141</ele>
        <time>2026-07-07T11:21:25.000Z</time>
      </trkpt>
      <trkpt lat="46.2113" lon="6.76836">
        <ele>1378.8000488281</ele>
        <time>2026-07-07T11:21:26.000Z</time>
      </trkpt>
      <trkpt lat="46.21132" lon="6.76831">
        <ele>1377.1999511719</ele>
        <time>2026-07-07T11:21:27.000Z</time>
      </trkpt>
      <trkpt lat="46.21133" lon="6.76826">
        <ele>1375.4000244141</ele>
        <time>2026-07-07T11:21:28.000Z</time>
      </trkpt>
      <trkpt lat="46.21135" lon="6.76822">
        <ele>1373.8000488281</ele>
        <time>2026-07-07T11:21:29.000Z</time>
      </trkpt>
      <trkpt lat="46.21136" lon="6.76817">
        <ele>1372</ele>
        <time>2026-07-07T11:21:30.000Z</time>
      </trkpt>
      <trkpt lat="46.21137" lon="6.76812">
        <ele>1370.4000244141</ele>
        <time>2026-07-07T11:21:31.000Z</time>
      </trkpt>
      <trkpt lat="46.21138" lon="6.76808">
        <ele>1368.8000488281</ele>
        <time>2026-07-07T11:21:32.000Z</time>
      </trkpt>
      <trkpt lat="46.2114" lon="6.76803">
        <ele>1367.1999511719</ele>
        <time>2026-07-07T11:21:33.000Z</time>
      </trkpt>
      <trkpt lat="46.21141" lon="6.76798">
        <ele>1365.5999755859</ele>
        <time>2026-07-07T11:21:34.000Z</time>
      </trkpt>
      <trkpt lat="46.21142" lon="6.76794">
        <ele>1364.1999511719</ele>
        <time>2026-07-07T11:21:35.000Z</time>
      </trkpt>
      <trkpt lat="46.21143" lon="6.7679">
        <ele>1362.4000244141</ele>
        <time>2026-07-07T11:21:36.000Z</time>
      </trkpt>
      <trkpt lat="46.21145" lon="6.76786">
        <ele>1361</ele>
        <time>2026-07-07T11:21:37.000Z</time>
      </trkpt>
      <trkpt lat="46.21146" lon="6.76782">
        <ele>1359.1999511719</ele>
        <time>2026-07-07T11:21:38.000Z</time>
      </trkpt>
      <trkpt lat="46.21148" lon="6.76778">
        <ele>1357.5999755859</ele>
        <time>2026-07-07T11:21:39.000Z</time>
      </trkpt>
      <trkpt lat="46.21149" lon="6.76775">
        <ele>1355.8000488281</ele>
        <time>2026-07-07T11:21:40.000Z</time>
      </trkpt>
      <trkpt lat="46.21151" lon="6.76772">
        <ele>1354.1999511719</ele>
        <time>2026-07-07T11:21:41.000Z</time>
      </trkpt>
      <trkpt lat="46.21152" lon="6.76768">
        <ele>1352.4000244141</ele>
        <time>2026-07-07T11:21:42.000Z</time>
      </trkpt>
      <trkpt lat="46.21154" lon="6.76764">
        <ele>1350.5999755859</ele>
        <time>2026-07-07T11:21:43.000Z</time>
      </trkpt>
      <trkpt lat="46.21155" lon="6.7676">
        <ele>1349</ele>
        <time>2026-07-07T11:21:44.000Z</time>
      </trkpt>
      <trkpt lat="46.21157" lon="6.76756">
        <ele>1347.1999511719</ele>
        <time>2026-07-07T11:21:45.000Z</time>
      </trkpt>
      <trkpt lat="46.21158" lon="6.76752">
        <ele>1345.5999755859</ele>
        <time>2026-07-07T11:21:46.000Z</time>
      </trkpt>
      <trkpt lat="46.21159" lon="6.76748">
        <ele>1344</ele>
        <time>2026-07-07T11:21:47.000Z</time>
      </trkpt>
      <trkpt lat="46.2116" lon="6.76743">
        <ele>1342.1999511719</ele>
        <time>2026-07-07T11:21:48.000Z</time>
      </trkpt>
      <trkpt lat="46.21162" lon="6.76739">
        <ele>1340.5999755859</ele>
        <time>2026-07-07T11:21:49.000Z</time>
      </trkpt>
      <trkpt lat="46.21163" lon="6.76735">
        <ele>1339</ele>
        <time>2026-07-07T11:21:50.000Z</time>
      </trkpt>
      <trkpt lat="46.21165" lon="6.76731">
        <ele>1337.5999755859</ele>
        <time>2026-07-07T11:21:51.000Z</time>
      </trkpt>
      <trkpt lat="46.21166" lon="6.76728">
        <ele>1336.1999511719</ele>
        <time>2026-07-07T11:21:52.000Z</time>
      </trkpt>
      <trkpt lat="46.21167" lon="6.76723">
        <ele>1334.5999755859</ele>
        <time>2026-07-07T11:21:53.000Z</time>
      </trkpt>
      <trkpt lat="46.21168" lon="6.76719">
        <ele>1333.1999511719</ele>
        <time>2026-07-07T11:21:54.000Z</time>
      </trkpt>
      <trkpt lat="46.2117" lon="6.76713">
        <ele>1331.8000488281</ele>
        <time>2026-07-07T11:21:55.000Z</time>
      </trkpt>
      <trkpt lat="46.21171" lon="6.7671">
        <ele>1330.4000244141</ele>
        <time>2026-07-07T11:21:56.000Z</time>
      </trkpt>
      <trkpt lat="46.21172" lon="6.76705">
        <ele>1328.8000488281</ele>
        <time>2026-07-07T11:21:57.000Z</time>
      </trkpt>
      <trkpt lat="46.21173" lon="6.767">
        <ele>1327.1999511719</ele>
        <time>2026-07-07T11:21:58.000Z</time>
      </trkpt>
      <trkpt lat="46.21175" lon="6.76696">
        <ele>1325.8000488281</ele>
        <time>2026-07-07T11:21:59.000Z</time>
      </trkpt>
      <trkpt lat="46.21176" lon="6.76691">
        <ele>1324.4000244141</ele>
        <time>2026-07-07T11:22:00.000Z</time>
      </trkpt>
      <trkpt lat="46.21178" lon="6.76686">
        <ele>1322.8000488281</ele>
        <time>2026-07-07T11:22:01.000Z</time>
      </trkpt>
      <trkpt lat="46.21179" lon="6.76681">
        <ele>1321.4000244141</ele>
        <time>2026-07-07T11:22:02.000Z</time>
      </trkpt>
      <trkpt lat="46.21181" lon="6.76676">
        <ele>1319.8000488281</ele>
        <time>2026-07-07T11:22:03.000Z</time>
      </trkpt>
      <trkpt lat="46.21182" lon="6.76672">
        <ele>1318.4000244141</ele>
        <time>2026-07-07T11:22:04.000Z</time>
      </trkpt>
      <trkpt lat="46.21184" lon="6.76667">
        <ele>1316.8000488281</ele>
        <time>2026-07-07T11:22:05.000Z</time>
      </trkpt>
      <trkpt lat="46.21185" lon="6.76662">
        <ele>1315.4000244141</ele>
        <time>2026-07-07T11:22:06.000Z</time>
      </trkpt>
      <trkpt lat="46.21187" lon="6.76657">
        <ele>1314</ele>
        <time>2026-07-07T11:22:07.000Z</time>
      </trkpt>
      <trkpt lat="46.21188" lon="6.76652">
        <ele>1312.5999755859</ele>
        <time>2026-07-07T11:22:08.000Z</time>
      </trkpt>
      <trkpt lat="46.2119" lon="6.76647">
        <ele>1311.1999511719</ele>
        <time>2026-07-07T11:22:09.000Z</time>
      </trkpt>
      <trkpt lat="46.21192" lon="6.76643">
        <ele>1309.8000488281</ele>
        <time>2026-07-07T11:22:10.000Z</time>
      </trkpt>
      <trkpt lat="46.21194" lon="6.76638">
        <ele>1308.1999511719</ele>
        <time>2026-07-07T11:22:11.000Z</time>
      </trkpt>
      <trkpt lat="46.21196" lon="6.76634">
        <ele>1306.8000488281</ele>
        <time>2026-07-07T11:22:12.000Z</time>
      </trkpt>
      <trkpt lat="46.21197" lon="6.76629">
        <ele>1305.4000244141</ele>
        <time>2026-07-07T11:22:13.000Z</time>
      </trkpt>
      <trkpt lat="46.21199" lon="6.76625">
        <ele>1304</ele>
        <time>2026-07-07T11:22:14.000Z</time>
      </trkpt>
      <trkpt lat="46.212" lon="6.76621">
        <ele>1302.5999755859</ele>
        <time>2026-07-07T11:22:15.000Z</time>
      </trkpt>
      <trkpt lat="46.21202" lon="6.76617">
        <ele>1301.4000244141</ele>
        <time>2026-07-07T11:22:16.000Z</time>
      </trkpt>
      <trkpt lat="46.21203" lon="6.76612">
        <ele>1300</ele>
        <time>2026-07-07T11:22:17.000Z</time>
      </trkpt>
      <trkpt lat="46.21205" lon="6.76608">
        <ele>1298.8000488281</ele>
        <time>2026-07-07T11:22:18.000Z</time>
      </trkpt>
      <trkpt lat="46.21207" lon="6.76603">
        <ele>1297.5999755859</ele>
        <time>2026-07-07T11:22:19.000Z</time>
      </trkpt>
      <trkpt lat="46.21208" lon="6.76599">
        <ele>1296.4000244141</ele>
        <time>2026-07-07T11:22:20.000Z</time>
      </trkpt>
      <trkpt lat="46.2121" lon="6.76594">
        <ele>1295.1999511719</ele>
        <time>2026-07-07T11:22:21.000Z</time>
      </trkpt>
      <trkpt lat="46.21211" lon="6.7659">
        <ele>1294</ele>
        <time>2026-07-07T11:22:22.000Z</time>
      </trkpt>
      <trkpt lat="46.21213" lon="6.76586">
        <ele>1292.8000488281</ele>
        <time>2026-07-07T11:22:23.000Z</time>
      </trkpt>
      <trkpt lat="46.21215" lon="6.76581">
        <ele>1291.5999755859</ele>
        <time>2026-07-07T11:22:24.000Z</time>
      </trkpt>
      <trkpt lat="46.21216" lon="6.76577">
        <ele>1290.4000244141</ele>
        <time>2026-07-07T11:22:25.000Z</time>
      </trkpt>
      <trkpt lat="46.21218" lon="6.76573">
        <ele>1289.1999511719</ele>
        <time>2026-07-07T11:22:26.000Z</time>
      </trkpt>
      <trkpt lat="46.21219" lon="6.76569">
        <ele>1288</ele>
        <time>2026-07-07T11:22:27.000Z</time>
      </trkpt>
      <trkpt lat="46.21221" lon="6.76565">
        <ele>1286.8000488281</ele>
        <time>2026-07-07T11:22:28.000Z</time>
      </trkpt>
      <trkpt lat="46.21222" lon="6.7656">
        <ele>1285.5999755859</ele>
        <time>2026-07-07T11:22:29.000Z</time>
      </trkpt>
      <trkpt lat="46.21224" lon="6.76555">
        <ele>1284.4000244141</ele>
        <time>2026-07-07T11:22:30.000Z</time>
      </trkpt>
      <trkpt lat="46.21226" lon="6.76551">
        <ele>1283.1999511719</ele>
        <time>2026-07-07T11:22:31.000Z</time>
      </trkpt>
      <trkpt lat="46.21227" lon="6.76546">
        <ele>1282</ele>
        <time>2026-07-07T11:22:32.000Z</time>
      </trkpt>
      <trkpt lat="46.21229" lon="6.76542">
        <ele>1280.8000488281</ele>
        <time>2026-07-07T11:22:33.000Z</time>
      </trkpt>
      <trkpt lat="46.2123" lon="6.76538">
        <ele>1279.8000488281</ele>
        <time>2026-07-07T11:22:34.000Z</time>
      </trkpt>
      <trkpt lat="46.21231" lon="6.76534">
        <ele>1278.5999755859</ele>
        <time>2026-07-07T11:22:35.000Z</time>
      </trkpt>
      <trkpt lat="46.21233" lon="6.7653">
        <ele>1277.4000244141</ele>
        <time>2026-07-07T11:22:36.000Z</time>
      </trkpt>
      <trkpt lat="46.21234" lon="6.76527">
        <ele>1276.1999511719</ele>
        <time>2026-07-07T11:22:37.000Z</time>
      </trkpt>
      <trkpt lat="46.21235" lon="6.76523">
        <ele>1275.1999511719</ele>
        <time>2026-07-07T11:22:38.000Z</time>
      </trkpt>
      <trkpt lat="46.21237" lon="6.76519">
        <ele>1274</ele>
        <time>2026-07-07T11:22:39.000Z</time>
      </trkpt>
      <trkpt lat="46.21239" lon="6.76515">
        <ele>1273</ele>
        <time>2026-07-07T11:22:40.000Z</time>
      </trkpt>
      <trkpt lat="46.21241" lon="6.76507">
        <ele>1271.1999511719</ele>
        <time>2026-07-07T11:22:42.000Z</time>
      </trkpt>
      <trkpt lat="46.21244" lon="6.76501">
        <ele>1270.1999511719</ele>
        <time>2026-07-07T11:22:43.000Z</time>
      </trkpt>
      <trkpt lat="46.21245" lon="6.76497">
        <ele>1269</ele>
        <time>2026-07-07T11:22:44.000Z</time>
      </trkpt>
      <trkpt lat="46.21247" lon="6.76492">
        <ele>1268</ele>
        <time>2026-07-07T11:22:45.000Z</time>
      </trkpt>
      <trkpt lat="46.21249" lon="6.76487">
        <ele>1266.5999755859</ele>
        <time>2026-07-07T11:22:46.000Z</time>
      </trkpt>
      <trkpt lat="46.21251" lon="6.76483">
        <ele>1265.4000244141</ele>
        <time>2026-07-07T11:22:47.000Z</time>
      </trkpt>
      <trkpt lat="46.21252" lon="6.76479">
        <ele>1264.4000244141</ele>
        <time>2026-07-07T11:22:48.000Z</time>
      </trkpt>
      <trkpt lat="46.21253" lon="6.76475">
        <ele>1263.4000244141</ele>
        <time>2026-07-07T11:22:49.000Z</time>
      </trkpt>
      <trkpt lat="46.21255" lon="6.7647">
        <ele>1262.1999511719</ele>
        <time>2026-07-07T11:22:50.000Z</time>
      </trkpt>
      <trkpt lat="46.21258" lon="6.76462">
        <ele>1260.4000244141</ele>
        <time>2026-07-07T11:22:52.000Z</time>
      </trkpt>
      <trkpt lat="46.21261" lon="6.76454">
        <ele>1258.5999755859</ele>
        <time>2026-07-07T11:22:54.000Z</time>
      </trkpt>
      <trkpt lat="46.21264" lon="6.76445">
        <ele>1256.8000488281</ele>
        <time>2026-07-07T11:22:56.000Z</time>
      </trkpt>
      <trkpt lat="46.21268" lon="6.76436">
        <ele>1255.1999511719</ele>
        <time>2026-07-07T11:22:58.000Z</time>
      </trkpt>
      <trkpt lat="46.21271" lon="6.76427">
        <ele>1253.5999755859</ele>
        <time>2026-07-07T11:23:00.000Z</time>
      </trkpt>
      <trkpt lat="46.21275" lon="6.76417">
        <ele>1252</ele>
        <time>2026-07-07T11:23:02.000Z</time>
      </trkpt>
      <trkpt lat="46.21277" lon="6.76412">
        <ele>1251.1999511719</ele>
        <time>2026-07-07T11:23:03.000Z</time>
      </trkpt>
      <trkpt lat="46.21278" lon="6.76408">
        <ele>1250.4000244141</ele>
        <time>2026-07-07T11:23:04.000Z</time>
      </trkpt>
      <trkpt lat="46.21281" lon="6.76399">
        <ele>1248.5999755859</ele>
        <time>2026-07-07T11:23:06.000Z</time>
      </trkpt>
      <trkpt lat="46.21284" lon="6.7639">
        <ele>1247</ele>
        <time>2026-07-07T11:23:08.000Z</time>
      </trkpt>
      <trkpt lat="46.21286" lon="6.76381">
        <ele>1245.4000244141</ele>
        <time>2026-07-07T11:23:10.000Z</time>
      </trkpt>
      <trkpt lat="46.21288" lon="6.76371">
        <ele>1244</ele>
        <time>2026-07-07T11:23:12.000Z</time>
      </trkpt>
      <trkpt lat="46.21289" lon="6.76367">
        <ele>1243.4000244141</ele>
        <time>2026-07-07T11:23:13.000Z</time>
      </trkpt>
      <trkpt lat="46.21291" lon="6.76363">
        <ele>1242.5999755859</ele>
        <time>2026-07-07T11:23:14.000Z</time>
      </trkpt>
      <trkpt lat="46.21293" lon="6.76354">
        <ele>1241.1999511719</ele>
        <time>2026-07-07T11:23:16.000Z</time>
      </trkpt>
      <trkpt lat="46.21296" lon="6.76345">
        <ele>1239.8000488281</ele>
        <time>2026-07-07T11:23:18.000Z</time>
      </trkpt>
      <trkpt lat="46.21299" lon="6.76337">
        <ele>1238.4000244141</ele>
        <time>2026-07-07T11:23:20.000Z</time>
      </trkpt>
      <trkpt lat="46.21302" lon="6.76328">
        <ele>1237.4000244141</ele>
        <time>2026-07-07T11:23:22.000Z</time>
      </trkpt>
      <trkpt lat="46.21305" lon="6.76319">
        <ele>1236</ele>
        <time>2026-07-07T11:23:24.000Z</time>
      </trkpt>
      <trkpt lat="46.21308" lon="6.7631">
        <ele>1234.4000244141</ele>
        <time>2026-07-07T11:23:26.000Z</time>
      </trkpt>
      <trkpt lat="46.21311" lon="6.76301">
        <ele>1233.1999511719</ele>
        <time>2026-07-07T11:23:28.000Z</time>
      </trkpt>
      <trkpt lat="46.21316" lon="6.76286">
        <ele>1231.5999755859</ele>
        <time>2026-07-07T11:23:31.000Z</time>
      </trkpt>
      <trkpt lat="46.21318" lon="6.76281">
        <ele>1231.1999511719</ele>
        <time>2026-07-07T11:23:32.000Z</time>
      </trkpt>
      <trkpt lat="46.21319" lon="6.76277">
        <ele>1230.5999755859</ele>
        <time>2026-07-07T11:23:33.000Z</time>
      </trkpt>
      <trkpt lat="46.21322" lon="6.76268">
        <ele>1229.4000244141</ele>
        <time>2026-07-07T11:23:35.000Z</time>
      </trkpt>
      <trkpt lat="46.21325" lon="6.76254">
        <ele>1228.1999511719</ele>
        <time>2026-07-07T11:23:38.000Z</time>
      </trkpt>
      <trkpt lat="46.21329" lon="6.76239">
        <ele>1227</ele>
        <time>2026-07-07T11:23:41.000Z</time>
      </trkpt>
      <trkpt lat="46.21332" lon="6.76229">
        <ele>1226</ele>
        <time>2026-07-07T11:23:43.000Z</time>
      </trkpt>
      <trkpt lat="46.21334" lon="6.76224">
        <ele>1225.4000244141</ele>
        <time>2026-07-07T11:23:44.000Z</time>
      </trkpt>
      <trkpt lat="46.21335" lon="6.7622">
        <ele>1224.8000488281</ele>
        <time>2026-07-07T11:23:45.000Z</time>
      </trkpt>
      <trkpt lat="46.2134" lon="6.76204">
        <ele>1223.5999755859</ele>
        <time>2026-07-07T11:23:48.000Z</time>
      </trkpt>
      <trkpt lat="46.21344" lon="6.76193">
        <ele>1222.5999755859</ele>
        <time>2026-07-07T11:23:51.000Z</time>
      </trkpt>
      <trkpt lat="46.21347" lon="6.76185">
        <ele>1221</ele>
        <time>2026-07-07T11:23:53.000Z</time>
      </trkpt>
      <trkpt lat="46.21349" lon="6.76181">
        <ele>1220</ele>
        <time>2026-07-07T11:23:54.000Z</time>
      </trkpt>
      <trkpt lat="46.2135" lon="6.76177">
        <ele>1219</ele>
        <time>2026-07-07T11:23:55.000Z</time>
      </trkpt>
      <trkpt lat="46.21353" lon="6.76168">
        <ele>1217.4000244141</ele>
        <time>2026-07-07T11:23:57.000Z</time>
      </trkpt>
      <trkpt lat="46.21356" lon="6.7616">
        <ele>1215.5999755859</ele>
        <time>2026-07-07T11:23:59.000Z</time>
      </trkpt>
      <trkpt lat="46.21358" lon="6.76153">
        <ele>1213.8000488281</ele>
        <time>2026-07-07T11:24:01.000Z</time>
      </trkpt>
      <trkpt lat="46.21359" lon="6.76149">
        <ele>1213.1999511719</ele>
        <time>2026-07-07T11:24:02.000Z</time>
      </trkpt>
      <trkpt lat="46.21361" lon="6.76146">
        <ele>1212.5999755859</ele>
        <time>2026-07-07T11:24:03.000Z</time>
      </trkpt>
      <trkpt lat="46.21368" lon="6.76136">
        <ele>1212.5999755859</ele>
        <time>2026-07-07T11:24:09.000Z</time>
      </trkpt>
      <trkpt lat="46.21372" lon="6.76129">
        <ele>1212.1999511719</ele>
        <time>2026-07-07T11:24:17.000Z</time>
      </trkpt>
      <trkpt lat="46.21373" lon="6.76128">
        <ele>1212</ele>
        <time>2026-07-07T11:24:18.000Z</time>
      </trkpt>
      <trkpt lat="46.21375" lon="6.76114">
        <ele>1212.1999511719</ele>
        <time>2026-07-07T11:24:27.000Z</time>
      </trkpt>
      <trkpt lat="46.21375" lon="6.76109">
        <ele>1212.1999511719</ele>
        <time>2026-07-07T11:24:32.000Z</time>
      </trkpt>
      <trkpt lat="46.21373" lon="6.76102">
        <ele>1212.1999511719</ele>
        <time>2026-07-07T11:24:37.000Z</time>
      </trkpt>
      <trkpt lat="46.21372" lon="6.76099">
        <ele>1212.1999511719</ele>
        <time>2026-07-07T11:24:38.000Z</time>
      </trkpt>
      <trkpt lat="46.21371" lon="6.76097">
        <ele>1212.1999511719</ele>
        <time>2026-07-07T11:24:40.000Z</time>
      </trkpt>
      <trkpt lat="46.21371" lon="6.76095">
        <ele>1212.4000244141</ele>
        <time>2026-07-07T11:24:42.000Z</time>
      </trkpt>
      <trkpt lat="46.2137" lon="6.7609">
        <ele>1212.1999511719</ele>
        <time>2026-07-07T11:24:45.000Z</time>
      </trkpt>
      <trkpt lat="46.21372" lon="6.76085">
        <ele>1212</ele>
        <time>2026-07-07T11:24:54.000Z</time>
      </trkpt>
      <trkpt lat="46.21375" lon="6.76082">
        <ele>1212.1999511719</ele>
        <time>2026-07-07T11:25:04.000Z</time>
      </trkpt>
      <trkpt lat="46.21374" lon="6.76081">
        <ele>1212.4000244141</ele>
        <time>2026-07-07T11:25:09.000Z</time>
      </trkpt>
      <trkpt lat="46.21375" lon="6.7608">
        <ele>1212.4000244141</ele>
        <time>2026-07-07T11:25:14.000Z</time>
      </trkpt>
      <trkpt lat="46.21378" lon="6.76078">
        <ele>1212.1999511719</ele>
        <time>2026-07-07T11:25:22.000Z</time>
      </trkpt>
      <trkpt lat="46.21383" lon="6.76085">
        <ele>1211.5999755859</ele>
        <time>2026-07-07T11:25:30.000Z</time>
      </trkpt>
      <trkpt lat="46.21386" lon="6.76091">
        <ele>1210.4000244141</ele>
        <time>2026-07-07T11:25:35.000Z</time>
      </trkpt>
      <trkpt lat="46.21389" lon="6.76095">
        <ele>1209.8000488281</ele>
        <time>2026-07-07T11:25:41.000Z</time>
      </trkpt>
      <trkpt lat="46.21389" lon="6.76097">
        <ele>1209.4000244141</ele>
        <time>2026-07-07T11:25:44.000Z</time>
      </trkpt>
      <trkpt lat="46.21391" lon="6.76097">
        <ele>1208.4000244141</ele>
        <time>2026-07-07T11:25:50.000Z</time>
      </trkpt>
      <trkpt lat="46.214" lon="6.76103">
        <ele>1208.5999755859</ele>
        <time>2026-07-07T11:25:57.000Z</time>
      </trkpt>
      <trkpt lat="46.21399" lon="6.76109">
        <ele>1208.5999755859</ele>
        <time>2026-07-07T11:26:06.000Z</time>
      </trkpt>
      <trkpt lat="46.21397" lon="6.76109">
        <ele>1208.4000244141</ele>
        <time>2026-07-07T11:26:10.000Z</time>
      </trkpt>
      <trkpt lat="46.21399" lon="6.76109">
        <ele>1208.8000488281</ele>
        <time>2026-07-07T11:26:17.000Z</time>
      </trkpt>
      <trkpt lat="46.21393" lon="6.7613">
        <ele>1208.5999755859</ele>
        <time>2026-07-07T11:27:39.000Z</time>
      </trkpt>
      <trkpt lat="46.21396" lon="6.76133">
        <ele>1208.4000244141</ele>
        <time>2026-07-07T11:27:42.000Z</time>
      </trkpt>
    </trkseg>
  </trk>
</gpx>